<?xml version="1.0" encoding="UTF-8" standalone="no" ?>
<gpx xmlns="http://www.topografix.com/GPX/1/1" xmlns:xsi="http://www.w3.org/2001/XMLSchema-instance" xsi:schemaLocation="http://www.topografix.com/GPX/1/1 http://www.topografix.com/GPX/1/1/gpx.xsd" version="1.1" creator="VisuGPX - https://www.visugpx.com">
  <metadata>
    <name>laxou</name>
  </metadata>
  <trk>
    <name><![CDATA[laxou_1]]></name>
    <trkseg>
      <trkpt lat="48.68872" lon="6.15136">
        <ele>428</ele>
        <time>2020-10-03T12:24:24Z</time>
      </trkpt>
      <trkpt lat="48.68871" lon="6.15133">
        <ele>428</ele>
        <time>2020-10-03T12:24:25Z</time>
      </trkpt>
      <trkpt lat="48.6887" lon="6.15131">
        <ele>428</ele>
        <time>2020-10-03T12:24:26Z</time>
      </trkpt>
      <trkpt lat="48.6887" lon="6.15129">
        <ele>428.4</ele>
        <time>2020-10-03T12:24:27Z</time>
      </trkpt>
      <trkpt lat="48.68869" lon="6.15127">
        <ele>428.4</ele>
        <time>2020-10-03T12:24:28Z</time>
      </trkpt>
      <trkpt lat="48.68868" lon="6.15126">
        <ele>428.4</ele>
        <time>2020-10-03T12:24:29Z</time>
      </trkpt>
      <trkpt lat="48.68868" lon="6.15124">
        <ele>428.6</ele>
        <time>2020-10-03T12:24:30Z</time>
      </trkpt>
      <trkpt lat="48.68868" lon="6.15123">
        <ele>428.8</ele>
        <time>2020-10-03T12:24:31Z</time>
      </trkpt>
      <trkpt lat="48.68867" lon="6.1512">
        <ele>429</ele>
        <time>2020-10-03T12:24:32Z</time>
      </trkpt>
      <trkpt lat="48.68867" lon="6.15118">
        <ele>429</ele>
        <time>2020-10-03T12:24:33Z</time>
      </trkpt>
      <trkpt lat="48.68867" lon="6.15116">
        <ele>429.2</ele>
        <time>2020-10-03T12:24:34Z</time>
      </trkpt>
      <trkpt lat="48.68866" lon="6.15114">
        <ele>429.2</ele>
        <time>2020-10-03T12:24:35Z</time>
      </trkpt>
      <trkpt lat="48.68866" lon="6.15112">
        <ele>429.2</ele>
        <time>2020-10-03T12:24:36Z</time>
      </trkpt>
      <trkpt lat="48.68866" lon="6.15109">
        <ele>429</ele>
        <time>2020-10-03T12:24:37Z</time>
      </trkpt>
      <trkpt lat="48.68865" lon="6.15107">
        <ele>429.2</ele>
        <time>2020-10-03T12:24:38Z</time>
      </trkpt>
      <trkpt lat="48.68864" lon="6.15105">
        <ele>429.6</ele>
        <time>2020-10-03T12:24:39Z</time>
      </trkpt>
      <trkpt lat="48.68863" lon="6.15103">
        <ele>429.6</ele>
        <time>2020-10-03T12:24:40Z</time>
      </trkpt>
      <trkpt lat="48.68862" lon="6.15101">
        <ele>429.8</ele>
        <time>2020-10-03T12:24:41Z</time>
      </trkpt>
      <trkpt lat="48.68861" lon="6.15099">
        <ele>430.4</ele>
        <time>2020-10-03T12:24:42Z</time>
      </trkpt>
      <trkpt lat="48.6886" lon="6.15097">
        <ele>430.8</ele>
        <time>2020-10-03T12:24:43Z</time>
      </trkpt>
      <trkpt lat="48.68859" lon="6.15095">
        <ele>431</ele>
        <time>2020-10-03T12:24:44Z</time>
      </trkpt>
      <trkpt lat="48.68859" lon="6.15093">
        <ele>430.8</ele>
        <time>2020-10-03T12:24:45Z</time>
      </trkpt>
      <trkpt lat="48.68858" lon="6.1509">
        <ele>430.8</ele>
        <time>2020-10-03T12:24:46Z</time>
      </trkpt>
      <trkpt lat="48.68857" lon="6.15089">
        <ele>431</ele>
        <time>2020-10-03T12:24:47Z</time>
      </trkpt>
      <trkpt lat="48.68856" lon="6.15087">
        <ele>431</ele>
        <time>2020-10-03T12:24:48Z</time>
      </trkpt>
      <trkpt lat="48.68856" lon="6.15082">
        <ele>431.2</ele>
        <time>2020-10-03T12:24:49Z</time>
      </trkpt>
      <trkpt lat="48.68855" lon="6.15077">
        <ele>431.4</ele>
        <time>2020-10-03T12:24:50Z</time>
      </trkpt>
      <trkpt lat="48.68854" lon="6.15074">
        <ele>431.8</ele>
        <time>2020-10-03T12:24:51Z</time>
      </trkpt>
      <trkpt lat="48.68853" lon="6.15071">
        <ele>432</ele>
        <time>2020-10-03T12:24:52Z</time>
      </trkpt>
      <trkpt lat="48.68852" lon="6.15068">
        <ele>432.2</ele>
        <time>2020-10-03T12:24:53Z</time>
      </trkpt>
      <trkpt lat="48.68851" lon="6.15065">
        <ele>432.2</ele>
        <time>2020-10-03T12:24:54Z</time>
      </trkpt>
      <trkpt lat="48.6885" lon="6.15061">
        <ele>432.2</ele>
        <time>2020-10-03T12:24:55Z</time>
      </trkpt>
      <trkpt lat="48.68849" lon="6.15057">
        <ele>432.2</ele>
        <time>2020-10-03T12:24:56Z</time>
      </trkpt>
      <trkpt lat="48.68848" lon="6.15052">
        <ele>432.2</ele>
        <time>2020-10-03T12:24:57Z</time>
      </trkpt>
      <trkpt lat="48.68846" lon="6.15048">
        <ele>432.4</ele>
        <time>2020-10-03T12:24:58Z</time>
      </trkpt>
      <trkpt lat="48.68845" lon="6.15044">
        <ele>432.6</ele>
        <time>2020-10-03T12:24:59Z</time>
      </trkpt>
      <trkpt lat="48.68843" lon="6.1504">
        <ele>432.8</ele>
        <time>2020-10-03T12:25:00Z</time>
      </trkpt>
      <trkpt lat="48.68842" lon="6.15036">
        <ele>433</ele>
        <time>2020-10-03T12:25:01Z</time>
      </trkpt>
      <trkpt lat="48.68841" lon="6.15032">
        <ele>433</ele>
        <time>2020-10-03T12:25:02Z</time>
      </trkpt>
      <trkpt lat="48.6884" lon="6.15028">
        <ele>432.8</ele>
        <time>2020-10-03T12:25:03Z</time>
      </trkpt>
      <trkpt lat="48.68839" lon="6.15024">
        <ele>432.8</ele>
        <time>2020-10-03T12:25:04Z</time>
      </trkpt>
      <trkpt lat="48.68838" lon="6.1502">
        <ele>433</ele>
        <time>2020-10-03T12:25:05Z</time>
      </trkpt>
      <trkpt lat="48.68837" lon="6.15016">
        <ele>433.2</ele>
        <time>2020-10-03T12:25:06Z</time>
      </trkpt>
      <trkpt lat="48.68836" lon="6.15013">
        <ele>433.4</ele>
        <time>2020-10-03T12:25:07Z</time>
      </trkpt>
      <trkpt lat="48.68835" lon="6.15009">
        <ele>433.2</ele>
        <time>2020-10-03T12:25:08Z</time>
      </trkpt>
      <trkpt lat="48.68835" lon="6.15006">
        <ele>433.4</ele>
        <time>2020-10-03T12:25:09Z</time>
      </trkpt>
      <trkpt lat="48.68834" lon="6.15003">
        <ele>433.4</ele>
        <time>2020-10-03T12:25:10Z</time>
      </trkpt>
      <trkpt lat="48.68833" lon="6.14999">
        <ele>433.2</ele>
        <time>2020-10-03T12:25:11Z</time>
      </trkpt>
      <trkpt lat="48.68832" lon="6.14995">
        <ele>433.2</ele>
        <time>2020-10-03T12:25:12Z</time>
      </trkpt>
      <trkpt lat="48.68831" lon="6.14991">
        <ele>433.4</ele>
        <time>2020-10-03T12:25:13Z</time>
      </trkpt>
      <trkpt lat="48.6883" lon="6.14987">
        <ele>433.4</ele>
        <time>2020-10-03T12:25:14Z</time>
      </trkpt>
      <trkpt lat="48.68829" lon="6.14983">
        <ele>433.6</ele>
        <time>2020-10-03T12:25:15Z</time>
      </trkpt>
      <trkpt lat="48.68827" lon="6.14979">
        <ele>433.8</ele>
        <time>2020-10-03T12:25:16Z</time>
      </trkpt>
      <trkpt lat="48.68826" lon="6.14975">
        <ele>433.8</ele>
        <time>2020-10-03T12:25:17Z</time>
      </trkpt>
      <trkpt lat="48.68824" lon="6.1497">
        <ele>434</ele>
        <time>2020-10-03T12:25:18Z</time>
      </trkpt>
      <trkpt lat="48.68823" lon="6.14967">
        <ele>434</ele>
        <time>2020-10-03T12:25:19Z</time>
      </trkpt>
      <trkpt lat="48.68822" lon="6.14963">
        <ele>434</ele>
        <time>2020-10-03T12:25:20Z</time>
      </trkpt>
      <trkpt lat="48.6882" lon="6.1496">
        <ele>433.8</ele>
        <time>2020-10-03T12:25:21Z</time>
      </trkpt>
      <trkpt lat="48.68818" lon="6.14957">
        <ele>433.6</ele>
        <time>2020-10-03T12:25:22Z</time>
      </trkpt>
      <trkpt lat="48.68817" lon="6.14954">
        <ele>433.8</ele>
        <time>2020-10-03T12:25:23Z</time>
      </trkpt>
      <trkpt lat="48.68815" lon="6.1495">
        <ele>434</ele>
        <time>2020-10-03T12:25:24Z</time>
      </trkpt>
      <trkpt lat="48.68815" lon="6.14946">
        <ele>434.2</ele>
        <time>2020-10-03T12:25:25Z</time>
      </trkpt>
      <trkpt lat="48.68814" lon="6.14943">
        <ele>434.8</ele>
        <time>2020-10-03T12:25:26Z</time>
      </trkpt>
      <trkpt lat="48.68812" lon="6.14939">
        <ele>435</ele>
        <time>2020-10-03T12:25:27Z</time>
      </trkpt>
      <trkpt lat="48.68811" lon="6.14935">
        <ele>434.6</ele>
        <time>2020-10-03T12:25:28Z</time>
      </trkpt>
      <trkpt lat="48.6881" lon="6.14932">
        <ele>434.4</ele>
        <time>2020-10-03T12:25:29Z</time>
      </trkpt>
      <trkpt lat="48.68809" lon="6.14928">
        <ele>434.2</ele>
        <time>2020-10-03T12:25:30Z</time>
      </trkpt>
      <trkpt lat="48.68808" lon="6.14925">
        <ele>434.6</ele>
        <time>2020-10-03T12:25:31Z</time>
      </trkpt>
      <trkpt lat="48.68807" lon="6.14921">
        <ele>434.8</ele>
        <time>2020-10-03T12:25:32Z</time>
      </trkpt>
      <trkpt lat="48.68806" lon="6.14918">
        <ele>434.8</ele>
        <time>2020-10-03T12:25:33Z</time>
      </trkpt>
      <trkpt lat="48.68806" lon="6.14914">
        <ele>434.6</ele>
        <time>2020-10-03T12:25:34Z</time>
      </trkpt>
      <trkpt lat="48.68805" lon="6.14909">
        <ele>434.4</ele>
        <time>2020-10-03T12:25:35Z</time>
      </trkpt>
      <trkpt lat="48.68804" lon="6.14906">
        <ele>434.4</ele>
        <time>2020-10-03T12:25:36Z</time>
      </trkpt>
      <trkpt lat="48.68803" lon="6.14902">
        <ele>434.2</ele>
        <time>2020-10-03T12:25:37Z</time>
      </trkpt>
      <trkpt lat="48.68803" lon="6.14898">
        <ele>434.2</ele>
        <time>2020-10-03T12:25:38Z</time>
      </trkpt>
      <trkpt lat="48.68802" lon="6.14894">
        <ele>434.4</ele>
        <time>2020-10-03T12:25:39Z</time>
      </trkpt>
      <trkpt lat="48.68802" lon="6.1489">
        <ele>434.4</ele>
        <time>2020-10-03T12:25:40Z</time>
      </trkpt>
      <trkpt lat="48.68801" lon="6.14887">
        <ele>434.6</ele>
        <time>2020-10-03T12:25:41Z</time>
      </trkpt>
      <trkpt lat="48.688" lon="6.14883">
        <ele>434.6</ele>
        <time>2020-10-03T12:25:42Z</time>
      </trkpt>
      <trkpt lat="48.68799" lon="6.14878">
        <ele>434.6</ele>
        <time>2020-10-03T12:25:43Z</time>
      </trkpt>
      <trkpt lat="48.68798" lon="6.14872">
        <ele>434.6</ele>
        <time>2020-10-03T12:25:44Z</time>
      </trkpt>
      <trkpt lat="48.68797" lon="6.14867">
        <ele>434.6</ele>
        <time>2020-10-03T12:25:45Z</time>
      </trkpt>
      <trkpt lat="48.68796" lon="6.14862">
        <ele>434.8</ele>
        <time>2020-10-03T12:25:46Z</time>
      </trkpt>
      <trkpt lat="48.68795" lon="6.14857">
        <ele>435</ele>
        <time>2020-10-03T12:25:47Z</time>
      </trkpt>
      <trkpt lat="48.68794" lon="6.14853">
        <ele>435</ele>
        <time>2020-10-03T12:25:48Z</time>
      </trkpt>
      <trkpt lat="48.68794" lon="6.14848">
        <ele>434.8</ele>
        <time>2020-10-03T12:25:49Z</time>
      </trkpt>
      <trkpt lat="48.68793" lon="6.14843">
        <ele>434.6</ele>
        <time>2020-10-03T12:25:50Z</time>
      </trkpt>
      <trkpt lat="48.68793" lon="6.14839">
        <ele>434.6</ele>
        <time>2020-10-03T12:25:51Z</time>
      </trkpt>
      <trkpt lat="48.68792" lon="6.14834">
        <ele>434.4</ele>
        <time>2020-10-03T12:25:52Z</time>
      </trkpt>
      <trkpt lat="48.68792" lon="6.1483">
        <ele>434.4</ele>
        <time>2020-10-03T12:25:54Z</time>
      </trkpt>
      <trkpt lat="48.68792" lon="6.14825">
        <ele>434.4</ele>
        <time>2020-10-03T12:25:55Z</time>
      </trkpt>
      <trkpt lat="48.68791" lon="6.1482">
        <ele>434.4</ele>
        <time>2020-10-03T12:25:56Z</time>
      </trkpt>
      <trkpt lat="48.6879" lon="6.14814">
        <ele>434.4</ele>
        <time>2020-10-03T12:25:57Z</time>
      </trkpt>
      <trkpt lat="48.68789" lon="6.14808">
        <ele>434.6</ele>
        <time>2020-10-03T12:25:58Z</time>
      </trkpt>
      <trkpt lat="48.68788" lon="6.14803">
        <ele>434.6</ele>
        <time>2020-10-03T12:25:59Z</time>
      </trkpt>
      <trkpt lat="48.68788" lon="6.14799">
        <ele>434.6</ele>
        <time>2020-10-03T12:26:00Z</time>
      </trkpt>
      <trkpt lat="48.68787" lon="6.14793">
        <ele>434.6</ele>
        <time>2020-10-03T12:26:01Z</time>
      </trkpt>
      <trkpt lat="48.68786" lon="6.14788">
        <ele>434.4</ele>
        <time>2020-10-03T12:26:02Z</time>
      </trkpt>
      <trkpt lat="48.68786" lon="6.14783">
        <ele>434.4</ele>
        <time>2020-10-03T12:26:03Z</time>
      </trkpt>
      <trkpt lat="48.68785" lon="6.14778">
        <ele>434.4</ele>
        <time>2020-10-03T12:26:04Z</time>
      </trkpt>
      <trkpt lat="48.68785" lon="6.14773">
        <ele>434.6</ele>
        <time>2020-10-03T12:26:05Z</time>
      </trkpt>
      <trkpt lat="48.68784" lon="6.14768">
        <ele>434.6</ele>
        <time>2020-10-03T12:26:06Z</time>
      </trkpt>
      <trkpt lat="48.68783" lon="6.14763">
        <ele>434.8</ele>
        <time>2020-10-03T12:26:07Z</time>
      </trkpt>
      <trkpt lat="48.68782" lon="6.14759">
        <ele>434.8</ele>
        <time>2020-10-03T12:26:08Z</time>
      </trkpt>
      <trkpt lat="48.68781" lon="6.14754">
        <ele>434.8</ele>
        <time>2020-10-03T12:26:09Z</time>
      </trkpt>
      <trkpt lat="48.68779" lon="6.14748">
        <ele>435</ele>
        <time>2020-10-03T12:26:10Z</time>
      </trkpt>
      <trkpt lat="48.68778" lon="6.14743">
        <ele>435.2</ele>
        <time>2020-10-03T12:26:11Z</time>
      </trkpt>
      <trkpt lat="48.68777" lon="6.14737">
        <ele>435.4</ele>
        <time>2020-10-03T12:26:12Z</time>
      </trkpt>
      <trkpt lat="48.68776" lon="6.14731">
        <ele>435.4</ele>
        <time>2020-10-03T12:26:13Z</time>
      </trkpt>
      <trkpt lat="48.68775" lon="6.14727">
        <ele>435.4</ele>
        <time>2020-10-03T12:26:14Z</time>
      </trkpt>
      <trkpt lat="48.68775" lon="6.14722">
        <ele>435.4</ele>
        <time>2020-10-03T12:26:15Z</time>
      </trkpt>
      <trkpt lat="48.68775" lon="6.14718">
        <ele>435.4</ele>
        <time>2020-10-03T12:26:16Z</time>
      </trkpt>
      <trkpt lat="48.68775" lon="6.14714">
        <ele>435.6</ele>
        <time>2020-10-03T12:26:17Z</time>
      </trkpt>
      <trkpt lat="48.68774" lon="6.14709">
        <ele>435.6</ele>
        <time>2020-10-03T12:26:18Z</time>
      </trkpt>
      <trkpt lat="48.68774" lon="6.14704">
        <ele>435.6</ele>
        <time>2020-10-03T12:26:19Z</time>
      </trkpt>
      <trkpt lat="48.68773" lon="6.14699">
        <ele>435.6</ele>
        <time>2020-10-03T12:26:20Z</time>
      </trkpt>
      <trkpt lat="48.68772" lon="6.14695">
        <ele>435.8</ele>
        <time>2020-10-03T12:26:21Z</time>
      </trkpt>
      <trkpt lat="48.68771" lon="6.1469">
        <ele>436</ele>
        <time>2020-10-03T12:26:22Z</time>
      </trkpt>
      <trkpt lat="48.6877" lon="6.14685">
        <ele>436</ele>
        <time>2020-10-03T12:26:23Z</time>
      </trkpt>
      <trkpt lat="48.68769" lon="6.14679">
        <ele>436.2</ele>
        <time>2020-10-03T12:26:24Z</time>
      </trkpt>
      <trkpt lat="48.68768" lon="6.14674">
        <ele>436.4</ele>
        <time>2020-10-03T12:26:25Z</time>
      </trkpt>
      <trkpt lat="48.68767" lon="6.14669">
        <ele>436.6</ele>
        <time>2020-10-03T12:26:26Z</time>
      </trkpt>
      <trkpt lat="48.68767" lon="6.14664">
        <ele>436.4</ele>
        <time>2020-10-03T12:26:27Z</time>
      </trkpt>
      <trkpt lat="48.68766" lon="6.14659">
        <ele>436.4</ele>
        <time>2020-10-03T12:26:28Z</time>
      </trkpt>
      <trkpt lat="48.68765" lon="6.14654">
        <ele>436.4</ele>
        <time>2020-10-03T12:26:29Z</time>
      </trkpt>
      <trkpt lat="48.68764" lon="6.14648">
        <ele>436.8</ele>
        <time>2020-10-03T12:26:30Z</time>
      </trkpt>
      <trkpt lat="48.68764" lon="6.14643">
        <ele>437</ele>
        <time>2020-10-03T12:26:31Z</time>
      </trkpt>
      <trkpt lat="48.68763" lon="6.14638">
        <ele>437.2</ele>
        <time>2020-10-03T12:26:32Z</time>
      </trkpt>
      <trkpt lat="48.68763" lon="6.14632">
        <ele>437.2</ele>
        <time>2020-10-03T12:26:33Z</time>
      </trkpt>
      <trkpt lat="48.68762" lon="6.14627">
        <ele>437</ele>
        <time>2020-10-03T12:26:34Z</time>
      </trkpt>
      <trkpt lat="48.68761" lon="6.14622">
        <ele>437</ele>
        <time>2020-10-03T12:26:35Z</time>
      </trkpt>
      <trkpt lat="48.6876" lon="6.14618">
        <ele>436.8</ele>
        <time>2020-10-03T12:26:36Z</time>
      </trkpt>
      <trkpt lat="48.6876" lon="6.14613">
        <ele>437</ele>
        <time>2020-10-03T12:26:37Z</time>
      </trkpt>
      <trkpt lat="48.68759" lon="6.14607">
        <ele>437</ele>
        <time>2020-10-03T12:26:38Z</time>
      </trkpt>
      <trkpt lat="48.68759" lon="6.14602">
        <ele>437</ele>
        <time>2020-10-03T12:26:39Z</time>
      </trkpt>
      <trkpt lat="48.68758" lon="6.14596">
        <ele>437</ele>
        <time>2020-10-03T12:26:40Z</time>
      </trkpt>
      <trkpt lat="48.68758" lon="6.14591">
        <ele>436.8</ele>
        <time>2020-10-03T12:26:41Z</time>
      </trkpt>
      <trkpt lat="48.68757" lon="6.14585">
        <ele>436.8</ele>
        <time>2020-10-03T12:26:42Z</time>
      </trkpt>
      <trkpt lat="48.68757" lon="6.1458">
        <ele>436.6</ele>
        <time>2020-10-03T12:26:43Z</time>
      </trkpt>
      <trkpt lat="48.68756" lon="6.14575">
        <ele>436.6</ele>
        <time>2020-10-03T12:26:44Z</time>
      </trkpt>
      <trkpt lat="48.68756" lon="6.1457">
        <ele>436.6</ele>
        <time>2020-10-03T12:26:45Z</time>
      </trkpt>
      <trkpt lat="48.68755" lon="6.14564">
        <ele>436.6</ele>
        <time>2020-10-03T12:26:46Z</time>
      </trkpt>
      <trkpt lat="48.68755" lon="6.14558">
        <ele>436.8</ele>
        <time>2020-10-03T12:26:47Z</time>
      </trkpt>
      <trkpt lat="48.68754" lon="6.14552">
        <ele>436.8</ele>
        <time>2020-10-03T12:26:48Z</time>
      </trkpt>
      <trkpt lat="48.68753" lon="6.14546">
        <ele>436.4</ele>
        <time>2020-10-03T12:26:49Z</time>
      </trkpt>
      <trkpt lat="48.68753" lon="6.1454">
        <ele>436.4</ele>
        <time>2020-10-03T12:26:50Z</time>
      </trkpt>
      <trkpt lat="48.68752" lon="6.14534">
        <ele>436.2</ele>
        <time>2020-10-03T12:26:51Z</time>
      </trkpt>
      <trkpt lat="48.68752" lon="6.14529">
        <ele>436.2</ele>
        <time>2020-10-03T12:26:52Z</time>
      </trkpt>
      <trkpt lat="48.68751" lon="6.14524">
        <ele>436.2</ele>
        <time>2020-10-03T12:26:53Z</time>
      </trkpt>
      <trkpt lat="48.6875" lon="6.14519">
        <ele>436.4</ele>
        <time>2020-10-03T12:26:54Z</time>
      </trkpt>
      <trkpt lat="48.6875" lon="6.14514">
        <ele>436.4</ele>
        <time>2020-10-03T12:26:55Z</time>
      </trkpt>
      <trkpt lat="48.68749" lon="6.14509">
        <ele>436.4</ele>
        <time>2020-10-03T12:26:56Z</time>
      </trkpt>
      <trkpt lat="48.68749" lon="6.14503">
        <ele>436.6</ele>
        <time>2020-10-03T12:26:57Z</time>
      </trkpt>
      <trkpt lat="48.68748" lon="6.14497">
        <ele>436.8</ele>
        <time>2020-10-03T12:26:58Z</time>
      </trkpt>
      <trkpt lat="48.68748" lon="6.14491">
        <ele>436.8</ele>
        <time>2020-10-03T12:26:59Z</time>
      </trkpt>
      <trkpt lat="48.68748" lon="6.14485">
        <ele>436.8</ele>
        <time>2020-10-03T12:27:00Z</time>
      </trkpt>
      <trkpt lat="48.68748" lon="6.14479">
        <ele>436.8</ele>
        <time>2020-10-03T12:27:01Z</time>
      </trkpt>
      <trkpt lat="48.68748" lon="6.14473">
        <ele>436.8</ele>
        <time>2020-10-03T12:27:02Z</time>
      </trkpt>
      <trkpt lat="48.68747" lon="6.14467">
        <ele>436.6</ele>
        <time>2020-10-03T12:27:03Z</time>
      </trkpt>
      <trkpt lat="48.68747" lon="6.14461">
        <ele>436.4</ele>
        <time>2020-10-03T12:27:04Z</time>
      </trkpt>
      <trkpt lat="48.68747" lon="6.14455">
        <ele>436.6</ele>
        <time>2020-10-03T12:27:05Z</time>
      </trkpt>
      <trkpt lat="48.68747" lon="6.14449">
        <ele>436.8</ele>
        <time>2020-10-03T12:27:06Z</time>
      </trkpt>
      <trkpt lat="48.68746" lon="6.14443">
        <ele>436.8</ele>
        <time>2020-10-03T12:27:07Z</time>
      </trkpt>
      <trkpt lat="48.68746" lon="6.14437">
        <ele>437</ele>
        <time>2020-10-03T12:27:08Z</time>
      </trkpt>
      <trkpt lat="48.68746" lon="6.14432">
        <ele>437</ele>
        <time>2020-10-03T12:27:09Z</time>
      </trkpt>
      <trkpt lat="48.68747" lon="6.14426">
        <ele>437</ele>
        <time>2020-10-03T12:27:10Z</time>
      </trkpt>
      <trkpt lat="48.68747" lon="6.14422">
        <ele>437.2</ele>
        <time>2020-10-03T12:27:11Z</time>
      </trkpt>
      <trkpt lat="48.68748" lon="6.14417">
        <ele>437.2</ele>
        <time>2020-10-03T12:27:12Z</time>
      </trkpt>
      <trkpt lat="48.68749" lon="6.14411">
        <ele>437</ele>
        <time>2020-10-03T12:27:13Z</time>
      </trkpt>
      <trkpt lat="48.68749" lon="6.14405">
        <ele>437.2</ele>
        <time>2020-10-03T12:27:14Z</time>
      </trkpt>
      <trkpt lat="48.6875" lon="6.144">
        <ele>437.4</ele>
        <time>2020-10-03T12:27:15Z</time>
      </trkpt>
      <trkpt lat="48.68751" lon="6.14394">
        <ele>437.4</ele>
        <time>2020-10-03T12:27:16Z</time>
      </trkpt>
      <trkpt lat="48.68751" lon="6.14389">
        <ele>437.4</ele>
        <time>2020-10-03T12:27:17Z</time>
      </trkpt>
      <trkpt lat="48.68752" lon="6.14384">
        <ele>437.4</ele>
        <time>2020-10-03T12:27:18Z</time>
      </trkpt>
      <trkpt lat="48.68753" lon="6.1438">
        <ele>437.2</ele>
        <time>2020-10-03T12:27:19Z</time>
      </trkpt>
      <trkpt lat="48.68754" lon="6.14375">
        <ele>437.4</ele>
        <time>2020-10-03T12:27:20Z</time>
      </trkpt>
      <trkpt lat="48.68754" lon="6.1437">
        <ele>437.2</ele>
        <time>2020-10-03T12:27:21Z</time>
      </trkpt>
      <trkpt lat="48.68755" lon="6.14365">
        <ele>437.2</ele>
        <time>2020-10-03T12:27:22Z</time>
      </trkpt>
      <trkpt lat="48.68757" lon="6.1436">
        <ele>437</ele>
        <time>2020-10-03T12:27:23Z</time>
      </trkpt>
      <trkpt lat="48.68758" lon="6.14354">
        <ele>437</ele>
        <time>2020-10-03T12:27:24Z</time>
      </trkpt>
      <trkpt lat="48.68758" lon="6.14349">
        <ele>437.2</ele>
        <time>2020-10-03T12:27:25Z</time>
      </trkpt>
      <trkpt lat="48.68759" lon="6.14343">
        <ele>437.4</ele>
        <time>2020-10-03T12:27:26Z</time>
      </trkpt>
      <trkpt lat="48.6876" lon="6.14338">
        <ele>437.6</ele>
        <time>2020-10-03T12:27:27Z</time>
      </trkpt>
      <trkpt lat="48.6876" lon="6.14333">
        <ele>437.6</ele>
        <time>2020-10-03T12:27:28Z</time>
      </trkpt>
      <trkpt lat="48.68762" lon="6.14328">
        <ele>437.6</ele>
        <time>2020-10-03T12:27:29Z</time>
      </trkpt>
      <trkpt lat="48.68763" lon="6.14323">
        <ele>437.8</ele>
        <time>2020-10-03T12:27:30Z</time>
      </trkpt>
      <trkpt lat="48.68765" lon="6.14318">
        <ele>438</ele>
        <time>2020-10-03T12:27:31Z</time>
      </trkpt>
      <trkpt lat="48.68766" lon="6.14313">
        <ele>438</ele>
        <time>2020-10-03T12:27:32Z</time>
      </trkpt>
      <trkpt lat="48.68767" lon="6.14308">
        <ele>437.8</ele>
        <time>2020-10-03T12:27:33Z</time>
      </trkpt>
      <trkpt lat="48.68768" lon="6.14303">
        <ele>437.6</ele>
        <time>2020-10-03T12:27:34Z</time>
      </trkpt>
      <trkpt lat="48.68768" lon="6.14299">
        <ele>437.4</ele>
        <time>2020-10-03T12:27:35Z</time>
      </trkpt>
      <trkpt lat="48.68769" lon="6.14293">
        <ele>437.2</ele>
        <time>2020-10-03T12:27:36Z</time>
      </trkpt>
      <trkpt lat="48.6877" lon="6.14288">
        <ele>437</ele>
        <time>2020-10-03T12:27:37Z</time>
      </trkpt>
      <trkpt lat="48.68772" lon="6.14282">
        <ele>436.8</ele>
        <time>2020-10-03T12:27:38Z</time>
      </trkpt>
      <trkpt lat="48.68773" lon="6.14275">
        <ele>436.8</ele>
        <time>2020-10-03T12:27:39Z</time>
      </trkpt>
      <trkpt lat="48.68775" lon="6.14269">
        <ele>436.8</ele>
        <time>2020-10-03T12:27:40Z</time>
      </trkpt>
      <trkpt lat="48.68777" lon="6.14263">
        <ele>436.8</ele>
        <time>2020-10-03T12:27:41Z</time>
      </trkpt>
      <trkpt lat="48.68778" lon="6.14257">
        <ele>436.8</ele>
        <time>2020-10-03T12:27:42Z</time>
      </trkpt>
      <trkpt lat="48.6878" lon="6.14253">
        <ele>437</ele>
        <time>2020-10-03T12:27:43Z</time>
      </trkpt>
      <trkpt lat="48.68782" lon="6.14248">
        <ele>437.2</ele>
        <time>2020-10-03T12:27:44Z</time>
      </trkpt>
      <trkpt lat="48.68783" lon="6.14244">
        <ele>437.4</ele>
        <time>2020-10-03T12:27:45Z</time>
      </trkpt>
      <trkpt lat="48.68784" lon="6.1424">
        <ele>437.6</ele>
        <time>2020-10-03T12:27:46Z</time>
      </trkpt>
      <trkpt lat="48.68786" lon="6.14237">
        <ele>437.8</ele>
        <time>2020-10-03T12:27:47Z</time>
      </trkpt>
      <trkpt lat="48.68787" lon="6.14233">
        <ele>438</ele>
        <time>2020-10-03T12:27:48Z</time>
      </trkpt>
      <trkpt lat="48.68788" lon="6.1423">
        <ele>438.2</ele>
        <time>2020-10-03T12:27:49Z</time>
      </trkpt>
      <trkpt lat="48.68787" lon="6.14228">
        <ele>438.6</ele>
        <time>2020-10-03T12:27:50Z</time>
      </trkpt>
      <trkpt lat="48.68788" lon="6.14224">
        <ele>438.8</ele>
        <time>2020-10-03T12:27:51Z</time>
      </trkpt>
      <trkpt lat="48.68789" lon="6.1422">
        <ele>439</ele>
        <time>2020-10-03T12:27:52Z</time>
      </trkpt>
      <trkpt lat="48.6879" lon="6.14216">
        <ele>439.2</ele>
        <time>2020-10-03T12:27:53Z</time>
      </trkpt>
      <trkpt lat="48.68791" lon="6.14212">
        <ele>439.4</ele>
        <time>2020-10-03T12:27:54Z</time>
      </trkpt>
      <trkpt lat="48.68792" lon="6.14207">
        <ele>439.6</ele>
        <time>2020-10-03T12:27:55Z</time>
      </trkpt>
      <trkpt lat="48.68794" lon="6.14202">
        <ele>440</ele>
        <time>2020-10-03T12:27:56Z</time>
      </trkpt>
      <trkpt lat="48.68795" lon="6.14197">
        <ele>440.4</ele>
        <time>2020-10-03T12:27:57Z</time>
      </trkpt>
      <trkpt lat="48.68796" lon="6.14193">
        <ele>440.6</ele>
        <time>2020-10-03T12:27:58Z</time>
      </trkpt>
      <trkpt lat="48.68798" lon="6.14188">
        <ele>440.8</ele>
        <time>2020-10-03T12:27:59Z</time>
      </trkpt>
      <trkpt lat="48.68799" lon="6.14183">
        <ele>441</ele>
        <time>2020-10-03T12:28:00Z</time>
      </trkpt>
      <trkpt lat="48.688" lon="6.14178">
        <ele>441.2</ele>
        <time>2020-10-03T12:28:01Z</time>
      </trkpt>
      <trkpt lat="48.68802" lon="6.14173">
        <ele>441.6</ele>
        <time>2020-10-03T12:28:02Z</time>
      </trkpt>
      <trkpt lat="48.68804" lon="6.14169">
        <ele>442</ele>
        <time>2020-10-03T12:28:03Z</time>
      </trkpt>
      <trkpt lat="48.68805" lon="6.14163">
        <ele>442.2</ele>
        <time>2020-10-03T12:28:04Z</time>
      </trkpt>
      <trkpt lat="48.68806" lon="6.14158">
        <ele>442.4</ele>
        <time>2020-10-03T12:28:05Z</time>
      </trkpt>
      <trkpt lat="48.68807" lon="6.14153">
        <ele>442.6</ele>
        <time>2020-10-03T12:28:06Z</time>
      </trkpt>
      <trkpt lat="48.68808" lon="6.14148">
        <ele>442.8</ele>
        <time>2020-10-03T12:28:07Z</time>
      </trkpt>
      <trkpt lat="48.68808" lon="6.14143">
        <ele>443</ele>
        <time>2020-10-03T12:28:08Z</time>
      </trkpt>
      <trkpt lat="48.6881" lon="6.14138">
        <ele>443.2</ele>
        <time>2020-10-03T12:28:09Z</time>
      </trkpt>
      <trkpt lat="48.68811" lon="6.14133">
        <ele>443.4</ele>
        <time>2020-10-03T12:28:10Z</time>
      </trkpt>
      <trkpt lat="48.68812" lon="6.14128">
        <ele>443.6</ele>
        <time>2020-10-03T12:28:11Z</time>
      </trkpt>
      <trkpt lat="48.68814" lon="6.14124">
        <ele>443.8</ele>
        <time>2020-10-03T12:28:12Z</time>
      </trkpt>
      <trkpt lat="48.68815" lon="6.1412">
        <ele>443.8</ele>
        <time>2020-10-03T12:28:13Z</time>
      </trkpt>
      <trkpt lat="48.68816" lon="6.14116">
        <ele>444.2</ele>
        <time>2020-10-03T12:28:14Z</time>
      </trkpt>
      <trkpt lat="48.68817" lon="6.14111">
        <ele>444.4</ele>
        <time>2020-10-03T12:28:15Z</time>
      </trkpt>
      <trkpt lat="48.68819" lon="6.14107">
        <ele>444.8</ele>
        <time>2020-10-03T12:28:16Z</time>
      </trkpt>
      <trkpt lat="48.6882" lon="6.14102">
        <ele>444.8</ele>
        <time>2020-10-03T12:28:17Z</time>
      </trkpt>
      <trkpt lat="48.68821" lon="6.14098">
        <ele>444.8</ele>
        <time>2020-10-03T12:28:18Z</time>
      </trkpt>
      <trkpt lat="48.68822" lon="6.14093">
        <ele>445.2</ele>
        <time>2020-10-03T12:28:19Z</time>
      </trkpt>
      <trkpt lat="48.68822" lon="6.14088">
        <ele>445.6</ele>
        <time>2020-10-03T12:28:20Z</time>
      </trkpt>
      <trkpt lat="48.68823" lon="6.14083">
        <ele>445.8</ele>
        <time>2020-10-03T12:28:21Z</time>
      </trkpt>
      <trkpt lat="48.68825" lon="6.14078">
        <ele>446</ele>
        <time>2020-10-03T12:28:22Z</time>
      </trkpt>
      <trkpt lat="48.68826" lon="6.14073">
        <ele>446.4</ele>
        <time>2020-10-03T12:28:23Z</time>
      </trkpt>
      <trkpt lat="48.68826" lon="6.14067">
        <ele>446.6</ele>
        <time>2020-10-03T12:28:24Z</time>
      </trkpt>
      <trkpt lat="48.68827" lon="6.14062">
        <ele>446.6</ele>
        <time>2020-10-03T12:28:25Z</time>
      </trkpt>
      <trkpt lat="48.68828" lon="6.14057">
        <ele>446.2</ele>
        <time>2020-10-03T12:28:26Z</time>
      </trkpt>
      <trkpt lat="48.68828" lon="6.14052">
        <ele>446</ele>
        <time>2020-10-03T12:28:27Z</time>
      </trkpt>
      <trkpt lat="48.68829" lon="6.14047">
        <ele>446.2</ele>
        <time>2020-10-03T12:28:28Z</time>
      </trkpt>
      <trkpt lat="48.6883" lon="6.14041">
        <ele>446.4</ele>
        <time>2020-10-03T12:28:29Z</time>
      </trkpt>
      <trkpt lat="48.68831" lon="6.14036">
        <ele>446.4</ele>
        <time>2020-10-03T12:28:30Z</time>
      </trkpt>
      <trkpt lat="48.68832" lon="6.14031">
        <ele>446.6</ele>
        <time>2020-10-03T12:28:31Z</time>
      </trkpt>
      <trkpt lat="48.68832" lon="6.14026">
        <ele>446.6</ele>
        <time>2020-10-03T12:28:32Z</time>
      </trkpt>
      <trkpt lat="48.68833" lon="6.14021">
        <ele>446.8</ele>
        <time>2020-10-03T12:28:33Z</time>
      </trkpt>
      <trkpt lat="48.68834" lon="6.14015">
        <ele>447.2</ele>
        <time>2020-10-03T12:28:34Z</time>
      </trkpt>
      <trkpt lat="48.68834" lon="6.1401">
        <ele>447.4</ele>
        <time>2020-10-03T12:28:35Z</time>
      </trkpt>
      <trkpt lat="48.68835" lon="6.14005">
        <ele>447.6</ele>
        <time>2020-10-03T12:28:36Z</time>
      </trkpt>
      <trkpt lat="48.68835" lon="6.13999">
        <ele>447.6</ele>
        <time>2020-10-03T12:28:37Z</time>
      </trkpt>
      <trkpt lat="48.68836" lon="6.13994">
        <ele>447.6</ele>
        <time>2020-10-03T12:28:38Z</time>
      </trkpt>
      <trkpt lat="48.68837" lon="6.13989">
        <ele>447.6</ele>
        <time>2020-10-03T12:28:39Z</time>
      </trkpt>
      <trkpt lat="48.68838" lon="6.13984">
        <ele>447.8</ele>
        <time>2020-10-03T12:28:40Z</time>
      </trkpt>
      <trkpt lat="48.68838" lon="6.13979">
        <ele>448</ele>
        <time>2020-10-03T12:28:41Z</time>
      </trkpt>
      <trkpt lat="48.68838" lon="6.13975">
        <ele>448</ele>
        <time>2020-10-03T12:28:42Z</time>
      </trkpt>
      <trkpt lat="48.68839" lon="6.1397">
        <ele>448.2</ele>
        <time>2020-10-03T12:28:43Z</time>
      </trkpt>
      <trkpt lat="48.6884" lon="6.13966">
        <ele>448.2</ele>
        <time>2020-10-03T12:28:44Z</time>
      </trkpt>
      <trkpt lat="48.6884" lon="6.13961">
        <ele>448.4</ele>
        <time>2020-10-03T12:28:45Z</time>
      </trkpt>
      <trkpt lat="48.68841" lon="6.13957">
        <ele>448.6</ele>
        <time>2020-10-03T12:28:46Z</time>
      </trkpt>
      <trkpt lat="48.68842" lon="6.13953">
        <ele>448.8</ele>
        <time>2020-10-03T12:28:47Z</time>
      </trkpt>
      <trkpt lat="48.68843" lon="6.13949">
        <ele>448.8</ele>
        <time>2020-10-03T12:28:48Z</time>
      </trkpt>
      <trkpt lat="48.68844" lon="6.13945">
        <ele>449</ele>
        <time>2020-10-03T12:28:49Z</time>
      </trkpt>
      <trkpt lat="48.68844" lon="6.13941">
        <ele>449.2</ele>
        <time>2020-10-03T12:28:50Z</time>
      </trkpt>
      <trkpt lat="48.68845" lon="6.13937">
        <ele>449.4</ele>
        <time>2020-10-03T12:28:51Z</time>
      </trkpt>
      <trkpt lat="48.68845" lon="6.13934">
        <ele>449.6</ele>
        <time>2020-10-03T12:28:52Z</time>
      </trkpt>
      <trkpt lat="48.68845" lon="6.13933">
        <ele>449.6</ele>
        <time>2020-10-03T12:28:53Z</time>
      </trkpt>
      <trkpt lat="48.68845" lon="6.13933">
        <ele>449.6</ele>
        <time>2020-10-03T12:28:54Z</time>
      </trkpt>
      <trkpt lat="48.68845" lon="6.13933">
        <ele>449.4</ele>
        <time>2020-10-03T12:28:55Z</time>
      </trkpt>
      <trkpt lat="48.68845" lon="6.13933">
        <ele>449.4</ele>
        <time>2020-10-03T12:28:56Z</time>
      </trkpt>
      <trkpt lat="48.68845" lon="6.13933">
        <ele>449.4</ele>
        <time>2020-10-03T12:28:57Z</time>
      </trkpt>
      <trkpt lat="48.68845" lon="6.13933">
        <ele>449.2</ele>
        <time>2020-10-03T12:28:58Z</time>
      </trkpt>
      <trkpt lat="48.68847" lon="6.13917">
        <ele>449.4</ele>
        <time>2020-10-03T12:29:09Z</time>
      </trkpt>
      <trkpt lat="48.68847" lon="6.13912">
        <ele>449.4</ele>
        <time>2020-10-03T12:29:10Z</time>
      </trkpt>
      <trkpt lat="48.68848" lon="6.13908">
        <ele>449.6</ele>
        <time>2020-10-03T12:29:11Z</time>
      </trkpt>
      <trkpt lat="48.68849" lon="6.13904">
        <ele>450</ele>
        <time>2020-10-03T12:29:12Z</time>
      </trkpt>
      <trkpt lat="48.6885" lon="6.139">
        <ele>450.4</ele>
        <time>2020-10-03T12:29:13Z</time>
      </trkpt>
      <trkpt lat="48.6885" lon="6.13896">
        <ele>450.6</ele>
        <time>2020-10-03T12:29:14Z</time>
      </trkpt>
      <trkpt lat="48.68851" lon="6.13892">
        <ele>450.8</ele>
        <time>2020-10-03T12:29:15Z</time>
      </trkpt>
      <trkpt lat="48.68851" lon="6.13888">
        <ele>451</ele>
        <time>2020-10-03T12:29:16Z</time>
      </trkpt>
      <trkpt lat="48.68852" lon="6.13884">
        <ele>451.2</ele>
        <time>2020-10-03T12:29:17Z</time>
      </trkpt>
      <trkpt lat="48.68852" lon="6.1388">
        <ele>451.4</ele>
        <time>2020-10-03T12:29:18Z</time>
      </trkpt>
      <trkpt lat="48.68853" lon="6.13876">
        <ele>451.8</ele>
        <time>2020-10-03T12:29:19Z</time>
      </trkpt>
      <trkpt lat="48.68854" lon="6.13872">
        <ele>452.2</ele>
        <time>2020-10-03T12:29:20Z</time>
      </trkpt>
      <trkpt lat="48.68855" lon="6.13869">
        <ele>452.6</ele>
        <time>2020-10-03T12:29:21Z</time>
      </trkpt>
      <trkpt lat="48.68856" lon="6.13865">
        <ele>452.8</ele>
        <time>2020-10-03T12:29:22Z</time>
      </trkpt>
      <trkpt lat="48.68856" lon="6.13862">
        <ele>453</ele>
        <time>2020-10-03T12:29:23Z</time>
      </trkpt>
      <trkpt lat="48.68857" lon="6.13859">
        <ele>453.2</ele>
        <time>2020-10-03T12:29:24Z</time>
      </trkpt>
      <trkpt lat="48.68858" lon="6.13856">
        <ele>453.2</ele>
        <time>2020-10-03T12:29:25Z</time>
      </trkpt>
      <trkpt lat="48.68858" lon="6.13853">
        <ele>453.6</ele>
        <time>2020-10-03T12:29:26Z</time>
      </trkpt>
      <trkpt lat="48.68859" lon="6.13849">
        <ele>453.8</ele>
        <time>2020-10-03T12:29:27Z</time>
      </trkpt>
      <trkpt lat="48.68859" lon="6.13846">
        <ele>454</ele>
        <time>2020-10-03T12:29:28Z</time>
      </trkpt>
      <trkpt lat="48.6886" lon="6.13843">
        <ele>454.4</ele>
        <time>2020-10-03T12:29:29Z</time>
      </trkpt>
      <trkpt lat="48.68861" lon="6.1384">
        <ele>454.4</ele>
        <time>2020-10-03T12:29:30Z</time>
      </trkpt>
      <trkpt lat="48.68861" lon="6.13837">
        <ele>454.4</ele>
        <time>2020-10-03T12:29:31Z</time>
      </trkpt>
      <trkpt lat="48.68862" lon="6.13833">
        <ele>454.4</ele>
        <time>2020-10-03T12:29:32Z</time>
      </trkpt>
      <trkpt lat="48.68862" lon="6.1383">
        <ele>454.4</ele>
        <time>2020-10-03T12:29:33Z</time>
      </trkpt>
      <trkpt lat="48.68863" lon="6.13827">
        <ele>454.6</ele>
        <time>2020-10-03T12:29:34Z</time>
      </trkpt>
      <trkpt lat="48.68863" lon="6.13824">
        <ele>455</ele>
        <time>2020-10-03T12:29:35Z</time>
      </trkpt>
      <trkpt lat="48.68863" lon="6.13821">
        <ele>455.4</ele>
        <time>2020-10-03T12:29:36Z</time>
      </trkpt>
      <trkpt lat="48.68864" lon="6.13818">
        <ele>455.8</ele>
        <time>2020-10-03T12:29:37Z</time>
      </trkpt>
      <trkpt lat="48.68865" lon="6.13815">
        <ele>456</ele>
        <time>2020-10-03T12:29:38Z</time>
      </trkpt>
      <trkpt lat="48.68865" lon="6.13812">
        <ele>456.2</ele>
        <time>2020-10-03T12:29:39Z</time>
      </trkpt>
      <trkpt lat="48.68866" lon="6.13809">
        <ele>456.6</ele>
        <time>2020-10-03T12:29:40Z</time>
      </trkpt>
      <trkpt lat="48.68867" lon="6.13805">
        <ele>457</ele>
        <time>2020-10-03T12:29:41Z</time>
      </trkpt>
      <trkpt lat="48.68867" lon="6.13802">
        <ele>457.2</ele>
        <time>2020-10-03T12:29:42Z</time>
      </trkpt>
      <trkpt lat="48.68868" lon="6.13799">
        <ele>457.4</ele>
        <time>2020-10-03T12:29:43Z</time>
      </trkpt>
      <trkpt lat="48.68869" lon="6.13796">
        <ele>457.6</ele>
        <time>2020-10-03T12:29:44Z</time>
      </trkpt>
      <trkpt lat="48.68869" lon="6.13793">
        <ele>457.8</ele>
        <time>2020-10-03T12:29:45Z</time>
      </trkpt>
      <trkpt lat="48.6887" lon="6.1379">
        <ele>457.6</ele>
        <time>2020-10-03T12:29:46Z</time>
      </trkpt>
      <trkpt lat="48.6887" lon="6.13787">
        <ele>457.8</ele>
        <time>2020-10-03T12:29:47Z</time>
      </trkpt>
      <trkpt lat="48.6887" lon="6.13784">
        <ele>457.8</ele>
        <time>2020-10-03T12:29:48Z</time>
      </trkpt>
      <trkpt lat="48.68871" lon="6.1378">
        <ele>458.2</ele>
        <time>2020-10-03T12:29:49Z</time>
      </trkpt>
      <trkpt lat="48.68872" lon="6.13777">
        <ele>458.4</ele>
        <time>2020-10-03T12:29:50Z</time>
      </trkpt>
      <trkpt lat="48.68872" lon="6.13774">
        <ele>458.8</ele>
        <time>2020-10-03T12:29:51Z</time>
      </trkpt>
      <trkpt lat="48.68873" lon="6.13771">
        <ele>459</ele>
        <time>2020-10-03T12:29:52Z</time>
      </trkpt>
      <trkpt lat="48.68873" lon="6.13768">
        <ele>459.2</ele>
        <time>2020-10-03T12:29:53Z</time>
      </trkpt>
      <trkpt lat="48.68874" lon="6.13765">
        <ele>459.4</ele>
        <time>2020-10-03T12:29:54Z</time>
      </trkpt>
      <trkpt lat="48.68874" lon="6.13762">
        <ele>459.6</ele>
        <time>2020-10-03T12:29:55Z</time>
      </trkpt>
      <trkpt lat="48.68875" lon="6.13759">
        <ele>459.6</ele>
        <time>2020-10-03T12:29:56Z</time>
      </trkpt>
      <trkpt lat="48.68876" lon="6.13755">
        <ele>459.8</ele>
        <time>2020-10-03T12:29:57Z</time>
      </trkpt>
      <trkpt lat="48.68877" lon="6.13752">
        <ele>460</ele>
        <time>2020-10-03T12:29:58Z</time>
      </trkpt>
      <trkpt lat="48.68877" lon="6.13749">
        <ele>460.4</ele>
        <time>2020-10-03T12:29:59Z</time>
      </trkpt>
      <trkpt lat="48.68878" lon="6.13747">
        <ele>460.4</ele>
        <time>2020-10-03T12:30:00Z</time>
      </trkpt>
      <trkpt lat="48.68878" lon="6.13744">
        <ele>460.6</ele>
        <time>2020-10-03T12:30:01Z</time>
      </trkpt>
      <trkpt lat="48.68879" lon="6.13741">
        <ele>460.8</ele>
        <time>2020-10-03T12:30:02Z</time>
      </trkpt>
      <trkpt lat="48.68879" lon="6.13738">
        <ele>460.8</ele>
        <time>2020-10-03T12:30:03Z</time>
      </trkpt>
      <trkpt lat="48.6888" lon="6.13735">
        <ele>461</ele>
        <time>2020-10-03T12:30:04Z</time>
      </trkpt>
      <trkpt lat="48.6888" lon="6.13732">
        <ele>461</ele>
        <time>2020-10-03T12:30:05Z</time>
      </trkpt>
      <trkpt lat="48.68881" lon="6.13729">
        <ele>461.2</ele>
        <time>2020-10-03T12:30:06Z</time>
      </trkpt>
      <trkpt lat="48.68881" lon="6.13726">
        <ele>461.4</ele>
        <time>2020-10-03T12:30:07Z</time>
      </trkpt>
      <trkpt lat="48.68881" lon="6.13724">
        <ele>461.4</ele>
        <time>2020-10-03T12:30:08Z</time>
      </trkpt>
      <trkpt lat="48.68881" lon="6.1372">
        <ele>461.6</ele>
        <time>2020-10-03T12:30:09Z</time>
      </trkpt>
      <trkpt lat="48.68882" lon="6.13716">
        <ele>462</ele>
        <time>2020-10-03T12:30:10Z</time>
      </trkpt>
      <trkpt lat="48.68882" lon="6.13713">
        <ele>462.4</ele>
        <time>2020-10-03T12:30:11Z</time>
      </trkpt>
      <trkpt lat="48.68883" lon="6.13711">
        <ele>462.6</ele>
        <time>2020-10-03T12:30:12Z</time>
      </trkpt>
      <trkpt lat="48.68884" lon="6.13708">
        <ele>462.8</ele>
        <time>2020-10-03T12:30:13Z</time>
      </trkpt>
      <trkpt lat="48.68884" lon="6.13704">
        <ele>463</ele>
        <time>2020-10-03T12:30:14Z</time>
      </trkpt>
      <trkpt lat="48.68884" lon="6.13701">
        <ele>463.4</ele>
        <time>2020-10-03T12:30:15Z</time>
      </trkpt>
      <trkpt lat="48.68884" lon="6.13698">
        <ele>463.6</ele>
        <time>2020-10-03T12:30:16Z</time>
      </trkpt>
      <trkpt lat="48.68884" lon="6.13694">
        <ele>463.8</ele>
        <time>2020-10-03T12:30:17Z</time>
      </trkpt>
      <trkpt lat="48.68883" lon="6.1369">
        <ele>464</ele>
        <time>2020-10-03T12:30:18Z</time>
      </trkpt>
      <trkpt lat="48.68883" lon="6.13687">
        <ele>464.4</ele>
        <time>2020-10-03T12:30:19Z</time>
      </trkpt>
      <trkpt lat="48.68883" lon="6.13683">
        <ele>464.6</ele>
        <time>2020-10-03T12:30:20Z</time>
      </trkpt>
      <trkpt lat="48.68883" lon="6.1368">
        <ele>465</ele>
        <time>2020-10-03T12:30:21Z</time>
      </trkpt>
      <trkpt lat="48.68883" lon="6.13677">
        <ele>465.4</ele>
        <time>2020-10-03T12:30:22Z</time>
      </trkpt>
      <trkpt lat="48.68884" lon="6.13674">
        <ele>465.6</ele>
        <time>2020-10-03T12:30:23Z</time>
      </trkpt>
      <trkpt lat="48.68884" lon="6.1367">
        <ele>465.8</ele>
        <time>2020-10-03T12:30:24Z</time>
      </trkpt>
      <trkpt lat="48.68884" lon="6.13668">
        <ele>466</ele>
        <time>2020-10-03T12:30:25Z</time>
      </trkpt>
      <trkpt lat="48.68884" lon="6.13665">
        <ele>466.4</ele>
        <time>2020-10-03T12:30:26Z</time>
      </trkpt>
      <trkpt lat="48.68884" lon="6.13662">
        <ele>466.6</ele>
        <time>2020-10-03T12:30:27Z</time>
      </trkpt>
      <trkpt lat="48.68884" lon="6.13658">
        <ele>466.6</ele>
        <time>2020-10-03T12:30:28Z</time>
      </trkpt>
      <trkpt lat="48.68884" lon="6.13655">
        <ele>466.8</ele>
        <time>2020-10-03T12:30:29Z</time>
      </trkpt>
      <trkpt lat="48.68884" lon="6.13652">
        <ele>466.8</ele>
        <time>2020-10-03T12:30:30Z</time>
      </trkpt>
      <trkpt lat="48.68884" lon="6.13649">
        <ele>467</ele>
        <time>2020-10-03T12:30:31Z</time>
      </trkpt>
      <trkpt lat="48.68884" lon="6.13646">
        <ele>467.2</ele>
        <time>2020-10-03T12:30:32Z</time>
      </trkpt>
      <trkpt lat="48.68883" lon="6.13642">
        <ele>467.6</ele>
        <time>2020-10-03T12:30:33Z</time>
      </trkpt>
      <trkpt lat="48.68883" lon="6.13639">
        <ele>467.8</ele>
        <time>2020-10-03T12:30:34Z</time>
      </trkpt>
      <trkpt lat="48.68883" lon="6.13636">
        <ele>467.8</ele>
        <time>2020-10-03T12:30:35Z</time>
      </trkpt>
      <trkpt lat="48.68884" lon="6.13633">
        <ele>468</ele>
        <time>2020-10-03T12:30:36Z</time>
      </trkpt>
      <trkpt lat="48.68884" lon="6.13629">
        <ele>468</ele>
        <time>2020-10-03T12:30:37Z</time>
      </trkpt>
      <trkpt lat="48.68884" lon="6.13626">
        <ele>468.2</ele>
        <time>2020-10-03T12:30:38Z</time>
      </trkpt>
      <trkpt lat="48.68883" lon="6.13622">
        <ele>468.4</ele>
        <time>2020-10-03T12:30:39Z</time>
      </trkpt>
      <trkpt lat="48.68883" lon="6.13619">
        <ele>468.6</ele>
        <time>2020-10-03T12:30:40Z</time>
      </trkpt>
      <trkpt lat="48.68883" lon="6.13616">
        <ele>469</ele>
        <time>2020-10-03T12:30:41Z</time>
      </trkpt>
      <trkpt lat="48.68883" lon="6.13613">
        <ele>469.2</ele>
        <time>2020-10-03T12:30:42Z</time>
      </trkpt>
      <trkpt lat="48.68883" lon="6.13609">
        <ele>469.4</ele>
        <time>2020-10-03T12:30:43Z</time>
      </trkpt>
      <trkpt lat="48.68883" lon="6.13606">
        <ele>469.4</ele>
        <time>2020-10-03T12:30:44Z</time>
      </trkpt>
      <trkpt lat="48.68883" lon="6.13603">
        <ele>469.6</ele>
        <time>2020-10-03T12:30:45Z</time>
      </trkpt>
      <trkpt lat="48.68882" lon="6.136">
        <ele>470</ele>
        <time>2020-10-03T12:30:46Z</time>
      </trkpt>
      <trkpt lat="48.68882" lon="6.13597">
        <ele>470.4</ele>
        <time>2020-10-03T12:30:47Z</time>
      </trkpt>
      <trkpt lat="48.68882" lon="6.13593">
        <ele>470.4</ele>
        <time>2020-10-03T12:30:48Z</time>
      </trkpt>
      <trkpt lat="48.68882" lon="6.1359">
        <ele>470.4</ele>
        <time>2020-10-03T12:30:49Z</time>
      </trkpt>
      <trkpt lat="48.68882" lon="6.13587">
        <ele>470.6</ele>
        <time>2020-10-03T12:30:50Z</time>
      </trkpt>
      <trkpt lat="48.68881" lon="6.13584">
        <ele>470.8</ele>
        <time>2020-10-03T12:30:51Z</time>
      </trkpt>
      <trkpt lat="48.68881" lon="6.13581">
        <ele>471</ele>
        <time>2020-10-03T12:30:52Z</time>
      </trkpt>
      <trkpt lat="48.68881" lon="6.13578">
        <ele>470.8</ele>
        <time>2020-10-03T12:30:53Z</time>
      </trkpt>
      <trkpt lat="48.6888" lon="6.13575">
        <ele>470.8</ele>
        <time>2020-10-03T12:30:54Z</time>
      </trkpt>
      <trkpt lat="48.6888" lon="6.13572">
        <ele>470.8</ele>
        <time>2020-10-03T12:30:55Z</time>
      </trkpt>
      <trkpt lat="48.6888" lon="6.13569">
        <ele>471.2</ele>
        <time>2020-10-03T12:30:56Z</time>
      </trkpt>
      <trkpt lat="48.6888" lon="6.13567">
        <ele>471.4</ele>
        <time>2020-10-03T12:30:57Z</time>
      </trkpt>
      <trkpt lat="48.6888" lon="6.13565">
        <ele>471.4</ele>
        <time>2020-10-03T12:30:58Z</time>
      </trkpt>
      <trkpt lat="48.6888" lon="6.13563">
        <ele>471.4</ele>
        <time>2020-10-03T12:30:59Z</time>
      </trkpt>
      <trkpt lat="48.6888" lon="6.1356">
        <ele>471.6</ele>
        <time>2020-10-03T12:31:00Z</time>
      </trkpt>
      <trkpt lat="48.6888" lon="6.13557">
        <ele>471.8</ele>
        <time>2020-10-03T12:31:01Z</time>
      </trkpt>
      <trkpt lat="48.6888" lon="6.13555">
        <ele>471.8</ele>
        <time>2020-10-03T12:31:02Z</time>
      </trkpt>
      <trkpt lat="48.68879" lon="6.13552">
        <ele>472</ele>
        <time>2020-10-03T12:31:03Z</time>
      </trkpt>
      <trkpt lat="48.68879" lon="6.13549">
        <ele>472</ele>
        <time>2020-10-03T12:31:04Z</time>
      </trkpt>
      <trkpt lat="48.68879" lon="6.13546">
        <ele>472.2</ele>
        <time>2020-10-03T12:31:05Z</time>
      </trkpt>
      <trkpt lat="48.68879" lon="6.13543">
        <ele>472.4</ele>
        <time>2020-10-03T12:31:06Z</time>
      </trkpt>
      <trkpt lat="48.68879" lon="6.13541">
        <ele>472.6</ele>
        <time>2020-10-03T12:31:07Z</time>
      </trkpt>
      <trkpt lat="48.68879" lon="6.13538">
        <ele>472.6</ele>
        <time>2020-10-03T12:31:08Z</time>
      </trkpt>
      <trkpt lat="48.68879" lon="6.13536">
        <ele>472.8</ele>
        <time>2020-10-03T12:31:09Z</time>
      </trkpt>
      <trkpt lat="48.68879" lon="6.13534">
        <ele>473</ele>
        <time>2020-10-03T12:31:10Z</time>
      </trkpt>
      <trkpt lat="48.68879" lon="6.13531">
        <ele>473.6</ele>
        <time>2020-10-03T12:31:11Z</time>
      </trkpt>
      <trkpt lat="48.68879" lon="6.13528">
        <ele>473.8</ele>
        <time>2020-10-03T12:31:12Z</time>
      </trkpt>
      <trkpt lat="48.6888" lon="6.13526">
        <ele>473.8</ele>
        <time>2020-10-03T12:31:13Z</time>
      </trkpt>
      <trkpt lat="48.6888" lon="6.13524">
        <ele>473.8</ele>
        <time>2020-10-03T12:31:14Z</time>
      </trkpt>
      <trkpt lat="48.68881" lon="6.13522">
        <ele>474</ele>
        <time>2020-10-03T12:31:15Z</time>
      </trkpt>
      <trkpt lat="48.68881" lon="6.1352">
        <ele>474.2</ele>
        <time>2020-10-03T12:31:16Z</time>
      </trkpt>
      <trkpt lat="48.68882" lon="6.13517">
        <ele>474.4</ele>
        <time>2020-10-03T12:31:17Z</time>
      </trkpt>
      <trkpt lat="48.68882" lon="6.13515">
        <ele>474.6</ele>
        <time>2020-10-03T12:31:18Z</time>
      </trkpt>
      <trkpt lat="48.68883" lon="6.13513">
        <ele>475</ele>
        <time>2020-10-03T12:31:19Z</time>
      </trkpt>
      <trkpt lat="48.68883" lon="6.13511">
        <ele>475</ele>
        <time>2020-10-03T12:31:20Z</time>
      </trkpt>
      <trkpt lat="48.68884" lon="6.13508">
        <ele>475.2</ele>
        <time>2020-10-03T12:31:21Z</time>
      </trkpt>
      <trkpt lat="48.68884" lon="6.13506">
        <ele>475.6</ele>
        <time>2020-10-03T12:31:22Z</time>
      </trkpt>
      <trkpt lat="48.68885" lon="6.13503">
        <ele>476</ele>
        <time>2020-10-03T12:31:23Z</time>
      </trkpt>
      <trkpt lat="48.68885" lon="6.13501">
        <ele>476.2</ele>
        <time>2020-10-03T12:31:24Z</time>
      </trkpt>
      <trkpt lat="48.68886" lon="6.13498">
        <ele>476.4</ele>
        <time>2020-10-03T12:31:25Z</time>
      </trkpt>
      <trkpt lat="48.68886" lon="6.13496">
        <ele>476.4</ele>
        <time>2020-10-03T12:31:26Z</time>
      </trkpt>
      <trkpt lat="48.68887" lon="6.13494">
        <ele>476.4</ele>
        <time>2020-10-03T12:31:27Z</time>
      </trkpt>
      <trkpt lat="48.68888" lon="6.13492">
        <ele>476.6</ele>
        <time>2020-10-03T12:31:28Z</time>
      </trkpt>
      <trkpt lat="48.68888" lon="6.1349">
        <ele>476.8</ele>
        <time>2020-10-03T12:31:29Z</time>
      </trkpt>
      <trkpt lat="48.68889" lon="6.13488">
        <ele>477</ele>
        <time>2020-10-03T12:31:30Z</time>
      </trkpt>
      <trkpt lat="48.6889" lon="6.13485">
        <ele>477.2</ele>
        <time>2020-10-03T12:31:31Z</time>
      </trkpt>
      <trkpt lat="48.6889" lon="6.13483">
        <ele>477.2</ele>
        <time>2020-10-03T12:31:32Z</time>
      </trkpt>
      <trkpt lat="48.68891" lon="6.1348">
        <ele>477.4</ele>
        <time>2020-10-03T12:31:33Z</time>
      </trkpt>
      <trkpt lat="48.68892" lon="6.13477">
        <ele>477.6</ele>
        <time>2020-10-03T12:31:34Z</time>
      </trkpt>
      <trkpt lat="48.68893" lon="6.13474">
        <ele>477.8</ele>
        <time>2020-10-03T12:31:35Z</time>
      </trkpt>
      <trkpt lat="48.68893" lon="6.13472">
        <ele>478</ele>
        <time>2020-10-03T12:31:36Z</time>
      </trkpt>
      <trkpt lat="48.68894" lon="6.13469">
        <ele>478</ele>
        <time>2020-10-03T12:31:37Z</time>
      </trkpt>
      <trkpt lat="48.68894" lon="6.13467">
        <ele>478.2</ele>
        <time>2020-10-03T12:31:38Z</time>
      </trkpt>
      <trkpt lat="48.68894" lon="6.13464">
        <ele>478.4</ele>
        <time>2020-10-03T12:31:39Z</time>
      </trkpt>
      <trkpt lat="48.68895" lon="6.13462">
        <ele>478.6</ele>
        <time>2020-10-03T12:31:40Z</time>
      </trkpt>
      <trkpt lat="48.68896" lon="6.13459">
        <ele>479</ele>
        <time>2020-10-03T12:31:41Z</time>
      </trkpt>
      <trkpt lat="48.68897" lon="6.13456">
        <ele>479.2</ele>
        <time>2020-10-03T12:31:42Z</time>
      </trkpt>
      <trkpt lat="48.68897" lon="6.13453">
        <ele>479.4</ele>
        <time>2020-10-03T12:31:43Z</time>
      </trkpt>
      <trkpt lat="48.68898" lon="6.13451">
        <ele>479.4</ele>
        <time>2020-10-03T12:31:44Z</time>
      </trkpt>
      <trkpt lat="48.68898" lon="6.13448">
        <ele>479.6</ele>
        <time>2020-10-03T12:31:45Z</time>
      </trkpt>
      <trkpt lat="48.68898" lon="6.13445">
        <ele>479.8</ele>
        <time>2020-10-03T12:31:46Z</time>
      </trkpt>
      <trkpt lat="48.68899" lon="6.13442">
        <ele>480</ele>
        <time>2020-10-03T12:31:47Z</time>
      </trkpt>
      <trkpt lat="48.68899" lon="6.13439">
        <ele>480.2</ele>
        <time>2020-10-03T12:31:48Z</time>
      </trkpt>
      <trkpt lat="48.689" lon="6.13436">
        <ele>480.6</ele>
        <time>2020-10-03T12:31:49Z</time>
      </trkpt>
      <trkpt lat="48.689" lon="6.13432">
        <ele>480.6</ele>
        <time>2020-10-03T12:31:50Z</time>
      </trkpt>
      <trkpt lat="48.68901" lon="6.13429">
        <ele>480.8</ele>
        <time>2020-10-03T12:31:51Z</time>
      </trkpt>
      <trkpt lat="48.68901" lon="6.13426">
        <ele>481</ele>
        <time>2020-10-03T12:31:52Z</time>
      </trkpt>
      <trkpt lat="48.68902" lon="6.13423">
        <ele>481.2</ele>
        <time>2020-10-03T12:31:53Z</time>
      </trkpt>
      <trkpt lat="48.68903" lon="6.1342">
        <ele>481.4</ele>
        <time>2020-10-03T12:31:54Z</time>
      </trkpt>
      <trkpt lat="48.68903" lon="6.13417">
        <ele>481.8</ele>
        <time>2020-10-03T12:31:55Z</time>
      </trkpt>
      <trkpt lat="48.68904" lon="6.13414">
        <ele>481.8</ele>
        <time>2020-10-03T12:31:56Z</time>
      </trkpt>
      <trkpt lat="48.68905" lon="6.13411">
        <ele>482</ele>
        <time>2020-10-03T12:31:57Z</time>
      </trkpt>
      <trkpt lat="48.68906" lon="6.13408">
        <ele>482</ele>
        <time>2020-10-03T12:31:58Z</time>
      </trkpt>
      <trkpt lat="48.68906" lon="6.13404">
        <ele>482.2</ele>
        <time>2020-10-03T12:31:59Z</time>
      </trkpt>
      <trkpt lat="48.68906" lon="6.134">
        <ele>482.4</ele>
        <time>2020-10-03T12:32:00Z</time>
      </trkpt>
      <trkpt lat="48.68906" lon="6.13397">
        <ele>482.6</ele>
        <time>2020-10-03T12:32:01Z</time>
      </trkpt>
      <trkpt lat="48.68906" lon="6.13394">
        <ele>482.8</ele>
        <time>2020-10-03T12:32:02Z</time>
      </trkpt>
      <trkpt lat="48.68907" lon="6.13391">
        <ele>483</ele>
        <time>2020-10-03T12:32:03Z</time>
      </trkpt>
      <trkpt lat="48.68907" lon="6.13388">
        <ele>483.4</ele>
        <time>2020-10-03T12:32:04Z</time>
      </trkpt>
      <trkpt lat="48.68908" lon="6.13385">
        <ele>483.4</ele>
        <time>2020-10-03T12:32:05Z</time>
      </trkpt>
      <trkpt lat="48.68908" lon="6.13381">
        <ele>483.6</ele>
        <time>2020-10-03T12:32:06Z</time>
      </trkpt>
      <trkpt lat="48.68909" lon="6.13378">
        <ele>484</ele>
        <time>2020-10-03T12:32:07Z</time>
      </trkpt>
      <trkpt lat="48.68909" lon="6.13375">
        <ele>484.2</ele>
        <time>2020-10-03T12:32:08Z</time>
      </trkpt>
      <trkpt lat="48.6891" lon="6.13372">
        <ele>484.4</ele>
        <time>2020-10-03T12:32:09Z</time>
      </trkpt>
      <trkpt lat="48.6891" lon="6.13369">
        <ele>484.6</ele>
        <time>2020-10-03T12:32:10Z</time>
      </trkpt>
      <trkpt lat="48.68911" lon="6.13366">
        <ele>484.8</ele>
        <time>2020-10-03T12:32:11Z</time>
      </trkpt>
      <trkpt lat="48.68911" lon="6.13363">
        <ele>484.8</ele>
        <time>2020-10-03T12:32:12Z</time>
      </trkpt>
      <trkpt lat="48.68911" lon="6.1336">
        <ele>485</ele>
        <time>2020-10-03T12:32:13Z</time>
      </trkpt>
      <trkpt lat="48.68912" lon="6.13356">
        <ele>485.2</ele>
        <time>2020-10-03T12:32:14Z</time>
      </trkpt>
      <trkpt lat="48.68912" lon="6.13353">
        <ele>485.2</ele>
        <time>2020-10-03T12:32:15Z</time>
      </trkpt>
      <trkpt lat="48.68912" lon="6.1335">
        <ele>485.2</ele>
        <time>2020-10-03T12:32:16Z</time>
      </trkpt>
      <trkpt lat="48.68913" lon="6.13347">
        <ele>485.4</ele>
        <time>2020-10-03T12:32:17Z</time>
      </trkpt>
      <trkpt lat="48.68914" lon="6.13344">
        <ele>485.6</ele>
        <time>2020-10-03T12:32:18Z</time>
      </trkpt>
      <trkpt lat="48.68914" lon="6.13341">
        <ele>485.6</ele>
        <time>2020-10-03T12:32:19Z</time>
      </trkpt>
      <trkpt lat="48.68915" lon="6.13338">
        <ele>485.6</ele>
        <time>2020-10-03T12:32:20Z</time>
      </trkpt>
      <trkpt lat="48.68915" lon="6.13335">
        <ele>485.8</ele>
        <time>2020-10-03T12:32:21Z</time>
      </trkpt>
      <trkpt lat="48.68916" lon="6.13332">
        <ele>486</ele>
        <time>2020-10-03T12:32:22Z</time>
      </trkpt>
      <trkpt lat="48.68916" lon="6.13328">
        <ele>486.2</ele>
        <time>2020-10-03T12:32:23Z</time>
      </trkpt>
      <trkpt lat="48.68917" lon="6.13325">
        <ele>486.2</ele>
        <time>2020-10-03T12:32:24Z</time>
      </trkpt>
      <trkpt lat="48.68917" lon="6.13323">
        <ele>486.2</ele>
        <time>2020-10-03T12:32:25Z</time>
      </trkpt>
      <trkpt lat="48.68918" lon="6.1332">
        <ele>486.2</ele>
        <time>2020-10-03T12:32:26Z</time>
      </trkpt>
      <trkpt lat="48.68919" lon="6.13317">
        <ele>486.4</ele>
        <time>2020-10-03T12:32:27Z</time>
      </trkpt>
      <trkpt lat="48.68919" lon="6.13314">
        <ele>486.6</ele>
        <time>2020-10-03T12:32:28Z</time>
      </trkpt>
      <trkpt lat="48.6892" lon="6.13312">
        <ele>486.8</ele>
        <time>2020-10-03T12:32:29Z</time>
      </trkpt>
      <trkpt lat="48.6892" lon="6.13309">
        <ele>486.8</ele>
        <time>2020-10-03T12:32:30Z</time>
      </trkpt>
      <trkpt lat="48.68921" lon="6.13306">
        <ele>486.8</ele>
        <time>2020-10-03T12:32:31Z</time>
      </trkpt>
      <trkpt lat="48.68921" lon="6.13303">
        <ele>486.8</ele>
        <time>2020-10-03T12:32:32Z</time>
      </trkpt>
      <trkpt lat="48.68922" lon="6.13301">
        <ele>487</ele>
        <time>2020-10-03T12:32:33Z</time>
      </trkpt>
      <trkpt lat="48.68922" lon="6.13298">
        <ele>487.2</ele>
        <time>2020-10-03T12:32:34Z</time>
      </trkpt>
      <trkpt lat="48.68923" lon="6.13295">
        <ele>487.2</ele>
        <time>2020-10-03T12:32:35Z</time>
      </trkpt>
      <trkpt lat="48.68923" lon="6.13292">
        <ele>487.4</ele>
        <time>2020-10-03T12:32:36Z</time>
      </trkpt>
      <trkpt lat="48.68924" lon="6.13289">
        <ele>487.8</ele>
        <time>2020-10-03T12:32:37Z</time>
      </trkpt>
      <trkpt lat="48.68925" lon="6.13286">
        <ele>487.8</ele>
        <time>2020-10-03T12:32:38Z</time>
      </trkpt>
      <trkpt lat="48.68925" lon="6.13283">
        <ele>488</ele>
        <time>2020-10-03T12:32:39Z</time>
      </trkpt>
      <trkpt lat="48.68925" lon="6.13279">
        <ele>488.2</ele>
        <time>2020-10-03T12:32:40Z</time>
      </trkpt>
      <trkpt lat="48.68923" lon="6.13274">
        <ele>488.2</ele>
        <time>2020-10-03T12:32:41Z</time>
      </trkpt>
      <trkpt lat="48.6892" lon="6.1327">
        <ele>488.6</ele>
        <time>2020-10-03T12:32:42Z</time>
      </trkpt>
      <trkpt lat="48.68917" lon="6.13267">
        <ele>489</ele>
        <time>2020-10-03T12:32:43Z</time>
      </trkpt>
      <trkpt lat="48.68914" lon="6.13265">
        <ele>489.2</ele>
        <time>2020-10-03T12:32:44Z</time>
      </trkpt>
      <trkpt lat="48.6891" lon="6.13262">
        <ele>489.4</ele>
        <time>2020-10-03T12:32:45Z</time>
      </trkpt>
      <trkpt lat="48.68906" lon="6.1326">
        <ele>489.6</ele>
        <time>2020-10-03T12:32:46Z</time>
      </trkpt>
      <trkpt lat="48.68902" lon="6.13258">
        <ele>489.6</ele>
        <time>2020-10-03T12:32:47Z</time>
      </trkpt>
      <trkpt lat="48.68898" lon="6.13256">
        <ele>489.6</ele>
        <time>2020-10-03T12:32:48Z</time>
      </trkpt>
      <trkpt lat="48.68894" lon="6.13254">
        <ele>489.6</ele>
        <time>2020-10-03T12:32:49Z</time>
      </trkpt>
      <trkpt lat="48.68889" lon="6.13251">
        <ele>489.4</ele>
        <time>2020-10-03T12:32:50Z</time>
      </trkpt>
      <trkpt lat="48.68885" lon="6.13248">
        <ele>489.2</ele>
        <time>2020-10-03T12:32:51Z</time>
      </trkpt>
      <trkpt lat="48.6888" lon="6.13245">
        <ele>489.2</ele>
        <time>2020-10-03T12:32:52Z</time>
      </trkpt>
      <trkpt lat="48.68875" lon="6.13242">
        <ele>489</ele>
        <time>2020-10-03T12:32:53Z</time>
      </trkpt>
      <trkpt lat="48.68871" lon="6.13238">
        <ele>489</ele>
        <time>2020-10-03T12:32:54Z</time>
      </trkpt>
      <trkpt lat="48.68867" lon="6.13235">
        <ele>488.8</ele>
        <time>2020-10-03T12:32:55Z</time>
      </trkpt>
      <trkpt lat="48.68863" lon="6.13231">
        <ele>488.6</ele>
        <time>2020-10-03T12:32:56Z</time>
      </trkpt>
      <trkpt lat="48.68858" lon="6.13228">
        <ele>488.6</ele>
        <time>2020-10-03T12:32:57Z</time>
      </trkpt>
      <trkpt lat="48.68854" lon="6.13224">
        <ele>488.8</ele>
        <time>2020-10-03T12:32:58Z</time>
      </trkpt>
      <trkpt lat="48.6885" lon="6.1322">
        <ele>488.6</ele>
        <time>2020-10-03T12:32:59Z</time>
      </trkpt>
      <trkpt lat="48.68846" lon="6.13217">
        <ele>488.4</ele>
        <time>2020-10-03T12:33:00Z</time>
      </trkpt>
      <trkpt lat="48.68842" lon="6.13213">
        <ele>488.4</ele>
        <time>2020-10-03T12:33:01Z</time>
      </trkpt>
      <trkpt lat="48.68839" lon="6.13207">
        <ele>488.4</ele>
        <time>2020-10-03T12:33:02Z</time>
      </trkpt>
      <trkpt lat="48.68837" lon="6.13201">
        <ele>488.4</ele>
        <time>2020-10-03T12:33:03Z</time>
      </trkpt>
      <trkpt lat="48.68836" lon="6.13193">
        <ele>488.4</ele>
        <time>2020-10-03T12:33:04Z</time>
      </trkpt>
      <trkpt lat="48.68835" lon="6.13186">
        <ele>488.6</ele>
        <time>2020-10-03T12:33:05Z</time>
      </trkpt>
      <trkpt lat="48.68835" lon="6.13179">
        <ele>488.6</ele>
        <time>2020-10-03T12:33:06Z</time>
      </trkpt>
      <trkpt lat="48.68834" lon="6.13172">
        <ele>488.6</ele>
        <time>2020-10-03T12:33:07Z</time>
      </trkpt>
      <trkpt lat="48.68832" lon="6.13166">
        <ele>488.8</ele>
        <time>2020-10-03T12:33:08Z</time>
      </trkpt>
      <trkpt lat="48.68831" lon="6.13159">
        <ele>488.8</ele>
        <time>2020-10-03T12:33:09Z</time>
      </trkpt>
      <trkpt lat="48.68828" lon="6.13153">
        <ele>489</ele>
        <time>2020-10-03T12:33:10Z</time>
      </trkpt>
      <trkpt lat="48.68825" lon="6.13149">
        <ele>489.2</ele>
        <time>2020-10-03T12:33:11Z</time>
      </trkpt>
      <trkpt lat="48.68821" lon="6.13146">
        <ele>489.6</ele>
        <time>2020-10-03T12:33:12Z</time>
      </trkpt>
      <trkpt lat="48.68817" lon="6.13145">
        <ele>490</ele>
        <time>2020-10-03T12:33:13Z</time>
      </trkpt>
      <trkpt lat="48.68813" lon="6.13145">
        <ele>490.2</ele>
        <time>2020-10-03T12:33:14Z</time>
      </trkpt>
      <trkpt lat="48.6881" lon="6.13144">
        <ele>490.2</ele>
        <time>2020-10-03T12:33:15Z</time>
      </trkpt>
      <trkpt lat="48.68807" lon="6.13143">
        <ele>489.8</ele>
        <time>2020-10-03T12:33:16Z</time>
      </trkpt>
      <trkpt lat="48.68803" lon="6.13142">
        <ele>489.6</ele>
        <time>2020-10-03T12:33:17Z</time>
      </trkpt>
      <trkpt lat="48.688" lon="6.1314">
        <ele>489.6</ele>
        <time>2020-10-03T12:33:18Z</time>
      </trkpt>
      <trkpt lat="48.68796" lon="6.13139">
        <ele>489.6</ele>
        <time>2020-10-03T12:33:19Z</time>
      </trkpt>
      <trkpt lat="48.68792" lon="6.13138">
        <ele>489.4</ele>
        <time>2020-10-03T12:33:20Z</time>
      </trkpt>
      <trkpt lat="48.68788" lon="6.13136">
        <ele>489.2</ele>
        <time>2020-10-03T12:33:21Z</time>
      </trkpt>
      <trkpt lat="48.68784" lon="6.13134">
        <ele>489.2</ele>
        <time>2020-10-03T12:33:22Z</time>
      </trkpt>
      <trkpt lat="48.6878" lon="6.13132">
        <ele>489</ele>
        <time>2020-10-03T12:33:23Z</time>
      </trkpt>
      <trkpt lat="48.68775" lon="6.1313">
        <ele>488.8</ele>
        <time>2020-10-03T12:33:24Z</time>
      </trkpt>
      <trkpt lat="48.68771" lon="6.13128">
        <ele>488.4</ele>
        <time>2020-10-03T12:33:25Z</time>
      </trkpt>
      <trkpt lat="48.68765" lon="6.13127">
        <ele>487.8</ele>
        <time>2020-10-03T12:33:26Z</time>
      </trkpt>
      <trkpt lat="48.6876" lon="6.13125">
        <ele>487</ele>
        <time>2020-10-03T12:33:27Z</time>
      </trkpt>
      <trkpt lat="48.68754" lon="6.13124">
        <ele>486.8</ele>
        <time>2020-10-03T12:33:28Z</time>
      </trkpt>
      <trkpt lat="48.68748" lon="6.13122">
        <ele>486.6</ele>
        <time>2020-10-03T12:33:29Z</time>
      </trkpt>
      <trkpt lat="48.68743" lon="6.1312">
        <ele>486.6</ele>
        <time>2020-10-03T12:33:30Z</time>
      </trkpt>
      <trkpt lat="48.68737" lon="6.13119">
        <ele>486.4</ele>
        <time>2020-10-03T12:33:31Z</time>
      </trkpt>
      <trkpt lat="48.68731" lon="6.13117">
        <ele>486.4</ele>
        <time>2020-10-03T12:33:32Z</time>
      </trkpt>
      <trkpt lat="48.68724" lon="6.13115">
        <ele>486.2</ele>
        <time>2020-10-03T12:33:33Z</time>
      </trkpt>
      <trkpt lat="48.68719" lon="6.13113">
        <ele>486</ele>
        <time>2020-10-03T12:33:34Z</time>
      </trkpt>
      <trkpt lat="48.68713" lon="6.13111">
        <ele>485.8</ele>
        <time>2020-10-03T12:33:35Z</time>
      </trkpt>
      <trkpt lat="48.68707" lon="6.1311">
        <ele>485.6</ele>
        <time>2020-10-03T12:33:36Z</time>
      </trkpt>
      <trkpt lat="48.68702" lon="6.13108">
        <ele>485.4</ele>
        <time>2020-10-03T12:33:37Z</time>
      </trkpt>
      <trkpt lat="48.68696" lon="6.13106">
        <ele>485.2</ele>
        <time>2020-10-03T12:33:38Z</time>
      </trkpt>
      <trkpt lat="48.68691" lon="6.13104">
        <ele>485.2</ele>
        <time>2020-10-03T12:33:39Z</time>
      </trkpt>
      <trkpt lat="48.68686" lon="6.13102">
        <ele>485</ele>
        <time>2020-10-03T12:33:40Z</time>
      </trkpt>
      <trkpt lat="48.68681" lon="6.131">
        <ele>485</ele>
        <time>2020-10-03T12:33:41Z</time>
      </trkpt>
      <trkpt lat="48.68676" lon="6.13099">
        <ele>485.2</ele>
        <time>2020-10-03T12:33:42Z</time>
      </trkpt>
      <trkpt lat="48.68672" lon="6.13098">
        <ele>485.2</ele>
        <time>2020-10-03T12:33:43Z</time>
      </trkpt>
      <trkpt lat="48.68667" lon="6.13098">
        <ele>485.4</ele>
        <time>2020-10-03T12:33:44Z</time>
      </trkpt>
      <trkpt lat="48.68663" lon="6.13097">
        <ele>485.4</ele>
        <time>2020-10-03T12:33:45Z</time>
      </trkpt>
      <trkpt lat="48.6866" lon="6.13096">
        <ele>485.4</ele>
        <time>2020-10-03T12:33:46Z</time>
      </trkpt>
      <trkpt lat="48.68656" lon="6.13095">
        <ele>485.2</ele>
        <time>2020-10-03T12:33:47Z</time>
      </trkpt>
      <trkpt lat="48.68652" lon="6.13095">
        <ele>485.2</ele>
        <time>2020-10-03T12:33:48Z</time>
      </trkpt>
      <trkpt lat="48.68648" lon="6.13094">
        <ele>485.4</ele>
        <time>2020-10-03T12:33:49Z</time>
      </trkpt>
      <trkpt lat="48.68645" lon="6.13094">
        <ele>485.4</ele>
        <time>2020-10-03T12:33:50Z</time>
      </trkpt>
      <trkpt lat="48.68641" lon="6.13094">
        <ele>485.4</ele>
        <time>2020-10-03T12:33:51Z</time>
      </trkpt>
      <trkpt lat="48.68637" lon="6.13094">
        <ele>485.4</ele>
        <time>2020-10-03T12:33:52Z</time>
      </trkpt>
      <trkpt lat="48.68633" lon="6.13096">
        <ele>485.2</ele>
        <time>2020-10-03T12:33:53Z</time>
      </trkpt>
      <trkpt lat="48.68629" lon="6.13097">
        <ele>485.4</ele>
        <time>2020-10-03T12:33:54Z</time>
      </trkpt>
      <trkpt lat="48.68625" lon="6.13098">
        <ele>485.4</ele>
        <time>2020-10-03T12:33:55Z</time>
      </trkpt>
      <trkpt lat="48.68621" lon="6.13099">
        <ele>485.6</ele>
        <time>2020-10-03T12:33:56Z</time>
      </trkpt>
      <trkpt lat="48.68617" lon="6.13099">
        <ele>485.6</ele>
        <time>2020-10-03T12:33:57Z</time>
      </trkpt>
      <trkpt lat="48.68614" lon="6.131">
        <ele>485.6</ele>
        <time>2020-10-03T12:33:58Z</time>
      </trkpt>
      <trkpt lat="48.6861" lon="6.13101">
        <ele>485.8</ele>
        <time>2020-10-03T12:33:59Z</time>
      </trkpt>
      <trkpt lat="48.68606" lon="6.13102">
        <ele>486</ele>
        <time>2020-10-03T12:34:00Z</time>
      </trkpt>
      <trkpt lat="48.68602" lon="6.13103">
        <ele>486</ele>
        <time>2020-10-03T12:34:01Z</time>
      </trkpt>
      <trkpt lat="48.68599" lon="6.13104">
        <ele>485.8</ele>
        <time>2020-10-03T12:34:02Z</time>
      </trkpt>
      <trkpt lat="48.68595" lon="6.13104">
        <ele>485.8</ele>
        <time>2020-10-03T12:34:03Z</time>
      </trkpt>
      <trkpt lat="48.68592" lon="6.13104">
        <ele>485.8</ele>
        <time>2020-10-03T12:34:04Z</time>
      </trkpt>
      <trkpt lat="48.68588" lon="6.13103">
        <ele>485.8</ele>
        <time>2020-10-03T12:34:05Z</time>
      </trkpt>
      <trkpt lat="48.68584" lon="6.13103">
        <ele>485.8</ele>
        <time>2020-10-03T12:34:06Z</time>
      </trkpt>
      <trkpt lat="48.6858" lon="6.13103">
        <ele>485.8</ele>
        <time>2020-10-03T12:34:07Z</time>
      </trkpt>
      <trkpt lat="48.68576" lon="6.13103">
        <ele>485.8</ele>
        <time>2020-10-03T12:34:08Z</time>
      </trkpt>
      <trkpt lat="48.68573" lon="6.13103">
        <ele>485.8</ele>
        <time>2020-10-03T12:34:09Z</time>
      </trkpt>
      <trkpt lat="48.68569" lon="6.13102">
        <ele>485.8</ele>
        <time>2020-10-03T12:34:10Z</time>
      </trkpt>
      <trkpt lat="48.68565" lon="6.13102">
        <ele>485.6</ele>
        <time>2020-10-03T12:34:11Z</time>
      </trkpt>
      <trkpt lat="48.68561" lon="6.13101">
        <ele>485.8</ele>
        <time>2020-10-03T12:34:12Z</time>
      </trkpt>
      <trkpt lat="48.68557" lon="6.131">
        <ele>486.2</ele>
        <time>2020-10-03T12:34:13Z</time>
      </trkpt>
      <trkpt lat="48.68553" lon="6.13098">
        <ele>486.2</ele>
        <time>2020-10-03T12:34:14Z</time>
      </trkpt>
      <trkpt lat="48.6855" lon="6.13096">
        <ele>485.8</ele>
        <time>2020-10-03T12:34:15Z</time>
      </trkpt>
      <trkpt lat="48.68546" lon="6.13094">
        <ele>485.6</ele>
        <time>2020-10-03T12:34:16Z</time>
      </trkpt>
      <trkpt lat="48.68543" lon="6.13092">
        <ele>485.8</ele>
        <time>2020-10-03T12:34:17Z</time>
      </trkpt>
      <trkpt lat="48.6854" lon="6.13089">
        <ele>486.2</ele>
        <time>2020-10-03T12:34:18Z</time>
      </trkpt>
      <trkpt lat="48.68536" lon="6.13085">
        <ele>486.2</ele>
        <time>2020-10-03T12:34:19Z</time>
      </trkpt>
      <trkpt lat="48.68533" lon="6.13081">
        <ele>486.4</ele>
        <time>2020-10-03T12:34:20Z</time>
      </trkpt>
      <trkpt lat="48.68531" lon="6.13077">
        <ele>486.4</ele>
        <time>2020-10-03T12:34:21Z</time>
      </trkpt>
      <trkpt lat="48.68528" lon="6.13072">
        <ele>486.4</ele>
        <time>2020-10-03T12:34:22Z</time>
      </trkpt>
      <trkpt lat="48.68526" lon="6.13066">
        <ele>486.6</ele>
        <time>2020-10-03T12:34:23Z</time>
      </trkpt>
      <trkpt lat="48.68525" lon="6.13061">
        <ele>486.8</ele>
        <time>2020-10-03T12:34:24Z</time>
      </trkpt>
      <trkpt lat="48.68523" lon="6.13055">
        <ele>486.8</ele>
        <time>2020-10-03T12:34:25Z</time>
      </trkpt>
      <trkpt lat="48.68521" lon="6.1305">
        <ele>486.6</ele>
        <time>2020-10-03T12:34:26Z</time>
      </trkpt>
      <trkpt lat="48.68518" lon="6.13044">
        <ele>486.8</ele>
        <time>2020-10-03T12:34:27Z</time>
      </trkpt>
      <trkpt lat="48.68516" lon="6.13039">
        <ele>486.8</ele>
        <time>2020-10-03T12:34:28Z</time>
      </trkpt>
      <trkpt lat="48.68514" lon="6.13034">
        <ele>487</ele>
        <time>2020-10-03T12:34:29Z</time>
      </trkpt>
      <trkpt lat="48.68513" lon="6.13029">
        <ele>487.2</ele>
        <time>2020-10-03T12:34:30Z</time>
      </trkpt>
      <trkpt lat="48.6851" lon="6.13023">
        <ele>487.4</ele>
        <time>2020-10-03T12:34:31Z</time>
      </trkpt>
      <trkpt lat="48.68508" lon="6.13018">
        <ele>487.4</ele>
        <time>2020-10-03T12:34:32Z</time>
      </trkpt>
      <trkpt lat="48.68506" lon="6.13013">
        <ele>487.4</ele>
        <time>2020-10-03T12:34:33Z</time>
      </trkpt>
      <trkpt lat="48.68504" lon="6.13007">
        <ele>487.6</ele>
        <time>2020-10-03T12:34:34Z</time>
      </trkpt>
      <trkpt lat="48.68502" lon="6.13002">
        <ele>488</ele>
        <time>2020-10-03T12:34:35Z</time>
      </trkpt>
      <trkpt lat="48.68501" lon="6.12996">
        <ele>488.2</ele>
        <time>2020-10-03T12:34:36Z</time>
      </trkpt>
      <trkpt lat="48.68499" lon="6.12991">
        <ele>488.4</ele>
        <time>2020-10-03T12:34:37Z</time>
      </trkpt>
      <trkpt lat="48.68497" lon="6.12986">
        <ele>488.6</ele>
        <time>2020-10-03T12:34:38Z</time>
      </trkpt>
      <trkpt lat="48.68495" lon="6.12981">
        <ele>489.2</ele>
        <time>2020-10-03T12:34:39Z</time>
      </trkpt>
      <trkpt lat="48.68493" lon="6.12976">
        <ele>489.6</ele>
        <time>2020-10-03T12:34:40Z</time>
      </trkpt>
      <trkpt lat="48.68491" lon="6.12972">
        <ele>489.8</ele>
        <time>2020-10-03T12:34:41Z</time>
      </trkpt>
      <trkpt lat="48.6849" lon="6.12968">
        <ele>490</ele>
        <time>2020-10-03T12:34:42Z</time>
      </trkpt>
      <trkpt lat="48.68488" lon="6.12964">
        <ele>490.2</ele>
        <time>2020-10-03T12:34:43Z</time>
      </trkpt>
      <trkpt lat="48.68486" lon="6.12961">
        <ele>490.4</ele>
        <time>2020-10-03T12:34:44Z</time>
      </trkpt>
      <trkpt lat="48.68483" lon="6.12958">
        <ele>490.6</ele>
        <time>2020-10-03T12:34:45Z</time>
      </trkpt>
      <trkpt lat="48.68481" lon="6.12957">
        <ele>490.8</ele>
        <time>2020-10-03T12:34:46Z</time>
      </trkpt>
      <trkpt lat="48.68479" lon="6.12956">
        <ele>491</ele>
        <time>2020-10-03T12:34:47Z</time>
      </trkpt>
      <trkpt lat="48.68478" lon="6.12954">
        <ele>491.2</ele>
        <time>2020-10-03T12:34:48Z</time>
      </trkpt>
      <trkpt lat="48.68476" lon="6.12954">
        <ele>491.2</ele>
        <time>2020-10-03T12:34:49Z</time>
      </trkpt>
      <trkpt lat="48.68475" lon="6.12954">
        <ele>491.2</ele>
        <time>2020-10-03T12:34:50Z</time>
      </trkpt>
      <trkpt lat="48.68474" lon="6.12954">
        <ele>491.4</ele>
        <time>2020-10-03T12:34:51Z</time>
      </trkpt>
      <trkpt lat="48.68472" lon="6.12956">
        <ele>491.2</ele>
        <time>2020-10-03T12:34:52Z</time>
      </trkpt>
      <trkpt lat="48.68471" lon="6.12957">
        <ele>491.2</ele>
        <time>2020-10-03T12:34:53Z</time>
      </trkpt>
      <trkpt lat="48.6847" lon="6.12958">
        <ele>491.2</ele>
        <time>2020-10-03T12:34:54Z</time>
      </trkpt>
      <trkpt lat="48.68469" lon="6.12961">
        <ele>491</ele>
        <time>2020-10-03T12:34:55Z</time>
      </trkpt>
      <trkpt lat="48.68469" lon="6.12962">
        <ele>490.8</ele>
        <time>2020-10-03T12:34:56Z</time>
      </trkpt>
      <trkpt lat="48.68468" lon="6.12963">
        <ele>490.8</ele>
        <time>2020-10-03T12:34:57Z</time>
      </trkpt>
      <trkpt lat="48.68469" lon="6.12964">
        <ele>490.8</ele>
        <time>2020-10-03T12:34:58Z</time>
      </trkpt>
      <trkpt lat="48.68469" lon="6.12966">
        <ele>490.6</ele>
        <time>2020-10-03T12:34:59Z</time>
      </trkpt>
      <trkpt lat="48.68468" lon="6.12969">
        <ele>490.4</ele>
        <time>2020-10-03T12:35:00Z</time>
      </trkpt>
      <trkpt lat="48.68467" lon="6.12972">
        <ele>490.2</ele>
        <time>2020-10-03T12:35:01Z</time>
      </trkpt>
      <trkpt lat="48.68468" lon="6.12974">
        <ele>489.8</ele>
        <time>2020-10-03T12:35:02Z</time>
      </trkpt>
      <trkpt lat="48.68467" lon="6.12976">
        <ele>489.6</ele>
        <time>2020-10-03T12:35:03Z</time>
      </trkpt>
      <trkpt lat="48.68467" lon="6.12978">
        <ele>489.2</ele>
        <time>2020-10-03T12:35:04Z</time>
      </trkpt>
      <trkpt lat="48.68467" lon="6.12979">
        <ele>488.8</ele>
        <time>2020-10-03T12:35:05Z</time>
      </trkpt>
      <trkpt lat="48.68467" lon="6.12981">
        <ele>488.6</ele>
        <time>2020-10-03T12:35:06Z</time>
      </trkpt>
      <trkpt lat="48.68468" lon="6.12983">
        <ele>488.4</ele>
        <time>2020-10-03T12:35:07Z</time>
      </trkpt>
      <trkpt lat="48.68468" lon="6.12986">
        <ele>488.4</ele>
        <time>2020-10-03T12:35:08Z</time>
      </trkpt>
      <trkpt lat="48.68467" lon="6.12989">
        <ele>488.4</ele>
        <time>2020-10-03T12:35:09Z</time>
      </trkpt>
      <trkpt lat="48.68466" lon="6.12993">
        <ele>488.2</ele>
        <time>2020-10-03T12:35:10Z</time>
      </trkpt>
      <trkpt lat="48.68465" lon="6.12997">
        <ele>488.2</ele>
        <time>2020-10-03T12:35:11Z</time>
      </trkpt>
      <trkpt lat="48.68464" lon="6.12998">
        <ele>488</ele>
        <time>2020-10-03T12:35:12Z</time>
      </trkpt>
      <trkpt lat="48.68463" lon="6.13001">
        <ele>487.6</ele>
        <time>2020-10-03T12:35:13Z</time>
      </trkpt>
      <trkpt lat="48.68462" lon="6.13004">
        <ele>487.4</ele>
        <time>2020-10-03T12:35:14Z</time>
      </trkpt>
      <trkpt lat="48.68461" lon="6.13005">
        <ele>487.4</ele>
        <time>2020-10-03T12:35:15Z</time>
      </trkpt>
      <trkpt lat="48.6846" lon="6.13006">
        <ele>487.4</ele>
        <time>2020-10-03T12:35:16Z</time>
      </trkpt>
      <trkpt lat="48.68458" lon="6.13009">
        <ele>487.4</ele>
        <time>2020-10-03T12:35:17Z</time>
      </trkpt>
      <trkpt lat="48.68457" lon="6.13012">
        <ele>487.6</ele>
        <time>2020-10-03T12:35:18Z</time>
      </trkpt>
      <trkpt lat="48.68455" lon="6.13015">
        <ele>488</ele>
        <time>2020-10-03T12:35:19Z</time>
      </trkpt>
      <trkpt lat="48.68452" lon="6.13017">
        <ele>488.2</ele>
        <time>2020-10-03T12:35:20Z</time>
      </trkpt>
      <trkpt lat="48.68449" lon="6.13019">
        <ele>488.6</ele>
        <time>2020-10-03T12:35:21Z</time>
      </trkpt>
      <trkpt lat="48.68446" lon="6.1302">
        <ele>488.6</ele>
        <time>2020-10-03T12:35:22Z</time>
      </trkpt>
      <trkpt lat="48.68443" lon="6.13024">
        <ele>488.6</ele>
        <time>2020-10-03T12:35:23Z</time>
      </trkpt>
      <trkpt lat="48.68441" lon="6.13025">
        <ele>488.6</ele>
        <time>2020-10-03T12:35:24Z</time>
      </trkpt>
      <trkpt lat="48.68435" lon="6.13028">
        <ele>488.6</ele>
        <time>2020-10-03T12:35:25Z</time>
      </trkpt>
      <trkpt lat="48.68434" lon="6.13027">
        <ele>489</ele>
        <time>2020-10-03T12:35:26Z</time>
      </trkpt>
      <trkpt lat="48.68433" lon="6.13027">
        <ele>489.2</ele>
        <time>2020-10-03T12:35:27Z</time>
      </trkpt>
      <trkpt lat="48.68431" lon="6.13027">
        <ele>489.4</ele>
        <time>2020-10-03T12:35:28Z</time>
      </trkpt>
      <trkpt lat="48.6843" lon="6.13027">
        <ele>489.8</ele>
        <time>2020-10-03T12:35:29Z</time>
      </trkpt>
      <trkpt lat="48.68426" lon="6.13027">
        <ele>489.8</ele>
        <time>2020-10-03T12:35:30Z</time>
      </trkpt>
      <trkpt lat="48.68423" lon="6.13027">
        <ele>490</ele>
        <time>2020-10-03T12:35:31Z</time>
      </trkpt>
      <trkpt lat="48.6842" lon="6.13028">
        <ele>490.2</ele>
        <time>2020-10-03T12:35:32Z</time>
      </trkpt>
      <trkpt lat="48.68418" lon="6.13029">
        <ele>490.4</ele>
        <time>2020-10-03T12:35:33Z</time>
      </trkpt>
      <trkpt lat="48.68417" lon="6.1303">
        <ele>490.4</ele>
        <time>2020-10-03T12:35:34Z</time>
      </trkpt>
      <trkpt lat="48.68416" lon="6.13031">
        <ele>490.6</ele>
        <time>2020-10-03T12:35:35Z</time>
      </trkpt>
      <trkpt lat="48.68414" lon="6.13032">
        <ele>490.4</ele>
        <time>2020-10-03T12:35:36Z</time>
      </trkpt>
      <trkpt lat="48.68412" lon="6.13034">
        <ele>490.4</ele>
        <time>2020-10-03T12:35:37Z</time>
      </trkpt>
      <trkpt lat="48.6841" lon="6.13034">
        <ele>490.2</ele>
        <time>2020-10-03T12:35:38Z</time>
      </trkpt>
      <trkpt lat="48.68369" lon="6.13041">
        <ele>491.2</ele>
        <time>2020-10-03T12:36:47Z</time>
      </trkpt>
      <trkpt lat="48.68366" lon="6.1304">
        <ele>491.4</ele>
        <time>2020-10-03T12:36:48Z</time>
      </trkpt>
      <trkpt lat="48.68364" lon="6.1304">
        <ele>491.6</ele>
        <time>2020-10-03T12:36:49Z</time>
      </trkpt>
      <trkpt lat="48.68362" lon="6.13039">
        <ele>491.8</ele>
        <time>2020-10-03T12:36:50Z</time>
      </trkpt>
      <trkpt lat="48.6836" lon="6.1304">
        <ele>491.8</ele>
        <time>2020-10-03T12:36:51Z</time>
      </trkpt>
      <trkpt lat="48.68359" lon="6.13039">
        <ele>491.8</ele>
        <time>2020-10-03T12:36:52Z</time>
      </trkpt>
      <trkpt lat="48.68358" lon="6.13039">
        <ele>492</ele>
        <time>2020-10-03T12:36:53Z</time>
      </trkpt>
      <trkpt lat="48.68356" lon="6.13038">
        <ele>492.2</ele>
        <time>2020-10-03T12:36:54Z</time>
      </trkpt>
      <trkpt lat="48.68354" lon="6.13037">
        <ele>492.2</ele>
        <time>2020-10-03T12:36:55Z</time>
      </trkpt>
      <trkpt lat="48.68353" lon="6.13036">
        <ele>492.2</ele>
        <time>2020-10-03T12:36:56Z</time>
      </trkpt>
      <trkpt lat="48.68351" lon="6.13036">
        <ele>492.2</ele>
        <time>2020-10-03T12:36:57Z</time>
      </trkpt>
      <trkpt lat="48.68348" lon="6.13038">
        <ele>492.2</ele>
        <time>2020-10-03T12:36:58Z</time>
      </trkpt>
      <trkpt lat="48.68344" lon="6.13039">
        <ele>492.4</ele>
        <time>2020-10-03T12:36:59Z</time>
      </trkpt>
      <trkpt lat="48.68339" lon="6.13039">
        <ele>492.6</ele>
        <time>2020-10-03T12:37:00Z</time>
      </trkpt>
      <trkpt lat="48.68336" lon="6.13041">
        <ele>492.6</ele>
        <time>2020-10-03T12:37:01Z</time>
      </trkpt>
      <trkpt lat="48.6833" lon="6.13043">
        <ele>492.6</ele>
        <time>2020-10-03T12:37:02Z</time>
      </trkpt>
      <trkpt lat="48.68327" lon="6.13045">
        <ele>492.8</ele>
        <time>2020-10-03T12:37:03Z</time>
      </trkpt>
      <trkpt lat="48.68327" lon="6.13045">
        <ele>492.8</ele>
        <time>2020-10-03T12:37:04Z</time>
      </trkpt>
      <trkpt lat="48.68321" lon="6.13047">
        <ele>492.8</ele>
        <time>2020-10-03T12:37:05Z</time>
      </trkpt>
      <trkpt lat="48.68321" lon="6.13047">
        <ele>493</ele>
        <time>2020-10-03T12:37:06Z</time>
      </trkpt>
      <trkpt lat="48.68317" lon="6.13048">
        <ele>493</ele>
        <time>2020-10-03T12:37:07Z</time>
      </trkpt>
      <trkpt lat="48.68317" lon="6.13048">
        <ele>493</ele>
        <time>2020-10-03T12:37:08Z</time>
      </trkpt>
      <trkpt lat="48.68312" lon="6.13048">
        <ele>493</ele>
        <time>2020-10-03T12:37:09Z</time>
      </trkpt>
      <trkpt lat="48.68312" lon="6.13048">
        <ele>493.2</ele>
        <time>2020-10-03T12:37:10Z</time>
      </trkpt>
      <trkpt lat="48.68309" lon="6.13048">
        <ele>493.4</ele>
        <time>2020-10-03T12:37:11Z</time>
      </trkpt>
      <trkpt lat="48.68305" lon="6.13051">
        <ele>493.4</ele>
        <time>2020-10-03T12:37:12Z</time>
      </trkpt>
      <trkpt lat="48.68303" lon="6.13053">
        <ele>493.4</ele>
        <time>2020-10-03T12:37:13Z</time>
      </trkpt>
      <trkpt lat="48.68303" lon="6.13054">
        <ele>493.2</ele>
        <time>2020-10-03T12:37:14Z</time>
      </trkpt>
      <trkpt lat="48.683" lon="6.13055">
        <ele>493</ele>
        <time>2020-10-03T12:37:15Z</time>
      </trkpt>
      <trkpt lat="48.68298" lon="6.13057">
        <ele>493</ele>
        <time>2020-10-03T12:37:16Z</time>
      </trkpt>
      <trkpt lat="48.68295" lon="6.13058">
        <ele>493</ele>
        <time>2020-10-03T12:37:17Z</time>
      </trkpt>
      <trkpt lat="48.68291" lon="6.13061">
        <ele>492.8</ele>
        <time>2020-10-03T12:37:18Z</time>
      </trkpt>
      <trkpt lat="48.68289" lon="6.13062">
        <ele>492.8</ele>
        <time>2020-10-03T12:37:19Z</time>
      </trkpt>
      <trkpt lat="48.68288" lon="6.13062">
        <ele>492.8</ele>
        <time>2020-10-03T12:37:20Z</time>
      </trkpt>
      <trkpt lat="48.68284" lon="6.13063">
        <ele>492.8</ele>
        <time>2020-10-03T12:37:21Z</time>
      </trkpt>
      <trkpt lat="48.68283" lon="6.13063">
        <ele>492.8</ele>
        <time>2020-10-03T12:37:22Z</time>
      </trkpt>
      <trkpt lat="48.68265" lon="6.13059">
        <ele>493.2</ele>
        <time>2020-10-03T12:37:32Z</time>
      </trkpt>
      <trkpt lat="48.68263" lon="6.13059">
        <ele>493.2</ele>
        <time>2020-10-03T12:37:33Z</time>
      </trkpt>
      <trkpt lat="48.68261" lon="6.13058">
        <ele>493.2</ele>
        <time>2020-10-03T12:37:34Z</time>
      </trkpt>
      <trkpt lat="48.6826" lon="6.13058">
        <ele>493.2</ele>
        <time>2020-10-03T12:37:35Z</time>
      </trkpt>
      <trkpt lat="48.68259" lon="6.13058">
        <ele>493.2</ele>
        <time>2020-10-03T12:37:36Z</time>
      </trkpt>
      <trkpt lat="48.68259" lon="6.13057">
        <ele>493</ele>
        <time>2020-10-03T12:37:37Z</time>
      </trkpt>
      <trkpt lat="48.68257" lon="6.13057">
        <ele>493</ele>
        <time>2020-10-03T12:37:38Z</time>
      </trkpt>
      <trkpt lat="48.68255" lon="6.13058">
        <ele>493</ele>
        <time>2020-10-03T12:37:39Z</time>
      </trkpt>
      <trkpt lat="48.68253" lon="6.1306">
        <ele>493.2</ele>
        <time>2020-10-03T12:37:40Z</time>
      </trkpt>
      <trkpt lat="48.68252" lon="6.13059">
        <ele>493.2</ele>
        <time>2020-10-03T12:37:41Z</time>
      </trkpt>
      <trkpt lat="48.6825" lon="6.1306">
        <ele>493</ele>
        <time>2020-10-03T12:37:42Z</time>
      </trkpt>
      <trkpt lat="48.68249" lon="6.13061">
        <ele>493</ele>
        <time>2020-10-03T12:37:43Z</time>
      </trkpt>
      <trkpt lat="48.68248" lon="6.13062">
        <ele>493</ele>
        <time>2020-10-03T12:37:44Z</time>
      </trkpt>
      <trkpt lat="48.68247" lon="6.13062">
        <ele>493.2</ele>
        <time>2020-10-03T12:37:45Z</time>
      </trkpt>
      <trkpt lat="48.68244" lon="6.13063">
        <ele>493.4</ele>
        <time>2020-10-03T12:37:46Z</time>
      </trkpt>
      <trkpt lat="48.68242" lon="6.13064">
        <ele>493.4</ele>
        <time>2020-10-03T12:37:47Z</time>
      </trkpt>
      <trkpt lat="48.68239" lon="6.13065">
        <ele>493.2</ele>
        <time>2020-10-03T12:37:48Z</time>
      </trkpt>
      <trkpt lat="48.68236" lon="6.13066">
        <ele>493.2</ele>
        <time>2020-10-03T12:37:49Z</time>
      </trkpt>
      <trkpt lat="48.68234" lon="6.13067">
        <ele>493.2</ele>
        <time>2020-10-03T12:37:50Z</time>
      </trkpt>
      <trkpt lat="48.68232" lon="6.13068">
        <ele>493.2</ele>
        <time>2020-10-03T12:37:51Z</time>
      </trkpt>
      <trkpt lat="48.6823" lon="6.13069">
        <ele>493</ele>
        <time>2020-10-03T12:37:52Z</time>
      </trkpt>
      <trkpt lat="48.68228" lon="6.13069">
        <ele>493</ele>
        <time>2020-10-03T12:37:53Z</time>
      </trkpt>
      <trkpt lat="48.68224" lon="6.1307">
        <ele>493</ele>
        <time>2020-10-03T12:37:54Z</time>
      </trkpt>
      <trkpt lat="48.68221" lon="6.13071">
        <ele>492.8</ele>
        <time>2020-10-03T12:37:55Z</time>
      </trkpt>
      <trkpt lat="48.68217" lon="6.13074">
        <ele>492.6</ele>
        <time>2020-10-03T12:37:56Z</time>
      </trkpt>
      <trkpt lat="48.68215" lon="6.13074">
        <ele>492.8</ele>
        <time>2020-10-03T12:37:57Z</time>
      </trkpt>
      <trkpt lat="48.68213" lon="6.13076">
        <ele>492.8</ele>
        <time>2020-10-03T12:37:58Z</time>
      </trkpt>
      <trkpt lat="48.68211" lon="6.13077">
        <ele>492.8</ele>
        <time>2020-10-03T12:37:59Z</time>
      </trkpt>
      <trkpt lat="48.68209" lon="6.13078">
        <ele>492.8</ele>
        <time>2020-10-03T12:38:00Z</time>
      </trkpt>
      <trkpt lat="48.68207" lon="6.13079">
        <ele>492.8</ele>
        <time>2020-10-03T12:38:01Z</time>
      </trkpt>
      <trkpt lat="48.68194" lon="6.13081">
        <ele>493</ele>
        <time>2020-10-03T12:38:08Z</time>
      </trkpt>
      <trkpt lat="48.68192" lon="6.13081">
        <ele>493</ele>
        <time>2020-10-03T12:38:09Z</time>
      </trkpt>
      <trkpt lat="48.68189" lon="6.13082">
        <ele>493</ele>
        <time>2020-10-03T12:38:10Z</time>
      </trkpt>
      <trkpt lat="48.68186" lon="6.13083">
        <ele>493</ele>
        <time>2020-10-03T12:38:11Z</time>
      </trkpt>
      <trkpt lat="48.68183" lon="6.13085">
        <ele>492.8</ele>
        <time>2020-10-03T12:38:12Z</time>
      </trkpt>
      <trkpt lat="48.6818" lon="6.13086">
        <ele>492.8</ele>
        <time>2020-10-03T12:38:13Z</time>
      </trkpt>
      <trkpt lat="48.68175" lon="6.13088">
        <ele>493</ele>
        <time>2020-10-03T12:38:14Z</time>
      </trkpt>
      <trkpt lat="48.68168" lon="6.1309">
        <ele>492.8</ele>
        <time>2020-10-03T12:38:15Z</time>
      </trkpt>
      <trkpt lat="48.68166" lon="6.13092">
        <ele>492.8</ele>
        <time>2020-10-03T12:38:16Z</time>
      </trkpt>
      <trkpt lat="48.68163" lon="6.13094">
        <ele>492.6</ele>
        <time>2020-10-03T12:38:17Z</time>
      </trkpt>
      <trkpt lat="48.68159" lon="6.13094">
        <ele>492.6</ele>
        <time>2020-10-03T12:38:18Z</time>
      </trkpt>
      <trkpt lat="48.68155" lon="6.13095">
        <ele>492.6</ele>
        <time>2020-10-03T12:38:19Z</time>
      </trkpt>
      <trkpt lat="48.68152" lon="6.13095">
        <ele>492.4</ele>
        <time>2020-10-03T12:38:20Z</time>
      </trkpt>
      <trkpt lat="48.68147" lon="6.13096">
        <ele>492.4</ele>
        <time>2020-10-03T12:38:21Z</time>
      </trkpt>
      <trkpt lat="48.68144" lon="6.13097">
        <ele>492.6</ele>
        <time>2020-10-03T12:38:22Z</time>
      </trkpt>
      <trkpt lat="48.6814" lon="6.13098">
        <ele>492.4</ele>
        <time>2020-10-03T12:38:23Z</time>
      </trkpt>
      <trkpt lat="48.68135" lon="6.13099">
        <ele>492.4</ele>
        <time>2020-10-03T12:38:24Z</time>
      </trkpt>
      <trkpt lat="48.68131" lon="6.13102">
        <ele>492.4</ele>
        <time>2020-10-03T12:38:25Z</time>
      </trkpt>
      <trkpt lat="48.68127" lon="6.13103">
        <ele>492.4</ele>
        <time>2020-10-03T12:38:26Z</time>
      </trkpt>
      <trkpt lat="48.68123" lon="6.13104">
        <ele>492.2</ele>
        <time>2020-10-03T12:38:27Z</time>
      </trkpt>
      <trkpt lat="48.68119" lon="6.13106">
        <ele>492</ele>
        <time>2020-10-03T12:38:28Z</time>
      </trkpt>
      <trkpt lat="48.68114" lon="6.13106">
        <ele>491.8</ele>
        <time>2020-10-03T12:38:29Z</time>
      </trkpt>
      <trkpt lat="48.6811" lon="6.13106">
        <ele>491.6</ele>
        <time>2020-10-03T12:38:30Z</time>
      </trkpt>
      <trkpt lat="48.68107" lon="6.13106">
        <ele>491.4</ele>
        <time>2020-10-03T12:38:31Z</time>
      </trkpt>
      <trkpt lat="48.68102" lon="6.13107">
        <ele>491.2</ele>
        <time>2020-10-03T12:38:32Z</time>
      </trkpt>
      <trkpt lat="48.68099" lon="6.13108">
        <ele>491.2</ele>
        <time>2020-10-03T12:38:33Z</time>
      </trkpt>
      <trkpt lat="48.68095" lon="6.13111">
        <ele>491</ele>
        <time>2020-10-03T12:38:34Z</time>
      </trkpt>
      <trkpt lat="48.68091" lon="6.13112">
        <ele>491</ele>
        <time>2020-10-03T12:38:35Z</time>
      </trkpt>
      <trkpt lat="48.68087" lon="6.13114">
        <ele>490.8</ele>
        <time>2020-10-03T12:38:36Z</time>
      </trkpt>
      <trkpt lat="48.68081" lon="6.13116">
        <ele>490.8</ele>
        <time>2020-10-03T12:38:37Z</time>
      </trkpt>
      <trkpt lat="48.68074" lon="6.13116">
        <ele>490.4</ele>
        <time>2020-10-03T12:38:38Z</time>
      </trkpt>
      <trkpt lat="48.6807" lon="6.13114">
        <ele>490</ele>
        <time>2020-10-03T12:38:39Z</time>
      </trkpt>
      <trkpt lat="48.68066" lon="6.13112">
        <ele>490</ele>
        <time>2020-10-03T12:38:40Z</time>
      </trkpt>
      <trkpt lat="48.68061" lon="6.13113">
        <ele>490</ele>
        <time>2020-10-03T12:38:41Z</time>
      </trkpt>
      <trkpt lat="48.68056" lon="6.13111">
        <ele>490.4</ele>
        <time>2020-10-03T12:38:42Z</time>
      </trkpt>
      <trkpt lat="48.68051" lon="6.13109">
        <ele>490.4</ele>
        <time>2020-10-03T12:38:43Z</time>
      </trkpt>
      <trkpt lat="48.68047" lon="6.13109">
        <ele>490.4</ele>
        <time>2020-10-03T12:38:44Z</time>
      </trkpt>
      <trkpt lat="48.68044" lon="6.13109">
        <ele>490.4</ele>
        <time>2020-10-03T12:38:45Z</time>
      </trkpt>
      <trkpt lat="48.6804" lon="6.13108">
        <ele>490.4</ele>
        <time>2020-10-03T12:38:46Z</time>
      </trkpt>
      <trkpt lat="48.68036" lon="6.13108">
        <ele>490.4</ele>
        <time>2020-10-03T12:38:47Z</time>
      </trkpt>
      <trkpt lat="48.68034" lon="6.13106">
        <ele>490.2</ele>
        <time>2020-10-03T12:38:48Z</time>
      </trkpt>
      <trkpt lat="48.68031" lon="6.13106">
        <ele>490.2</ele>
        <time>2020-10-03T12:38:49Z</time>
      </trkpt>
      <trkpt lat="48.68026" lon="6.13105">
        <ele>490.2</ele>
        <time>2020-10-03T12:38:50Z</time>
      </trkpt>
      <trkpt lat="48.68022" lon="6.13104">
        <ele>490.2</ele>
        <time>2020-10-03T12:38:51Z</time>
      </trkpt>
      <trkpt lat="48.68018" lon="6.13104">
        <ele>490.2</ele>
        <time>2020-10-03T12:38:52Z</time>
      </trkpt>
      <trkpt lat="48.68013" lon="6.13103">
        <ele>490.2</ele>
        <time>2020-10-03T12:38:53Z</time>
      </trkpt>
      <trkpt lat="48.68008" lon="6.13102">
        <ele>490.2</ele>
        <time>2020-10-03T12:38:54Z</time>
      </trkpt>
      <trkpt lat="48.68005" lon="6.131">
        <ele>490.2</ele>
        <time>2020-10-03T12:38:55Z</time>
      </trkpt>
      <trkpt lat="48.68" lon="6.13097">
        <ele>490.2</ele>
        <time>2020-10-03T12:38:56Z</time>
      </trkpt>
      <trkpt lat="48.67994" lon="6.13093">
        <ele>490.2</ele>
        <time>2020-10-03T12:38:57Z</time>
      </trkpt>
      <trkpt lat="48.67992" lon="6.13091">
        <ele>490</ele>
        <time>2020-10-03T12:38:58Z</time>
      </trkpt>
      <trkpt lat="48.67989" lon="6.13091">
        <ele>490</ele>
        <time>2020-10-03T12:38:59Z</time>
      </trkpt>
      <trkpt lat="48.67983" lon="6.13088">
        <ele>490</ele>
        <time>2020-10-03T12:39:00Z</time>
      </trkpt>
      <trkpt lat="48.6798" lon="6.13085">
        <ele>490</ele>
        <time>2020-10-03T12:39:01Z</time>
      </trkpt>
      <trkpt lat="48.67973" lon="6.13086">
        <ele>490</ele>
        <time>2020-10-03T12:39:02Z</time>
      </trkpt>
      <trkpt lat="48.67968" lon="6.13085">
        <ele>489.8</ele>
        <time>2020-10-03T12:39:03Z</time>
      </trkpt>
      <trkpt lat="48.67964" lon="6.13085">
        <ele>489.8</ele>
        <time>2020-10-03T12:39:04Z</time>
      </trkpt>
      <trkpt lat="48.67961" lon="6.13083">
        <ele>490.2</ele>
        <time>2020-10-03T12:39:05Z</time>
      </trkpt>
      <trkpt lat="48.67959" lon="6.13082">
        <ele>490</ele>
        <time>2020-10-03T12:39:06Z</time>
      </trkpt>
      <trkpt lat="48.67957" lon="6.1308">
        <ele>490</ele>
        <time>2020-10-03T12:39:07Z</time>
      </trkpt>
      <trkpt lat="48.67954" lon="6.1308">
        <ele>490</ele>
        <time>2020-10-03T12:39:08Z</time>
      </trkpt>
      <trkpt lat="48.67951" lon="6.1308">
        <ele>490</ele>
        <time>2020-10-03T12:39:09Z</time>
      </trkpt>
      <trkpt lat="48.67948" lon="6.13081">
        <ele>490</ele>
        <time>2020-10-03T12:39:10Z</time>
      </trkpt>
      <trkpt lat="48.67946" lon="6.1308">
        <ele>490</ele>
        <time>2020-10-03T12:39:11Z</time>
      </trkpt>
      <trkpt lat="48.67943" lon="6.13079">
        <ele>490</ele>
        <time>2020-10-03T12:39:12Z</time>
      </trkpt>
      <trkpt lat="48.67939" lon="6.13078">
        <ele>490</ele>
        <time>2020-10-03T12:39:13Z</time>
      </trkpt>
      <trkpt lat="48.67935" lon="6.13074">
        <ele>490</ele>
        <time>2020-10-03T12:39:14Z</time>
      </trkpt>
      <trkpt lat="48.67932" lon="6.13072">
        <ele>489.8</ele>
        <time>2020-10-03T12:39:15Z</time>
      </trkpt>
      <trkpt lat="48.67928" lon="6.1307">
        <ele>489.6</ele>
        <time>2020-10-03T12:39:16Z</time>
      </trkpt>
      <trkpt lat="48.67924" lon="6.13068">
        <ele>489.6</ele>
        <time>2020-10-03T12:39:17Z</time>
      </trkpt>
      <trkpt lat="48.67918" lon="6.13067">
        <ele>489.8</ele>
        <time>2020-10-03T12:39:18Z</time>
      </trkpt>
      <trkpt lat="48.67914" lon="6.13064">
        <ele>489.8</ele>
        <time>2020-10-03T12:39:19Z</time>
      </trkpt>
      <trkpt lat="48.6791" lon="6.13062">
        <ele>489.8</ele>
        <time>2020-10-03T12:39:20Z</time>
      </trkpt>
      <trkpt lat="48.67906" lon="6.1306">
        <ele>489.8</ele>
        <time>2020-10-03T12:39:21Z</time>
      </trkpt>
      <trkpt lat="48.67901" lon="6.13058">
        <ele>490</ele>
        <time>2020-10-03T12:39:22Z</time>
      </trkpt>
      <trkpt lat="48.67897" lon="6.13056">
        <ele>490</ele>
        <time>2020-10-03T12:39:23Z</time>
      </trkpt>
      <trkpt lat="48.6789" lon="6.13052">
        <ele>490.2</ele>
        <time>2020-10-03T12:39:24Z</time>
      </trkpt>
      <trkpt lat="48.67884" lon="6.13049">
        <ele>490.4</ele>
        <time>2020-10-03T12:39:25Z</time>
      </trkpt>
      <trkpt lat="48.67879" lon="6.13045">
        <ele>490.6</ele>
        <time>2020-10-03T12:39:26Z</time>
      </trkpt>
      <trkpt lat="48.67873" lon="6.13043">
        <ele>490.4</ele>
        <time>2020-10-03T12:39:27Z</time>
      </trkpt>
      <trkpt lat="48.67862" lon="6.13039">
        <ele>490.2</ele>
        <time>2020-10-03T12:39:28Z</time>
      </trkpt>
      <trkpt lat="48.67857" lon="6.13037">
        <ele>490.2</ele>
        <time>2020-10-03T12:39:29Z</time>
      </trkpt>
      <trkpt lat="48.6785" lon="6.13034">
        <ele>490.2</ele>
        <time>2020-10-03T12:39:30Z</time>
      </trkpt>
      <trkpt lat="48.67846" lon="6.13032">
        <ele>490.4</ele>
        <time>2020-10-03T12:39:31Z</time>
      </trkpt>
      <trkpt lat="48.67841" lon="6.13027">
        <ele>490.4</ele>
        <time>2020-10-03T12:39:32Z</time>
      </trkpt>
      <trkpt lat="48.67834" lon="6.13024">
        <ele>490.6</ele>
        <time>2020-10-03T12:39:33Z</time>
      </trkpt>
      <trkpt lat="48.67829" lon="6.13018">
        <ele>490.8</ele>
        <time>2020-10-03T12:39:34Z</time>
      </trkpt>
      <trkpt lat="48.67825" lon="6.13016">
        <ele>490.8</ele>
        <time>2020-10-03T12:39:35Z</time>
      </trkpt>
      <trkpt lat="48.67821" lon="6.13013">
        <ele>490.6</ele>
        <time>2020-10-03T12:39:36Z</time>
      </trkpt>
      <trkpt lat="48.67817" lon="6.13011">
        <ele>490.6</ele>
        <time>2020-10-03T12:39:37Z</time>
      </trkpt>
      <trkpt lat="48.67814" lon="6.13009">
        <ele>490.6</ele>
        <time>2020-10-03T12:39:38Z</time>
      </trkpt>
      <trkpt lat="48.6781" lon="6.13007">
        <ele>490.8</ele>
        <time>2020-10-03T12:39:39Z</time>
      </trkpt>
      <trkpt lat="48.67806" lon="6.13004">
        <ele>491</ele>
        <time>2020-10-03T12:39:40Z</time>
      </trkpt>
      <trkpt lat="48.67804" lon="6.13003">
        <ele>491.2</ele>
        <time>2020-10-03T12:39:41Z</time>
      </trkpt>
      <trkpt lat="48.67802" lon="6.13003">
        <ele>491.2</ele>
        <time>2020-10-03T12:39:42Z</time>
      </trkpt>
      <trkpt lat="48.67797" lon="6.12999">
        <ele>491</ele>
        <time>2020-10-03T12:39:43Z</time>
      </trkpt>
      <trkpt lat="48.67794" lon="6.12997">
        <ele>491</ele>
        <time>2020-10-03T12:39:44Z</time>
      </trkpt>
      <trkpt lat="48.6779" lon="6.12995">
        <ele>491</ele>
        <time>2020-10-03T12:39:45Z</time>
      </trkpt>
      <trkpt lat="48.67787" lon="6.12995">
        <ele>491.2</ele>
        <time>2020-10-03T12:39:46Z</time>
      </trkpt>
      <trkpt lat="48.67783" lon="6.12993">
        <ele>491.4</ele>
        <time>2020-10-03T12:39:47Z</time>
      </trkpt>
      <trkpt lat="48.67781" lon="6.12992">
        <ele>491.6</ele>
        <time>2020-10-03T12:39:48Z</time>
      </trkpt>
      <trkpt lat="48.67777" lon="6.12989">
        <ele>491.8</ele>
        <time>2020-10-03T12:39:49Z</time>
      </trkpt>
      <trkpt lat="48.67773" lon="6.12986">
        <ele>491.8</ele>
        <time>2020-10-03T12:39:50Z</time>
      </trkpt>
      <trkpt lat="48.67768" lon="6.12979">
        <ele>491.8</ele>
        <time>2020-10-03T12:39:51Z</time>
      </trkpt>
      <trkpt lat="48.67766" lon="6.12978">
        <ele>492</ele>
        <time>2020-10-03T12:39:52Z</time>
      </trkpt>
      <trkpt lat="48.67761" lon="6.12977">
        <ele>492.2</ele>
        <time>2020-10-03T12:39:53Z</time>
      </trkpt>
      <trkpt lat="48.67759" lon="6.12973">
        <ele>492.2</ele>
        <time>2020-10-03T12:39:54Z</time>
      </trkpt>
      <trkpt lat="48.67754" lon="6.12971">
        <ele>492.2</ele>
        <time>2020-10-03T12:39:55Z</time>
      </trkpt>
      <trkpt lat="48.67752" lon="6.12967">
        <ele>492.4</ele>
        <time>2020-10-03T12:39:56Z</time>
      </trkpt>
      <trkpt lat="48.67748" lon="6.12965">
        <ele>492.6</ele>
        <time>2020-10-03T12:39:57Z</time>
      </trkpt>
      <trkpt lat="48.67745" lon="6.12962">
        <ele>492.4</ele>
        <time>2020-10-03T12:39:58Z</time>
      </trkpt>
      <trkpt lat="48.67741" lon="6.12957">
        <ele>492.4</ele>
        <time>2020-10-03T12:39:59Z</time>
      </trkpt>
      <trkpt lat="48.67737" lon="6.12955">
        <ele>492.4</ele>
        <time>2020-10-03T12:40:00Z</time>
      </trkpt>
      <trkpt lat="48.67732" lon="6.12952">
        <ele>492.6</ele>
        <time>2020-10-03T12:40:01Z</time>
      </trkpt>
      <trkpt lat="48.67729" lon="6.1295">
        <ele>492.8</ele>
        <time>2020-10-03T12:40:02Z</time>
      </trkpt>
      <trkpt lat="48.67725" lon="6.12948">
        <ele>492.8</ele>
        <time>2020-10-03T12:40:03Z</time>
      </trkpt>
      <trkpt lat="48.67723" lon="6.12945">
        <ele>492.8</ele>
        <time>2020-10-03T12:40:04Z</time>
      </trkpt>
      <trkpt lat="48.67719" lon="6.12942">
        <ele>492.8</ele>
        <time>2020-10-03T12:40:05Z</time>
      </trkpt>
      <trkpt lat="48.67715" lon="6.12938">
        <ele>492.6</ele>
        <time>2020-10-03T12:40:06Z</time>
      </trkpt>
      <trkpt lat="48.67712" lon="6.12937">
        <ele>492.4</ele>
        <time>2020-10-03T12:40:07Z</time>
      </trkpt>
      <trkpt lat="48.67709" lon="6.12934">
        <ele>492.4</ele>
        <time>2020-10-03T12:40:08Z</time>
      </trkpt>
      <trkpt lat="48.67705" lon="6.12932">
        <ele>492.8</ele>
        <time>2020-10-03T12:40:09Z</time>
      </trkpt>
      <trkpt lat="48.67701" lon="6.1293">
        <ele>493.2</ele>
        <time>2020-10-03T12:40:10Z</time>
      </trkpt>
      <trkpt lat="48.67696" lon="6.12925">
        <ele>493.4</ele>
        <time>2020-10-03T12:40:11Z</time>
      </trkpt>
      <trkpt lat="48.67694" lon="6.12923">
        <ele>493.4</ele>
        <time>2020-10-03T12:40:12Z</time>
      </trkpt>
      <trkpt lat="48.6769" lon="6.1292">
        <ele>493.6</ele>
        <time>2020-10-03T12:40:13Z</time>
      </trkpt>
      <trkpt lat="48.67687" lon="6.12917">
        <ele>493.8</ele>
        <time>2020-10-03T12:40:14Z</time>
      </trkpt>
      <trkpt lat="48.67684" lon="6.12914">
        <ele>493.8</ele>
        <time>2020-10-03T12:40:15Z</time>
      </trkpt>
      <trkpt lat="48.67682" lon="6.12911">
        <ele>493.8</ele>
        <time>2020-10-03T12:40:16Z</time>
      </trkpt>
      <trkpt lat="48.6768" lon="6.12908">
        <ele>494</ele>
        <time>2020-10-03T12:40:17Z</time>
      </trkpt>
      <trkpt lat="48.67678" lon="6.12905">
        <ele>494.2</ele>
        <time>2020-10-03T12:40:18Z</time>
      </trkpt>
      <trkpt lat="48.67676" lon="6.12904">
        <ele>494.2</ele>
        <time>2020-10-03T12:40:19Z</time>
      </trkpt>
      <trkpt lat="48.67674" lon="6.12902">
        <ele>494.2</ele>
        <time>2020-10-03T12:40:20Z</time>
      </trkpt>
      <trkpt lat="48.67672" lon="6.129">
        <ele>494.6</ele>
        <time>2020-10-03T12:40:21Z</time>
      </trkpt>
      <trkpt lat="48.6767" lon="6.12897">
        <ele>494.6</ele>
        <time>2020-10-03T12:40:22Z</time>
      </trkpt>
      <trkpt lat="48.67669" lon="6.12895">
        <ele>494.6</ele>
        <time>2020-10-03T12:40:23Z</time>
      </trkpt>
      <trkpt lat="48.67667" lon="6.12892">
        <ele>494.6</ele>
        <time>2020-10-03T12:40:24Z</time>
      </trkpt>
      <trkpt lat="48.67664" lon="6.12888">
        <ele>494.6</ele>
        <time>2020-10-03T12:40:25Z</time>
      </trkpt>
      <trkpt lat="48.67663" lon="6.12887">
        <ele>494.6</ele>
        <time>2020-10-03T12:40:26Z</time>
      </trkpt>
      <trkpt lat="48.67661" lon="6.12885">
        <ele>494.6</ele>
        <time>2020-10-03T12:40:27Z</time>
      </trkpt>
      <trkpt lat="48.67657" lon="6.1288">
        <ele>494.6</ele>
        <time>2020-10-03T12:40:28Z</time>
      </trkpt>
      <trkpt lat="48.67654" lon="6.12879">
        <ele>494.6</ele>
        <time>2020-10-03T12:40:29Z</time>
      </trkpt>
      <trkpt lat="48.67653" lon="6.12877">
        <ele>494.6</ele>
        <time>2020-10-03T12:40:30Z</time>
      </trkpt>
      <trkpt lat="48.67651" lon="6.12874">
        <ele>494.6</ele>
        <time>2020-10-03T12:40:31Z</time>
      </trkpt>
      <trkpt lat="48.67648" lon="6.12871">
        <ele>494.8</ele>
        <time>2020-10-03T12:40:32Z</time>
      </trkpt>
      <trkpt lat="48.67645" lon="6.12869">
        <ele>495</ele>
        <time>2020-10-03T12:40:33Z</time>
      </trkpt>
      <trkpt lat="48.67642" lon="6.12867">
        <ele>495</ele>
        <time>2020-10-03T12:40:34Z</time>
      </trkpt>
      <trkpt lat="48.67639" lon="6.12865">
        <ele>495.2</ele>
        <time>2020-10-03T12:40:35Z</time>
      </trkpt>
      <trkpt lat="48.67634" lon="6.12861">
        <ele>495.2</ele>
        <time>2020-10-03T12:40:36Z</time>
      </trkpt>
      <trkpt lat="48.67632" lon="6.1286">
        <ele>495.4</ele>
        <time>2020-10-03T12:40:37Z</time>
      </trkpt>
      <trkpt lat="48.67625" lon="6.12856">
        <ele>495.6</ele>
        <time>2020-10-03T12:40:38Z</time>
      </trkpt>
      <trkpt lat="48.67621" lon="6.12853">
        <ele>495.6</ele>
        <time>2020-10-03T12:40:39Z</time>
      </trkpt>
      <trkpt lat="48.67621" lon="6.12852">
        <ele>495.4</ele>
        <time>2020-10-03T12:40:40Z</time>
      </trkpt>
      <trkpt lat="48.67616" lon="6.12849">
        <ele>495.4</ele>
        <time>2020-10-03T12:40:41Z</time>
      </trkpt>
      <trkpt lat="48.67612" lon="6.12847">
        <ele>495.4</ele>
        <time>2020-10-03T12:40:42Z</time>
      </trkpt>
      <trkpt lat="48.6761" lon="6.12846">
        <ele>495.6</ele>
        <time>2020-10-03T12:40:43Z</time>
      </trkpt>
      <trkpt lat="48.67607" lon="6.12845">
        <ele>495.6</ele>
        <time>2020-10-03T12:40:44Z</time>
      </trkpt>
      <trkpt lat="48.67605" lon="6.12842">
        <ele>495.4</ele>
        <time>2020-10-03T12:40:45Z</time>
      </trkpt>
      <trkpt lat="48.67602" lon="6.12839">
        <ele>495.4</ele>
        <time>2020-10-03T12:40:46Z</time>
      </trkpt>
      <trkpt lat="48.67598" lon="6.12836">
        <ele>495.6</ele>
        <time>2020-10-03T12:40:47Z</time>
      </trkpt>
      <trkpt lat="48.67595" lon="6.12834">
        <ele>495.8</ele>
        <time>2020-10-03T12:40:48Z</time>
      </trkpt>
      <trkpt lat="48.67592" lon="6.12833">
        <ele>495.8</ele>
        <time>2020-10-03T12:40:49Z</time>
      </trkpt>
      <trkpt lat="48.67589" lon="6.12832">
        <ele>496</ele>
        <time>2020-10-03T12:40:50Z</time>
      </trkpt>
      <trkpt lat="48.67585" lon="6.1283">
        <ele>496.2</ele>
        <time>2020-10-03T12:40:51Z</time>
      </trkpt>
      <trkpt lat="48.67582" lon="6.12828">
        <ele>496.2</ele>
        <time>2020-10-03T12:40:52Z</time>
      </trkpt>
      <trkpt lat="48.6758" lon="6.12827">
        <ele>496</ele>
        <time>2020-10-03T12:40:53Z</time>
      </trkpt>
      <trkpt lat="48.67577" lon="6.12825">
        <ele>496</ele>
        <time>2020-10-03T12:40:54Z</time>
      </trkpt>
      <trkpt lat="48.67575" lon="6.12823">
        <ele>496.2</ele>
        <time>2020-10-03T12:40:55Z</time>
      </trkpt>
      <trkpt lat="48.67574" lon="6.1282">
        <ele>496.4</ele>
        <time>2020-10-03T12:40:56Z</time>
      </trkpt>
      <trkpt lat="48.67573" lon="6.12816">
        <ele>496.6</ele>
        <time>2020-10-03T12:40:57Z</time>
      </trkpt>
      <trkpt lat="48.67573" lon="6.12813">
        <ele>496.8</ele>
        <time>2020-10-03T12:40:58Z</time>
      </trkpt>
      <trkpt lat="48.6757" lon="6.12812">
        <ele>496.8</ele>
        <time>2020-10-03T12:40:59Z</time>
      </trkpt>
      <trkpt lat="48.67569" lon="6.12811">
        <ele>497</ele>
        <time>2020-10-03T12:41:00Z</time>
      </trkpt>
      <trkpt lat="48.67571" lon="6.12808">
        <ele>497.2</ele>
        <time>2020-10-03T12:41:01Z</time>
      </trkpt>
      <trkpt lat="48.67571" lon="6.12807">
        <ele>497.4</ele>
        <time>2020-10-03T12:41:02Z</time>
      </trkpt>
      <trkpt lat="48.67573" lon="6.12807">
        <ele>497.4</ele>
        <time>2020-10-03T12:41:03Z</time>
      </trkpt>
      <trkpt lat="48.67574" lon="6.12806">
        <ele>497.4</ele>
        <time>2020-10-03T12:41:04Z</time>
      </trkpt>
      <trkpt lat="48.67575" lon="6.12805">
        <ele>497.4</ele>
        <time>2020-10-03T12:41:05Z</time>
      </trkpt>
      <trkpt lat="48.67575" lon="6.12802">
        <ele>497.4</ele>
        <time>2020-10-03T12:41:06Z</time>
      </trkpt>
      <trkpt lat="48.67574" lon="6.128">
        <ele>497.2</ele>
        <time>2020-10-03T12:41:07Z</time>
      </trkpt>
      <trkpt lat="48.67575" lon="6.12798">
        <ele>497.2</ele>
        <time>2020-10-03T12:41:08Z</time>
      </trkpt>
      <trkpt lat="48.67575" lon="6.12796">
        <ele>497.4</ele>
        <time>2020-10-03T12:41:09Z</time>
      </trkpt>
      <trkpt lat="48.67575" lon="6.12793">
        <ele>497.4</ele>
        <time>2020-10-03T12:41:10Z</time>
      </trkpt>
      <trkpt lat="48.67575" lon="6.12791">
        <ele>497.4</ele>
        <time>2020-10-03T12:41:11Z</time>
      </trkpt>
      <trkpt lat="48.67573" lon="6.12788">
        <ele>497.4</ele>
        <time>2020-10-03T12:41:12Z</time>
      </trkpt>
      <trkpt lat="48.67573" lon="6.12785">
        <ele>497.4</ele>
        <time>2020-10-03T12:41:13Z</time>
      </trkpt>
      <trkpt lat="48.67573" lon="6.12782">
        <ele>497.6</ele>
        <time>2020-10-03T12:41:14Z</time>
      </trkpt>
      <trkpt lat="48.67572" lon="6.12779">
        <ele>497.8</ele>
        <time>2020-10-03T12:41:15Z</time>
      </trkpt>
      <trkpt lat="48.67573" lon="6.12776">
        <ele>497.8</ele>
        <time>2020-10-03T12:41:16Z</time>
      </trkpt>
      <trkpt lat="48.67573" lon="6.12774">
        <ele>498</ele>
        <time>2020-10-03T12:41:17Z</time>
      </trkpt>
      <trkpt lat="48.67572" lon="6.12771">
        <ele>498.2</ele>
        <time>2020-10-03T12:41:18Z</time>
      </trkpt>
      <trkpt lat="48.67571" lon="6.12768">
        <ele>498.2</ele>
        <time>2020-10-03T12:41:19Z</time>
      </trkpt>
      <trkpt lat="48.6757" lon="6.12765">
        <ele>498.2</ele>
        <time>2020-10-03T12:41:20Z</time>
      </trkpt>
      <trkpt lat="48.6757" lon="6.12764">
        <ele>498.4</ele>
        <time>2020-10-03T12:41:21Z</time>
      </trkpt>
      <trkpt lat="48.67569" lon="6.12761">
        <ele>498.4</ele>
        <time>2020-10-03T12:41:22Z</time>
      </trkpt>
      <trkpt lat="48.6757" lon="6.12758">
        <ele>498.4</ele>
        <time>2020-10-03T12:41:23Z</time>
      </trkpt>
      <trkpt lat="48.6757" lon="6.12754">
        <ele>498.4</ele>
        <time>2020-10-03T12:41:24Z</time>
      </trkpt>
      <trkpt lat="48.6757" lon="6.1275">
        <ele>498.6</ele>
        <time>2020-10-03T12:41:25Z</time>
      </trkpt>
      <trkpt lat="48.67569" lon="6.12746">
        <ele>498.6</ele>
        <time>2020-10-03T12:41:26Z</time>
      </trkpt>
      <trkpt lat="48.67568" lon="6.12743">
        <ele>498.6</ele>
        <time>2020-10-03T12:41:27Z</time>
      </trkpt>
      <trkpt lat="48.67568" lon="6.12739">
        <ele>498.6</ele>
        <time>2020-10-03T12:41:28Z</time>
      </trkpt>
      <trkpt lat="48.67567" lon="6.12736">
        <ele>498.8</ele>
        <time>2020-10-03T12:41:29Z</time>
      </trkpt>
      <trkpt lat="48.67567" lon="6.12732">
        <ele>499</ele>
        <time>2020-10-03T12:41:30Z</time>
      </trkpt>
      <trkpt lat="48.67566" lon="6.12729">
        <ele>499.2</ele>
        <time>2020-10-03T12:41:31Z</time>
      </trkpt>
      <trkpt lat="48.67567" lon="6.12726">
        <ele>499.2</ele>
        <time>2020-10-03T12:41:32Z</time>
      </trkpt>
      <trkpt lat="48.67566" lon="6.12722">
        <ele>499.2</ele>
        <time>2020-10-03T12:41:33Z</time>
      </trkpt>
      <trkpt lat="48.67566" lon="6.12718">
        <ele>499.2</ele>
        <time>2020-10-03T12:41:34Z</time>
      </trkpt>
      <trkpt lat="48.67566" lon="6.12713">
        <ele>499.2</ele>
        <time>2020-10-03T12:41:35Z</time>
      </trkpt>
      <trkpt lat="48.67567" lon="6.1271">
        <ele>499.2</ele>
        <time>2020-10-03T12:41:36Z</time>
      </trkpt>
      <trkpt lat="48.67566" lon="6.12706">
        <ele>499.4</ele>
        <time>2020-10-03T12:41:37Z</time>
      </trkpt>
      <trkpt lat="48.67566" lon="6.12703">
        <ele>499.4</ele>
        <time>2020-10-03T12:41:38Z</time>
      </trkpt>
      <trkpt lat="48.67566" lon="6.12699">
        <ele>499.4</ele>
        <time>2020-10-03T12:41:39Z</time>
      </trkpt>
      <trkpt lat="48.67565" lon="6.12696">
        <ele>499.6</ele>
        <time>2020-10-03T12:41:40Z</time>
      </trkpt>
      <trkpt lat="48.67565" lon="6.12693">
        <ele>499.6</ele>
        <time>2020-10-03T12:41:41Z</time>
      </trkpt>
      <trkpt lat="48.67565" lon="6.12689">
        <ele>499.6</ele>
        <time>2020-10-03T12:41:42Z</time>
      </trkpt>
      <trkpt lat="48.67564" lon="6.12687">
        <ele>499.8</ele>
        <time>2020-10-03T12:41:43Z</time>
      </trkpt>
      <trkpt lat="48.67563" lon="6.12684">
        <ele>499.8</ele>
        <time>2020-10-03T12:41:44Z</time>
      </trkpt>
      <trkpt lat="48.67562" lon="6.12681">
        <ele>500</ele>
        <time>2020-10-03T12:41:45Z</time>
      </trkpt>
      <trkpt lat="48.67561" lon="6.12677">
        <ele>500.2</ele>
        <time>2020-10-03T12:41:46Z</time>
      </trkpt>
      <trkpt lat="48.67562" lon="6.12673">
        <ele>500.4</ele>
        <time>2020-10-03T12:41:47Z</time>
      </trkpt>
      <trkpt lat="48.67561" lon="6.12669">
        <ele>500.4</ele>
        <time>2020-10-03T12:41:48Z</time>
      </trkpt>
      <trkpt lat="48.67561" lon="6.12665">
        <ele>500.4</ele>
        <time>2020-10-03T12:41:49Z</time>
      </trkpt>
      <trkpt lat="48.67561" lon="6.12661">
        <ele>500.4</ele>
        <time>2020-10-03T12:41:50Z</time>
      </trkpt>
      <trkpt lat="48.6756" lon="6.12657">
        <ele>500.4</ele>
        <time>2020-10-03T12:41:51Z</time>
      </trkpt>
      <trkpt lat="48.67559" lon="6.12653">
        <ele>500.6</ele>
        <time>2020-10-03T12:41:52Z</time>
      </trkpt>
      <trkpt lat="48.67559" lon="6.12649">
        <ele>500.8</ele>
        <time>2020-10-03T12:41:53Z</time>
      </trkpt>
      <trkpt lat="48.67561" lon="6.12644">
        <ele>500.8</ele>
        <time>2020-10-03T12:41:54Z</time>
      </trkpt>
      <trkpt lat="48.6756" lon="6.12641">
        <ele>500.8</ele>
        <time>2020-10-03T12:41:55Z</time>
      </trkpt>
      <trkpt lat="48.67559" lon="6.12636">
        <ele>500.8</ele>
        <time>2020-10-03T12:41:56Z</time>
      </trkpt>
      <trkpt lat="48.67558" lon="6.12632">
        <ele>500.6</ele>
        <time>2020-10-03T12:41:57Z</time>
      </trkpt>
      <trkpt lat="48.67558" lon="6.12628">
        <ele>500.6</ele>
        <time>2020-10-03T12:41:58Z</time>
      </trkpt>
      <trkpt lat="48.67557" lon="6.12626">
        <ele>500.8</ele>
        <time>2020-10-03T12:41:59Z</time>
      </trkpt>
      <trkpt lat="48.67556" lon="6.12622">
        <ele>501</ele>
        <time>2020-10-03T12:42:00Z</time>
      </trkpt>
      <trkpt lat="48.67554" lon="6.12619">
        <ele>501</ele>
        <time>2020-10-03T12:42:01Z</time>
      </trkpt>
      <trkpt lat="48.67552" lon="6.12617">
        <ele>501</ele>
        <time>2020-10-03T12:42:02Z</time>
      </trkpt>
      <trkpt lat="48.67551" lon="6.12616">
        <ele>501.2</ele>
        <time>2020-10-03T12:42:03Z</time>
      </trkpt>
      <trkpt lat="48.67549" lon="6.12614">
        <ele>501.2</ele>
        <time>2020-10-03T12:42:04Z</time>
      </trkpt>
      <trkpt lat="48.67548" lon="6.12613">
        <ele>501.4</ele>
        <time>2020-10-03T12:42:05Z</time>
      </trkpt>
      <trkpt lat="48.67546" lon="6.12611">
        <ele>501.4</ele>
        <time>2020-10-03T12:42:06Z</time>
      </trkpt>
      <trkpt lat="48.67544" lon="6.1261">
        <ele>501.2</ele>
        <time>2020-10-03T12:42:07Z</time>
      </trkpt>
      <trkpt lat="48.67542" lon="6.1261">
        <ele>501.2</ele>
        <time>2020-10-03T12:42:08Z</time>
      </trkpt>
      <trkpt lat="48.6754" lon="6.12609">
        <ele>501.2</ele>
        <time>2020-10-03T12:42:09Z</time>
      </trkpt>
      <trkpt lat="48.6754" lon="6.12608">
        <ele>501.4</ele>
        <time>2020-10-03T12:42:10Z</time>
      </trkpt>
      <trkpt lat="48.67539" lon="6.12607">
        <ele>501.6</ele>
        <time>2020-10-03T12:42:11Z</time>
      </trkpt>
      <trkpt lat="48.67537" lon="6.12607">
        <ele>501.6</ele>
        <time>2020-10-03T12:42:12Z</time>
      </trkpt>
      <trkpt lat="48.67535" lon="6.12606">
        <ele>501.4</ele>
        <time>2020-10-03T12:42:13Z</time>
      </trkpt>
      <trkpt lat="48.67534" lon="6.12605">
        <ele>501.4</ele>
        <time>2020-10-03T12:42:14Z</time>
      </trkpt>
      <trkpt lat="48.67534" lon="6.12604">
        <ele>501.6</ele>
        <time>2020-10-03T12:42:15Z</time>
      </trkpt>
      <trkpt lat="48.67533" lon="6.12604">
        <ele>501.8</ele>
        <time>2020-10-03T12:42:16Z</time>
      </trkpt>
      <trkpt lat="48.67531" lon="6.12605">
        <ele>501.8</ele>
        <time>2020-10-03T12:42:17Z</time>
      </trkpt>
      <trkpt lat="48.67529" lon="6.12605">
        <ele>501.8</ele>
        <time>2020-10-03T12:42:18Z</time>
      </trkpt>
      <trkpt lat="48.67526" lon="6.12608">
        <ele>501.8</ele>
        <time>2020-10-03T12:42:19Z</time>
      </trkpt>
      <trkpt lat="48.67525" lon="6.12609">
        <ele>501.8</ele>
        <time>2020-10-03T12:42:20Z</time>
      </trkpt>
      <trkpt lat="48.67522" lon="6.12611">
        <ele>501.8</ele>
        <time>2020-10-03T12:42:21Z</time>
      </trkpt>
      <trkpt lat="48.67518" lon="6.12613">
        <ele>502.2</ele>
        <time>2020-10-03T12:42:22Z</time>
      </trkpt>
      <trkpt lat="48.67513" lon="6.12614">
        <ele>502.2</ele>
        <time>2020-10-03T12:42:23Z</time>
      </trkpt>
      <trkpt lat="48.67511" lon="6.12616">
        <ele>502.2</ele>
        <time>2020-10-03T12:42:24Z</time>
      </trkpt>
      <trkpt lat="48.67507" lon="6.12617">
        <ele>502</ele>
        <time>2020-10-03T12:42:25Z</time>
      </trkpt>
      <trkpt lat="48.67503" lon="6.1262">
        <ele>501.8</ele>
        <time>2020-10-03T12:42:26Z</time>
      </trkpt>
      <trkpt lat="48.67498" lon="6.12621">
        <ele>501.8</ele>
        <time>2020-10-03T12:42:27Z</time>
      </trkpt>
      <trkpt lat="48.67495" lon="6.12621">
        <ele>502</ele>
        <time>2020-10-03T12:42:28Z</time>
      </trkpt>
      <trkpt lat="48.67492" lon="6.12622">
        <ele>502</ele>
        <time>2020-10-03T12:42:29Z</time>
      </trkpt>
      <trkpt lat="48.67489" lon="6.12622">
        <ele>502.2</ele>
        <time>2020-10-03T12:42:30Z</time>
      </trkpt>
      <trkpt lat="48.67487" lon="6.12623">
        <ele>502.2</ele>
        <time>2020-10-03T12:42:31Z</time>
      </trkpt>
      <trkpt lat="48.67485" lon="6.12622">
        <ele>502.2</ele>
        <time>2020-10-03T12:42:32Z</time>
      </trkpt>
      <trkpt lat="48.67483" lon="6.12622">
        <ele>502.4</ele>
        <time>2020-10-03T12:42:33Z</time>
      </trkpt>
      <trkpt lat="48.67479" lon="6.12623">
        <ele>502.6</ele>
        <time>2020-10-03T12:42:34Z</time>
      </trkpt>
      <trkpt lat="48.67477" lon="6.12624">
        <ele>502.8</ele>
        <time>2020-10-03T12:42:35Z</time>
      </trkpt>
      <trkpt lat="48.67473" lon="6.12624">
        <ele>502.8</ele>
        <time>2020-10-03T12:42:36Z</time>
      </trkpt>
      <trkpt lat="48.67469" lon="6.12624">
        <ele>502.8</ele>
        <time>2020-10-03T12:42:37Z</time>
      </trkpt>
      <trkpt lat="48.67465" lon="6.12623">
        <ele>503</ele>
        <time>2020-10-03T12:42:38Z</time>
      </trkpt>
      <trkpt lat="48.67462" lon="6.12624">
        <ele>503</ele>
        <time>2020-10-03T12:42:39Z</time>
      </trkpt>
      <trkpt lat="48.67461" lon="6.12623">
        <ele>502.8</ele>
        <time>2020-10-03T12:42:40Z</time>
      </trkpt>
      <trkpt lat="48.67459" lon="6.12622">
        <ele>502.6</ele>
        <time>2020-10-03T12:42:41Z</time>
      </trkpt>
      <trkpt lat="48.67457" lon="6.12622">
        <ele>502.8</ele>
        <time>2020-10-03T12:42:42Z</time>
      </trkpt>
      <trkpt lat="48.67454" lon="6.12622">
        <ele>502.8</ele>
        <time>2020-10-03T12:42:43Z</time>
      </trkpt>
      <trkpt lat="48.6745" lon="6.12621">
        <ele>502.8</ele>
        <time>2020-10-03T12:42:44Z</time>
      </trkpt>
      <trkpt lat="48.67446" lon="6.12622">
        <ele>503</ele>
        <time>2020-10-03T12:42:45Z</time>
      </trkpt>
      <trkpt lat="48.67443" lon="6.12622">
        <ele>503</ele>
        <time>2020-10-03T12:42:46Z</time>
      </trkpt>
      <trkpt lat="48.6744" lon="6.12621">
        <ele>503</ele>
        <time>2020-10-03T12:42:47Z</time>
      </trkpt>
      <trkpt lat="48.67437" lon="6.12621">
        <ele>502.8</ele>
        <time>2020-10-03T12:42:48Z</time>
      </trkpt>
      <trkpt lat="48.67435" lon="6.12621">
        <ele>502.6</ele>
        <time>2020-10-03T12:42:49Z</time>
      </trkpt>
      <trkpt lat="48.67431" lon="6.12621">
        <ele>502.6</ele>
        <time>2020-10-03T12:42:50Z</time>
      </trkpt>
      <trkpt lat="48.67427" lon="6.12621">
        <ele>502.8</ele>
        <time>2020-10-03T12:42:51Z</time>
      </trkpt>
      <trkpt lat="48.67423" lon="6.12621">
        <ele>503</ele>
        <time>2020-10-03T12:42:52Z</time>
      </trkpt>
      <trkpt lat="48.67419" lon="6.12622">
        <ele>503</ele>
        <time>2020-10-03T12:42:53Z</time>
      </trkpt>
      <trkpt lat="48.67417" lon="6.12622">
        <ele>503</ele>
        <time>2020-10-03T12:42:54Z</time>
      </trkpt>
      <trkpt lat="48.67414" lon="6.12623">
        <ele>503</ele>
        <time>2020-10-03T12:42:55Z</time>
      </trkpt>
      <trkpt lat="48.6741" lon="6.12621">
        <ele>502.8</ele>
        <time>2020-10-03T12:42:56Z</time>
      </trkpt>
      <trkpt lat="48.67407" lon="6.12619">
        <ele>502.8</ele>
        <time>2020-10-03T12:42:57Z</time>
      </trkpt>
      <trkpt lat="48.67402" lon="6.1262">
        <ele>503</ele>
        <time>2020-10-03T12:42:58Z</time>
      </trkpt>
      <trkpt lat="48.67401" lon="6.1262">
        <ele>503</ele>
        <time>2020-10-03T12:42:59Z</time>
      </trkpt>
      <trkpt lat="48.67399" lon="6.12618">
        <ele>503</ele>
        <time>2020-10-03T12:43:00Z</time>
      </trkpt>
      <trkpt lat="48.67394" lon="6.12619">
        <ele>503</ele>
        <time>2020-10-03T12:43:01Z</time>
      </trkpt>
      <trkpt lat="48.67391" lon="6.12619">
        <ele>503</ele>
        <time>2020-10-03T12:43:02Z</time>
      </trkpt>
      <trkpt lat="48.67389" lon="6.12619">
        <ele>502.8</ele>
        <time>2020-10-03T12:43:03Z</time>
      </trkpt>
      <trkpt lat="48.67386" lon="6.1262">
        <ele>502.8</ele>
        <time>2020-10-03T12:43:04Z</time>
      </trkpt>
      <trkpt lat="48.67383" lon="6.12621">
        <ele>502.8</ele>
        <time>2020-10-03T12:43:05Z</time>
      </trkpt>
      <trkpt lat="48.67382" lon="6.12621">
        <ele>503</ele>
        <time>2020-10-03T12:43:06Z</time>
      </trkpt>
      <trkpt lat="48.67381" lon="6.1262">
        <ele>502.8</ele>
        <time>2020-10-03T12:43:07Z</time>
      </trkpt>
      <trkpt lat="48.6738" lon="6.1262">
        <ele>502.8</ele>
        <time>2020-10-03T12:43:08Z</time>
      </trkpt>
      <trkpt lat="48.67377" lon="6.12619">
        <ele>503</ele>
        <time>2020-10-03T12:43:09Z</time>
      </trkpt>
      <trkpt lat="48.67375" lon="6.12619">
        <ele>503</ele>
        <time>2020-10-03T12:43:10Z</time>
      </trkpt>
      <trkpt lat="48.67375" lon="6.12618">
        <ele>503.2</ele>
        <time>2020-10-03T12:43:11Z</time>
      </trkpt>
      <trkpt lat="48.67374" lon="6.12618">
        <ele>503</ele>
        <time>2020-10-03T12:43:12Z</time>
      </trkpt>
      <trkpt lat="48.67372" lon="6.12618">
        <ele>503</ele>
        <time>2020-10-03T12:43:13Z</time>
      </trkpt>
      <trkpt lat="48.6737" lon="6.12618">
        <ele>503</ele>
        <time>2020-10-03T12:43:14Z</time>
      </trkpt>
      <trkpt lat="48.67368" lon="6.12617">
        <ele>503</ele>
        <time>2020-10-03T12:43:15Z</time>
      </trkpt>
      <trkpt lat="48.67367" lon="6.12617">
        <ele>503</ele>
        <time>2020-10-03T12:43:16Z</time>
      </trkpt>
      <trkpt lat="48.67365" lon="6.12617">
        <ele>503.2</ele>
        <time>2020-10-03T12:43:17Z</time>
      </trkpt>
      <trkpt lat="48.67362" lon="6.12617">
        <ele>503.4</ele>
        <time>2020-10-03T12:43:18Z</time>
      </trkpt>
      <trkpt lat="48.6736" lon="6.12617">
        <ele>503.2</ele>
        <time>2020-10-03T12:43:19Z</time>
      </trkpt>
      <trkpt lat="48.67355" lon="6.12617">
        <ele>503.4</ele>
        <time>2020-10-03T12:43:20Z</time>
      </trkpt>
      <trkpt lat="48.6735" lon="6.12617">
        <ele>503.6</ele>
        <time>2020-10-03T12:43:21Z</time>
      </trkpt>
      <trkpt lat="48.67348" lon="6.12616">
        <ele>503.4</ele>
        <time>2020-10-03T12:43:22Z</time>
      </trkpt>
      <trkpt lat="48.67346" lon="6.12615">
        <ele>503.4</ele>
        <time>2020-10-03T12:43:23Z</time>
      </trkpt>
      <trkpt lat="48.67345" lon="6.12614">
        <ele>503.4</ele>
        <time>2020-10-03T12:43:24Z</time>
      </trkpt>
      <trkpt lat="48.67342" lon="6.12613">
        <ele>503.4</ele>
        <time>2020-10-03T12:43:25Z</time>
      </trkpt>
      <trkpt lat="48.67338" lon="6.12615">
        <ele>503.2</ele>
        <time>2020-10-03T12:43:26Z</time>
      </trkpt>
      <trkpt lat="48.67336" lon="6.12614">
        <ele>503</ele>
        <time>2020-10-03T12:43:27Z</time>
      </trkpt>
      <trkpt lat="48.67332" lon="6.12614">
        <ele>503.2</ele>
        <time>2020-10-03T12:43:28Z</time>
      </trkpt>
      <trkpt lat="48.6733" lon="6.12614">
        <ele>503.4</ele>
        <time>2020-10-03T12:43:29Z</time>
      </trkpt>
      <trkpt lat="48.67328" lon="6.12613">
        <ele>503.6</ele>
        <time>2020-10-03T12:43:30Z</time>
      </trkpt>
      <trkpt lat="48.67326" lon="6.12613">
        <ele>503.6</ele>
        <time>2020-10-03T12:43:31Z</time>
      </trkpt>
      <trkpt lat="48.67323" lon="6.12614">
        <ele>503.4</ele>
        <time>2020-10-03T12:43:32Z</time>
      </trkpt>
      <trkpt lat="48.67321" lon="6.12614">
        <ele>503.6</ele>
        <time>2020-10-03T12:43:33Z</time>
      </trkpt>
      <trkpt lat="48.67316" lon="6.12613">
        <ele>503.6</ele>
        <time>2020-10-03T12:43:34Z</time>
      </trkpt>
      <trkpt lat="48.67313" lon="6.12612">
        <ele>503.6</ele>
        <time>2020-10-03T12:43:35Z</time>
      </trkpt>
      <trkpt lat="48.67309" lon="6.12612">
        <ele>503.8</ele>
        <time>2020-10-03T12:43:36Z</time>
      </trkpt>
      <trkpt lat="48.67307" lon="6.12612">
        <ele>503.6</ele>
        <time>2020-10-03T12:43:37Z</time>
      </trkpt>
      <trkpt lat="48.67304" lon="6.12611">
        <ele>503.6</ele>
        <time>2020-10-03T12:43:38Z</time>
      </trkpt>
      <trkpt lat="48.673" lon="6.1261">
        <ele>503.6</ele>
        <time>2020-10-03T12:43:39Z</time>
      </trkpt>
      <trkpt lat="48.67299" lon="6.12609">
        <ele>503.8</ele>
        <time>2020-10-03T12:43:40Z</time>
      </trkpt>
      <trkpt lat="48.67295" lon="6.12609">
        <ele>503.6</ele>
        <time>2020-10-03T12:43:41Z</time>
      </trkpt>
      <trkpt lat="48.6729" lon="6.12608">
        <ele>503.8</ele>
        <time>2020-10-03T12:43:42Z</time>
      </trkpt>
      <trkpt lat="48.67286" lon="6.12608">
        <ele>503.8</ele>
        <time>2020-10-03T12:43:43Z</time>
      </trkpt>
      <trkpt lat="48.67283" lon="6.12607">
        <ele>504</ele>
        <time>2020-10-03T12:43:44Z</time>
      </trkpt>
      <trkpt lat="48.6728" lon="6.12607">
        <ele>504</ele>
        <time>2020-10-03T12:43:45Z</time>
      </trkpt>
      <trkpt lat="48.67277" lon="6.12606">
        <ele>504</ele>
        <time>2020-10-03T12:43:46Z</time>
      </trkpt>
      <trkpt lat="48.67276" lon="6.12605">
        <ele>503.8</ele>
        <time>2020-10-03T12:43:47Z</time>
      </trkpt>
      <trkpt lat="48.67275" lon="6.12604">
        <ele>503.8</ele>
        <time>2020-10-03T12:43:48Z</time>
      </trkpt>
      <trkpt lat="48.67272" lon="6.12603">
        <ele>504</ele>
        <time>2020-10-03T12:43:49Z</time>
      </trkpt>
      <trkpt lat="48.67271" lon="6.12602">
        <ele>504</ele>
        <time>2020-10-03T12:43:50Z</time>
      </trkpt>
      <trkpt lat="48.67268" lon="6.12602">
        <ele>504</ele>
        <time>2020-10-03T12:43:51Z</time>
      </trkpt>
      <trkpt lat="48.67267" lon="6.12602">
        <ele>504</ele>
        <time>2020-10-03T12:43:52Z</time>
      </trkpt>
      <trkpt lat="48.67264" lon="6.12602">
        <ele>504.2</ele>
        <time>2020-10-03T12:43:53Z</time>
      </trkpt>
      <trkpt lat="48.67261" lon="6.12601">
        <ele>504.2</ele>
        <time>2020-10-03T12:43:54Z</time>
      </trkpt>
      <trkpt lat="48.67258" lon="6.12601">
        <ele>504.2</ele>
        <time>2020-10-03T12:43:55Z</time>
      </trkpt>
      <trkpt lat="48.67255" lon="6.126">
        <ele>504.2</ele>
        <time>2020-10-03T12:43:56Z</time>
      </trkpt>
      <trkpt lat="48.67251" lon="6.126">
        <ele>504.2</ele>
        <time>2020-10-03T12:43:57Z</time>
      </trkpt>
      <trkpt lat="48.67247" lon="6.126">
        <ele>504.2</ele>
        <time>2020-10-03T12:43:58Z</time>
      </trkpt>
      <trkpt lat="48.67244" lon="6.126">
        <ele>504.2</ele>
        <time>2020-10-03T12:43:59Z</time>
      </trkpt>
      <trkpt lat="48.6724" lon="6.12598">
        <ele>504.2</ele>
        <time>2020-10-03T12:44:00Z</time>
      </trkpt>
      <trkpt lat="48.67236" lon="6.12598">
        <ele>504.2</ele>
        <time>2020-10-03T12:44:01Z</time>
      </trkpt>
      <trkpt lat="48.67231" lon="6.12596">
        <ele>504.2</ele>
        <time>2020-10-03T12:44:02Z</time>
      </trkpt>
      <trkpt lat="48.67226" lon="6.12597">
        <ele>504.2</ele>
        <time>2020-10-03T12:44:03Z</time>
      </trkpt>
      <trkpt lat="48.67223" lon="6.12598">
        <ele>504.4</ele>
        <time>2020-10-03T12:44:04Z</time>
      </trkpt>
      <trkpt lat="48.67221" lon="6.12598">
        <ele>504.6</ele>
        <time>2020-10-03T12:44:05Z</time>
      </trkpt>
      <trkpt lat="48.67221" lon="6.12599">
        <ele>504.6</ele>
        <time>2020-10-03T12:44:06Z</time>
      </trkpt>
      <trkpt lat="48.67219" lon="6.126">
        <ele>504.4</ele>
        <time>2020-10-03T12:44:07Z</time>
      </trkpt>
      <trkpt lat="48.67217" lon="6.12601">
        <ele>504.6</ele>
        <time>2020-10-03T12:44:08Z</time>
      </trkpt>
      <trkpt lat="48.67214" lon="6.12602">
        <ele>504.8</ele>
        <time>2020-10-03T12:44:09Z</time>
      </trkpt>
      <trkpt lat="48.67211" lon="6.12604">
        <ele>505</ele>
        <time>2020-10-03T12:44:10Z</time>
      </trkpt>
      <trkpt lat="48.67209" lon="6.12605">
        <ele>505</ele>
        <time>2020-10-03T12:44:11Z</time>
      </trkpt>
      <trkpt lat="48.67204" lon="6.12604">
        <ele>505</ele>
        <time>2020-10-03T12:44:12Z</time>
      </trkpt>
      <trkpt lat="48.67201" lon="6.12605">
        <ele>505</ele>
        <time>2020-10-03T12:44:13Z</time>
      </trkpt>
      <trkpt lat="48.67198" lon="6.12607">
        <ele>504.8</ele>
        <time>2020-10-03T12:44:14Z</time>
      </trkpt>
      <trkpt lat="48.67194" lon="6.12609">
        <ele>504.8</ele>
        <time>2020-10-03T12:44:15Z</time>
      </trkpt>
      <trkpt lat="48.6719" lon="6.12612">
        <ele>504.8</ele>
        <time>2020-10-03T12:44:16Z</time>
      </trkpt>
      <trkpt lat="48.67185" lon="6.12615">
        <ele>504.6</ele>
        <time>2020-10-03T12:44:17Z</time>
      </trkpt>
      <trkpt lat="48.67182" lon="6.12617">
        <ele>504.6</ele>
        <time>2020-10-03T12:44:18Z</time>
      </trkpt>
      <trkpt lat="48.67179" lon="6.12619">
        <ele>505</ele>
        <time>2020-10-03T12:44:19Z</time>
      </trkpt>
      <trkpt lat="48.67177" lon="6.1262">
        <ele>505.2</ele>
        <time>2020-10-03T12:44:20Z</time>
      </trkpt>
      <trkpt lat="48.67173" lon="6.12621">
        <ele>505.2</ele>
        <time>2020-10-03T12:44:21Z</time>
      </trkpt>
      <trkpt lat="48.67169" lon="6.12623">
        <ele>505.2</ele>
        <time>2020-10-03T12:44:22Z</time>
      </trkpt>
      <trkpt lat="48.67166" lon="6.12625">
        <ele>505.4</ele>
        <time>2020-10-03T12:44:23Z</time>
      </trkpt>
      <trkpt lat="48.67163" lon="6.12626">
        <ele>505.4</ele>
        <time>2020-10-03T12:44:24Z</time>
      </trkpt>
      <trkpt lat="48.6716" lon="6.12627">
        <ele>505.6</ele>
        <time>2020-10-03T12:44:25Z</time>
      </trkpt>
      <trkpt lat="48.67157" lon="6.12629">
        <ele>505.8</ele>
        <time>2020-10-03T12:44:26Z</time>
      </trkpt>
      <trkpt lat="48.67154" lon="6.12631">
        <ele>505.8</ele>
        <time>2020-10-03T12:44:27Z</time>
      </trkpt>
      <trkpt lat="48.67152" lon="6.12633">
        <ele>506</ele>
        <time>2020-10-03T12:44:28Z</time>
      </trkpt>
      <trkpt lat="48.6715" lon="6.12634">
        <ele>506</ele>
        <time>2020-10-03T12:44:29Z</time>
      </trkpt>
      <trkpt lat="48.67147" lon="6.12636">
        <ele>506.2</ele>
        <time>2020-10-03T12:44:30Z</time>
      </trkpt>
      <trkpt lat="48.67145" lon="6.12637">
        <ele>506.4</ele>
        <time>2020-10-03T12:44:31Z</time>
      </trkpt>
      <trkpt lat="48.67142" lon="6.12639">
        <ele>506.4</ele>
        <time>2020-10-03T12:44:32Z</time>
      </trkpt>
      <trkpt lat="48.67138" lon="6.1264">
        <ele>506.4</ele>
        <time>2020-10-03T12:44:33Z</time>
      </trkpt>
      <trkpt lat="48.67136" lon="6.12642">
        <ele>506.2</ele>
        <time>2020-10-03T12:44:34Z</time>
      </trkpt>
      <trkpt lat="48.67129" lon="6.12647">
        <ele>506</ele>
        <time>2020-10-03T12:44:35Z</time>
      </trkpt>
      <trkpt lat="48.67122" lon="6.12651">
        <ele>506</ele>
        <time>2020-10-03T12:44:36Z</time>
      </trkpt>
      <trkpt lat="48.67119" lon="6.12653">
        <ele>506.2</ele>
        <time>2020-10-03T12:44:37Z</time>
      </trkpt>
      <trkpt lat="48.67116" lon="6.12655">
        <ele>506.6</ele>
        <time>2020-10-03T12:44:38Z</time>
      </trkpt>
      <trkpt lat="48.67111" lon="6.12657">
        <ele>506.8</ele>
        <time>2020-10-03T12:44:39Z</time>
      </trkpt>
      <trkpt lat="48.67108" lon="6.12658">
        <ele>507</ele>
        <time>2020-10-03T12:44:40Z</time>
      </trkpt>
      <trkpt lat="48.67105" lon="6.12659">
        <ele>507</ele>
        <time>2020-10-03T12:44:41Z</time>
      </trkpt>
      <trkpt lat="48.67099" lon="6.12662">
        <ele>507</ele>
        <time>2020-10-03T12:44:42Z</time>
      </trkpt>
      <trkpt lat="48.67095" lon="6.12665">
        <ele>507</ele>
        <time>2020-10-03T12:44:43Z</time>
      </trkpt>
      <trkpt lat="48.67092" lon="6.12667">
        <ele>507</ele>
        <time>2020-10-03T12:44:44Z</time>
      </trkpt>
      <trkpt lat="48.6709" lon="6.12669">
        <ele>507.2</ele>
        <time>2020-10-03T12:44:45Z</time>
      </trkpt>
      <trkpt lat="48.67088" lon="6.1267">
        <ele>507.4</ele>
        <time>2020-10-03T12:44:46Z</time>
      </trkpt>
      <trkpt lat="48.67085" lon="6.12672">
        <ele>507.6</ele>
        <time>2020-10-03T12:44:47Z</time>
      </trkpt>
      <trkpt lat="48.67083" lon="6.12675">
        <ele>507.8</ele>
        <time>2020-10-03T12:44:48Z</time>
      </trkpt>
      <trkpt lat="48.67079" lon="6.12679">
        <ele>507.8</ele>
        <time>2020-10-03T12:44:49Z</time>
      </trkpt>
      <trkpt lat="48.67076" lon="6.12681">
        <ele>508</ele>
        <time>2020-10-03T12:44:50Z</time>
      </trkpt>
      <trkpt lat="48.67073" lon="6.12685">
        <ele>508</ele>
        <time>2020-10-03T12:44:51Z</time>
      </trkpt>
      <trkpt lat="48.67071" lon="6.12687">
        <ele>508</ele>
        <time>2020-10-03T12:44:52Z</time>
      </trkpt>
      <trkpt lat="48.67068" lon="6.12689">
        <ele>508.2</ele>
        <time>2020-10-03T12:44:53Z</time>
      </trkpt>
      <trkpt lat="48.67066" lon="6.12693">
        <ele>508</ele>
        <time>2020-10-03T12:44:54Z</time>
      </trkpt>
      <trkpt lat="48.67065" lon="6.12695">
        <ele>507.8</ele>
        <time>2020-10-03T12:44:55Z</time>
      </trkpt>
      <trkpt lat="48.67062" lon="6.12696">
        <ele>507.6</ele>
        <time>2020-10-03T12:44:56Z</time>
      </trkpt>
      <trkpt lat="48.6706" lon="6.12697">
        <ele>507.6</ele>
        <time>2020-10-03T12:44:57Z</time>
      </trkpt>
      <trkpt lat="48.67059" lon="6.12698">
        <ele>507.6</ele>
        <time>2020-10-03T12:44:58Z</time>
      </trkpt>
      <trkpt lat="48.67056" lon="6.12701">
        <ele>507.8</ele>
        <time>2020-10-03T12:44:59Z</time>
      </trkpt>
      <trkpt lat="48.67053" lon="6.12703">
        <ele>507.8</ele>
        <time>2020-10-03T12:45:00Z</time>
      </trkpt>
      <trkpt lat="48.67051" lon="6.12705">
        <ele>507.8</ele>
        <time>2020-10-03T12:45:01Z</time>
      </trkpt>
      <trkpt lat="48.67048" lon="6.12708">
        <ele>508</ele>
        <time>2020-10-03T12:45:02Z</time>
      </trkpt>
      <trkpt lat="48.67045" lon="6.12711">
        <ele>508.2</ele>
        <time>2020-10-03T12:45:03Z</time>
      </trkpt>
      <trkpt lat="48.67042" lon="6.12713">
        <ele>508.2</ele>
        <time>2020-10-03T12:45:04Z</time>
      </trkpt>
      <trkpt lat="48.6704" lon="6.12715">
        <ele>508.2</ele>
        <time>2020-10-03T12:45:05Z</time>
      </trkpt>
      <trkpt lat="48.67037" lon="6.12716">
        <ele>508.2</ele>
        <time>2020-10-03T12:45:06Z</time>
      </trkpt>
      <trkpt lat="48.67035" lon="6.12719">
        <ele>508.2</ele>
        <time>2020-10-03T12:45:07Z</time>
      </trkpt>
      <trkpt lat="48.67033" lon="6.12723">
        <ele>508.2</ele>
        <time>2020-10-03T12:45:08Z</time>
      </trkpt>
      <trkpt lat="48.67029" lon="6.12726">
        <ele>508.4</ele>
        <time>2020-10-03T12:45:09Z</time>
      </trkpt>
      <trkpt lat="48.67025" lon="6.12728">
        <ele>508.6</ele>
        <time>2020-10-03T12:45:10Z</time>
      </trkpt>
      <trkpt lat="48.6702" lon="6.12731">
        <ele>508.6</ele>
        <time>2020-10-03T12:45:11Z</time>
      </trkpt>
      <trkpt lat="48.67015" lon="6.12734">
        <ele>508.6</ele>
        <time>2020-10-03T12:45:12Z</time>
      </trkpt>
      <trkpt lat="48.67011" lon="6.12736">
        <ele>508.8</ele>
        <time>2020-10-03T12:45:13Z</time>
      </trkpt>
      <trkpt lat="48.67007" lon="6.12739">
        <ele>509.2</ele>
        <time>2020-10-03T12:45:14Z</time>
      </trkpt>
      <trkpt lat="48.67003" lon="6.12741">
        <ele>509.4</ele>
        <time>2020-10-03T12:45:15Z</time>
      </trkpt>
      <trkpt lat="48.67" lon="6.12744">
        <ele>509.2</ele>
        <time>2020-10-03T12:45:16Z</time>
      </trkpt>
      <trkpt lat="48.66996" lon="6.12747">
        <ele>509</ele>
        <time>2020-10-03T12:45:17Z</time>
      </trkpt>
      <trkpt lat="48.66991" lon="6.1275">
        <ele>509</ele>
        <time>2020-10-03T12:45:18Z</time>
      </trkpt>
      <trkpt lat="48.66988" lon="6.12752">
        <ele>508.8</ele>
        <time>2020-10-03T12:45:19Z</time>
      </trkpt>
      <trkpt lat="48.66984" lon="6.12756">
        <ele>509</ele>
        <time>2020-10-03T12:45:20Z</time>
      </trkpt>
      <trkpt lat="48.66983" lon="6.12757">
        <ele>509.2</ele>
        <time>2020-10-03T12:45:21Z</time>
      </trkpt>
      <trkpt lat="48.66981" lon="6.12758">
        <ele>509.4</ele>
        <time>2020-10-03T12:45:22Z</time>
      </trkpt>
      <trkpt lat="48.66978" lon="6.12761">
        <ele>509.4</ele>
        <time>2020-10-03T12:45:23Z</time>
      </trkpt>
      <trkpt lat="48.66975" lon="6.12764">
        <ele>509.4</ele>
        <time>2020-10-03T12:45:24Z</time>
      </trkpt>
      <trkpt lat="48.66972" lon="6.12767">
        <ele>509.6</ele>
        <time>2020-10-03T12:45:25Z</time>
      </trkpt>
      <trkpt lat="48.66969" lon="6.12769">
        <ele>509.6</ele>
        <time>2020-10-03T12:45:26Z</time>
      </trkpt>
      <trkpt lat="48.66967" lon="6.12773">
        <ele>509.6</ele>
        <time>2020-10-03T12:45:27Z</time>
      </trkpt>
      <trkpt lat="48.66963" lon="6.12775">
        <ele>509.6</ele>
        <time>2020-10-03T12:45:28Z</time>
      </trkpt>
      <trkpt lat="48.66958" lon="6.12777">
        <ele>509.6</ele>
        <time>2020-10-03T12:45:29Z</time>
      </trkpt>
      <trkpt lat="48.66954" lon="6.12778">
        <ele>509.6</ele>
        <time>2020-10-03T12:45:30Z</time>
      </trkpt>
      <trkpt lat="48.66951" lon="6.12777">
        <ele>509.8</ele>
        <time>2020-10-03T12:45:31Z</time>
      </trkpt>
      <trkpt lat="48.66948" lon="6.12777">
        <ele>510</ele>
        <time>2020-10-03T12:45:32Z</time>
      </trkpt>
      <trkpt lat="48.66945" lon="6.12777">
        <ele>510</ele>
        <time>2020-10-03T12:45:33Z</time>
      </trkpt>
      <trkpt lat="48.66941" lon="6.12778">
        <ele>509.8</ele>
        <time>2020-10-03T12:45:34Z</time>
      </trkpt>
      <trkpt lat="48.66937" lon="6.12781">
        <ele>509.8</ele>
        <time>2020-10-03T12:45:35Z</time>
      </trkpt>
      <trkpt lat="48.66932" lon="6.12783">
        <ele>510</ele>
        <time>2020-10-03T12:45:36Z</time>
      </trkpt>
      <trkpt lat="48.66929" lon="6.12785">
        <ele>510</ele>
        <time>2020-10-03T12:45:37Z</time>
      </trkpt>
      <trkpt lat="48.66925" lon="6.12786">
        <ele>509.8</ele>
        <time>2020-10-03T12:45:38Z</time>
      </trkpt>
      <trkpt lat="48.66923" lon="6.12787">
        <ele>509.8</ele>
        <time>2020-10-03T12:45:39Z</time>
      </trkpt>
      <trkpt lat="48.66922" lon="6.12787">
        <ele>510</ele>
        <time>2020-10-03T12:45:40Z</time>
      </trkpt>
      <trkpt lat="48.66921" lon="6.12787">
        <ele>510.2</ele>
        <time>2020-10-03T12:45:41Z</time>
      </trkpt>
      <trkpt lat="48.6692" lon="6.12786">
        <ele>510.2</ele>
        <time>2020-10-03T12:45:42Z</time>
      </trkpt>
      <trkpt lat="48.66919" lon="6.12785">
        <ele>510</ele>
        <time>2020-10-03T12:45:43Z</time>
      </trkpt>
      <trkpt lat="48.66917" lon="6.12785">
        <ele>509.8</ele>
        <time>2020-10-03T12:45:44Z</time>
      </trkpt>
      <trkpt lat="48.66916" lon="6.12787">
        <ele>509.6</ele>
        <time>2020-10-03T12:45:45Z</time>
      </trkpt>
      <trkpt lat="48.66914" lon="6.12787">
        <ele>509.6</ele>
        <time>2020-10-03T12:45:46Z</time>
      </trkpt>
      <trkpt lat="48.6691" lon="6.12787">
        <ele>509.8</ele>
        <time>2020-10-03T12:45:47Z</time>
      </trkpt>
      <trkpt lat="48.66908" lon="6.12787">
        <ele>510</ele>
        <time>2020-10-03T12:45:48Z</time>
      </trkpt>
      <trkpt lat="48.66907" lon="6.12787">
        <ele>510</ele>
        <time>2020-10-03T12:45:49Z</time>
      </trkpt>
      <trkpt lat="48.66905" lon="6.12787">
        <ele>510.2</ele>
        <time>2020-10-03T12:45:50Z</time>
      </trkpt>
      <trkpt lat="48.66903" lon="6.12787">
        <ele>510.2</ele>
        <time>2020-10-03T12:45:51Z</time>
      </trkpt>
      <trkpt lat="48.66899" lon="6.12787">
        <ele>510.2</ele>
        <time>2020-10-03T12:45:52Z</time>
      </trkpt>
      <trkpt lat="48.66895" lon="6.12788">
        <ele>510.6</ele>
        <time>2020-10-03T12:45:53Z</time>
      </trkpt>
      <trkpt lat="48.66894" lon="6.12787">
        <ele>510.8</ele>
        <time>2020-10-03T12:45:54Z</time>
      </trkpt>
      <trkpt lat="48.66892" lon="6.12787">
        <ele>510.8</ele>
        <time>2020-10-03T12:45:55Z</time>
      </trkpt>
      <trkpt lat="48.66889" lon="6.12787">
        <ele>511</ele>
        <time>2020-10-03T12:45:56Z</time>
      </trkpt>
      <trkpt lat="48.66884" lon="6.12789">
        <ele>511</ele>
        <time>2020-10-03T12:45:57Z</time>
      </trkpt>
      <trkpt lat="48.66882" lon="6.12789">
        <ele>510.8</ele>
        <time>2020-10-03T12:45:58Z</time>
      </trkpt>
      <trkpt lat="48.66877" lon="6.1279">
        <ele>510.8</ele>
        <time>2020-10-03T12:45:59Z</time>
      </trkpt>
      <trkpt lat="48.66873" lon="6.12789">
        <ele>510.8</ele>
        <time>2020-10-03T12:46:00Z</time>
      </trkpt>
      <trkpt lat="48.6687" lon="6.1279">
        <ele>511</ele>
        <time>2020-10-03T12:46:01Z</time>
      </trkpt>
      <trkpt lat="48.66867" lon="6.12791">
        <ele>510.8</ele>
        <time>2020-10-03T12:46:02Z</time>
      </trkpt>
      <trkpt lat="48.66864" lon="6.12791">
        <ele>510.8</ele>
        <time>2020-10-03T12:46:03Z</time>
      </trkpt>
      <trkpt lat="48.66861" lon="6.1279">
        <ele>511</ele>
        <time>2020-10-03T12:46:04Z</time>
      </trkpt>
      <trkpt lat="48.66858" lon="6.12791">
        <ele>511.2</ele>
        <time>2020-10-03T12:46:05Z</time>
      </trkpt>
      <trkpt lat="48.66855" lon="6.12791">
        <ele>511.2</ele>
        <time>2020-10-03T12:46:06Z</time>
      </trkpt>
      <trkpt lat="48.6685" lon="6.1279">
        <ele>511.2</ele>
        <time>2020-10-03T12:46:07Z</time>
      </trkpt>
      <trkpt lat="48.66847" lon="6.12791">
        <ele>511.2</ele>
        <time>2020-10-03T12:46:08Z</time>
      </trkpt>
      <trkpt lat="48.66842" lon="6.12793">
        <ele>511.2</ele>
        <time>2020-10-03T12:46:09Z</time>
      </trkpt>
      <trkpt lat="48.66837" lon="6.12793">
        <ele>511.2</ele>
        <time>2020-10-03T12:46:10Z</time>
      </trkpt>
      <trkpt lat="48.66834" lon="6.12793">
        <ele>511.4</ele>
        <time>2020-10-03T12:46:11Z</time>
      </trkpt>
      <trkpt lat="48.66832" lon="6.12793">
        <ele>511.4</ele>
        <time>2020-10-03T12:46:12Z</time>
      </trkpt>
      <trkpt lat="48.66828" lon="6.12793">
        <ele>511.2</ele>
        <time>2020-10-03T12:46:13Z</time>
      </trkpt>
      <trkpt lat="48.66825" lon="6.12793">
        <ele>511.2</ele>
        <time>2020-10-03T12:46:14Z</time>
      </trkpt>
      <trkpt lat="48.66819" lon="6.12794">
        <ele>511</ele>
        <time>2020-10-03T12:46:15Z</time>
      </trkpt>
      <trkpt lat="48.66813" lon="6.12794">
        <ele>511.2</ele>
        <time>2020-10-03T12:46:16Z</time>
      </trkpt>
      <trkpt lat="48.6681" lon="6.12794">
        <ele>511.2</ele>
        <time>2020-10-03T12:46:17Z</time>
      </trkpt>
      <trkpt lat="48.66807" lon="6.12794">
        <ele>511.2</ele>
        <time>2020-10-03T12:46:18Z</time>
      </trkpt>
      <trkpt lat="48.66803" lon="6.12795">
        <ele>511.2</ele>
        <time>2020-10-03T12:46:19Z</time>
      </trkpt>
      <trkpt lat="48.668" lon="6.12796">
        <ele>511.4</ele>
        <time>2020-10-03T12:46:20Z</time>
      </trkpt>
      <trkpt lat="48.66796" lon="6.12798">
        <ele>511.6</ele>
        <time>2020-10-03T12:46:21Z</time>
      </trkpt>
      <trkpt lat="48.66791" lon="6.12798">
        <ele>511.6</ele>
        <time>2020-10-03T12:46:22Z</time>
      </trkpt>
      <trkpt lat="48.66787" lon="6.12797">
        <ele>511.6</ele>
        <time>2020-10-03T12:46:23Z</time>
      </trkpt>
      <trkpt lat="48.66783" lon="6.12796">
        <ele>511.4</ele>
        <time>2020-10-03T12:46:24Z</time>
      </trkpt>
      <trkpt lat="48.66781" lon="6.12796">
        <ele>511.2</ele>
        <time>2020-10-03T12:46:25Z</time>
      </trkpt>
      <trkpt lat="48.66778" lon="6.12797">
        <ele>511.2</ele>
        <time>2020-10-03T12:46:26Z</time>
      </trkpt>
      <trkpt lat="48.66775" lon="6.12795">
        <ele>511.4</ele>
        <time>2020-10-03T12:46:27Z</time>
      </trkpt>
      <trkpt lat="48.66769" lon="6.12794">
        <ele>511.4</ele>
        <time>2020-10-03T12:46:28Z</time>
      </trkpt>
      <trkpt lat="48.66764" lon="6.12793">
        <ele>511.6</ele>
        <time>2020-10-03T12:46:29Z</time>
      </trkpt>
      <trkpt lat="48.6676" lon="6.12794">
        <ele>511.8</ele>
        <time>2020-10-03T12:46:30Z</time>
      </trkpt>
      <trkpt lat="48.66753" lon="6.12796">
        <ele>511.8</ele>
        <time>2020-10-03T12:46:31Z</time>
      </trkpt>
      <trkpt lat="48.66749" lon="6.12795">
        <ele>511.8</ele>
        <time>2020-10-03T12:46:32Z</time>
      </trkpt>
      <trkpt lat="48.66746" lon="6.12794">
        <ele>511.8</ele>
        <time>2020-10-03T12:46:33Z</time>
      </trkpt>
      <trkpt lat="48.66743" lon="6.12793">
        <ele>511.8</ele>
        <time>2020-10-03T12:46:34Z</time>
      </trkpt>
      <trkpt lat="48.66741" lon="6.12793">
        <ele>512</ele>
        <time>2020-10-03T12:46:35Z</time>
      </trkpt>
      <trkpt lat="48.66738" lon="6.12794">
        <ele>512.2</ele>
        <time>2020-10-03T12:46:36Z</time>
      </trkpt>
      <trkpt lat="48.66734" lon="6.12795">
        <ele>512.4</ele>
        <time>2020-10-03T12:46:37Z</time>
      </trkpt>
      <trkpt lat="48.66732" lon="6.12795">
        <ele>512.4</ele>
        <time>2020-10-03T12:46:38Z</time>
      </trkpt>
      <trkpt lat="48.66729" lon="6.12794">
        <ele>512.4</ele>
        <time>2020-10-03T12:46:39Z</time>
      </trkpt>
      <trkpt lat="48.66723" lon="6.12793">
        <ele>512.4</ele>
        <time>2020-10-03T12:46:40Z</time>
      </trkpt>
      <trkpt lat="48.66721" lon="6.12793">
        <ele>512.6</ele>
        <time>2020-10-03T12:46:41Z</time>
      </trkpt>
      <trkpt lat="48.66715" lon="6.12795">
        <ele>512.6</ele>
        <time>2020-10-03T12:46:42Z</time>
      </trkpt>
      <trkpt lat="48.66711" lon="6.12797">
        <ele>512.6</ele>
        <time>2020-10-03T12:46:43Z</time>
      </trkpt>
      <trkpt lat="48.66706" lon="6.12797">
        <ele>512.4</ele>
        <time>2020-10-03T12:46:44Z</time>
      </trkpt>
      <trkpt lat="48.66701" lon="6.12795">
        <ele>512.4</ele>
        <time>2020-10-03T12:46:45Z</time>
      </trkpt>
      <trkpt lat="48.66697" lon="6.12797">
        <ele>512.4</ele>
        <time>2020-10-03T12:46:46Z</time>
      </trkpt>
      <trkpt lat="48.66695" lon="6.12796">
        <ele>512.4</ele>
        <time>2020-10-03T12:46:47Z</time>
      </trkpt>
      <trkpt lat="48.66692" lon="6.12796">
        <ele>512.6</ele>
        <time>2020-10-03T12:46:48Z</time>
      </trkpt>
      <trkpt lat="48.6669" lon="6.12796">
        <ele>512.4</ele>
        <time>2020-10-03T12:46:49Z</time>
      </trkpt>
      <trkpt lat="48.66687" lon="6.12796">
        <ele>512.4</ele>
        <time>2020-10-03T12:46:50Z</time>
      </trkpt>
      <trkpt lat="48.66685" lon="6.12797">
        <ele>512.2</ele>
        <time>2020-10-03T12:46:51Z</time>
      </trkpt>
      <trkpt lat="48.66681" lon="6.12798">
        <ele>512.2</ele>
        <time>2020-10-03T12:46:52Z</time>
      </trkpt>
      <trkpt lat="48.66678" lon="6.12798">
        <ele>512.6</ele>
        <time>2020-10-03T12:46:53Z</time>
      </trkpt>
      <trkpt lat="48.66674" lon="6.12798">
        <ele>512.6</ele>
        <time>2020-10-03T12:46:54Z</time>
      </trkpt>
      <trkpt lat="48.66671" lon="6.12798">
        <ele>512.6</ele>
        <time>2020-10-03T12:46:55Z</time>
      </trkpt>
      <trkpt lat="48.66666" lon="6.12798">
        <ele>512.6</ele>
        <time>2020-10-03T12:46:56Z</time>
      </trkpt>
      <trkpt lat="48.66663" lon="6.12799">
        <ele>512.6</ele>
        <time>2020-10-03T12:46:57Z</time>
      </trkpt>
      <trkpt lat="48.6666" lon="6.12799">
        <ele>512.6</ele>
        <time>2020-10-03T12:46:58Z</time>
      </trkpt>
      <trkpt lat="48.66657" lon="6.12798">
        <ele>512.6</ele>
        <time>2020-10-03T12:46:59Z</time>
      </trkpt>
      <trkpt lat="48.66653" lon="6.12798">
        <ele>512.6</ele>
        <time>2020-10-03T12:47:00Z</time>
      </trkpt>
      <trkpt lat="48.66651" lon="6.12798">
        <ele>512.8</ele>
        <time>2020-10-03T12:47:01Z</time>
      </trkpt>
      <trkpt lat="48.66648" lon="6.12798">
        <ele>512.8</ele>
        <time>2020-10-03T12:47:02Z</time>
      </trkpt>
      <trkpt lat="48.66646" lon="6.12797">
        <ele>512.8</ele>
        <time>2020-10-03T12:47:03Z</time>
      </trkpt>
      <trkpt lat="48.66644" lon="6.12796">
        <ele>512.8</ele>
        <time>2020-10-03T12:47:04Z</time>
      </trkpt>
      <trkpt lat="48.66641" lon="6.12796">
        <ele>512.8</ele>
        <time>2020-10-03T12:47:05Z</time>
      </trkpt>
      <trkpt lat="48.66638" lon="6.12795">
        <ele>513.2</ele>
        <time>2020-10-03T12:47:06Z</time>
      </trkpt>
      <trkpt lat="48.66634" lon="6.12795">
        <ele>513.4</ele>
        <time>2020-10-03T12:47:07Z</time>
      </trkpt>
      <trkpt lat="48.66632" lon="6.12794">
        <ele>513.4</ele>
        <time>2020-10-03T12:47:08Z</time>
      </trkpt>
      <trkpt lat="48.6663" lon="6.12794">
        <ele>513.2</ele>
        <time>2020-10-03T12:47:09Z</time>
      </trkpt>
      <trkpt lat="48.66626" lon="6.12793">
        <ele>513</ele>
        <time>2020-10-03T12:47:10Z</time>
      </trkpt>
      <trkpt lat="48.66626" lon="6.12793">
        <ele>513.2</ele>
        <time>2020-10-03T12:47:11Z</time>
      </trkpt>
      <trkpt lat="48.66623" lon="6.12793">
        <ele>513.4</ele>
        <time>2020-10-03T12:47:12Z</time>
      </trkpt>
      <trkpt lat="48.66618" lon="6.12792">
        <ele>513.6</ele>
        <time>2020-10-03T12:47:13Z</time>
      </trkpt>
      <trkpt lat="48.66611" lon="6.12795">
        <ele>513.6</ele>
        <time>2020-10-03T12:47:14Z</time>
      </trkpt>
      <trkpt lat="48.66607" lon="6.12795">
        <ele>513.6</ele>
        <time>2020-10-03T12:47:15Z</time>
      </trkpt>
      <trkpt lat="48.66603" lon="6.12794">
        <ele>513.6</ele>
        <time>2020-10-03T12:47:16Z</time>
      </trkpt>
      <trkpt lat="48.666" lon="6.12793">
        <ele>513.8</ele>
        <time>2020-10-03T12:47:17Z</time>
      </trkpt>
      <trkpt lat="48.66599" lon="6.12792">
        <ele>513.8</ele>
        <time>2020-10-03T12:47:18Z</time>
      </trkpt>
      <trkpt lat="48.66597" lon="6.12791">
        <ele>513.8</ele>
        <time>2020-10-03T12:47:19Z</time>
      </trkpt>
      <trkpt lat="48.66595" lon="6.12791">
        <ele>513.8</ele>
        <time>2020-10-03T12:47:20Z</time>
      </trkpt>
      <trkpt lat="48.66593" lon="6.12791">
        <ele>513.8</ele>
        <time>2020-10-03T12:47:21Z</time>
      </trkpt>
      <trkpt lat="48.66591" lon="6.12791">
        <ele>514</ele>
        <time>2020-10-03T12:47:22Z</time>
      </trkpt>
      <trkpt lat="48.66585" lon="6.12791">
        <ele>514</ele>
        <time>2020-10-03T12:47:23Z</time>
      </trkpt>
      <trkpt lat="48.66581" lon="6.1279">
        <ele>513.8</ele>
        <time>2020-10-03T12:47:24Z</time>
      </trkpt>
      <trkpt lat="48.66579" lon="6.1279">
        <ele>513.8</ele>
        <time>2020-10-03T12:47:25Z</time>
      </trkpt>
      <trkpt lat="48.66575" lon="6.1279">
        <ele>513.8</ele>
        <time>2020-10-03T12:47:26Z</time>
      </trkpt>
      <trkpt lat="48.66573" lon="6.12791">
        <ele>513.8</ele>
        <time>2020-10-03T12:47:27Z</time>
      </trkpt>
      <trkpt lat="48.66572" lon="6.12791">
        <ele>514</ele>
        <time>2020-10-03T12:47:28Z</time>
      </trkpt>
      <trkpt lat="48.6657" lon="6.12791">
        <ele>514</ele>
        <time>2020-10-03T12:47:29Z</time>
      </trkpt>
      <trkpt lat="48.66567" lon="6.12792">
        <ele>514.2</ele>
        <time>2020-10-03T12:47:30Z</time>
      </trkpt>
      <trkpt lat="48.66563" lon="6.12792">
        <ele>514.2</ele>
        <time>2020-10-03T12:47:31Z</time>
      </trkpt>
      <trkpt lat="48.66561" lon="6.12791">
        <ele>514</ele>
        <time>2020-10-03T12:47:32Z</time>
      </trkpt>
      <trkpt lat="48.66556" lon="6.12792">
        <ele>514</ele>
        <time>2020-10-03T12:47:33Z</time>
      </trkpt>
      <trkpt lat="48.66554" lon="6.12791">
        <ele>514</ele>
        <time>2020-10-03T12:47:34Z</time>
      </trkpt>
      <trkpt lat="48.66552" lon="6.12791">
        <ele>514.2</ele>
        <time>2020-10-03T12:47:35Z</time>
      </trkpt>
      <trkpt lat="48.66551" lon="6.12792">
        <ele>514.2</ele>
        <time>2020-10-03T12:47:36Z</time>
      </trkpt>
      <trkpt lat="48.66549" lon="6.12792">
        <ele>514.2</ele>
        <time>2020-10-03T12:47:37Z</time>
      </trkpt>
      <trkpt lat="48.66544" lon="6.12793">
        <ele>514.2</ele>
        <time>2020-10-03T12:47:38Z</time>
      </trkpt>
      <trkpt lat="48.66541" lon="6.12792">
        <ele>514.2</ele>
        <time>2020-10-03T12:47:39Z</time>
      </trkpt>
      <trkpt lat="48.66537" lon="6.12793">
        <ele>514.4</ele>
        <time>2020-10-03T12:47:40Z</time>
      </trkpt>
      <trkpt lat="48.66535" lon="6.12794">
        <ele>514.6</ele>
        <time>2020-10-03T12:47:41Z</time>
      </trkpt>
      <trkpt lat="48.66533" lon="6.12795">
        <ele>514.6</ele>
        <time>2020-10-03T12:47:42Z</time>
      </trkpt>
      <trkpt lat="48.66532" lon="6.12795">
        <ele>514.6</ele>
        <time>2020-10-03T12:47:43Z</time>
      </trkpt>
      <trkpt lat="48.6653" lon="6.12796">
        <ele>514.6</ele>
        <time>2020-10-03T12:47:44Z</time>
      </trkpt>
      <trkpt lat="48.66528" lon="6.12799">
        <ele>514.6</ele>
        <time>2020-10-03T12:47:45Z</time>
      </trkpt>
      <trkpt lat="48.66525" lon="6.12798">
        <ele>514.8</ele>
        <time>2020-10-03T12:47:46Z</time>
      </trkpt>
      <trkpt lat="48.66522" lon="6.12798">
        <ele>514.8</ele>
        <time>2020-10-03T12:47:47Z</time>
      </trkpt>
      <trkpt lat="48.6652" lon="6.12798">
        <ele>515</ele>
        <time>2020-10-03T12:47:48Z</time>
      </trkpt>
      <trkpt lat="48.66517" lon="6.12797">
        <ele>515</ele>
        <time>2020-10-03T12:47:49Z</time>
      </trkpt>
      <trkpt lat="48.66512" lon="6.12796">
        <ele>515</ele>
        <time>2020-10-03T12:47:50Z</time>
      </trkpt>
      <trkpt lat="48.66507" lon="6.12795">
        <ele>515</ele>
        <time>2020-10-03T12:47:51Z</time>
      </trkpt>
      <trkpt lat="48.66507" lon="6.12795">
        <ele>514.8</ele>
        <time>2020-10-03T12:47:52Z</time>
      </trkpt>
      <trkpt lat="48.66504" lon="6.12796">
        <ele>514.8</ele>
        <time>2020-10-03T12:47:53Z</time>
      </trkpt>
      <trkpt lat="48.66501" lon="6.12798">
        <ele>515</ele>
        <time>2020-10-03T12:47:54Z</time>
      </trkpt>
      <trkpt lat="48.665" lon="6.12797">
        <ele>514.8</ele>
        <time>2020-10-03T12:47:55Z</time>
      </trkpt>
      <trkpt lat="48.665" lon="6.12797">
        <ele>514.8</ele>
        <time>2020-10-03T12:47:56Z</time>
      </trkpt>
      <trkpt lat="48.66498" lon="6.12798">
        <ele>514.8</ele>
        <time>2020-10-03T12:47:57Z</time>
      </trkpt>
      <trkpt lat="48.66496" lon="6.12797">
        <ele>515</ele>
        <time>2020-10-03T12:47:58Z</time>
      </trkpt>
      <trkpt lat="48.66493" lon="6.12797">
        <ele>515</ele>
        <time>2020-10-03T12:47:59Z</time>
      </trkpt>
      <trkpt lat="48.66491" lon="6.12797">
        <ele>515.2</ele>
        <time>2020-10-03T12:48:00Z</time>
      </trkpt>
      <trkpt lat="48.66488" lon="6.12796">
        <ele>515.4</ele>
        <time>2020-10-03T12:48:01Z</time>
      </trkpt>
      <trkpt lat="48.66487" lon="6.12796">
        <ele>515.4</ele>
        <time>2020-10-03T12:48:02Z</time>
      </trkpt>
      <trkpt lat="48.66487" lon="6.12796">
        <ele>515.2</ele>
        <time>2020-10-03T12:48:03Z</time>
      </trkpt>
      <trkpt lat="48.66485" lon="6.12796">
        <ele>515.2</ele>
        <time>2020-10-03T12:48:04Z</time>
      </trkpt>
      <trkpt lat="48.66481" lon="6.12795">
        <ele>515.2</ele>
        <time>2020-10-03T12:48:05Z</time>
      </trkpt>
      <trkpt lat="48.66479" lon="6.12796">
        <ele>515.4</ele>
        <time>2020-10-03T12:48:06Z</time>
      </trkpt>
      <trkpt lat="48.66476" lon="6.12796">
        <ele>515.4</ele>
        <time>2020-10-03T12:48:07Z</time>
      </trkpt>
      <trkpt lat="48.66474" lon="6.12797">
        <ele>515.4</ele>
        <time>2020-10-03T12:48:08Z</time>
      </trkpt>
      <trkpt lat="48.66471" lon="6.12797">
        <ele>515.4</ele>
        <time>2020-10-03T12:48:09Z</time>
      </trkpt>
      <trkpt lat="48.66468" lon="6.12797">
        <ele>515.4</ele>
        <time>2020-10-03T12:48:10Z</time>
      </trkpt>
      <trkpt lat="48.66466" lon="6.12796">
        <ele>515.2</ele>
        <time>2020-10-03T12:48:11Z</time>
      </trkpt>
      <trkpt lat="48.66463" lon="6.12796">
        <ele>515.2</ele>
        <time>2020-10-03T12:48:12Z</time>
      </trkpt>
      <trkpt lat="48.66461" lon="6.12796">
        <ele>515.2</ele>
        <time>2020-10-03T12:48:13Z</time>
      </trkpt>
      <trkpt lat="48.6646" lon="6.12796">
        <ele>515.4</ele>
        <time>2020-10-03T12:48:14Z</time>
      </trkpt>
      <trkpt lat="48.66458" lon="6.12796">
        <ele>515.2</ele>
        <time>2020-10-03T12:48:15Z</time>
      </trkpt>
      <trkpt lat="48.66455" lon="6.12797">
        <ele>515.2</ele>
        <time>2020-10-03T12:48:16Z</time>
      </trkpt>
      <trkpt lat="48.66454" lon="6.12797">
        <ele>515.4</ele>
        <time>2020-10-03T12:48:17Z</time>
      </trkpt>
      <trkpt lat="48.66452" lon="6.12797">
        <ele>515.4</ele>
        <time>2020-10-03T12:48:18Z</time>
      </trkpt>
      <trkpt lat="48.66449" lon="6.12797">
        <ele>515.4</ele>
        <time>2020-10-03T12:48:19Z</time>
      </trkpt>
      <trkpt lat="48.66447" lon="6.12797">
        <ele>515.6</ele>
        <time>2020-10-03T12:48:20Z</time>
      </trkpt>
      <trkpt lat="48.66444" lon="6.12798">
        <ele>515.6</ele>
        <time>2020-10-03T12:48:21Z</time>
      </trkpt>
      <trkpt lat="48.66441" lon="6.12797">
        <ele>515.6</ele>
        <time>2020-10-03T12:48:22Z</time>
      </trkpt>
      <trkpt lat="48.66439" lon="6.12797">
        <ele>515.6</ele>
        <time>2020-10-03T12:48:23Z</time>
      </trkpt>
      <trkpt lat="48.66436" lon="6.12797">
        <ele>515.6</ele>
        <time>2020-10-03T12:48:24Z</time>
      </trkpt>
      <trkpt lat="48.66433" lon="6.12798">
        <ele>515.6</ele>
        <time>2020-10-03T12:48:25Z</time>
      </trkpt>
      <trkpt lat="48.66431" lon="6.12798">
        <ele>515.4</ele>
        <time>2020-10-03T12:48:26Z</time>
      </trkpt>
      <trkpt lat="48.66428" lon="6.12799">
        <ele>515.6</ele>
        <time>2020-10-03T12:48:27Z</time>
      </trkpt>
      <trkpt lat="48.66425" lon="6.12799">
        <ele>515.6</ele>
        <time>2020-10-03T12:48:28Z</time>
      </trkpt>
      <trkpt lat="48.66423" lon="6.12799">
        <ele>515.8</ele>
        <time>2020-10-03T12:48:29Z</time>
      </trkpt>
      <trkpt lat="48.66421" lon="6.12799">
        <ele>515.8</ele>
        <time>2020-10-03T12:48:30Z</time>
      </trkpt>
      <trkpt lat="48.66418" lon="6.12799">
        <ele>516</ele>
        <time>2020-10-03T12:48:31Z</time>
      </trkpt>
      <trkpt lat="48.66415" lon="6.12799">
        <ele>516</ele>
        <time>2020-10-03T12:48:32Z</time>
      </trkpt>
      <trkpt lat="48.66412" lon="6.12801">
        <ele>516</ele>
        <time>2020-10-03T12:48:33Z</time>
      </trkpt>
      <trkpt lat="48.66409" lon="6.12802">
        <ele>515.8</ele>
        <time>2020-10-03T12:48:34Z</time>
      </trkpt>
      <trkpt lat="48.66407" lon="6.12802">
        <ele>516</ele>
        <time>2020-10-03T12:48:35Z</time>
      </trkpt>
      <trkpt lat="48.66404" lon="6.12802">
        <ele>516</ele>
        <time>2020-10-03T12:48:36Z</time>
      </trkpt>
      <trkpt lat="48.66402" lon="6.12803">
        <ele>516.2</ele>
        <time>2020-10-03T12:48:37Z</time>
      </trkpt>
      <trkpt lat="48.66399" lon="6.12804">
        <ele>516.2</ele>
        <time>2020-10-03T12:48:38Z</time>
      </trkpt>
      <trkpt lat="48.66396" lon="6.12805">
        <ele>516</ele>
        <time>2020-10-03T12:48:39Z</time>
      </trkpt>
      <trkpt lat="48.66395" lon="6.12805">
        <ele>516</ele>
        <time>2020-10-03T12:48:40Z</time>
      </trkpt>
      <trkpt lat="48.66393" lon="6.12804">
        <ele>516</ele>
        <time>2020-10-03T12:48:41Z</time>
      </trkpt>
      <trkpt lat="48.66391" lon="6.12804">
        <ele>516</ele>
        <time>2020-10-03T12:48:42Z</time>
      </trkpt>
      <trkpt lat="48.6639" lon="6.12804">
        <ele>516.2</ele>
        <time>2020-10-03T12:48:43Z</time>
      </trkpt>
      <trkpt lat="48.66389" lon="6.12803">
        <ele>516.4</ele>
        <time>2020-10-03T12:48:44Z</time>
      </trkpt>
      <trkpt lat="48.66388" lon="6.12803">
        <ele>516.4</ele>
        <time>2020-10-03T12:48:45Z</time>
      </trkpt>
      <trkpt lat="48.66386" lon="6.12803">
        <ele>516.2</ele>
        <time>2020-10-03T12:48:46Z</time>
      </trkpt>
      <trkpt lat="48.66384" lon="6.12803">
        <ele>515.8</ele>
        <time>2020-10-03T12:48:47Z</time>
      </trkpt>
      <trkpt lat="48.66382" lon="6.12803">
        <ele>516</ele>
        <time>2020-10-03T12:48:48Z</time>
      </trkpt>
      <trkpt lat="48.6638" lon="6.12802">
        <ele>516.2</ele>
        <time>2020-10-03T12:48:49Z</time>
      </trkpt>
      <trkpt lat="48.66378" lon="6.12801">
        <ele>516.2</ele>
        <time>2020-10-03T12:48:50Z</time>
      </trkpt>
      <trkpt lat="48.66375" lon="6.12802">
        <ele>516</ele>
        <time>2020-10-03T12:48:51Z</time>
      </trkpt>
      <trkpt lat="48.66374" lon="6.12802">
        <ele>516</ele>
        <time>2020-10-03T12:48:52Z</time>
      </trkpt>
      <trkpt lat="48.66373" lon="6.12802">
        <ele>516.2</ele>
        <time>2020-10-03T12:48:53Z</time>
      </trkpt>
      <trkpt lat="48.66371" lon="6.12801">
        <ele>516.2</ele>
        <time>2020-10-03T12:48:54Z</time>
      </trkpt>
      <trkpt lat="48.6637" lon="6.12801">
        <ele>516.2</ele>
        <time>2020-10-03T12:48:55Z</time>
      </trkpt>
      <trkpt lat="48.66367" lon="6.128">
        <ele>516.2</ele>
        <time>2020-10-03T12:48:56Z</time>
      </trkpt>
      <trkpt lat="48.66365" lon="6.128">
        <ele>516.2</ele>
        <time>2020-10-03T12:48:57Z</time>
      </trkpt>
      <trkpt lat="48.66364" lon="6.12799">
        <ele>516.2</ele>
        <time>2020-10-03T12:48:58Z</time>
      </trkpt>
      <trkpt lat="48.66364" lon="6.12799">
        <ele>516.2</ele>
        <time>2020-10-03T12:48:59Z</time>
      </trkpt>
      <trkpt lat="48.66363" lon="6.12798">
        <ele>516.2</ele>
        <time>2020-10-03T12:49:00Z</time>
      </trkpt>
      <trkpt lat="48.66359" lon="6.12799">
        <ele>516</ele>
        <time>2020-10-03T12:49:01Z</time>
      </trkpt>
      <trkpt lat="48.66356" lon="6.12801">
        <ele>516</ele>
        <time>2020-10-03T12:49:02Z</time>
      </trkpt>
      <trkpt lat="48.66353" lon="6.12802">
        <ele>516</ele>
        <time>2020-10-03T12:49:03Z</time>
      </trkpt>
      <trkpt lat="48.66351" lon="6.12801">
        <ele>516.2</ele>
        <time>2020-10-03T12:49:04Z</time>
      </trkpt>
      <trkpt lat="48.6635" lon="6.12802">
        <ele>516.2</ele>
        <time>2020-10-03T12:49:05Z</time>
      </trkpt>
      <trkpt lat="48.66349" lon="6.12802">
        <ele>516.2</ele>
        <time>2020-10-03T12:49:06Z</time>
      </trkpt>
      <trkpt lat="48.66346" lon="6.12803">
        <ele>516.2</ele>
        <time>2020-10-03T12:49:07Z</time>
      </trkpt>
      <trkpt lat="48.66345" lon="6.12803">
        <ele>516.2</ele>
        <time>2020-10-03T12:49:08Z</time>
      </trkpt>
      <trkpt lat="48.66342" lon="6.12803">
        <ele>516.4</ele>
        <time>2020-10-03T12:49:09Z</time>
      </trkpt>
      <trkpt lat="48.66338" lon="6.12801">
        <ele>516.4</ele>
        <time>2020-10-03T12:49:10Z</time>
      </trkpt>
      <trkpt lat="48.66335" lon="6.128">
        <ele>516.4</ele>
        <time>2020-10-03T12:49:11Z</time>
      </trkpt>
      <trkpt lat="48.66332" lon="6.12798">
        <ele>516.2</ele>
        <time>2020-10-03T12:49:12Z</time>
      </trkpt>
      <trkpt lat="48.66328" lon="6.12799">
        <ele>516</ele>
        <time>2020-10-03T12:49:13Z</time>
      </trkpt>
      <trkpt lat="48.66326" lon="6.128">
        <ele>516</ele>
        <time>2020-10-03T12:49:14Z</time>
      </trkpt>
      <trkpt lat="48.66323" lon="6.12799">
        <ele>516.2</ele>
        <time>2020-10-03T12:49:15Z</time>
      </trkpt>
      <trkpt lat="48.66321" lon="6.128">
        <ele>516.4</ele>
        <time>2020-10-03T12:49:16Z</time>
      </trkpt>
      <trkpt lat="48.66319" lon="6.128">
        <ele>516.4</ele>
        <time>2020-10-03T12:49:17Z</time>
      </trkpt>
      <trkpt lat="48.66316" lon="6.12799">
        <ele>516.4</ele>
        <time>2020-10-03T12:49:18Z</time>
      </trkpt>
      <trkpt lat="48.66313" lon="6.12798">
        <ele>516.2</ele>
        <time>2020-10-03T12:49:19Z</time>
      </trkpt>
      <trkpt lat="48.66311" lon="6.12798">
        <ele>516.2</ele>
        <time>2020-10-03T12:49:20Z</time>
      </trkpt>
      <trkpt lat="48.66309" lon="6.12798">
        <ele>516.2</ele>
        <time>2020-10-03T12:49:21Z</time>
      </trkpt>
      <trkpt lat="48.66308" lon="6.12795">
        <ele>516.4</ele>
        <time>2020-10-03T12:49:22Z</time>
      </trkpt>
      <trkpt lat="48.66308" lon="6.12796">
        <ele>516.6</ele>
        <time>2020-10-03T12:49:23Z</time>
      </trkpt>
      <trkpt lat="48.66306" lon="6.12796">
        <ele>516.4</ele>
        <time>2020-10-03T12:49:24Z</time>
      </trkpt>
      <trkpt lat="48.66305" lon="6.12796">
        <ele>516.4</ele>
        <time>2020-10-03T12:49:25Z</time>
      </trkpt>
      <trkpt lat="48.66303" lon="6.12795">
        <ele>516.4</ele>
        <time>2020-10-03T12:49:26Z</time>
      </trkpt>
      <trkpt lat="48.663" lon="6.12795">
        <ele>516.4</ele>
        <time>2020-10-03T12:49:27Z</time>
      </trkpt>
      <trkpt lat="48.66298" lon="6.12795">
        <ele>516.4</ele>
        <time>2020-10-03T12:49:28Z</time>
      </trkpt>
      <trkpt lat="48.66294" lon="6.12795">
        <ele>516.4</ele>
        <time>2020-10-03T12:49:29Z</time>
      </trkpt>
      <trkpt lat="48.66289" lon="6.12796">
        <ele>516.4</ele>
        <time>2020-10-03T12:49:30Z</time>
      </trkpt>
      <trkpt lat="48.66287" lon="6.12796">
        <ele>516.4</ele>
        <time>2020-10-03T12:49:31Z</time>
      </trkpt>
      <trkpt lat="48.66285" lon="6.12795">
        <ele>516.4</ele>
        <time>2020-10-03T12:49:32Z</time>
      </trkpt>
      <trkpt lat="48.66284" lon="6.12794">
        <ele>516.4</ele>
        <time>2020-10-03T12:49:33Z</time>
      </trkpt>
      <trkpt lat="48.66283" lon="6.12795">
        <ele>516.6</ele>
        <time>2020-10-03T12:49:34Z</time>
      </trkpt>
      <trkpt lat="48.66279" lon="6.12795">
        <ele>516.6</ele>
        <time>2020-10-03T12:49:35Z</time>
      </trkpt>
      <trkpt lat="48.66276" lon="6.12795">
        <ele>516.8</ele>
        <time>2020-10-03T12:49:36Z</time>
      </trkpt>
      <trkpt lat="48.66272" lon="6.12796">
        <ele>517</ele>
        <time>2020-10-03T12:49:37Z</time>
      </trkpt>
      <trkpt lat="48.6627" lon="6.12796">
        <ele>517.2</ele>
        <time>2020-10-03T12:49:38Z</time>
      </trkpt>
      <trkpt lat="48.66268" lon="6.12796">
        <ele>517.2</ele>
        <time>2020-10-03T12:49:39Z</time>
      </trkpt>
      <trkpt lat="48.66266" lon="6.12798">
        <ele>517.2</ele>
        <time>2020-10-03T12:49:40Z</time>
      </trkpt>
      <trkpt lat="48.66263" lon="6.12798">
        <ele>517.4</ele>
        <time>2020-10-03T12:49:41Z</time>
      </trkpt>
      <trkpt lat="48.6626" lon="6.12798">
        <ele>517.4</ele>
        <time>2020-10-03T12:49:42Z</time>
      </trkpt>
      <trkpt lat="48.66258" lon="6.12798">
        <ele>517.4</ele>
        <time>2020-10-03T12:49:43Z</time>
      </trkpt>
      <trkpt lat="48.66256" lon="6.12798">
        <ele>517.4</ele>
        <time>2020-10-03T12:49:44Z</time>
      </trkpt>
      <trkpt lat="48.66254" lon="6.12797">
        <ele>517.2</ele>
        <time>2020-10-03T12:49:45Z</time>
      </trkpt>
      <trkpt lat="48.66253" lon="6.12799">
        <ele>517.4</ele>
        <time>2020-10-03T12:49:46Z</time>
      </trkpt>
      <trkpt lat="48.66252" lon="6.128">
        <ele>517.6</ele>
        <time>2020-10-03T12:49:47Z</time>
      </trkpt>
      <trkpt lat="48.6625" lon="6.12799">
        <ele>517.8</ele>
        <time>2020-10-03T12:49:48Z</time>
      </trkpt>
      <trkpt lat="48.66248" lon="6.12799">
        <ele>517.8</ele>
        <time>2020-10-03T12:49:49Z</time>
      </trkpt>
      <trkpt lat="48.66248" lon="6.12798">
        <ele>517.6</ele>
        <time>2020-10-03T12:49:50Z</time>
      </trkpt>
      <trkpt lat="48.66245" lon="6.12799">
        <ele>517.6</ele>
        <time>2020-10-03T12:49:51Z</time>
      </trkpt>
      <trkpt lat="48.66244" lon="6.12798">
        <ele>517.8</ele>
        <time>2020-10-03T12:49:52Z</time>
      </trkpt>
      <trkpt lat="48.66243" lon="6.12798">
        <ele>517.8</ele>
        <time>2020-10-03T12:49:53Z</time>
      </trkpt>
      <trkpt lat="48.66239" lon="6.12797">
        <ele>517.8</ele>
        <time>2020-10-03T12:49:54Z</time>
      </trkpt>
      <trkpt lat="48.66237" lon="6.12797">
        <ele>517.8</ele>
        <time>2020-10-03T12:49:55Z</time>
      </trkpt>
      <trkpt lat="48.66235" lon="6.12796">
        <ele>517.8</ele>
        <time>2020-10-03T12:49:56Z</time>
      </trkpt>
      <trkpt lat="48.66234" lon="6.12795">
        <ele>517.8</ele>
        <time>2020-10-03T12:49:57Z</time>
      </trkpt>
      <trkpt lat="48.66232" lon="6.12796">
        <ele>517.8</ele>
        <time>2020-10-03T12:49:58Z</time>
      </trkpt>
      <trkpt lat="48.6623" lon="6.12796">
        <ele>517.8</ele>
        <time>2020-10-03T12:49:59Z</time>
      </trkpt>
      <trkpt lat="48.66228" lon="6.12796">
        <ele>518</ele>
        <time>2020-10-03T12:50:00Z</time>
      </trkpt>
      <trkpt lat="48.66225" lon="6.12797">
        <ele>518</ele>
        <time>2020-10-03T12:50:01Z</time>
      </trkpt>
      <trkpt lat="48.66223" lon="6.12796">
        <ele>517.8</ele>
        <time>2020-10-03T12:50:02Z</time>
      </trkpt>
      <trkpt lat="48.6622" lon="6.12796">
        <ele>517.8</ele>
        <time>2020-10-03T12:50:03Z</time>
      </trkpt>
      <trkpt lat="48.66217" lon="6.12796">
        <ele>518</ele>
        <time>2020-10-03T12:50:04Z</time>
      </trkpt>
      <trkpt lat="48.66216" lon="6.12796">
        <ele>518</ele>
        <time>2020-10-03T12:50:05Z</time>
      </trkpt>
      <trkpt lat="48.66212" lon="6.12796">
        <ele>517.8</ele>
        <time>2020-10-03T12:50:06Z</time>
      </trkpt>
      <trkpt lat="48.6621" lon="6.12796">
        <ele>517.8</ele>
        <time>2020-10-03T12:50:07Z</time>
      </trkpt>
      <trkpt lat="48.66208" lon="6.12796">
        <ele>518</ele>
        <time>2020-10-03T12:50:08Z</time>
      </trkpt>
      <trkpt lat="48.66205" lon="6.12796">
        <ele>518</ele>
        <time>2020-10-03T12:50:09Z</time>
      </trkpt>
      <trkpt lat="48.66202" lon="6.12796">
        <ele>518</ele>
        <time>2020-10-03T12:50:10Z</time>
      </trkpt>
      <trkpt lat="48.662" lon="6.12795">
        <ele>518</ele>
        <time>2020-10-03T12:50:11Z</time>
      </trkpt>
      <trkpt lat="48.66198" lon="6.12795">
        <ele>517.8</ele>
        <time>2020-10-03T12:50:12Z</time>
      </trkpt>
      <trkpt lat="48.66196" lon="6.12795">
        <ele>517.8</ele>
        <time>2020-10-03T12:50:13Z</time>
      </trkpt>
      <trkpt lat="48.66194" lon="6.12794">
        <ele>518</ele>
        <time>2020-10-03T12:50:14Z</time>
      </trkpt>
      <trkpt lat="48.66191" lon="6.12794">
        <ele>518.2</ele>
        <time>2020-10-03T12:50:15Z</time>
      </trkpt>
      <trkpt lat="48.66187" lon="6.12793">
        <ele>518.2</ele>
        <time>2020-10-03T12:50:16Z</time>
      </trkpt>
      <trkpt lat="48.66183" lon="6.12794">
        <ele>518.2</ele>
        <time>2020-10-03T12:50:17Z</time>
      </trkpt>
      <trkpt lat="48.66179" lon="6.12794">
        <ele>518</ele>
        <time>2020-10-03T12:50:18Z</time>
      </trkpt>
      <trkpt lat="48.66175" lon="6.12795">
        <ele>518.2</ele>
        <time>2020-10-03T12:50:19Z</time>
      </trkpt>
      <trkpt lat="48.66171" lon="6.12795">
        <ele>518</ele>
        <time>2020-10-03T12:50:20Z</time>
      </trkpt>
      <trkpt lat="48.66168" lon="6.12795">
        <ele>518</ele>
        <time>2020-10-03T12:50:21Z</time>
      </trkpt>
      <trkpt lat="48.66165" lon="6.12795">
        <ele>518</ele>
        <time>2020-10-03T12:50:22Z</time>
      </trkpt>
      <trkpt lat="48.66162" lon="6.12793">
        <ele>518.2</ele>
        <time>2020-10-03T12:50:23Z</time>
      </trkpt>
      <trkpt lat="48.66159" lon="6.12792">
        <ele>518.4</ele>
        <time>2020-10-03T12:50:24Z</time>
      </trkpt>
      <trkpt lat="48.66155" lon="6.12791">
        <ele>518.6</ele>
        <time>2020-10-03T12:50:25Z</time>
      </trkpt>
      <trkpt lat="48.66149" lon="6.12791">
        <ele>518.6</ele>
        <time>2020-10-03T12:50:26Z</time>
      </trkpt>
      <trkpt lat="48.66146" lon="6.12791">
        <ele>518.6</ele>
        <time>2020-10-03T12:50:27Z</time>
      </trkpt>
      <trkpt lat="48.66142" lon="6.12791">
        <ele>518.6</ele>
        <time>2020-10-03T12:50:28Z</time>
      </trkpt>
      <trkpt lat="48.66139" lon="6.12791">
        <ele>518.6</ele>
        <time>2020-10-03T12:50:29Z</time>
      </trkpt>
      <trkpt lat="48.66135" lon="6.1279">
        <ele>518.8</ele>
        <time>2020-10-03T12:50:30Z</time>
      </trkpt>
      <trkpt lat="48.6613" lon="6.1279">
        <ele>518.8</ele>
        <time>2020-10-03T12:50:31Z</time>
      </trkpt>
      <trkpt lat="48.66126" lon="6.1279">
        <ele>518.8</ele>
        <time>2020-10-03T12:50:32Z</time>
      </trkpt>
      <trkpt lat="48.66121" lon="6.12791">
        <ele>518.8</ele>
        <time>2020-10-03T12:50:33Z</time>
      </trkpt>
      <trkpt lat="48.66116" lon="6.12791">
        <ele>518.6</ele>
        <time>2020-10-03T12:50:34Z</time>
      </trkpt>
      <trkpt lat="48.66112" lon="6.12791">
        <ele>518.6</ele>
        <time>2020-10-03T12:50:35Z</time>
      </trkpt>
      <trkpt lat="48.66107" lon="6.12791">
        <ele>518.4</ele>
        <time>2020-10-03T12:50:36Z</time>
      </trkpt>
      <trkpt lat="48.66103" lon="6.12791">
        <ele>518.4</ele>
        <time>2020-10-03T12:50:37Z</time>
      </trkpt>
      <trkpt lat="48.66097" lon="6.12792">
        <ele>518.2</ele>
        <time>2020-10-03T12:50:38Z</time>
      </trkpt>
      <trkpt lat="48.66093" lon="6.12793">
        <ele>518.2</ele>
        <time>2020-10-03T12:50:39Z</time>
      </trkpt>
      <trkpt lat="48.66089" lon="6.12793">
        <ele>518</ele>
        <time>2020-10-03T12:50:40Z</time>
      </trkpt>
      <trkpt lat="48.66086" lon="6.12793">
        <ele>518</ele>
        <time>2020-10-03T12:50:41Z</time>
      </trkpt>
      <trkpt lat="48.66082" lon="6.12795">
        <ele>518</ele>
        <time>2020-10-03T12:50:42Z</time>
      </trkpt>
      <trkpt lat="48.66079" lon="6.12797">
        <ele>518</ele>
        <time>2020-10-03T12:50:43Z</time>
      </trkpt>
      <trkpt lat="48.66077" lon="6.12798">
        <ele>518</ele>
        <time>2020-10-03T12:50:44Z</time>
      </trkpt>
      <trkpt lat="48.66075" lon="6.12797">
        <ele>518.2</ele>
        <time>2020-10-03T12:50:45Z</time>
      </trkpt>
      <trkpt lat="48.66073" lon="6.12795">
        <ele>518.4</ele>
        <time>2020-10-03T12:50:46Z</time>
      </trkpt>
      <trkpt lat="48.6607" lon="6.12792">
        <ele>518.4</ele>
        <time>2020-10-03T12:50:47Z</time>
      </trkpt>
      <trkpt lat="48.66068" lon="6.12789">
        <ele>518.4</ele>
        <time>2020-10-03T12:50:48Z</time>
      </trkpt>
      <trkpt lat="48.66067" lon="6.12786">
        <ele>518.4</ele>
        <time>2020-10-03T12:50:49Z</time>
      </trkpt>
      <trkpt lat="48.66066" lon="6.12784">
        <ele>518.6</ele>
        <time>2020-10-03T12:50:50Z</time>
      </trkpt>
      <trkpt lat="48.66065" lon="6.12783">
        <ele>518.6</ele>
        <time>2020-10-03T12:50:51Z</time>
      </trkpt>
      <trkpt lat="48.66065" lon="6.12783">
        <ele>518.6</ele>
        <time>2020-10-03T12:50:52Z</time>
      </trkpt>
      <trkpt lat="48.66064" lon="6.12783">
        <ele>518.4</ele>
        <time>2020-10-03T12:50:53Z</time>
      </trkpt>
      <trkpt lat="48.66064" lon="6.12783">
        <ele>518.4</ele>
        <time>2020-10-03T12:50:54Z</time>
      </trkpt>
      <trkpt lat="48.66063" lon="6.12783">
        <ele>518.4</ele>
        <time>2020-10-03T12:50:55Z</time>
      </trkpt>
      <trkpt lat="48.66063" lon="6.12783">
        <ele>518.4</ele>
        <time>2020-10-03T12:50:56Z</time>
      </trkpt>
      <trkpt lat="48.66057" lon="6.12767">
        <ele>518.8</ele>
        <time>2020-10-03T12:53:20Z</time>
      </trkpt>
      <trkpt lat="48.66056" lon="6.12763">
        <ele>518.8</ele>
        <time>2020-10-03T12:53:21Z</time>
      </trkpt>
      <trkpt lat="48.66055" lon="6.12759">
        <ele>518.8</ele>
        <time>2020-10-03T12:53:22Z</time>
      </trkpt>
      <trkpt lat="48.66054" lon="6.12755">
        <ele>518.8</ele>
        <time>2020-10-03T12:53:23Z</time>
      </trkpt>
      <trkpt lat="48.66052" lon="6.1275">
        <ele>518.8</ele>
        <time>2020-10-03T12:53:24Z</time>
      </trkpt>
      <trkpt lat="48.66051" lon="6.12744">
        <ele>518.8</ele>
        <time>2020-10-03T12:53:25Z</time>
      </trkpt>
      <trkpt lat="48.66049" lon="6.12738">
        <ele>519</ele>
        <time>2020-10-03T12:53:26Z</time>
      </trkpt>
      <trkpt lat="48.66047" lon="6.12733">
        <ele>519.2</ele>
        <time>2020-10-03T12:53:27Z</time>
      </trkpt>
      <trkpt lat="48.66045" lon="6.12726">
        <ele>519.2</ele>
        <time>2020-10-03T12:53:28Z</time>
      </trkpt>
      <trkpt lat="48.66043" lon="6.12721">
        <ele>519.4</ele>
        <time>2020-10-03T12:53:29Z</time>
      </trkpt>
      <trkpt lat="48.66041" lon="6.12715">
        <ele>519.4</ele>
        <time>2020-10-03T12:53:30Z</time>
      </trkpt>
      <trkpt lat="48.66039" lon="6.1271">
        <ele>519.4</ele>
        <time>2020-10-03T12:53:31Z</time>
      </trkpt>
      <trkpt lat="48.66036" lon="6.12704">
        <ele>519.2</ele>
        <time>2020-10-03T12:53:32Z</time>
      </trkpt>
      <trkpt lat="48.66035" lon="6.12699">
        <ele>519</ele>
        <time>2020-10-03T12:53:33Z</time>
      </trkpt>
      <trkpt lat="48.66034" lon="6.12693">
        <ele>519.2</ele>
        <time>2020-10-03T12:53:34Z</time>
      </trkpt>
      <trkpt lat="48.66032" lon="6.12687">
        <ele>519</ele>
        <time>2020-10-03T12:53:35Z</time>
      </trkpt>
      <trkpt lat="48.66031" lon="6.12681">
        <ele>519</ele>
        <time>2020-10-03T12:53:36Z</time>
      </trkpt>
      <trkpt lat="48.66029" lon="6.12675">
        <ele>518.8</ele>
        <time>2020-10-03T12:53:37Z</time>
      </trkpt>
      <trkpt lat="48.66027" lon="6.12669">
        <ele>519</ele>
        <time>2020-10-03T12:53:38Z</time>
      </trkpt>
      <trkpt lat="48.66025" lon="6.12662">
        <ele>519.2</ele>
        <time>2020-10-03T12:53:39Z</time>
      </trkpt>
      <trkpt lat="48.66023" lon="6.12654">
        <ele>519.2</ele>
        <time>2020-10-03T12:53:40Z</time>
      </trkpt>
      <trkpt lat="48.6602" lon="6.12646">
        <ele>519</ele>
        <time>2020-10-03T12:53:41Z</time>
      </trkpt>
      <trkpt lat="48.66017" lon="6.12638">
        <ele>518.8</ele>
        <time>2020-10-03T12:53:42Z</time>
      </trkpt>
      <trkpt lat="48.66014" lon="6.1263">
        <ele>518.4</ele>
        <time>2020-10-03T12:53:43Z</time>
      </trkpt>
      <trkpt lat="48.6601" lon="6.12622">
        <ele>518.2</ele>
        <time>2020-10-03T12:53:44Z</time>
      </trkpt>
      <trkpt lat="48.66007" lon="6.12614">
        <ele>518.2</ele>
        <time>2020-10-03T12:53:45Z</time>
      </trkpt>
      <trkpt lat="48.66003" lon="6.12605">
        <ele>518</ele>
        <time>2020-10-03T12:53:46Z</time>
      </trkpt>
      <trkpt lat="48.65999" lon="6.12597">
        <ele>517.8</ele>
        <time>2020-10-03T12:53:47Z</time>
      </trkpt>
      <trkpt lat="48.65995" lon="6.12588">
        <ele>517.6</ele>
        <time>2020-10-03T12:53:48Z</time>
      </trkpt>
      <trkpt lat="48.65991" lon="6.1258">
        <ele>517.6</ele>
        <time>2020-10-03T12:53:49Z</time>
      </trkpt>
      <trkpt lat="48.65989" lon="6.12573">
        <ele>517.4</ele>
        <time>2020-10-03T12:53:50Z</time>
      </trkpt>
      <trkpt lat="48.65987" lon="6.12564">
        <ele>517.2</ele>
        <time>2020-10-03T12:53:51Z</time>
      </trkpt>
      <trkpt lat="48.65987" lon="6.12555">
        <ele>517</ele>
        <time>2020-10-03T12:53:52Z</time>
      </trkpt>
      <trkpt lat="48.65987" lon="6.12544">
        <ele>516.8</ele>
        <time>2020-10-03T12:53:53Z</time>
      </trkpt>
      <trkpt lat="48.65984" lon="6.12537">
        <ele>516.4</ele>
        <time>2020-10-03T12:53:54Z</time>
      </trkpt>
      <trkpt lat="48.65978" lon="6.12531">
        <ele>516.2</ele>
        <time>2020-10-03T12:53:55Z</time>
      </trkpt>
      <trkpt lat="48.65973" lon="6.12524">
        <ele>516.2</ele>
        <time>2020-10-03T12:53:56Z</time>
      </trkpt>
      <trkpt lat="48.65968" lon="6.12516">
        <ele>516.2</ele>
        <time>2020-10-03T12:53:57Z</time>
      </trkpt>
      <trkpt lat="48.65964" lon="6.12508">
        <ele>516</ele>
        <time>2020-10-03T12:53:58Z</time>
      </trkpt>
      <trkpt lat="48.6596" lon="6.12499">
        <ele>515.8</ele>
        <time>2020-10-03T12:53:59Z</time>
      </trkpt>
      <trkpt lat="48.65956" lon="6.1249">
        <ele>515.6</ele>
        <time>2020-10-03T12:54:00Z</time>
      </trkpt>
      <trkpt lat="48.65953" lon="6.12482">
        <ele>515.6</ele>
        <time>2020-10-03T12:54:01Z</time>
      </trkpt>
      <trkpt lat="48.6595" lon="6.12473">
        <ele>515.4</ele>
        <time>2020-10-03T12:54:02Z</time>
      </trkpt>
      <trkpt lat="48.65947" lon="6.12464">
        <ele>515</ele>
        <time>2020-10-03T12:54:03Z</time>
      </trkpt>
      <trkpt lat="48.65942" lon="6.12455">
        <ele>514.6</ele>
        <time>2020-10-03T12:54:04Z</time>
      </trkpt>
      <trkpt lat="48.65939" lon="6.12446">
        <ele>514.6</ele>
        <time>2020-10-03T12:54:05Z</time>
      </trkpt>
      <trkpt lat="48.65936" lon="6.12436">
        <ele>514.6</ele>
        <time>2020-10-03T12:54:06Z</time>
      </trkpt>
      <trkpt lat="48.65933" lon="6.12427">
        <ele>514.4</ele>
        <time>2020-10-03T12:54:07Z</time>
      </trkpt>
      <trkpt lat="48.6593" lon="6.12418">
        <ele>514</ele>
        <time>2020-10-03T12:54:08Z</time>
      </trkpt>
      <trkpt lat="48.65929" lon="6.12408">
        <ele>513.8</ele>
        <time>2020-10-03T12:54:09Z</time>
      </trkpt>
      <trkpt lat="48.65926" lon="6.12398">
        <ele>513.2</ele>
        <time>2020-10-03T12:54:10Z</time>
      </trkpt>
      <trkpt lat="48.65923" lon="6.12388">
        <ele>513.2</ele>
        <time>2020-10-03T12:54:11Z</time>
      </trkpt>
      <trkpt lat="48.6592" lon="6.12378">
        <ele>513.4</ele>
        <time>2020-10-03T12:54:12Z</time>
      </trkpt>
      <trkpt lat="48.65917" lon="6.12368">
        <ele>513.4</ele>
        <time>2020-10-03T12:54:13Z</time>
      </trkpt>
      <trkpt lat="48.65912" lon="6.1236">
        <ele>513.4</ele>
        <time>2020-10-03T12:54:14Z</time>
      </trkpt>
      <trkpt lat="48.65908" lon="6.1235">
        <ele>513.4</ele>
        <time>2020-10-03T12:54:15Z</time>
      </trkpt>
      <trkpt lat="48.65905" lon="6.1234">
        <ele>513.2</ele>
        <time>2020-10-03T12:54:16Z</time>
      </trkpt>
      <trkpt lat="48.65901" lon="6.12331">
        <ele>513</ele>
        <time>2020-10-03T12:54:17Z</time>
      </trkpt>
      <trkpt lat="48.65898" lon="6.1232">
        <ele>512.6</ele>
        <time>2020-10-03T12:54:18Z</time>
      </trkpt>
      <trkpt lat="48.65893" lon="6.12311">
        <ele>512</ele>
        <time>2020-10-03T12:54:19Z</time>
      </trkpt>
      <trkpt lat="48.6589" lon="6.123">
        <ele>511.6</ele>
        <time>2020-10-03T12:54:20Z</time>
      </trkpt>
      <trkpt lat="48.65885" lon="6.12291">
        <ele>511.4</ele>
        <time>2020-10-03T12:54:21Z</time>
      </trkpt>
      <trkpt lat="48.6588" lon="6.12282">
        <ele>511.2</ele>
        <time>2020-10-03T12:54:22Z</time>
      </trkpt>
      <trkpt lat="48.65876" lon="6.12272">
        <ele>511</ele>
        <time>2020-10-03T12:54:23Z</time>
      </trkpt>
      <trkpt lat="48.65872" lon="6.12262">
        <ele>510.8</ele>
        <time>2020-10-03T12:54:24Z</time>
      </trkpt>
      <trkpt lat="48.65868" lon="6.12251">
        <ele>510.8</ele>
        <time>2020-10-03T12:54:25Z</time>
      </trkpt>
      <trkpt lat="48.65865" lon="6.1224">
        <ele>510.6</ele>
        <time>2020-10-03T12:54:26Z</time>
      </trkpt>
      <trkpt lat="48.65863" lon="6.12228">
        <ele>510.2</ele>
        <time>2020-10-03T12:54:27Z</time>
      </trkpt>
      <trkpt lat="48.6586" lon="6.12217">
        <ele>510</ele>
        <time>2020-10-03T12:54:28Z</time>
      </trkpt>
      <trkpt lat="48.65857" lon="6.12205">
        <ele>509.6</ele>
        <time>2020-10-03T12:54:29Z</time>
      </trkpt>
      <trkpt lat="48.65854" lon="6.12194">
        <ele>509.4</ele>
        <time>2020-10-03T12:54:30Z</time>
      </trkpt>
      <trkpt lat="48.65851" lon="6.12182">
        <ele>509.2</ele>
        <time>2020-10-03T12:54:31Z</time>
      </trkpt>
      <trkpt lat="48.65848" lon="6.12172">
        <ele>509</ele>
        <time>2020-10-03T12:54:32Z</time>
      </trkpt>
      <trkpt lat="48.65844" lon="6.12161">
        <ele>508.8</ele>
        <time>2020-10-03T12:54:33Z</time>
      </trkpt>
      <trkpt lat="48.65843" lon="6.1215">
        <ele>508.6</ele>
        <time>2020-10-03T12:54:34Z</time>
      </trkpt>
      <trkpt lat="48.6584" lon="6.12138">
        <ele>508.2</ele>
        <time>2020-10-03T12:54:35Z</time>
      </trkpt>
      <trkpt lat="48.65837" lon="6.12126">
        <ele>507.8</ele>
        <time>2020-10-03T12:54:36Z</time>
      </trkpt>
      <trkpt lat="48.65835" lon="6.12114">
        <ele>507.6</ele>
        <time>2020-10-03T12:54:37Z</time>
      </trkpt>
      <trkpt lat="48.65833" lon="6.12101">
        <ele>507.4</ele>
        <time>2020-10-03T12:54:38Z</time>
      </trkpt>
      <trkpt lat="48.65831" lon="6.12089">
        <ele>507.2</ele>
        <time>2020-10-03T12:54:39Z</time>
      </trkpt>
      <trkpt lat="48.65829" lon="6.12076">
        <ele>506.8</ele>
        <time>2020-10-03T12:54:40Z</time>
      </trkpt>
      <trkpt lat="48.65831" lon="6.12062">
        <ele>506.2</ele>
        <time>2020-10-03T12:54:41Z</time>
      </trkpt>
      <trkpt lat="48.65832" lon="6.12049">
        <ele>505.8</ele>
        <time>2020-10-03T12:54:42Z</time>
      </trkpt>
      <trkpt lat="48.65833" lon="6.12036">
        <ele>505.2</ele>
        <time>2020-10-03T12:54:43Z</time>
      </trkpt>
      <trkpt lat="48.65834" lon="6.12022">
        <ele>504.4</ele>
        <time>2020-10-03T12:54:44Z</time>
      </trkpt>
      <trkpt lat="48.65838" lon="6.12009">
        <ele>503.6</ele>
        <time>2020-10-03T12:54:45Z</time>
      </trkpt>
      <trkpt lat="48.65841" lon="6.11995">
        <ele>503</ele>
        <time>2020-10-03T12:54:46Z</time>
      </trkpt>
      <trkpt lat="48.65845" lon="6.11981">
        <ele>502.4</ele>
        <time>2020-10-03T12:54:47Z</time>
      </trkpt>
      <trkpt lat="48.6585" lon="6.11968">
        <ele>501.8</ele>
        <time>2020-10-03T12:54:48Z</time>
      </trkpt>
      <trkpt lat="48.65855" lon="6.11953">
        <ele>501.2</ele>
        <time>2020-10-03T12:54:49Z</time>
      </trkpt>
      <trkpt lat="48.65859" lon="6.11938">
        <ele>500.4</ele>
        <time>2020-10-03T12:54:50Z</time>
      </trkpt>
      <trkpt lat="48.65863" lon="6.11922">
        <ele>499.4</ele>
        <time>2020-10-03T12:54:51Z</time>
      </trkpt>
      <trkpt lat="48.65867" lon="6.11904">
        <ele>498.4</ele>
        <time>2020-10-03T12:54:52Z</time>
      </trkpt>
      <trkpt lat="48.65869" lon="6.1189">
        <ele>497.4</ele>
        <time>2020-10-03T12:54:53Z</time>
      </trkpt>
      <trkpt lat="48.65871" lon="6.11877">
        <ele>496.4</ele>
        <time>2020-10-03T12:54:54Z</time>
      </trkpt>
      <trkpt lat="48.65874" lon="6.11865">
        <ele>495.6</ele>
        <time>2020-10-03T12:54:55Z</time>
      </trkpt>
      <trkpt lat="48.65877" lon="6.11854">
        <ele>494.8</ele>
        <time>2020-10-03T12:54:56Z</time>
      </trkpt>
      <trkpt lat="48.65878" lon="6.11846">
        <ele>494.2</ele>
        <time>2020-10-03T12:54:57Z</time>
      </trkpt>
      <trkpt lat="48.65883" lon="6.11835">
        <ele>493.4</ele>
        <time>2020-10-03T12:54:58Z</time>
      </trkpt>
      <trkpt lat="48.65886" lon="6.11819">
        <ele>492.6</ele>
        <time>2020-10-03T12:54:59Z</time>
      </trkpt>
      <trkpt lat="48.6589" lon="6.11803">
        <ele>492</ele>
        <time>2020-10-03T12:55:00Z</time>
      </trkpt>
      <trkpt lat="48.65892" lon="6.11787">
        <ele>491.6</ele>
        <time>2020-10-03T12:55:01Z</time>
      </trkpt>
      <trkpt lat="48.65892" lon="6.11771">
        <ele>491.6</ele>
        <time>2020-10-03T12:55:02Z</time>
      </trkpt>
      <trkpt lat="48.65892" lon="6.11758">
        <ele>492</ele>
        <time>2020-10-03T12:55:03Z</time>
      </trkpt>
      <trkpt lat="48.65892" lon="6.11744">
        <ele>492.6</ele>
        <time>2020-10-03T12:55:04Z</time>
      </trkpt>
      <trkpt lat="48.6589" lon="6.11732">
        <ele>492.8</ele>
        <time>2020-10-03T12:55:05Z</time>
      </trkpt>
      <trkpt lat="48.65889" lon="6.11719">
        <ele>492.6</ele>
        <time>2020-10-03T12:55:06Z</time>
      </trkpt>
      <trkpt lat="48.65887" lon="6.11707">
        <ele>491.8</ele>
        <time>2020-10-03T12:55:07Z</time>
      </trkpt>
      <trkpt lat="48.65887" lon="6.11696">
        <ele>491.2</ele>
        <time>2020-10-03T12:55:08Z</time>
      </trkpt>
      <trkpt lat="48.65886" lon="6.11686">
        <ele>490.6</ele>
        <time>2020-10-03T12:55:09Z</time>
      </trkpt>
      <trkpt lat="48.65886" lon="6.11677">
        <ele>490.2</ele>
        <time>2020-10-03T12:55:10Z</time>
      </trkpt>
      <trkpt lat="48.65885" lon="6.11668">
        <ele>490</ele>
        <time>2020-10-03T12:55:11Z</time>
      </trkpt>
      <trkpt lat="48.65885" lon="6.11661">
        <ele>490.6</ele>
        <time>2020-10-03T12:55:12Z</time>
      </trkpt>
      <trkpt lat="48.65885" lon="6.11654">
        <ele>490.8</ele>
        <time>2020-10-03T12:55:13Z</time>
      </trkpt>
      <trkpt lat="48.65884" lon="6.11648">
        <ele>491</ele>
        <time>2020-10-03T12:55:14Z</time>
      </trkpt>
      <trkpt lat="48.65883" lon="6.11642">
        <ele>491</ele>
        <time>2020-10-03T12:55:15Z</time>
      </trkpt>
      <trkpt lat="48.65882" lon="6.11635">
        <ele>491</ele>
        <time>2020-10-03T12:55:16Z</time>
      </trkpt>
      <trkpt lat="48.65882" lon="6.11629">
        <ele>491.2</ele>
        <time>2020-10-03T12:55:17Z</time>
      </trkpt>
      <trkpt lat="48.65881" lon="6.11623">
        <ele>491.2</ele>
        <time>2020-10-03T12:55:18Z</time>
      </trkpt>
      <trkpt lat="48.65881" lon="6.11616">
        <ele>491.2</ele>
        <time>2020-10-03T12:55:19Z</time>
      </trkpt>
      <trkpt lat="48.6588" lon="6.1161">
        <ele>491.6</ele>
        <time>2020-10-03T12:55:20Z</time>
      </trkpt>
      <trkpt lat="48.65878" lon="6.11604">
        <ele>491.8</ele>
        <time>2020-10-03T12:55:21Z</time>
      </trkpt>
      <trkpt lat="48.65878" lon="6.11598">
        <ele>492</ele>
        <time>2020-10-03T12:55:22Z</time>
      </trkpt>
      <trkpt lat="48.65877" lon="6.11592">
        <ele>492.2</ele>
        <time>2020-10-03T12:55:23Z</time>
      </trkpt>
      <trkpt lat="48.65876" lon="6.11586">
        <ele>492.4</ele>
        <time>2020-10-03T12:55:24Z</time>
      </trkpt>
      <trkpt lat="48.65875" lon="6.1158">
        <ele>492.6</ele>
        <time>2020-10-03T12:55:25Z</time>
      </trkpt>
      <trkpt lat="48.65874" lon="6.11575">
        <ele>492.8</ele>
        <time>2020-10-03T12:55:26Z</time>
      </trkpt>
      <trkpt lat="48.65873" lon="6.11569">
        <ele>493</ele>
        <time>2020-10-03T12:55:27Z</time>
      </trkpt>
      <trkpt lat="48.65872" lon="6.11564">
        <ele>493</ele>
        <time>2020-10-03T12:55:28Z</time>
      </trkpt>
      <trkpt lat="48.65871" lon="6.11559">
        <ele>493.2</ele>
        <time>2020-10-03T12:55:29Z</time>
      </trkpt>
      <trkpt lat="48.65869" lon="6.11553">
        <ele>493.2</ele>
        <time>2020-10-03T12:55:30Z</time>
      </trkpt>
      <trkpt lat="48.65868" lon="6.11548">
        <ele>493.6</ele>
        <time>2020-10-03T12:55:31Z</time>
      </trkpt>
      <trkpt lat="48.65867" lon="6.11543">
        <ele>493.8</ele>
        <time>2020-10-03T12:55:32Z</time>
      </trkpt>
      <trkpt lat="48.65866" lon="6.11538">
        <ele>494.2</ele>
        <time>2020-10-03T12:55:33Z</time>
      </trkpt>
      <trkpt lat="48.65865" lon="6.11533">
        <ele>494.6</ele>
        <time>2020-10-03T12:55:34Z</time>
      </trkpt>
      <trkpt lat="48.65864" lon="6.11528">
        <ele>494.8</ele>
        <time>2020-10-03T12:55:35Z</time>
      </trkpt>
      <trkpt lat="48.65863" lon="6.11523">
        <ele>494.8</ele>
        <time>2020-10-03T12:55:36Z</time>
      </trkpt>
      <trkpt lat="48.65861" lon="6.11519">
        <ele>495</ele>
        <time>2020-10-03T12:55:37Z</time>
      </trkpt>
      <trkpt lat="48.6586" lon="6.11514">
        <ele>495.4</ele>
        <time>2020-10-03T12:55:38Z</time>
      </trkpt>
      <trkpt lat="48.65859" lon="6.11509">
        <ele>495.4</ele>
        <time>2020-10-03T12:55:39Z</time>
      </trkpt>
      <trkpt lat="48.65857" lon="6.11505">
        <ele>495.4</ele>
        <time>2020-10-03T12:55:40Z</time>
      </trkpt>
      <trkpt lat="48.65856" lon="6.11501">
        <ele>495.4</ele>
        <time>2020-10-03T12:55:41Z</time>
      </trkpt>
      <trkpt lat="48.65855" lon="6.11497">
        <ele>495.6</ele>
        <time>2020-10-03T12:55:42Z</time>
      </trkpt>
      <trkpt lat="48.65855" lon="6.11493">
        <ele>496</ele>
        <time>2020-10-03T12:55:43Z</time>
      </trkpt>
      <trkpt lat="48.65856" lon="6.1149">
        <ele>496</ele>
        <time>2020-10-03T12:55:44Z</time>
      </trkpt>
      <trkpt lat="48.65858" lon="6.11487">
        <ele>496.2</ele>
        <time>2020-10-03T12:55:45Z</time>
      </trkpt>
      <trkpt lat="48.65859" lon="6.11483">
        <ele>496.4</ele>
        <time>2020-10-03T12:55:46Z</time>
      </trkpt>
      <trkpt lat="48.6586" lon="6.11479">
        <ele>496.6</ele>
        <time>2020-10-03T12:55:47Z</time>
      </trkpt>
      <trkpt lat="48.65862" lon="6.11475">
        <ele>496.6</ele>
        <time>2020-10-03T12:55:48Z</time>
      </trkpt>
      <trkpt lat="48.65863" lon="6.11472">
        <ele>496.4</ele>
        <time>2020-10-03T12:55:49Z</time>
      </trkpt>
      <trkpt lat="48.65865" lon="6.11471">
        <ele>496.2</ele>
        <time>2020-10-03T12:55:50Z</time>
      </trkpt>
      <trkpt lat="48.65867" lon="6.11471">
        <ele>496.2</ele>
        <time>2020-10-03T12:55:51Z</time>
      </trkpt>
      <trkpt lat="48.65868" lon="6.11472">
        <ele>496.4</ele>
        <time>2020-10-03T12:55:52Z</time>
      </trkpt>
      <trkpt lat="48.6587" lon="6.11475">
        <ele>496.4</ele>
        <time>2020-10-03T12:55:53Z</time>
      </trkpt>
      <trkpt lat="48.65873" lon="6.11476">
        <ele>496.2</ele>
        <time>2020-10-03T12:55:54Z</time>
      </trkpt>
      <trkpt lat="48.65876" lon="6.11479">
        <ele>496.2</ele>
        <time>2020-10-03T12:55:55Z</time>
      </trkpt>
      <trkpt lat="48.65879" lon="6.1148">
        <ele>496</ele>
        <time>2020-10-03T12:55:56Z</time>
      </trkpt>
      <trkpt lat="48.65883" lon="6.11482">
        <ele>495.8</ele>
        <time>2020-10-03T12:55:57Z</time>
      </trkpt>
      <trkpt lat="48.65887" lon="6.11483">
        <ele>495.2</ele>
        <time>2020-10-03T12:55:58Z</time>
      </trkpt>
      <trkpt lat="48.6589" lon="6.11483">
        <ele>494.8</ele>
        <time>2020-10-03T12:55:59Z</time>
      </trkpt>
      <trkpt lat="48.65895" lon="6.11484">
        <ele>494.4</ele>
        <time>2020-10-03T12:56:00Z</time>
      </trkpt>
      <trkpt lat="48.65898" lon="6.11484">
        <ele>494</ele>
        <time>2020-10-03T12:56:01Z</time>
      </trkpt>
      <trkpt lat="48.65902" lon="6.11485">
        <ele>494</ele>
        <time>2020-10-03T12:56:02Z</time>
      </trkpt>
      <trkpt lat="48.65905" lon="6.11485">
        <ele>493.8</ele>
        <time>2020-10-03T12:56:03Z</time>
      </trkpt>
      <trkpt lat="48.65909" lon="6.11483">
        <ele>493.8</ele>
        <time>2020-10-03T12:56:04Z</time>
      </trkpt>
      <trkpt lat="48.65912" lon="6.1148">
        <ele>493.6</ele>
        <time>2020-10-03T12:56:05Z</time>
      </trkpt>
      <trkpt lat="48.65915" lon="6.11477">
        <ele>493.6</ele>
        <time>2020-10-03T12:56:06Z</time>
      </trkpt>
      <trkpt lat="48.65919" lon="6.11474">
        <ele>493.8</ele>
        <time>2020-10-03T12:56:07Z</time>
      </trkpt>
      <trkpt lat="48.65922" lon="6.1147">
        <ele>494</ele>
        <time>2020-10-03T12:56:08Z</time>
      </trkpt>
      <trkpt lat="48.65926" lon="6.11466">
        <ele>494.6</ele>
        <time>2020-10-03T12:56:09Z</time>
      </trkpt>
      <trkpt lat="48.6593" lon="6.11461">
        <ele>495</ele>
        <time>2020-10-03T12:56:10Z</time>
      </trkpt>
      <trkpt lat="48.65932" lon="6.11457">
        <ele>495.4</ele>
        <time>2020-10-03T12:56:11Z</time>
      </trkpt>
      <trkpt lat="48.65934" lon="6.11454">
        <ele>495.8</ele>
        <time>2020-10-03T12:56:12Z</time>
      </trkpt>
      <trkpt lat="48.65936" lon="6.1145">
        <ele>496.4</ele>
        <time>2020-10-03T12:56:13Z</time>
      </trkpt>
      <trkpt lat="48.65938" lon="6.11448">
        <ele>497</ele>
        <time>2020-10-03T12:56:14Z</time>
      </trkpt>
      <trkpt lat="48.65939" lon="6.11446">
        <ele>497.4</ele>
        <time>2020-10-03T12:56:15Z</time>
      </trkpt>
      <trkpt lat="48.65942" lon="6.11444">
        <ele>497.6</ele>
        <time>2020-10-03T12:56:16Z</time>
      </trkpt>
      <trkpt lat="48.65945" lon="6.11441">
        <ele>498</ele>
        <time>2020-10-03T12:56:17Z</time>
      </trkpt>
      <trkpt lat="48.65947" lon="6.11439">
        <ele>498.4</ele>
        <time>2020-10-03T12:56:18Z</time>
      </trkpt>
      <trkpt lat="48.65948" lon="6.11437">
        <ele>498.8</ele>
        <time>2020-10-03T12:56:19Z</time>
      </trkpt>
      <trkpt lat="48.6595" lon="6.11435">
        <ele>499.4</ele>
        <time>2020-10-03T12:56:20Z</time>
      </trkpt>
      <trkpt lat="48.65951" lon="6.11433">
        <ele>499.6</ele>
        <time>2020-10-03T12:56:21Z</time>
      </trkpt>
      <trkpt lat="48.65953" lon="6.11431">
        <ele>500</ele>
        <time>2020-10-03T12:56:22Z</time>
      </trkpt>
      <trkpt lat="48.65955" lon="6.11428">
        <ele>500.2</ele>
        <time>2020-10-03T12:56:23Z</time>
      </trkpt>
      <trkpt lat="48.65958" lon="6.11425">
        <ele>500.6</ele>
        <time>2020-10-03T12:56:24Z</time>
      </trkpt>
      <trkpt lat="48.6596" lon="6.11422">
        <ele>500.8</ele>
        <time>2020-10-03T12:56:25Z</time>
      </trkpt>
      <trkpt lat="48.65962" lon="6.11419">
        <ele>501.2</ele>
        <time>2020-10-03T12:56:26Z</time>
      </trkpt>
      <trkpt lat="48.65964" lon="6.11417">
        <ele>501.4</ele>
        <time>2020-10-03T12:56:27Z</time>
      </trkpt>
      <trkpt lat="48.65966" lon="6.11414">
        <ele>501.8</ele>
        <time>2020-10-03T12:56:28Z</time>
      </trkpt>
      <trkpt lat="48.65969" lon="6.11411">
        <ele>502</ele>
        <time>2020-10-03T12:56:29Z</time>
      </trkpt>
      <trkpt lat="48.65971" lon="6.1141">
        <ele>502.4</ele>
        <time>2020-10-03T12:56:30Z</time>
      </trkpt>
      <trkpt lat="48.65974" lon="6.11408">
        <ele>502.4</ele>
        <time>2020-10-03T12:56:31Z</time>
      </trkpt>
      <trkpt lat="48.65976" lon="6.11406">
        <ele>502.8</ele>
        <time>2020-10-03T12:56:32Z</time>
      </trkpt>
      <trkpt lat="48.65979" lon="6.11404">
        <ele>503</ele>
        <time>2020-10-03T12:56:33Z</time>
      </trkpt>
      <trkpt lat="48.65982" lon="6.11403">
        <ele>503.4</ele>
        <time>2020-10-03T12:56:34Z</time>
      </trkpt>
      <trkpt lat="48.65985" lon="6.11401">
        <ele>503.6</ele>
        <time>2020-10-03T12:56:35Z</time>
      </trkpt>
      <trkpt lat="48.65988" lon="6.11399">
        <ele>503.8</ele>
        <time>2020-10-03T12:56:36Z</time>
      </trkpt>
      <trkpt lat="48.65991" lon="6.11397">
        <ele>504</ele>
        <time>2020-10-03T12:56:37Z</time>
      </trkpt>
      <trkpt lat="48.65994" lon="6.11395">
        <ele>504</ele>
        <time>2020-10-03T12:56:38Z</time>
      </trkpt>
      <trkpt lat="48.65998" lon="6.11393">
        <ele>504.2</ele>
        <time>2020-10-03T12:56:39Z</time>
      </trkpt>
      <trkpt lat="48.66001" lon="6.11391">
        <ele>504.4</ele>
        <time>2020-10-03T12:56:40Z</time>
      </trkpt>
      <trkpt lat="48.66004" lon="6.11388">
        <ele>504.2</ele>
        <time>2020-10-03T12:56:41Z</time>
      </trkpt>
      <trkpt lat="48.66007" lon="6.11386">
        <ele>504</ele>
        <time>2020-10-03T12:56:42Z</time>
      </trkpt>
      <trkpt lat="48.66009" lon="6.11384">
        <ele>504.4</ele>
        <time>2020-10-03T12:56:43Z</time>
      </trkpt>
      <trkpt lat="48.66011" lon="6.11383">
        <ele>504.6</ele>
        <time>2020-10-03T12:56:44Z</time>
      </trkpt>
      <trkpt lat="48.66013" lon="6.11381">
        <ele>504.6</ele>
        <time>2020-10-03T12:56:45Z</time>
      </trkpt>
      <trkpt lat="48.66015" lon="6.1138">
        <ele>504.6</ele>
        <time>2020-10-03T12:56:46Z</time>
      </trkpt>
      <trkpt lat="48.66016" lon="6.11379">
        <ele>504.6</ele>
        <time>2020-10-03T12:56:47Z</time>
      </trkpt>
      <trkpt lat="48.66018" lon="6.11378">
        <ele>504.6</ele>
        <time>2020-10-03T12:56:48Z</time>
      </trkpt>
      <trkpt lat="48.66018" lon="6.11377">
        <ele>504.8</ele>
        <time>2020-10-03T12:56:49Z</time>
      </trkpt>
      <trkpt lat="48.66018" lon="6.11377">
        <ele>504.8</ele>
        <time>2020-10-03T12:56:50Z</time>
      </trkpt>
      <trkpt lat="48.66018" lon="6.11377">
        <ele>504.8</ele>
        <time>2020-10-03T12:56:51Z</time>
      </trkpt>
      <trkpt lat="48.66019" lon="6.11376">
        <ele>504.8</ele>
        <time>2020-10-03T12:56:52Z</time>
      </trkpt>
      <trkpt lat="48.66019" lon="6.11376">
        <ele>504.6</ele>
        <time>2020-10-03T12:56:53Z</time>
      </trkpt>
      <trkpt lat="48.66019" lon="6.11376">
        <ele>504.4</ele>
        <time>2020-10-03T12:56:54Z</time>
      </trkpt>
      <trkpt lat="48.66028" lon="6.11371">
        <ele>505.2</ele>
        <time>2020-10-03T12:59:05Z</time>
      </trkpt>
      <trkpt lat="48.66031" lon="6.11369">
        <ele>505</ele>
        <time>2020-10-03T12:59:06Z</time>
      </trkpt>
      <trkpt lat="48.66033" lon="6.11368">
        <ele>504.8</ele>
        <time>2020-10-03T12:59:07Z</time>
      </trkpt>
      <trkpt lat="48.66035" lon="6.11366">
        <ele>504.6</ele>
        <time>2020-10-03T12:59:08Z</time>
      </trkpt>
      <trkpt lat="48.66038" lon="6.11365">
        <ele>504.6</ele>
        <time>2020-10-03T12:59:09Z</time>
      </trkpt>
      <trkpt lat="48.6604" lon="6.11363">
        <ele>504.6</ele>
        <time>2020-10-03T12:59:10Z</time>
      </trkpt>
      <trkpt lat="48.66043" lon="6.11362">
        <ele>504.8</ele>
        <time>2020-10-03T12:59:11Z</time>
      </trkpt>
      <trkpt lat="48.66046" lon="6.1136">
        <ele>504.8</ele>
        <time>2020-10-03T12:59:12Z</time>
      </trkpt>
      <trkpt lat="48.66049" lon="6.11358">
        <ele>504.8</ele>
        <time>2020-10-03T12:59:13Z</time>
      </trkpt>
      <trkpt lat="48.66052" lon="6.11356">
        <ele>504.4</ele>
        <time>2020-10-03T12:59:14Z</time>
      </trkpt>
      <trkpt lat="48.66055" lon="6.11355">
        <ele>504.4</ele>
        <time>2020-10-03T12:59:15Z</time>
      </trkpt>
      <trkpt lat="48.66059" lon="6.11353">
        <ele>504.2</ele>
        <time>2020-10-03T12:59:16Z</time>
      </trkpt>
      <trkpt lat="48.66062" lon="6.11352">
        <ele>504.2</ele>
        <time>2020-10-03T12:59:17Z</time>
      </trkpt>
      <trkpt lat="48.66065" lon="6.1135">
        <ele>504</ele>
        <time>2020-10-03T12:59:18Z</time>
      </trkpt>
      <trkpt lat="48.66069" lon="6.11348">
        <ele>504</ele>
        <time>2020-10-03T12:59:19Z</time>
      </trkpt>
      <trkpt lat="48.66072" lon="6.11346">
        <ele>504</ele>
        <time>2020-10-03T12:59:20Z</time>
      </trkpt>
      <trkpt lat="48.66076" lon="6.11345">
        <ele>504</ele>
        <time>2020-10-03T12:59:21Z</time>
      </trkpt>
      <trkpt lat="48.66079" lon="6.11343">
        <ele>504</ele>
        <time>2020-10-03T12:59:22Z</time>
      </trkpt>
      <trkpt lat="48.66083" lon="6.11341">
        <ele>503.8</ele>
        <time>2020-10-03T12:59:23Z</time>
      </trkpt>
      <trkpt lat="48.66086" lon="6.11339">
        <ele>503.6</ele>
        <time>2020-10-03T12:59:24Z</time>
      </trkpt>
      <trkpt lat="48.6609" lon="6.11337">
        <ele>503.6</ele>
        <time>2020-10-03T12:59:25Z</time>
      </trkpt>
      <trkpt lat="48.66094" lon="6.11335">
        <ele>503.4</ele>
        <time>2020-10-03T12:59:26Z</time>
      </trkpt>
      <trkpt lat="48.66097" lon="6.11333">
        <ele>503.4</ele>
        <time>2020-10-03T12:59:27Z</time>
      </trkpt>
      <trkpt lat="48.661" lon="6.11331">
        <ele>503.6</ele>
        <time>2020-10-03T12:59:28Z</time>
      </trkpt>
      <trkpt lat="48.66103" lon="6.11329">
        <ele>503.4</ele>
        <time>2020-10-03T12:59:29Z</time>
      </trkpt>
      <trkpt lat="48.66106" lon="6.11327">
        <ele>503.2</ele>
        <time>2020-10-03T12:59:30Z</time>
      </trkpt>
      <trkpt lat="48.66109" lon="6.11325">
        <ele>503.2</ele>
        <time>2020-10-03T12:59:31Z</time>
      </trkpt>
      <trkpt lat="48.66112" lon="6.11322">
        <ele>503.2</ele>
        <time>2020-10-03T12:59:32Z</time>
      </trkpt>
      <trkpt lat="48.66115" lon="6.11319">
        <ele>503.2</ele>
        <time>2020-10-03T12:59:33Z</time>
      </trkpt>
      <trkpt lat="48.66117" lon="6.11317">
        <ele>503.4</ele>
        <time>2020-10-03T12:59:34Z</time>
      </trkpt>
      <trkpt lat="48.66118" lon="6.11316">
        <ele>503.2</ele>
        <time>2020-10-03T12:59:35Z</time>
      </trkpt>
      <trkpt lat="48.66118" lon="6.11316">
        <ele>503</ele>
        <time>2020-10-03T12:59:36Z</time>
      </trkpt>
      <trkpt lat="48.66118" lon="6.11316">
        <ele>502.8</ele>
        <time>2020-10-03T12:59:37Z</time>
      </trkpt>
      <trkpt lat="48.66118" lon="6.11316">
        <ele>502.8</ele>
        <time>2020-10-03T12:59:38Z</time>
      </trkpt>
      <trkpt lat="48.66118" lon="6.11316">
        <ele>502.6</ele>
        <time>2020-10-03T12:59:39Z</time>
      </trkpt>
      <trkpt lat="48.66118" lon="6.11316">
        <ele>502.6</ele>
        <time>2020-10-03T12:59:40Z</time>
      </trkpt>
      <trkpt lat="48.66118" lon="6.11316">
        <ele>502.4</ele>
        <time>2020-10-03T12:59:41Z</time>
      </trkpt>
      <trkpt lat="48.66127" lon="6.11305">
        <ele>502.6</ele>
        <time>2020-10-03T13:01:01Z</time>
      </trkpt>
      <trkpt lat="48.66128" lon="6.11303">
        <ele>502.6</ele>
        <time>2020-10-03T13:01:02Z</time>
      </trkpt>
      <trkpt lat="48.6613" lon="6.113">
        <ele>502.6</ele>
        <time>2020-10-03T13:01:03Z</time>
      </trkpt>
      <trkpt lat="48.66132" lon="6.11298">
        <ele>502.6</ele>
        <time>2020-10-03T13:01:04Z</time>
      </trkpt>
      <trkpt lat="48.66133" lon="6.11295">
        <ele>502.2</ele>
        <time>2020-10-03T13:01:05Z</time>
      </trkpt>
      <trkpt lat="48.66135" lon="6.11292">
        <ele>502</ele>
        <time>2020-10-03T13:01:06Z</time>
      </trkpt>
      <trkpt lat="48.66137" lon="6.11289">
        <ele>502</ele>
        <time>2020-10-03T13:01:07Z</time>
      </trkpt>
      <trkpt lat="48.66138" lon="6.11285">
        <ele>502</ele>
        <time>2020-10-03T13:01:08Z</time>
      </trkpt>
      <trkpt lat="48.6614" lon="6.11282">
        <ele>502.2</ele>
        <time>2020-10-03T13:01:09Z</time>
      </trkpt>
      <trkpt lat="48.66141" lon="6.11279">
        <ele>502</ele>
        <time>2020-10-03T13:01:10Z</time>
      </trkpt>
      <trkpt lat="48.66143" lon="6.11276">
        <ele>502</ele>
        <time>2020-10-03T13:01:11Z</time>
      </trkpt>
      <trkpt lat="48.66145" lon="6.11272">
        <ele>501.8</ele>
        <time>2020-10-03T13:01:12Z</time>
      </trkpt>
      <trkpt lat="48.66146" lon="6.11269">
        <ele>501.6</ele>
        <time>2020-10-03T13:01:13Z</time>
      </trkpt>
      <trkpt lat="48.66148" lon="6.11265">
        <ele>501.6</ele>
        <time>2020-10-03T13:01:14Z</time>
      </trkpt>
      <trkpt lat="48.66149" lon="6.11262">
        <ele>501.6</ele>
        <time>2020-10-03T13:01:15Z</time>
      </trkpt>
      <trkpt lat="48.66151" lon="6.11258">
        <ele>501.4</ele>
        <time>2020-10-03T13:01:16Z</time>
      </trkpt>
      <trkpt lat="48.66152" lon="6.11254">
        <ele>501.2</ele>
        <time>2020-10-03T13:01:17Z</time>
      </trkpt>
      <trkpt lat="48.66153" lon="6.1125">
        <ele>501</ele>
        <time>2020-10-03T13:01:18Z</time>
      </trkpt>
      <trkpt lat="48.66155" lon="6.11246">
        <ele>500.8</ele>
        <time>2020-10-03T13:01:19Z</time>
      </trkpt>
      <trkpt lat="48.66156" lon="6.11241">
        <ele>500.6</ele>
        <time>2020-10-03T13:01:20Z</time>
      </trkpt>
      <trkpt lat="48.66157" lon="6.11237">
        <ele>500.6</ele>
        <time>2020-10-03T13:01:21Z</time>
      </trkpt>
      <trkpt lat="48.66158" lon="6.11232">
        <ele>500.6</ele>
        <time>2020-10-03T13:01:22Z</time>
      </trkpt>
      <trkpt lat="48.6616" lon="6.11227">
        <ele>500.4</ele>
        <time>2020-10-03T13:01:23Z</time>
      </trkpt>
      <trkpt lat="48.66161" lon="6.11222">
        <ele>500.6</ele>
        <time>2020-10-03T13:01:24Z</time>
      </trkpt>
      <trkpt lat="48.66162" lon="6.11218">
        <ele>500.4</ele>
        <time>2020-10-03T13:01:25Z</time>
      </trkpt>
      <trkpt lat="48.66163" lon="6.11214">
        <ele>500.2</ele>
        <time>2020-10-03T13:01:26Z</time>
      </trkpt>
      <trkpt lat="48.66164" lon="6.1121">
        <ele>500</ele>
        <time>2020-10-03T13:01:27Z</time>
      </trkpt>
      <trkpt lat="48.66165" lon="6.11206">
        <ele>499.8</ele>
        <time>2020-10-03T13:01:28Z</time>
      </trkpt>
      <trkpt lat="48.66167" lon="6.11203">
        <ele>499.8</ele>
        <time>2020-10-03T13:01:29Z</time>
      </trkpt>
      <trkpt lat="48.66169" lon="6.11199">
        <ele>499.8</ele>
        <time>2020-10-03T13:01:30Z</time>
      </trkpt>
      <trkpt lat="48.66172" lon="6.11197">
        <ele>499.8</ele>
        <time>2020-10-03T13:01:31Z</time>
      </trkpt>
      <trkpt lat="48.66175" lon="6.11196">
        <ele>499.6</ele>
        <time>2020-10-03T13:01:32Z</time>
      </trkpt>
      <trkpt lat="48.66178" lon="6.11195">
        <ele>499.4</ele>
        <time>2020-10-03T13:01:33Z</time>
      </trkpt>
      <trkpt lat="48.66181" lon="6.11196">
        <ele>499.2</ele>
        <time>2020-10-03T13:01:34Z</time>
      </trkpt>
      <trkpt lat="48.66184" lon="6.11197">
        <ele>499.2</ele>
        <time>2020-10-03T13:01:35Z</time>
      </trkpt>
      <trkpt lat="48.66186" lon="6.11198">
        <ele>499.2</ele>
        <time>2020-10-03T13:01:36Z</time>
      </trkpt>
      <trkpt lat="48.66188" lon="6.11201">
        <ele>499</ele>
        <time>2020-10-03T13:01:37Z</time>
      </trkpt>
      <trkpt lat="48.6619" lon="6.11203">
        <ele>498.4</ele>
        <time>2020-10-03T13:01:38Z</time>
      </trkpt>
      <trkpt lat="48.66192" lon="6.11205">
        <ele>498.2</ele>
        <time>2020-10-03T13:01:39Z</time>
      </trkpt>
      <trkpt lat="48.66195" lon="6.11207">
        <ele>498.2</ele>
        <time>2020-10-03T13:01:40Z</time>
      </trkpt>
      <trkpt lat="48.66197" lon="6.1121">
        <ele>498</ele>
        <time>2020-10-03T13:01:41Z</time>
      </trkpt>
      <trkpt lat="48.662" lon="6.11213">
        <ele>498</ele>
        <time>2020-10-03T13:01:42Z</time>
      </trkpt>
      <trkpt lat="48.66202" lon="6.11215">
        <ele>498</ele>
        <time>2020-10-03T13:01:43Z</time>
      </trkpt>
      <trkpt lat="48.66204" lon="6.11218">
        <ele>498</ele>
        <time>2020-10-03T13:01:44Z</time>
      </trkpt>
      <trkpt lat="48.66207" lon="6.11222">
        <ele>497.8</ele>
        <time>2020-10-03T13:01:45Z</time>
      </trkpt>
      <trkpt lat="48.6621" lon="6.11225">
        <ele>497.6</ele>
        <time>2020-10-03T13:01:46Z</time>
      </trkpt>
      <trkpt lat="48.66212" lon="6.11227">
        <ele>497.4</ele>
        <time>2020-10-03T13:01:47Z</time>
      </trkpt>
      <trkpt lat="48.66214" lon="6.11229">
        <ele>497.2</ele>
        <time>2020-10-03T13:01:48Z</time>
      </trkpt>
      <trkpt lat="48.66216" lon="6.11231">
        <ele>497.2</ele>
        <time>2020-10-03T13:01:49Z</time>
      </trkpt>
      <trkpt lat="48.66218" lon="6.11234">
        <ele>497</ele>
        <time>2020-10-03T13:01:50Z</time>
      </trkpt>
      <trkpt lat="48.6622" lon="6.11237">
        <ele>497</ele>
        <time>2020-10-03T13:01:51Z</time>
      </trkpt>
      <trkpt lat="48.66223" lon="6.11238">
        <ele>496.8</ele>
        <time>2020-10-03T13:01:52Z</time>
      </trkpt>
      <trkpt lat="48.66226" lon="6.11239">
        <ele>496.6</ele>
        <time>2020-10-03T13:01:53Z</time>
      </trkpt>
      <trkpt lat="48.6623" lon="6.11239">
        <ele>496.6</ele>
        <time>2020-10-03T13:01:54Z</time>
      </trkpt>
      <trkpt lat="48.66233" lon="6.11241">
        <ele>496.6</ele>
        <time>2020-10-03T13:01:55Z</time>
      </trkpt>
      <trkpt lat="48.66238" lon="6.11243">
        <ele>496.4</ele>
        <time>2020-10-03T13:01:56Z</time>
      </trkpt>
      <trkpt lat="48.66242" lon="6.11245">
        <ele>496.6</ele>
        <time>2020-10-03T13:01:57Z</time>
      </trkpt>
      <trkpt lat="48.66246" lon="6.11245">
        <ele>496.8</ele>
        <time>2020-10-03T13:01:58Z</time>
      </trkpt>
      <trkpt lat="48.6625" lon="6.11246">
        <ele>496.8</ele>
        <time>2020-10-03T13:01:59Z</time>
      </trkpt>
      <trkpt lat="48.66254" lon="6.11246">
        <ele>496.6</ele>
        <time>2020-10-03T13:02:00Z</time>
      </trkpt>
      <trkpt lat="48.66257" lon="6.11247">
        <ele>496.6</ele>
        <time>2020-10-03T13:02:01Z</time>
      </trkpt>
      <trkpt lat="48.6626" lon="6.11247">
        <ele>496.6</ele>
        <time>2020-10-03T13:02:02Z</time>
      </trkpt>
      <trkpt lat="48.66264" lon="6.11248">
        <ele>496.6</ele>
        <time>2020-10-03T13:02:03Z</time>
      </trkpt>
      <trkpt lat="48.66266" lon="6.11249">
        <ele>496.6</ele>
        <time>2020-10-03T13:02:04Z</time>
      </trkpt>
      <trkpt lat="48.66269" lon="6.11249">
        <ele>496.6</ele>
        <time>2020-10-03T13:02:05Z</time>
      </trkpt>
      <trkpt lat="48.66272" lon="6.11248">
        <ele>496.8</ele>
        <time>2020-10-03T13:02:06Z</time>
      </trkpt>
      <trkpt lat="48.66276" lon="6.11247">
        <ele>496.8</ele>
        <time>2020-10-03T13:02:07Z</time>
      </trkpt>
      <trkpt lat="48.66276" lon="6.11247">
        <ele>496.8</ele>
        <time>2020-10-03T13:02:08Z</time>
      </trkpt>
      <trkpt lat="48.66283" lon="6.11245">
        <ele>496.6</ele>
        <time>2020-10-03T13:02:09Z</time>
      </trkpt>
      <trkpt lat="48.66283" lon="6.11245">
        <ele>496.8</ele>
        <time>2020-10-03T13:02:10Z</time>
      </trkpt>
      <trkpt lat="48.66289" lon="6.11245">
        <ele>496.8</ele>
        <time>2020-10-03T13:02:11Z</time>
      </trkpt>
      <trkpt lat="48.66289" lon="6.11245">
        <ele>496.6</ele>
        <time>2020-10-03T13:02:12Z</time>
      </trkpt>
      <trkpt lat="48.66299" lon="6.11242">
        <ele>496.6</ele>
        <time>2020-10-03T13:02:13Z</time>
      </trkpt>
      <trkpt lat="48.66299" lon="6.11242">
        <ele>496.8</ele>
        <time>2020-10-03T13:02:14Z</time>
      </trkpt>
      <trkpt lat="48.66308" lon="6.11243">
        <ele>497</ele>
        <time>2020-10-03T13:02:15Z</time>
      </trkpt>
      <trkpt lat="48.66308" lon="6.11243">
        <ele>496.8</ele>
        <time>2020-10-03T13:02:16Z</time>
      </trkpt>
      <trkpt lat="48.66316" lon="6.11245">
        <ele>496.8</ele>
        <time>2020-10-03T13:02:17Z</time>
      </trkpt>
      <trkpt lat="48.66316" lon="6.11245">
        <ele>497</ele>
        <time>2020-10-03T13:02:18Z</time>
      </trkpt>
      <trkpt lat="48.66321" lon="6.11243">
        <ele>497</ele>
        <time>2020-10-03T13:02:19Z</time>
      </trkpt>
      <trkpt lat="48.66321" lon="6.11243">
        <ele>497.2</ele>
        <time>2020-10-03T13:02:20Z</time>
      </trkpt>
      <trkpt lat="48.66325" lon="6.11242">
        <ele>497.4</ele>
        <time>2020-10-03T13:02:21Z</time>
      </trkpt>
      <trkpt lat="48.66325" lon="6.11242">
        <ele>497.4</ele>
        <time>2020-10-03T13:02:22Z</time>
      </trkpt>
      <trkpt lat="48.66329" lon="6.11243">
        <ele>497.4</ele>
        <time>2020-10-03T13:02:23Z</time>
      </trkpt>
      <trkpt lat="48.66335" lon="6.11243">
        <ele>497.4</ele>
        <time>2020-10-03T13:02:24Z</time>
      </trkpt>
      <trkpt lat="48.66337" lon="6.11241">
        <ele>497.8</ele>
        <time>2020-10-03T13:02:25Z</time>
      </trkpt>
      <trkpt lat="48.66342" lon="6.11239">
        <ele>498</ele>
        <time>2020-10-03T13:02:26Z</time>
      </trkpt>
      <trkpt lat="48.66345" lon="6.11239">
        <ele>498.2</ele>
        <time>2020-10-03T13:02:27Z</time>
      </trkpt>
      <trkpt lat="48.66349" lon="6.11238">
        <ele>498.2</ele>
        <time>2020-10-03T13:02:28Z</time>
      </trkpt>
      <trkpt lat="48.66354" lon="6.11234">
        <ele>498.2</ele>
        <time>2020-10-03T13:02:29Z</time>
      </trkpt>
      <trkpt lat="48.66356" lon="6.11234">
        <ele>498.2</ele>
        <time>2020-10-03T13:02:30Z</time>
      </trkpt>
      <trkpt lat="48.6636" lon="6.11233">
        <ele>498.2</ele>
        <time>2020-10-03T13:02:31Z</time>
      </trkpt>
      <trkpt lat="48.66364" lon="6.11231">
        <ele>498.2</ele>
        <time>2020-10-03T13:02:32Z</time>
      </trkpt>
      <trkpt lat="48.66369" lon="6.11231">
        <ele>498.2</ele>
        <time>2020-10-03T13:02:33Z</time>
      </trkpt>
      <trkpt lat="48.66373" lon="6.1123">
        <ele>498</ele>
        <time>2020-10-03T13:02:34Z</time>
      </trkpt>
      <trkpt lat="48.66378" lon="6.11229">
        <ele>498</ele>
        <time>2020-10-03T13:02:35Z</time>
      </trkpt>
      <trkpt lat="48.66383" lon="6.11229">
        <ele>498.2</ele>
        <time>2020-10-03T13:02:36Z</time>
      </trkpt>
      <trkpt lat="48.66387" lon="6.11228">
        <ele>498.6</ele>
        <time>2020-10-03T13:02:37Z</time>
      </trkpt>
      <trkpt lat="48.66392" lon="6.11227">
        <ele>498.6</ele>
        <time>2020-10-03T13:02:38Z</time>
      </trkpt>
      <trkpt lat="48.66395" lon="6.11226">
        <ele>498.6</ele>
        <time>2020-10-03T13:02:39Z</time>
      </trkpt>
      <trkpt lat="48.664" lon="6.11226">
        <ele>498.6</ele>
        <time>2020-10-03T13:02:40Z</time>
      </trkpt>
      <trkpt lat="48.66404" lon="6.11224">
        <ele>498.8</ele>
        <time>2020-10-03T13:02:41Z</time>
      </trkpt>
      <trkpt lat="48.66408" lon="6.11224">
        <ele>498.8</ele>
        <time>2020-10-03T13:02:42Z</time>
      </trkpt>
      <trkpt lat="48.66412" lon="6.11223">
        <ele>498.6</ele>
        <time>2020-10-03T13:02:43Z</time>
      </trkpt>
      <trkpt lat="48.66415" lon="6.11222">
        <ele>498.6</ele>
        <time>2020-10-03T13:02:44Z</time>
      </trkpt>
      <trkpt lat="48.6642" lon="6.11221">
        <ele>498.6</ele>
        <time>2020-10-03T13:02:45Z</time>
      </trkpt>
      <trkpt lat="48.66424" lon="6.1122">
        <ele>498.4</ele>
        <time>2020-10-03T13:02:46Z</time>
      </trkpt>
      <trkpt lat="48.66428" lon="6.11219">
        <ele>498.4</ele>
        <time>2020-10-03T13:02:47Z</time>
      </trkpt>
      <trkpt lat="48.66433" lon="6.11218">
        <ele>498.4</ele>
        <time>2020-10-03T13:02:48Z</time>
      </trkpt>
      <trkpt lat="48.66438" lon="6.11216">
        <ele>498.2</ele>
        <time>2020-10-03T13:02:49Z</time>
      </trkpt>
      <trkpt lat="48.66442" lon="6.11215">
        <ele>498.2</ele>
        <time>2020-10-03T13:02:50Z</time>
      </trkpt>
      <trkpt lat="48.66447" lon="6.11213">
        <ele>498</ele>
        <time>2020-10-03T13:02:51Z</time>
      </trkpt>
      <trkpt lat="48.66452" lon="6.11212">
        <ele>497.8</ele>
        <time>2020-10-03T13:02:52Z</time>
      </trkpt>
      <trkpt lat="48.66457" lon="6.11211">
        <ele>497.4</ele>
        <time>2020-10-03T13:02:53Z</time>
      </trkpt>
      <trkpt lat="48.66463" lon="6.1121">
        <ele>497</ele>
        <time>2020-10-03T13:02:54Z</time>
      </trkpt>
      <trkpt lat="48.66468" lon="6.1121">
        <ele>496.8</ele>
        <time>2020-10-03T13:02:55Z</time>
      </trkpt>
      <trkpt lat="48.66474" lon="6.11208">
        <ele>496.6</ele>
        <time>2020-10-03T13:02:56Z</time>
      </trkpt>
      <trkpt lat="48.66478" lon="6.11207">
        <ele>496.4</ele>
        <time>2020-10-03T13:02:57Z</time>
      </trkpt>
      <trkpt lat="48.66483" lon="6.11206">
        <ele>496.2</ele>
        <time>2020-10-03T13:02:58Z</time>
      </trkpt>
      <trkpt lat="48.66486" lon="6.11206">
        <ele>495.8</ele>
        <time>2020-10-03T13:02:59Z</time>
      </trkpt>
      <trkpt lat="48.6649" lon="6.11205">
        <ele>495.8</ele>
        <time>2020-10-03T13:03:00Z</time>
      </trkpt>
      <trkpt lat="48.66494" lon="6.11204">
        <ele>495.8</ele>
        <time>2020-10-03T13:03:01Z</time>
      </trkpt>
      <trkpt lat="48.66498" lon="6.11203">
        <ele>495.8</ele>
        <time>2020-10-03T13:03:02Z</time>
      </trkpt>
      <trkpt lat="48.665" lon="6.11201">
        <ele>495.6</ele>
        <time>2020-10-03T13:03:03Z</time>
      </trkpt>
      <trkpt lat="48.66503" lon="6.112">
        <ele>495.6</ele>
        <time>2020-10-03T13:03:04Z</time>
      </trkpt>
      <trkpt lat="48.66506" lon="6.112">
        <ele>495.6</ele>
        <time>2020-10-03T13:03:05Z</time>
      </trkpt>
      <trkpt lat="48.66509" lon="6.112">
        <ele>495.8</ele>
        <time>2020-10-03T13:03:06Z</time>
      </trkpt>
      <trkpt lat="48.66512" lon="6.11198">
        <ele>495.8</ele>
        <time>2020-10-03T13:03:07Z</time>
      </trkpt>
      <trkpt lat="48.66516" lon="6.11198">
        <ele>496</ele>
        <time>2020-10-03T13:03:08Z</time>
      </trkpt>
      <trkpt lat="48.66522" lon="6.11197">
        <ele>496</ele>
        <time>2020-10-03T13:03:09Z</time>
      </trkpt>
      <trkpt lat="48.66527" lon="6.11196">
        <ele>496.2</ele>
        <time>2020-10-03T13:03:10Z</time>
      </trkpt>
      <trkpt lat="48.66532" lon="6.11195">
        <ele>496.6</ele>
        <time>2020-10-03T13:03:11Z</time>
      </trkpt>
      <trkpt lat="48.66537" lon="6.11194">
        <ele>496.8</ele>
        <time>2020-10-03T13:03:12Z</time>
      </trkpt>
      <trkpt lat="48.66543" lon="6.11194">
        <ele>497</ele>
        <time>2020-10-03T13:03:13Z</time>
      </trkpt>
      <trkpt lat="48.66549" lon="6.11192">
        <ele>497.4</ele>
        <time>2020-10-03T13:03:14Z</time>
      </trkpt>
      <trkpt lat="48.66555" lon="6.1119">
        <ele>497.6</ele>
        <time>2020-10-03T13:03:15Z</time>
      </trkpt>
      <trkpt lat="48.6656" lon="6.11189">
        <ele>497.6</ele>
        <time>2020-10-03T13:03:16Z</time>
      </trkpt>
      <trkpt lat="48.66567" lon="6.11188">
        <ele>497.6</ele>
        <time>2020-10-03T13:03:17Z</time>
      </trkpt>
      <trkpt lat="48.66573" lon="6.11186">
        <ele>497.6</ele>
        <time>2020-10-03T13:03:18Z</time>
      </trkpt>
      <trkpt lat="48.66579" lon="6.11184">
        <ele>498</ele>
        <time>2020-10-03T13:03:19Z</time>
      </trkpt>
      <trkpt lat="48.66584" lon="6.11183">
        <ele>498.2</ele>
        <time>2020-10-03T13:03:20Z</time>
      </trkpt>
      <trkpt lat="48.66588" lon="6.11182">
        <ele>498.4</ele>
        <time>2020-10-03T13:03:21Z</time>
      </trkpt>
      <trkpt lat="48.66593" lon="6.11181">
        <ele>498.6</ele>
        <time>2020-10-03T13:03:22Z</time>
      </trkpt>
      <trkpt lat="48.66598" lon="6.11179">
        <ele>498.6</ele>
        <time>2020-10-03T13:03:23Z</time>
      </trkpt>
      <trkpt lat="48.66603" lon="6.11178">
        <ele>498.8</ele>
        <time>2020-10-03T13:03:24Z</time>
      </trkpt>
      <trkpt lat="48.66607" lon="6.11178">
        <ele>498.8</ele>
        <time>2020-10-03T13:03:25Z</time>
      </trkpt>
      <trkpt lat="48.66612" lon="6.11177">
        <ele>498.6</ele>
        <time>2020-10-03T13:03:26Z</time>
      </trkpt>
      <trkpt lat="48.66617" lon="6.11176">
        <ele>498.4</ele>
        <time>2020-10-03T13:03:27Z</time>
      </trkpt>
      <trkpt lat="48.66622" lon="6.11174">
        <ele>498.4</ele>
        <time>2020-10-03T13:03:28Z</time>
      </trkpt>
      <trkpt lat="48.66627" lon="6.11173">
        <ele>498.8</ele>
        <time>2020-10-03T13:03:29Z</time>
      </trkpt>
      <trkpt lat="48.66632" lon="6.11172">
        <ele>499</ele>
        <time>2020-10-03T13:03:30Z</time>
      </trkpt>
      <trkpt lat="48.66638" lon="6.11171">
        <ele>498.8</ele>
        <time>2020-10-03T13:03:31Z</time>
      </trkpt>
      <trkpt lat="48.66643" lon="6.1117">
        <ele>498.8</ele>
        <time>2020-10-03T13:03:32Z</time>
      </trkpt>
      <trkpt lat="48.66648" lon="6.11169">
        <ele>499</ele>
        <time>2020-10-03T13:03:33Z</time>
      </trkpt>
      <trkpt lat="48.66653" lon="6.11168">
        <ele>499.2</ele>
        <time>2020-10-03T13:03:34Z</time>
      </trkpt>
      <trkpt lat="48.66659" lon="6.11167">
        <ele>499.2</ele>
        <time>2020-10-03T13:03:35Z</time>
      </trkpt>
      <trkpt lat="48.66664" lon="6.11166">
        <ele>499.2</ele>
        <time>2020-10-03T13:03:36Z</time>
      </trkpt>
      <trkpt lat="48.6667" lon="6.11164">
        <ele>499</ele>
        <time>2020-10-03T13:03:37Z</time>
      </trkpt>
      <trkpt lat="48.66675" lon="6.11162">
        <ele>499</ele>
        <time>2020-10-03T13:03:38Z</time>
      </trkpt>
      <trkpt lat="48.66681" lon="6.11161">
        <ele>499</ele>
        <time>2020-10-03T13:03:39Z</time>
      </trkpt>
      <trkpt lat="48.66686" lon="6.1116">
        <ele>498.8</ele>
        <time>2020-10-03T13:03:40Z</time>
      </trkpt>
      <trkpt lat="48.66692" lon="6.11159">
        <ele>498.6</ele>
        <time>2020-10-03T13:03:41Z</time>
      </trkpt>
      <trkpt lat="48.66699" lon="6.11158">
        <ele>498.4</ele>
        <time>2020-10-03T13:03:42Z</time>
      </trkpt>
      <trkpt lat="48.66705" lon="6.11157">
        <ele>498</ele>
        <time>2020-10-03T13:03:43Z</time>
      </trkpt>
      <trkpt lat="48.66711" lon="6.11155">
        <ele>498</ele>
        <time>2020-10-03T13:03:44Z</time>
      </trkpt>
      <trkpt lat="48.66717" lon="6.11153">
        <ele>498</ele>
        <time>2020-10-03T13:03:45Z</time>
      </trkpt>
      <trkpt lat="48.66723" lon="6.11151">
        <ele>497.8</ele>
        <time>2020-10-03T13:03:46Z</time>
      </trkpt>
      <trkpt lat="48.66728" lon="6.11149">
        <ele>497.8</ele>
        <time>2020-10-03T13:03:47Z</time>
      </trkpt>
      <trkpt lat="48.66734" lon="6.11146">
        <ele>497.8</ele>
        <time>2020-10-03T13:03:48Z</time>
      </trkpt>
      <trkpt lat="48.66739" lon="6.11144">
        <ele>497.6</ele>
        <time>2020-10-03T13:03:49Z</time>
      </trkpt>
      <trkpt lat="48.66744" lon="6.11141">
        <ele>497.2</ele>
        <time>2020-10-03T13:03:50Z</time>
      </trkpt>
      <trkpt lat="48.6675" lon="6.1114">
        <ele>497.2</ele>
        <time>2020-10-03T13:03:51Z</time>
      </trkpt>
      <trkpt lat="48.66755" lon="6.11139">
        <ele>497</ele>
        <time>2020-10-03T13:03:52Z</time>
      </trkpt>
      <trkpt lat="48.66759" lon="6.1114">
        <ele>496.8</ele>
        <time>2020-10-03T13:03:53Z</time>
      </trkpt>
      <trkpt lat="48.66765" lon="6.1114">
        <ele>496.6</ele>
        <time>2020-10-03T13:03:54Z</time>
      </trkpt>
      <trkpt lat="48.66772" lon="6.11138">
        <ele>496.4</ele>
        <time>2020-10-03T13:03:55Z</time>
      </trkpt>
      <trkpt lat="48.66778" lon="6.11137">
        <ele>496</ele>
        <time>2020-10-03T13:03:56Z</time>
      </trkpt>
      <trkpt lat="48.66782" lon="6.11135">
        <ele>495.8</ele>
        <time>2020-10-03T13:03:57Z</time>
      </trkpt>
      <trkpt lat="48.66788" lon="6.11133">
        <ele>495.6</ele>
        <time>2020-10-03T13:03:58Z</time>
      </trkpt>
      <trkpt lat="48.66794" lon="6.11132">
        <ele>495.4</ele>
        <time>2020-10-03T13:03:59Z</time>
      </trkpt>
      <trkpt lat="48.668" lon="6.1113">
        <ele>495.2</ele>
        <time>2020-10-03T13:04:00Z</time>
      </trkpt>
      <trkpt lat="48.66804" lon="6.11129">
        <ele>495</ele>
        <time>2020-10-03T13:04:01Z</time>
      </trkpt>
      <trkpt lat="48.66809" lon="6.11126">
        <ele>494.8</ele>
        <time>2020-10-03T13:04:02Z</time>
      </trkpt>
      <trkpt lat="48.66815" lon="6.11125">
        <ele>494.6</ele>
        <time>2020-10-03T13:04:03Z</time>
      </trkpt>
      <trkpt lat="48.66821" lon="6.11124">
        <ele>494.4</ele>
        <time>2020-10-03T13:04:04Z</time>
      </trkpt>
      <trkpt lat="48.66826" lon="6.11123">
        <ele>494.2</ele>
        <time>2020-10-03T13:04:05Z</time>
      </trkpt>
      <trkpt lat="48.66832" lon="6.11121">
        <ele>494</ele>
        <time>2020-10-03T13:04:06Z</time>
      </trkpt>
      <trkpt lat="48.66837" lon="6.11121">
        <ele>493.6</ele>
        <time>2020-10-03T13:04:07Z</time>
      </trkpt>
      <trkpt lat="48.66843" lon="6.11118">
        <ele>493.2</ele>
        <time>2020-10-03T13:04:08Z</time>
      </trkpt>
      <trkpt lat="48.66849" lon="6.11117">
        <ele>492.8</ele>
        <time>2020-10-03T13:04:09Z</time>
      </trkpt>
      <trkpt lat="48.66857" lon="6.11117">
        <ele>492.4</ele>
        <time>2020-10-03T13:04:10Z</time>
      </trkpt>
      <trkpt lat="48.66863" lon="6.11114">
        <ele>492</ele>
        <time>2020-10-03T13:04:11Z</time>
      </trkpt>
      <trkpt lat="48.66868" lon="6.11111">
        <ele>491.6</ele>
        <time>2020-10-03T13:04:12Z</time>
      </trkpt>
      <trkpt lat="48.66872" lon="6.11108">
        <ele>491.2</ele>
        <time>2020-10-03T13:04:13Z</time>
      </trkpt>
      <trkpt lat="48.66878" lon="6.11107">
        <ele>491</ele>
        <time>2020-10-03T13:04:14Z</time>
      </trkpt>
      <trkpt lat="48.66884" lon="6.11105">
        <ele>490.8</ele>
        <time>2020-10-03T13:04:15Z</time>
      </trkpt>
      <trkpt lat="48.6689" lon="6.11105">
        <ele>490.8</ele>
        <time>2020-10-03T13:04:16Z</time>
      </trkpt>
      <trkpt lat="48.66894" lon="6.11104">
        <ele>490.8</ele>
        <time>2020-10-03T13:04:17Z</time>
      </trkpt>
      <trkpt lat="48.66896" lon="6.11103">
        <ele>490.8</ele>
        <time>2020-10-03T13:04:18Z</time>
      </trkpt>
      <trkpt lat="48.669" lon="6.11101">
        <ele>491</ele>
        <time>2020-10-03T13:04:19Z</time>
      </trkpt>
      <trkpt lat="48.66905" lon="6.111">
        <ele>491</ele>
        <time>2020-10-03T13:04:20Z</time>
      </trkpt>
      <trkpt lat="48.6691" lon="6.11099">
        <ele>491.2</ele>
        <time>2020-10-03T13:04:21Z</time>
      </trkpt>
      <trkpt lat="48.66914" lon="6.11098">
        <ele>491.4</ele>
        <time>2020-10-03T13:04:22Z</time>
      </trkpt>
      <trkpt lat="48.66918" lon="6.11096">
        <ele>491.6</ele>
        <time>2020-10-03T13:04:23Z</time>
      </trkpt>
      <trkpt lat="48.66925" lon="6.11094">
        <ele>491.6</ele>
        <time>2020-10-03T13:04:24Z</time>
      </trkpt>
      <trkpt lat="48.66931" lon="6.11095">
        <ele>491.6</ele>
        <time>2020-10-03T13:04:25Z</time>
      </trkpt>
      <trkpt lat="48.66935" lon="6.11093">
        <ele>491.6</ele>
        <time>2020-10-03T13:04:26Z</time>
      </trkpt>
      <trkpt lat="48.6694" lon="6.11091">
        <ele>491.8</ele>
        <time>2020-10-03T13:04:27Z</time>
      </trkpt>
      <trkpt lat="48.66942" lon="6.11091">
        <ele>492</ele>
        <time>2020-10-03T13:04:28Z</time>
      </trkpt>
      <trkpt lat="48.66948" lon="6.11089">
        <ele>492.4</ele>
        <time>2020-10-03T13:04:29Z</time>
      </trkpt>
      <trkpt lat="48.66956" lon="6.11087">
        <ele>492.6</ele>
        <time>2020-10-03T13:04:30Z</time>
      </trkpt>
      <trkpt lat="48.66962" lon="6.11087">
        <ele>492.6</ele>
        <time>2020-10-03T13:04:31Z</time>
      </trkpt>
      <trkpt lat="48.66967" lon="6.11086">
        <ele>492.6</ele>
        <time>2020-10-03T13:04:32Z</time>
      </trkpt>
      <trkpt lat="48.66972" lon="6.11086">
        <ele>492.6</ele>
        <time>2020-10-03T13:04:33Z</time>
      </trkpt>
      <trkpt lat="48.66976" lon="6.11085">
        <ele>492.6</ele>
        <time>2020-10-03T13:04:34Z</time>
      </trkpt>
      <trkpt lat="48.66981" lon="6.11083">
        <ele>492.6</ele>
        <time>2020-10-03T13:04:35Z</time>
      </trkpt>
      <trkpt lat="48.66985" lon="6.11082">
        <ele>492.8</ele>
        <time>2020-10-03T13:04:36Z</time>
      </trkpt>
      <trkpt lat="48.66992" lon="6.1108">
        <ele>493</ele>
        <time>2020-10-03T13:04:37Z</time>
      </trkpt>
      <trkpt lat="48.66998" lon="6.11078">
        <ele>493.2</ele>
        <time>2020-10-03T13:04:38Z</time>
      </trkpt>
      <trkpt lat="48.67003" lon="6.11078">
        <ele>493.4</ele>
        <time>2020-10-03T13:04:39Z</time>
      </trkpt>
      <trkpt lat="48.67006" lon="6.11078">
        <ele>493.8</ele>
        <time>2020-10-03T13:04:40Z</time>
      </trkpt>
      <trkpt lat="48.67009" lon="6.11078">
        <ele>493.8</ele>
        <time>2020-10-03T13:04:41Z</time>
      </trkpt>
      <trkpt lat="48.67015" lon="6.11076">
        <ele>494.2</ele>
        <time>2020-10-03T13:04:42Z</time>
      </trkpt>
      <trkpt lat="48.67022" lon="6.11074">
        <ele>494.4</ele>
        <time>2020-10-03T13:04:43Z</time>
      </trkpt>
      <trkpt lat="48.67029" lon="6.11071">
        <ele>494.4</ele>
        <time>2020-10-03T13:04:44Z</time>
      </trkpt>
      <trkpt lat="48.67037" lon="6.11068">
        <ele>494.2</ele>
        <time>2020-10-03T13:04:45Z</time>
      </trkpt>
      <trkpt lat="48.67043" lon="6.11067">
        <ele>494.4</ele>
        <time>2020-10-03T13:04:46Z</time>
      </trkpt>
      <trkpt lat="48.67049" lon="6.11065">
        <ele>494.6</ele>
        <time>2020-10-03T13:04:47Z</time>
      </trkpt>
      <trkpt lat="48.67054" lon="6.11064">
        <ele>494.8</ele>
        <time>2020-10-03T13:04:48Z</time>
      </trkpt>
      <trkpt lat="48.67059" lon="6.11062">
        <ele>494.8</ele>
        <time>2020-10-03T13:04:49Z</time>
      </trkpt>
      <trkpt lat="48.67062" lon="6.11061">
        <ele>494.8</ele>
        <time>2020-10-03T13:04:50Z</time>
      </trkpt>
      <trkpt lat="48.67066" lon="6.1106">
        <ele>495</ele>
        <time>2020-10-03T13:04:51Z</time>
      </trkpt>
      <trkpt lat="48.6707" lon="6.11059">
        <ele>495.2</ele>
        <time>2020-10-03T13:04:52Z</time>
      </trkpt>
      <trkpt lat="48.67073" lon="6.11058">
        <ele>495.2</ele>
        <time>2020-10-03T13:04:53Z</time>
      </trkpt>
      <trkpt lat="48.67075" lon="6.11057">
        <ele>495.4</ele>
        <time>2020-10-03T13:04:54Z</time>
      </trkpt>
      <trkpt lat="48.67078" lon="6.11057">
        <ele>495.4</ele>
        <time>2020-10-03T13:04:55Z</time>
      </trkpt>
      <trkpt lat="48.67081" lon="6.11056">
        <ele>495.6</ele>
        <time>2020-10-03T13:04:56Z</time>
      </trkpt>
      <trkpt lat="48.67084" lon="6.11056">
        <ele>495.6</ele>
        <time>2020-10-03T13:04:57Z</time>
      </trkpt>
      <trkpt lat="48.67087" lon="6.11055">
        <ele>495.6</ele>
        <time>2020-10-03T13:04:58Z</time>
      </trkpt>
      <trkpt lat="48.6709" lon="6.11054">
        <ele>495.6</ele>
        <time>2020-10-03T13:04:59Z</time>
      </trkpt>
      <trkpt lat="48.67093" lon="6.11054">
        <ele>495.8</ele>
        <time>2020-10-03T13:05:00Z</time>
      </trkpt>
      <trkpt lat="48.67096" lon="6.11053">
        <ele>496</ele>
        <time>2020-10-03T13:05:01Z</time>
      </trkpt>
      <trkpt lat="48.67099" lon="6.11052">
        <ele>496</ele>
        <time>2020-10-03T13:05:02Z</time>
      </trkpt>
      <trkpt lat="48.67102" lon="6.11052">
        <ele>496.2</ele>
        <time>2020-10-03T13:05:03Z</time>
      </trkpt>
      <trkpt lat="48.67106" lon="6.1105">
        <ele>496.2</ele>
        <time>2020-10-03T13:05:04Z</time>
      </trkpt>
      <trkpt lat="48.67109" lon="6.1105">
        <ele>496.2</ele>
        <time>2020-10-03T13:05:05Z</time>
      </trkpt>
      <trkpt lat="48.67112" lon="6.1105">
        <ele>496</ele>
        <time>2020-10-03T13:05:06Z</time>
      </trkpt>
      <trkpt lat="48.67115" lon="6.11049">
        <ele>496</ele>
        <time>2020-10-03T13:05:07Z</time>
      </trkpt>
      <trkpt lat="48.67119" lon="6.11048">
        <ele>496.2</ele>
        <time>2020-10-03T13:05:08Z</time>
      </trkpt>
      <trkpt lat="48.67123" lon="6.11047">
        <ele>496.2</ele>
        <time>2020-10-03T13:05:09Z</time>
      </trkpt>
      <trkpt lat="48.67126" lon="6.11045">
        <ele>496.2</ele>
        <time>2020-10-03T13:05:10Z</time>
      </trkpt>
      <trkpt lat="48.6713" lon="6.11045">
        <ele>496.2</ele>
        <time>2020-10-03T13:05:11Z</time>
      </trkpt>
      <trkpt lat="48.67132" lon="6.11043">
        <ele>496.2</ele>
        <time>2020-10-03T13:05:12Z</time>
      </trkpt>
      <trkpt lat="48.67135" lon="6.11043">
        <ele>496.2</ele>
        <time>2020-10-03T13:05:13Z</time>
      </trkpt>
      <trkpt lat="48.67139" lon="6.11043">
        <ele>496.4</ele>
        <time>2020-10-03T13:05:14Z</time>
      </trkpt>
      <trkpt lat="48.67142" lon="6.11043">
        <ele>496.4</ele>
        <time>2020-10-03T13:05:15Z</time>
      </trkpt>
      <trkpt lat="48.67145" lon="6.11043">
        <ele>496.2</ele>
        <time>2020-10-03T13:05:16Z</time>
      </trkpt>
      <trkpt lat="48.67148" lon="6.11042">
        <ele>496.2</ele>
        <time>2020-10-03T13:05:17Z</time>
      </trkpt>
      <trkpt lat="48.67151" lon="6.11041">
        <ele>496.2</ele>
        <time>2020-10-03T13:05:18Z</time>
      </trkpt>
      <trkpt lat="48.67154" lon="6.11041">
        <ele>496.2</ele>
        <time>2020-10-03T13:05:19Z</time>
      </trkpt>
      <trkpt lat="48.67157" lon="6.1104">
        <ele>496.2</ele>
        <time>2020-10-03T13:05:20Z</time>
      </trkpt>
      <trkpt lat="48.67159" lon="6.11039">
        <ele>496.4</ele>
        <time>2020-10-03T13:05:21Z</time>
      </trkpt>
      <trkpt lat="48.67162" lon="6.1104">
        <ele>496.4</ele>
        <time>2020-10-03T13:05:22Z</time>
      </trkpt>
      <trkpt lat="48.67166" lon="6.11039">
        <ele>496.4</ele>
        <time>2020-10-03T13:05:23Z</time>
      </trkpt>
      <trkpt lat="48.6717" lon="6.11038">
        <ele>496.4</ele>
        <time>2020-10-03T13:05:24Z</time>
      </trkpt>
      <trkpt lat="48.67174" lon="6.11037">
        <ele>496.4</ele>
        <time>2020-10-03T13:05:25Z</time>
      </trkpt>
      <trkpt lat="48.67177" lon="6.11036">
        <ele>496.4</ele>
        <time>2020-10-03T13:05:26Z</time>
      </trkpt>
      <trkpt lat="48.67181" lon="6.11036">
        <ele>496.4</ele>
        <time>2020-10-03T13:05:27Z</time>
      </trkpt>
      <trkpt lat="48.67186" lon="6.11034">
        <ele>496.4</ele>
        <time>2020-10-03T13:05:28Z</time>
      </trkpt>
      <trkpt lat="48.67189" lon="6.11034">
        <ele>496.4</ele>
        <time>2020-10-03T13:05:29Z</time>
      </trkpt>
      <trkpt lat="48.67193" lon="6.11032">
        <ele>496.2</ele>
        <time>2020-10-03T13:05:30Z</time>
      </trkpt>
      <trkpt lat="48.67196" lon="6.11032">
        <ele>496.2</ele>
        <time>2020-10-03T13:05:31Z</time>
      </trkpt>
      <trkpt lat="48.672" lon="6.11032">
        <ele>496.4</ele>
        <time>2020-10-03T13:05:32Z</time>
      </trkpt>
      <trkpt lat="48.67204" lon="6.11031">
        <ele>496.4</ele>
        <time>2020-10-03T13:05:33Z</time>
      </trkpt>
      <trkpt lat="48.67208" lon="6.11031">
        <ele>496.2</ele>
        <time>2020-10-03T13:05:34Z</time>
      </trkpt>
      <trkpt lat="48.67211" lon="6.1103">
        <ele>496.2</ele>
        <time>2020-10-03T13:05:35Z</time>
      </trkpt>
      <trkpt lat="48.67215" lon="6.11029">
        <ele>496.4</ele>
        <time>2020-10-03T13:05:36Z</time>
      </trkpt>
      <trkpt lat="48.67219" lon="6.11028">
        <ele>496.4</ele>
        <time>2020-10-03T13:05:37Z</time>
      </trkpt>
      <trkpt lat="48.67222" lon="6.11027">
        <ele>496.4</ele>
        <time>2020-10-03T13:05:38Z</time>
      </trkpt>
      <trkpt lat="48.67226" lon="6.11026">
        <ele>496.6</ele>
        <time>2020-10-03T13:05:39Z</time>
      </trkpt>
      <trkpt lat="48.67229" lon="6.11025">
        <ele>496.6</ele>
        <time>2020-10-03T13:05:40Z</time>
      </trkpt>
      <trkpt lat="48.67233" lon="6.11024">
        <ele>496.4</ele>
        <time>2020-10-03T13:05:41Z</time>
      </trkpt>
      <trkpt lat="48.67236" lon="6.11023">
        <ele>496.2</ele>
        <time>2020-10-03T13:05:42Z</time>
      </trkpt>
      <trkpt lat="48.6724" lon="6.11021">
        <ele>496</ele>
        <time>2020-10-03T13:05:43Z</time>
      </trkpt>
      <trkpt lat="48.67244" lon="6.1102">
        <ele>496</ele>
        <time>2020-10-03T13:05:44Z</time>
      </trkpt>
      <trkpt lat="48.67247" lon="6.11018">
        <ele>495.8</ele>
        <time>2020-10-03T13:05:45Z</time>
      </trkpt>
      <trkpt lat="48.67251" lon="6.11017">
        <ele>495.8</ele>
        <time>2020-10-03T13:05:46Z</time>
      </trkpt>
      <trkpt lat="48.67256" lon="6.11016">
        <ele>495.8</ele>
        <time>2020-10-03T13:05:47Z</time>
      </trkpt>
      <trkpt lat="48.67261" lon="6.11015">
        <ele>495.6</ele>
        <time>2020-10-03T13:05:48Z</time>
      </trkpt>
      <trkpt lat="48.67265" lon="6.11015">
        <ele>495.6</ele>
        <time>2020-10-03T13:05:49Z</time>
      </trkpt>
      <trkpt lat="48.67269" lon="6.11013">
        <ele>495.6</ele>
        <time>2020-10-03T13:05:50Z</time>
      </trkpt>
      <trkpt lat="48.67273" lon="6.11014">
        <ele>495.6</ele>
        <time>2020-10-03T13:05:51Z</time>
      </trkpt>
      <trkpt lat="48.67277" lon="6.11012">
        <ele>495.4</ele>
        <time>2020-10-03T13:05:52Z</time>
      </trkpt>
      <trkpt lat="48.67282" lon="6.11011">
        <ele>495.4</ele>
        <time>2020-10-03T13:05:53Z</time>
      </trkpt>
      <trkpt lat="48.67287" lon="6.1101">
        <ele>495.2</ele>
        <time>2020-10-03T13:05:54Z</time>
      </trkpt>
      <trkpt lat="48.67291" lon="6.11009">
        <ele>495</ele>
        <time>2020-10-03T13:05:55Z</time>
      </trkpt>
      <trkpt lat="48.67295" lon="6.11009">
        <ele>494.8</ele>
        <time>2020-10-03T13:05:56Z</time>
      </trkpt>
      <trkpt lat="48.67301" lon="6.11007">
        <ele>494.6</ele>
        <time>2020-10-03T13:05:57Z</time>
      </trkpt>
      <trkpt lat="48.67306" lon="6.11007">
        <ele>494.4</ele>
        <time>2020-10-03T13:05:58Z</time>
      </trkpt>
      <trkpt lat="48.67312" lon="6.11006">
        <ele>494.4</ele>
        <time>2020-10-03T13:05:59Z</time>
      </trkpt>
      <trkpt lat="48.67317" lon="6.11004">
        <ele>494.4</ele>
        <time>2020-10-03T13:06:00Z</time>
      </trkpt>
      <trkpt lat="48.67322" lon="6.11004">
        <ele>494.6</ele>
        <time>2020-10-03T13:06:01Z</time>
      </trkpt>
      <trkpt lat="48.67326" lon="6.11003">
        <ele>494.2</ele>
        <time>2020-10-03T13:06:02Z</time>
      </trkpt>
      <trkpt lat="48.67331" lon="6.11002">
        <ele>494</ele>
        <time>2020-10-03T13:06:03Z</time>
      </trkpt>
      <trkpt lat="48.67335" lon="6.11">
        <ele>493.6</ele>
        <time>2020-10-03T13:06:04Z</time>
      </trkpt>
      <trkpt lat="48.67341" lon="6.10999">
        <ele>493.4</ele>
        <time>2020-10-03T13:06:05Z</time>
      </trkpt>
      <trkpt lat="48.67346" lon="6.10998">
        <ele>493</ele>
        <time>2020-10-03T13:06:06Z</time>
      </trkpt>
      <trkpt lat="48.67351" lon="6.10996">
        <ele>492.8</ele>
        <time>2020-10-03T13:06:07Z</time>
      </trkpt>
      <trkpt lat="48.67355" lon="6.10995">
        <ele>492.6</ele>
        <time>2020-10-03T13:06:08Z</time>
      </trkpt>
      <trkpt lat="48.6736" lon="6.10994">
        <ele>492.2</ele>
        <time>2020-10-03T13:06:09Z</time>
      </trkpt>
      <trkpt lat="48.67365" lon="6.10992">
        <ele>492</ele>
        <time>2020-10-03T13:06:10Z</time>
      </trkpt>
      <trkpt lat="48.67369" lon="6.10991">
        <ele>491.4</ele>
        <time>2020-10-03T13:06:11Z</time>
      </trkpt>
      <trkpt lat="48.67373" lon="6.10991">
        <ele>490.6</ele>
        <time>2020-10-03T13:06:12Z</time>
      </trkpt>
      <trkpt lat="48.67378" lon="6.10988">
        <ele>489.8</ele>
        <time>2020-10-03T13:06:13Z</time>
      </trkpt>
      <trkpt lat="48.67379" lon="6.10985">
        <ele>489</ele>
        <time>2020-10-03T13:06:14Z</time>
      </trkpt>
      <trkpt lat="48.67385" lon="6.10983">
        <ele>488.2</ele>
        <time>2020-10-03T13:06:15Z</time>
      </trkpt>
      <trkpt lat="48.67391" lon="6.10984">
        <ele>487.8</ele>
        <time>2020-10-03T13:06:16Z</time>
      </trkpt>
      <trkpt lat="48.67396" lon="6.10982">
        <ele>487.6</ele>
        <time>2020-10-03T13:06:17Z</time>
      </trkpt>
      <trkpt lat="48.67402" lon="6.10981">
        <ele>487.6</ele>
        <time>2020-10-03T13:06:18Z</time>
      </trkpt>
      <trkpt lat="48.67407" lon="6.10979">
        <ele>487.8</ele>
        <time>2020-10-03T13:06:19Z</time>
      </trkpt>
      <trkpt lat="48.67411" lon="6.10979">
        <ele>488</ele>
        <time>2020-10-03T13:06:20Z</time>
      </trkpt>
      <trkpt lat="48.67416" lon="6.10978">
        <ele>488.6</ele>
        <time>2020-10-03T13:06:21Z</time>
      </trkpt>
      <trkpt lat="48.67421" lon="6.10977">
        <ele>489.2</ele>
        <time>2020-10-03T13:06:22Z</time>
      </trkpt>
      <trkpt lat="48.67426" lon="6.10975">
        <ele>489.4</ele>
        <time>2020-10-03T13:06:23Z</time>
      </trkpt>
      <trkpt lat="48.67431" lon="6.10975">
        <ele>489.8</ele>
        <time>2020-10-03T13:06:24Z</time>
      </trkpt>
      <trkpt lat="48.67435" lon="6.10973">
        <ele>490</ele>
        <time>2020-10-03T13:06:25Z</time>
      </trkpt>
      <trkpt lat="48.67441" lon="6.10972">
        <ele>490.2</ele>
        <time>2020-10-03T13:06:26Z</time>
      </trkpt>
      <trkpt lat="48.67445" lon="6.10971">
        <ele>490.2</ele>
        <time>2020-10-03T13:06:27Z</time>
      </trkpt>
      <trkpt lat="48.67449" lon="6.1097">
        <ele>490.6</ele>
        <time>2020-10-03T13:06:28Z</time>
      </trkpt>
      <trkpt lat="48.67456" lon="6.10968">
        <ele>491</ele>
        <time>2020-10-03T13:06:29Z</time>
      </trkpt>
      <trkpt lat="48.67461" lon="6.10966">
        <ele>491.2</ele>
        <time>2020-10-03T13:06:30Z</time>
      </trkpt>
      <trkpt lat="48.67467" lon="6.10965">
        <ele>491.4</ele>
        <time>2020-10-03T13:06:31Z</time>
      </trkpt>
      <trkpt lat="48.6747" lon="6.10964">
        <ele>491.6</ele>
        <time>2020-10-03T13:06:32Z</time>
      </trkpt>
      <trkpt lat="48.67476" lon="6.10962">
        <ele>491.6</ele>
        <time>2020-10-03T13:06:33Z</time>
      </trkpt>
      <trkpt lat="48.67481" lon="6.1096">
        <ele>491.8</ele>
        <time>2020-10-03T13:06:34Z</time>
      </trkpt>
      <trkpt lat="48.67486" lon="6.10958">
        <ele>492.2</ele>
        <time>2020-10-03T13:06:35Z</time>
      </trkpt>
      <trkpt lat="48.6749" lon="6.10957">
        <ele>492.4</ele>
        <time>2020-10-03T13:06:36Z</time>
      </trkpt>
      <trkpt lat="48.67494" lon="6.10956">
        <ele>492.6</ele>
        <time>2020-10-03T13:06:37Z</time>
      </trkpt>
      <trkpt lat="48.67498" lon="6.10954">
        <ele>492.6</ele>
        <time>2020-10-03T13:06:38Z</time>
      </trkpt>
      <trkpt lat="48.67502" lon="6.10953">
        <ele>492.6</ele>
        <time>2020-10-03T13:06:39Z</time>
      </trkpt>
      <trkpt lat="48.67506" lon="6.10952">
        <ele>492.6</ele>
        <time>2020-10-03T13:06:40Z</time>
      </trkpt>
      <trkpt lat="48.6751" lon="6.10951">
        <ele>492.8</ele>
        <time>2020-10-03T13:06:41Z</time>
      </trkpt>
      <trkpt lat="48.67514" lon="6.1095">
        <ele>493</ele>
        <time>2020-10-03T13:06:42Z</time>
      </trkpt>
      <trkpt lat="48.67518" lon="6.10949">
        <ele>493.4</ele>
        <time>2020-10-03T13:06:43Z</time>
      </trkpt>
      <trkpt lat="48.67521" lon="6.10949">
        <ele>493.6</ele>
        <time>2020-10-03T13:06:44Z</time>
      </trkpt>
      <trkpt lat="48.67523" lon="6.10948">
        <ele>493.6</ele>
        <time>2020-10-03T13:06:45Z</time>
      </trkpt>
      <trkpt lat="48.67524" lon="6.10947">
        <ele>493.8</ele>
        <time>2020-10-03T13:06:46Z</time>
      </trkpt>
      <trkpt lat="48.67529" lon="6.10946">
        <ele>493.6</ele>
        <time>2020-10-03T13:06:47Z</time>
      </trkpt>
      <trkpt lat="48.67533" lon="6.10946">
        <ele>493.4</ele>
        <time>2020-10-03T13:06:48Z</time>
      </trkpt>
      <trkpt lat="48.67537" lon="6.10945">
        <ele>493.6</ele>
        <time>2020-10-03T13:06:49Z</time>
      </trkpt>
      <trkpt lat="48.67541" lon="6.10943">
        <ele>493.8</ele>
        <time>2020-10-03T13:06:50Z</time>
      </trkpt>
      <trkpt lat="48.67546" lon="6.10941">
        <ele>493.8</ele>
        <time>2020-10-03T13:06:51Z</time>
      </trkpt>
      <trkpt lat="48.67549" lon="6.1094">
        <ele>494</ele>
        <time>2020-10-03T13:06:52Z</time>
      </trkpt>
      <trkpt lat="48.67554" lon="6.10938">
        <ele>494</ele>
        <time>2020-10-03T13:06:53Z</time>
      </trkpt>
      <trkpt lat="48.67559" lon="6.10937">
        <ele>494</ele>
        <time>2020-10-03T13:06:54Z</time>
      </trkpt>
      <trkpt lat="48.67563" lon="6.10936">
        <ele>494</ele>
        <time>2020-10-03T13:06:55Z</time>
      </trkpt>
      <trkpt lat="48.67568" lon="6.10936">
        <ele>494</ele>
        <time>2020-10-03T13:06:56Z</time>
      </trkpt>
      <trkpt lat="48.67573" lon="6.10935">
        <ele>494</ele>
        <time>2020-10-03T13:06:57Z</time>
      </trkpt>
      <trkpt lat="48.67577" lon="6.10934">
        <ele>494.2</ele>
        <time>2020-10-03T13:06:58Z</time>
      </trkpt>
      <trkpt lat="48.67582" lon="6.10934">
        <ele>494</ele>
        <time>2020-10-03T13:06:59Z</time>
      </trkpt>
      <trkpt lat="48.67586" lon="6.10933">
        <ele>494.2</ele>
        <time>2020-10-03T13:07:00Z</time>
      </trkpt>
      <trkpt lat="48.6759" lon="6.10932">
        <ele>494.2</ele>
        <time>2020-10-03T13:07:01Z</time>
      </trkpt>
      <trkpt lat="48.67595" lon="6.10932">
        <ele>494.4</ele>
        <time>2020-10-03T13:07:02Z</time>
      </trkpt>
      <trkpt lat="48.676" lon="6.10931">
        <ele>494.2</ele>
        <time>2020-10-03T13:07:03Z</time>
      </trkpt>
      <trkpt lat="48.67605" lon="6.10929">
        <ele>494.2</ele>
        <time>2020-10-03T13:07:04Z</time>
      </trkpt>
      <trkpt lat="48.6761" lon="6.10928">
        <ele>494.2</ele>
        <time>2020-10-03T13:07:05Z</time>
      </trkpt>
      <trkpt lat="48.67614" lon="6.10927">
        <ele>494.2</ele>
        <time>2020-10-03T13:07:06Z</time>
      </trkpt>
      <trkpt lat="48.67619" lon="6.10926">
        <ele>494.2</ele>
        <time>2020-10-03T13:07:07Z</time>
      </trkpt>
      <trkpt lat="48.67623" lon="6.10926">
        <ele>494.2</ele>
        <time>2020-10-03T13:07:08Z</time>
      </trkpt>
      <trkpt lat="48.67628" lon="6.10925">
        <ele>494.2</ele>
        <time>2020-10-03T13:07:09Z</time>
      </trkpt>
      <trkpt lat="48.67632" lon="6.10925">
        <ele>494</ele>
        <time>2020-10-03T13:07:10Z</time>
      </trkpt>
      <trkpt lat="48.67636" lon="6.10924">
        <ele>494</ele>
        <time>2020-10-03T13:07:11Z</time>
      </trkpt>
      <trkpt lat="48.67642" lon="6.10923">
        <ele>493.8</ele>
        <time>2020-10-03T13:07:12Z</time>
      </trkpt>
      <trkpt lat="48.67647" lon="6.10921">
        <ele>493.6</ele>
        <time>2020-10-03T13:07:13Z</time>
      </trkpt>
      <trkpt lat="48.67651" lon="6.1092">
        <ele>493.4</ele>
        <time>2020-10-03T13:07:14Z</time>
      </trkpt>
      <trkpt lat="48.67656" lon="6.10919">
        <ele>493.4</ele>
        <time>2020-10-03T13:07:15Z</time>
      </trkpt>
      <trkpt lat="48.67661" lon="6.10918">
        <ele>493.6</ele>
        <time>2020-10-03T13:07:16Z</time>
      </trkpt>
      <trkpt lat="48.67666" lon="6.10916">
        <ele>493.6</ele>
        <time>2020-10-03T13:07:17Z</time>
      </trkpt>
      <trkpt lat="48.6767" lon="6.10917">
        <ele>493.6</ele>
        <time>2020-10-03T13:07:18Z</time>
      </trkpt>
      <trkpt lat="48.67674" lon="6.10915">
        <ele>493.4</ele>
        <time>2020-10-03T13:07:19Z</time>
      </trkpt>
      <trkpt lat="48.6768" lon="6.10914">
        <ele>493.2</ele>
        <time>2020-10-03T13:07:20Z</time>
      </trkpt>
      <trkpt lat="48.67684" lon="6.10914">
        <ele>493.2</ele>
        <time>2020-10-03T13:07:21Z</time>
      </trkpt>
      <trkpt lat="48.67689" lon="6.10913">
        <ele>493.2</ele>
        <time>2020-10-03T13:07:22Z</time>
      </trkpt>
      <trkpt lat="48.67694" lon="6.10912">
        <ele>493</ele>
        <time>2020-10-03T13:07:23Z</time>
      </trkpt>
      <trkpt lat="48.677" lon="6.1091">
        <ele>492.6</ele>
        <time>2020-10-03T13:07:24Z</time>
      </trkpt>
      <trkpt lat="48.67706" lon="6.10909">
        <ele>492</ele>
        <time>2020-10-03T13:07:25Z</time>
      </trkpt>
      <trkpt lat="48.67711" lon="6.10907">
        <ele>491.8</ele>
        <time>2020-10-03T13:07:26Z</time>
      </trkpt>
      <trkpt lat="48.67715" lon="6.10906">
        <ele>491.4</ele>
        <time>2020-10-03T13:07:27Z</time>
      </trkpt>
      <trkpt lat="48.67722" lon="6.10904">
        <ele>491.4</ele>
        <time>2020-10-03T13:07:28Z</time>
      </trkpt>
      <trkpt lat="48.67728" lon="6.10902">
        <ele>491.2</ele>
        <time>2020-10-03T13:07:29Z</time>
      </trkpt>
      <trkpt lat="48.67733" lon="6.10902">
        <ele>491.2</ele>
        <time>2020-10-03T13:07:30Z</time>
      </trkpt>
      <trkpt lat="48.6774" lon="6.10901">
        <ele>491.2</ele>
        <time>2020-10-03T13:07:31Z</time>
      </trkpt>
      <trkpt lat="48.67746" lon="6.109">
        <ele>491</ele>
        <time>2020-10-03T13:07:32Z</time>
      </trkpt>
      <trkpt lat="48.67753" lon="6.10899">
        <ele>490.8</ele>
        <time>2020-10-03T13:07:33Z</time>
      </trkpt>
      <trkpt lat="48.67759" lon="6.10898">
        <ele>490.8</ele>
        <time>2020-10-03T13:07:34Z</time>
      </trkpt>
      <trkpt lat="48.67765" lon="6.10897">
        <ele>491</ele>
        <time>2020-10-03T13:07:35Z</time>
      </trkpt>
      <trkpt lat="48.67771" lon="6.10896">
        <ele>491</ele>
        <time>2020-10-03T13:07:36Z</time>
      </trkpt>
      <trkpt lat="48.67777" lon="6.10895">
        <ele>490.6</ele>
        <time>2020-10-03T13:07:37Z</time>
      </trkpt>
      <trkpt lat="48.67783" lon="6.10893">
        <ele>490</ele>
        <time>2020-10-03T13:07:38Z</time>
      </trkpt>
      <trkpt lat="48.67788" lon="6.10892">
        <ele>489.6</ele>
        <time>2020-10-03T13:07:39Z</time>
      </trkpt>
      <trkpt lat="48.67794" lon="6.10891">
        <ele>489.6</ele>
        <time>2020-10-03T13:07:40Z</time>
      </trkpt>
      <trkpt lat="48.67798" lon="6.1089">
        <ele>489.6</ele>
        <time>2020-10-03T13:07:41Z</time>
      </trkpt>
      <trkpt lat="48.67802" lon="6.10889">
        <ele>489.2</ele>
        <time>2020-10-03T13:07:42Z</time>
      </trkpt>
      <trkpt lat="48.67806" lon="6.10888">
        <ele>489</ele>
        <time>2020-10-03T13:07:43Z</time>
      </trkpt>
      <trkpt lat="48.67809" lon="6.10887">
        <ele>488.8</ele>
        <time>2020-10-03T13:07:44Z</time>
      </trkpt>
      <trkpt lat="48.67812" lon="6.10885">
        <ele>488.8</ele>
        <time>2020-10-03T13:07:45Z</time>
      </trkpt>
      <trkpt lat="48.67814" lon="6.10885">
        <ele>488.8</ele>
        <time>2020-10-03T13:07:46Z</time>
      </trkpt>
      <trkpt lat="48.67815" lon="6.10884">
        <ele>488.8</ele>
        <time>2020-10-03T13:07:47Z</time>
      </trkpt>
      <trkpt lat="48.67816" lon="6.10884">
        <ele>488.6</ele>
        <time>2020-10-03T13:07:48Z</time>
      </trkpt>
      <trkpt lat="48.67817" lon="6.10884">
        <ele>488.4</ele>
        <time>2020-10-03T13:07:49Z</time>
      </trkpt>
      <trkpt lat="48.67817" lon="6.10884">
        <ele>488.2</ele>
        <time>2020-10-03T13:07:50Z</time>
      </trkpt>
      <trkpt lat="48.67818" lon="6.10883">
        <ele>488.2</ele>
        <time>2020-10-03T13:07:51Z</time>
      </trkpt>
      <trkpt lat="48.67819" lon="6.10883">
        <ele>488.2</ele>
        <time>2020-10-03T13:07:52Z</time>
      </trkpt>
      <trkpt lat="48.67819" lon="6.10883">
        <ele>488.2</ele>
        <time>2020-10-03T13:07:53Z</time>
      </trkpt>
      <trkpt lat="48.67839" lon="6.10889">
        <ele>490</ele>
        <time>2020-10-03T13:12:07Z</time>
      </trkpt>
      <trkpt lat="48.6784" lon="6.10893">
        <ele>490.2</ele>
        <time>2020-10-03T13:12:08Z</time>
      </trkpt>
      <trkpt lat="48.67841" lon="6.10896">
        <ele>490</ele>
        <time>2020-10-03T13:12:09Z</time>
      </trkpt>
      <trkpt lat="48.67842" lon="6.10898">
        <ele>489.8</ele>
        <time>2020-10-03T13:12:10Z</time>
      </trkpt>
      <trkpt lat="48.67843" lon="6.109">
        <ele>489.6</ele>
        <time>2020-10-03T13:12:11Z</time>
      </trkpt>
      <trkpt lat="48.67844" lon="6.10902">
        <ele>489.6</ele>
        <time>2020-10-03T13:12:12Z</time>
      </trkpt>
      <trkpt lat="48.67845" lon="6.10904">
        <ele>489.6</ele>
        <time>2020-10-03T13:12:13Z</time>
      </trkpt>
      <trkpt lat="48.67846" lon="6.10907">
        <ele>489.8</ele>
        <time>2020-10-03T13:12:14Z</time>
      </trkpt>
      <trkpt lat="48.67845" lon="6.1091">
        <ele>490</ele>
        <time>2020-10-03T13:12:15Z</time>
      </trkpt>
      <trkpt lat="48.67846" lon="6.10913">
        <ele>490</ele>
        <time>2020-10-03T13:12:16Z</time>
      </trkpt>
      <trkpt lat="48.67846" lon="6.10916">
        <ele>490</ele>
        <time>2020-10-03T13:12:17Z</time>
      </trkpt>
      <trkpt lat="48.67846" lon="6.10919">
        <ele>490</ele>
        <time>2020-10-03T13:12:18Z</time>
      </trkpt>
      <trkpt lat="48.67846" lon="6.10923">
        <ele>490</ele>
        <time>2020-10-03T13:12:19Z</time>
      </trkpt>
      <trkpt lat="48.67845" lon="6.10926">
        <ele>490</ele>
        <time>2020-10-03T13:12:20Z</time>
      </trkpt>
      <trkpt lat="48.67845" lon="6.10929">
        <ele>490.2</ele>
        <time>2020-10-03T13:12:21Z</time>
      </trkpt>
      <trkpt lat="48.67847" lon="6.10932">
        <ele>490.2</ele>
        <time>2020-10-03T13:12:22Z</time>
      </trkpt>
      <trkpt lat="48.67847" lon="6.10935">
        <ele>490.2</ele>
        <time>2020-10-03T13:12:23Z</time>
      </trkpt>
      <trkpt lat="48.67848" lon="6.10938">
        <ele>489.8</ele>
        <time>2020-10-03T13:12:24Z</time>
      </trkpt>
      <trkpt lat="48.67848" lon="6.10941">
        <ele>489.8</ele>
        <time>2020-10-03T13:12:25Z</time>
      </trkpt>
      <trkpt lat="48.67848" lon="6.10943">
        <ele>489.8</ele>
        <time>2020-10-03T13:12:26Z</time>
      </trkpt>
      <trkpt lat="48.6785" lon="6.10946">
        <ele>490</ele>
        <time>2020-10-03T13:12:27Z</time>
      </trkpt>
      <trkpt lat="48.67851" lon="6.10948">
        <ele>489.8</ele>
        <time>2020-10-03T13:12:28Z</time>
      </trkpt>
      <trkpt lat="48.67851" lon="6.10951">
        <ele>489.8</ele>
        <time>2020-10-03T13:12:29Z</time>
      </trkpt>
      <trkpt lat="48.67853" lon="6.10954">
        <ele>489.6</ele>
        <time>2020-10-03T13:12:30Z</time>
      </trkpt>
      <trkpt lat="48.67855" lon="6.10956">
        <ele>489.4</ele>
        <time>2020-10-03T13:12:31Z</time>
      </trkpt>
      <trkpt lat="48.67857" lon="6.10958">
        <ele>489.4</ele>
        <time>2020-10-03T13:12:32Z</time>
      </trkpt>
      <trkpt lat="48.67858" lon="6.1096">
        <ele>489.4</ele>
        <time>2020-10-03T13:12:33Z</time>
      </trkpt>
      <trkpt lat="48.67858" lon="6.10964">
        <ele>489.4</ele>
        <time>2020-10-03T13:12:34Z</time>
      </trkpt>
      <trkpt lat="48.67858" lon="6.10966">
        <ele>489.4</ele>
        <time>2020-10-03T13:12:35Z</time>
      </trkpt>
      <trkpt lat="48.67857" lon="6.1097">
        <ele>489.4</ele>
        <time>2020-10-03T13:12:36Z</time>
      </trkpt>
      <trkpt lat="48.67857" lon="6.10972">
        <ele>489.4</ele>
        <time>2020-10-03T13:12:37Z</time>
      </trkpt>
      <trkpt lat="48.67856" lon="6.10976">
        <ele>489.4</ele>
        <time>2020-10-03T13:12:38Z</time>
      </trkpt>
      <trkpt lat="48.67856" lon="6.1098">
        <ele>489.4</ele>
        <time>2020-10-03T13:12:39Z</time>
      </trkpt>
      <trkpt lat="48.67857" lon="6.10983">
        <ele>489.2</ele>
        <time>2020-10-03T13:12:40Z</time>
      </trkpt>
      <trkpt lat="48.67859" lon="6.10986">
        <ele>489</ele>
        <time>2020-10-03T13:12:41Z</time>
      </trkpt>
      <trkpt lat="48.6786" lon="6.10989">
        <ele>488.8</ele>
        <time>2020-10-03T13:12:42Z</time>
      </trkpt>
      <trkpt lat="48.6786" lon="6.10993">
        <ele>488.8</ele>
        <time>2020-10-03T13:12:43Z</time>
      </trkpt>
      <trkpt lat="48.6786" lon="6.10996">
        <ele>488.6</ele>
        <time>2020-10-03T13:12:44Z</time>
      </trkpt>
      <trkpt lat="48.67859" lon="6.11001">
        <ele>488.4</ele>
        <time>2020-10-03T13:12:45Z</time>
      </trkpt>
      <trkpt lat="48.67859" lon="6.11005">
        <ele>488.2</ele>
        <time>2020-10-03T13:12:46Z</time>
      </trkpt>
      <trkpt lat="48.67859" lon="6.11009">
        <ele>488</ele>
        <time>2020-10-03T13:12:47Z</time>
      </trkpt>
      <trkpt lat="48.67857" lon="6.11014">
        <ele>487.8</ele>
        <time>2020-10-03T13:12:48Z</time>
      </trkpt>
      <trkpt lat="48.67858" lon="6.1102">
        <ele>487.6</ele>
        <time>2020-10-03T13:12:49Z</time>
      </trkpt>
      <trkpt lat="48.67858" lon="6.11024">
        <ele>487.4</ele>
        <time>2020-10-03T13:12:50Z</time>
      </trkpt>
      <trkpt lat="48.67861" lon="6.11028">
        <ele>487.4</ele>
        <time>2020-10-03T13:12:51Z</time>
      </trkpt>
      <trkpt lat="48.67861" lon="6.11033">
        <ele>487.2</ele>
        <time>2020-10-03T13:12:52Z</time>
      </trkpt>
      <trkpt lat="48.6786" lon="6.11037">
        <ele>486.8</ele>
        <time>2020-10-03T13:12:53Z</time>
      </trkpt>
      <trkpt lat="48.6786" lon="6.11041">
        <ele>486.8</ele>
        <time>2020-10-03T13:12:54Z</time>
      </trkpt>
      <trkpt lat="48.6786" lon="6.11044">
        <ele>486.6</ele>
        <time>2020-10-03T13:12:55Z</time>
      </trkpt>
      <trkpt lat="48.67861" lon="6.11048">
        <ele>486.2</ele>
        <time>2020-10-03T13:12:56Z</time>
      </trkpt>
      <trkpt lat="48.67862" lon="6.11051">
        <ele>486</ele>
        <time>2020-10-03T13:12:57Z</time>
      </trkpt>
      <trkpt lat="48.67862" lon="6.11054">
        <ele>485.8</ele>
        <time>2020-10-03T13:12:58Z</time>
      </trkpt>
      <trkpt lat="48.67863" lon="6.11059">
        <ele>485.6</ele>
        <time>2020-10-03T13:12:59Z</time>
      </trkpt>
      <trkpt lat="48.67863" lon="6.11064">
        <ele>485.4</ele>
        <time>2020-10-03T13:13:00Z</time>
      </trkpt>
      <trkpt lat="48.67863" lon="6.11068">
        <ele>485.4</ele>
        <time>2020-10-03T13:13:01Z</time>
      </trkpt>
      <trkpt lat="48.67863" lon="6.1107">
        <ele>485.2</ele>
        <time>2020-10-03T13:13:02Z</time>
      </trkpt>
      <trkpt lat="48.67862" lon="6.11073">
        <ele>485.2</ele>
        <time>2020-10-03T13:13:03Z</time>
      </trkpt>
      <trkpt lat="48.67862" lon="6.11075">
        <ele>485.2</ele>
        <time>2020-10-03T13:13:04Z</time>
      </trkpt>
      <trkpt lat="48.67866" lon="6.1112">
        <ele>484.6</ele>
        <time>2020-10-03T13:14:01Z</time>
      </trkpt>
      <trkpt lat="48.67868" lon="6.11124">
        <ele>484.4</ele>
        <time>2020-10-03T13:14:02Z</time>
      </trkpt>
      <trkpt lat="48.67869" lon="6.11127">
        <ele>484.2</ele>
        <time>2020-10-03T13:14:03Z</time>
      </trkpt>
      <trkpt lat="48.6787" lon="6.1113">
        <ele>484</ele>
        <time>2020-10-03T13:14:04Z</time>
      </trkpt>
      <trkpt lat="48.67869" lon="6.11135">
        <ele>484</ele>
        <time>2020-10-03T13:14:05Z</time>
      </trkpt>
      <trkpt lat="48.6787" lon="6.11139">
        <ele>483.8</ele>
        <time>2020-10-03T13:14:06Z</time>
      </trkpt>
      <trkpt lat="48.67872" lon="6.11145">
        <ele>483.6</ele>
        <time>2020-10-03T13:14:07Z</time>
      </trkpt>
      <trkpt lat="48.67874" lon="6.11151">
        <ele>483.4</ele>
        <time>2020-10-03T13:14:08Z</time>
      </trkpt>
      <trkpt lat="48.67875" lon="6.11156">
        <ele>483.2</ele>
        <time>2020-10-03T13:14:09Z</time>
      </trkpt>
      <trkpt lat="48.67876" lon="6.11162">
        <ele>482.8</ele>
        <time>2020-10-03T13:14:10Z</time>
      </trkpt>
      <trkpt lat="48.67876" lon="6.11166">
        <ele>482.4</ele>
        <time>2020-10-03T13:14:11Z</time>
      </trkpt>
      <trkpt lat="48.67878" lon="6.11171">
        <ele>482</ele>
        <time>2020-10-03T13:14:12Z</time>
      </trkpt>
      <trkpt lat="48.67879" lon="6.11176">
        <ele>481.6</ele>
        <time>2020-10-03T13:14:13Z</time>
      </trkpt>
      <trkpt lat="48.67881" lon="6.11183">
        <ele>481.4</ele>
        <time>2020-10-03T13:14:14Z</time>
      </trkpt>
      <trkpt lat="48.6788" lon="6.11186">
        <ele>481.4</ele>
        <time>2020-10-03T13:14:15Z</time>
      </trkpt>
      <trkpt lat="48.67878" lon="6.11192">
        <ele>481.2</ele>
        <time>2020-10-03T13:14:16Z</time>
      </trkpt>
      <trkpt lat="48.67876" lon="6.11197">
        <ele>481</ele>
        <time>2020-10-03T13:14:17Z</time>
      </trkpt>
      <trkpt lat="48.67876" lon="6.11201">
        <ele>480.6</ele>
        <time>2020-10-03T13:14:18Z</time>
      </trkpt>
      <trkpt lat="48.67876" lon="6.11207">
        <ele>480</ele>
        <time>2020-10-03T13:14:19Z</time>
      </trkpt>
      <trkpt lat="48.67874" lon="6.11213">
        <ele>479.8</ele>
        <time>2020-10-03T13:14:20Z</time>
      </trkpt>
      <trkpt lat="48.67874" lon="6.11219">
        <ele>479.6</ele>
        <time>2020-10-03T13:14:21Z</time>
      </trkpt>
      <trkpt lat="48.67876" lon="6.11228">
        <ele>479.6</ele>
        <time>2020-10-03T13:14:22Z</time>
      </trkpt>
      <trkpt lat="48.67878" lon="6.11236">
        <ele>479.2</ele>
        <time>2020-10-03T13:14:23Z</time>
      </trkpt>
      <trkpt lat="48.6788" lon="6.11244">
        <ele>478.8</ele>
        <time>2020-10-03T13:14:24Z</time>
      </trkpt>
      <trkpt lat="48.67881" lon="6.11255">
        <ele>478.6</ele>
        <time>2020-10-03T13:14:25Z</time>
      </trkpt>
      <trkpt lat="48.67885" lon="6.11264">
        <ele>478.4</ele>
        <time>2020-10-03T13:14:26Z</time>
      </trkpt>
      <trkpt lat="48.67886" lon="6.11272">
        <ele>478.2</ele>
        <time>2020-10-03T13:14:27Z</time>
      </trkpt>
      <trkpt lat="48.6789" lon="6.1128">
        <ele>478</ele>
        <time>2020-10-03T13:14:28Z</time>
      </trkpt>
      <trkpt lat="48.67891" lon="6.11287">
        <ele>477.6</ele>
        <time>2020-10-03T13:14:29Z</time>
      </trkpt>
      <trkpt lat="48.67894" lon="6.11298">
        <ele>477.2</ele>
        <time>2020-10-03T13:14:30Z</time>
      </trkpt>
      <trkpt lat="48.67896" lon="6.11306">
        <ele>477</ele>
        <time>2020-10-03T13:14:31Z</time>
      </trkpt>
      <trkpt lat="48.67898" lon="6.11312">
        <ele>476.8</ele>
        <time>2020-10-03T13:14:32Z</time>
      </trkpt>
      <trkpt lat="48.67898" lon="6.11318">
        <ele>476.4</ele>
        <time>2020-10-03T13:14:33Z</time>
      </trkpt>
      <trkpt lat="48.679" lon="6.11327">
        <ele>476.2</ele>
        <time>2020-10-03T13:14:34Z</time>
      </trkpt>
      <trkpt lat="48.67905" lon="6.11334">
        <ele>475.8</ele>
        <time>2020-10-03T13:14:35Z</time>
      </trkpt>
      <trkpt lat="48.67907" lon="6.1134">
        <ele>475.6</ele>
        <time>2020-10-03T13:14:36Z</time>
      </trkpt>
      <trkpt lat="48.67909" lon="6.11345">
        <ele>475.4</ele>
        <time>2020-10-03T13:14:37Z</time>
      </trkpt>
      <trkpt lat="48.67914" lon="6.11351">
        <ele>475</ele>
        <time>2020-10-03T13:14:38Z</time>
      </trkpt>
      <trkpt lat="48.67915" lon="6.11355">
        <ele>474.8</ele>
        <time>2020-10-03T13:14:39Z</time>
      </trkpt>
      <trkpt lat="48.67921" lon="6.1136">
        <ele>474.8</ele>
        <time>2020-10-03T13:14:40Z</time>
      </trkpt>
      <trkpt lat="48.67922" lon="6.11363">
        <ele>474.4</ele>
        <time>2020-10-03T13:14:41Z</time>
      </trkpt>
      <trkpt lat="48.67922" lon="6.11367">
        <ele>474</ele>
        <time>2020-10-03T13:14:42Z</time>
      </trkpt>
      <trkpt lat="48.67921" lon="6.11371">
        <ele>474</ele>
        <time>2020-10-03T13:14:43Z</time>
      </trkpt>
      <trkpt lat="48.67919" lon="6.11378">
        <ele>474</ele>
        <time>2020-10-03T13:14:44Z</time>
      </trkpt>
      <trkpt lat="48.67918" lon="6.11382">
        <ele>473.8</ele>
        <time>2020-10-03T13:14:45Z</time>
      </trkpt>
      <trkpt lat="48.67917" lon="6.11387">
        <ele>473.6</ele>
        <time>2020-10-03T13:14:46Z</time>
      </trkpt>
      <trkpt lat="48.67916" lon="6.11392">
        <ele>473.2</ele>
        <time>2020-10-03T13:14:47Z</time>
      </trkpt>
      <trkpt lat="48.67915" lon="6.11395">
        <ele>473</ele>
        <time>2020-10-03T13:14:48Z</time>
      </trkpt>
      <trkpt lat="48.67915" lon="6.11399">
        <ele>472.8</ele>
        <time>2020-10-03T13:14:49Z</time>
      </trkpt>
      <trkpt lat="48.67915" lon="6.11401">
        <ele>472.4</ele>
        <time>2020-10-03T13:14:50Z</time>
      </trkpt>
      <trkpt lat="48.67914" lon="6.11407">
        <ele>472</ele>
        <time>2020-10-03T13:14:51Z</time>
      </trkpt>
      <trkpt lat="48.67913" lon="6.1141">
        <ele>471.8</ele>
        <time>2020-10-03T13:14:52Z</time>
      </trkpt>
      <trkpt lat="48.67913" lon="6.11411">
        <ele>471.4</ele>
        <time>2020-10-03T13:14:53Z</time>
      </trkpt>
      <trkpt lat="48.67912" lon="6.11414">
        <ele>471.4</ele>
        <time>2020-10-03T13:14:54Z</time>
      </trkpt>
      <trkpt lat="48.67911" lon="6.11417">
        <ele>471</ele>
        <time>2020-10-03T13:14:55Z</time>
      </trkpt>
      <trkpt lat="48.6791" lon="6.11421">
        <ele>470.4</ele>
        <time>2020-10-03T13:14:56Z</time>
      </trkpt>
      <trkpt lat="48.67909" lon="6.11423">
        <ele>469.8</ele>
        <time>2020-10-03T13:14:57Z</time>
      </trkpt>
      <trkpt lat="48.67909" lon="6.11425">
        <ele>469.4</ele>
        <time>2020-10-03T13:14:58Z</time>
      </trkpt>
      <trkpt lat="48.67909" lon="6.11426">
        <ele>469.2</ele>
        <time>2020-10-03T13:14:59Z</time>
      </trkpt>
      <trkpt lat="48.67908" lon="6.11428">
        <ele>468.6</ele>
        <time>2020-10-03T13:15:00Z</time>
      </trkpt>
      <trkpt lat="48.67908" lon="6.1143">
        <ele>468</ele>
        <time>2020-10-03T13:15:01Z</time>
      </trkpt>
      <trkpt lat="48.67893" lon="6.11423">
        <ele>473.6</ele>
        <time>2020-10-03T13:17:06Z</time>
      </trkpt>
      <trkpt lat="48.67892" lon="6.11423">
        <ele>473.6</ele>
        <time>2020-10-03T13:17:07Z</time>
      </trkpt>
      <trkpt lat="48.6789" lon="6.11424">
        <ele>473.4</ele>
        <time>2020-10-03T13:17:08Z</time>
      </trkpt>
      <trkpt lat="48.67889" lon="6.11424">
        <ele>473.4</ele>
        <time>2020-10-03T13:17:09Z</time>
      </trkpt>
      <trkpt lat="48.67888" lon="6.11426">
        <ele>473.4</ele>
        <time>2020-10-03T13:17:10Z</time>
      </trkpt>
      <trkpt lat="48.67887" lon="6.11427">
        <ele>473.4</ele>
        <time>2020-10-03T13:17:11Z</time>
      </trkpt>
      <trkpt lat="48.67885" lon="6.11428">
        <ele>473.2</ele>
        <time>2020-10-03T13:17:12Z</time>
      </trkpt>
      <trkpt lat="48.67883" lon="6.11428">
        <ele>473</ele>
        <time>2020-10-03T13:17:13Z</time>
      </trkpt>
      <trkpt lat="48.67882" lon="6.11427">
        <ele>472.8</ele>
        <time>2020-10-03T13:17:14Z</time>
      </trkpt>
      <trkpt lat="48.67881" lon="6.11427">
        <ele>472.6</ele>
        <time>2020-10-03T13:17:15Z</time>
      </trkpt>
      <trkpt lat="48.6788" lon="6.11428">
        <ele>472.4</ele>
        <time>2020-10-03T13:17:16Z</time>
      </trkpt>
      <trkpt lat="48.67878" lon="6.11429">
        <ele>472</ele>
        <time>2020-10-03T13:17:17Z</time>
      </trkpt>
      <trkpt lat="48.67875" lon="6.1143">
        <ele>471.8</ele>
        <time>2020-10-03T13:17:18Z</time>
      </trkpt>
      <trkpt lat="48.67872" lon="6.11432">
        <ele>471.4</ele>
        <time>2020-10-03T13:17:19Z</time>
      </trkpt>
      <trkpt lat="48.67869" lon="6.11433">
        <ele>471</ele>
        <time>2020-10-03T13:17:20Z</time>
      </trkpt>
      <trkpt lat="48.67866" lon="6.11434">
        <ele>470.6</ele>
        <time>2020-10-03T13:17:21Z</time>
      </trkpt>
      <trkpt lat="48.67863" lon="6.11435">
        <ele>470.4</ele>
        <time>2020-10-03T13:17:22Z</time>
      </trkpt>
      <trkpt lat="48.67861" lon="6.11436">
        <ele>470.2</ele>
        <time>2020-10-03T13:17:23Z</time>
      </trkpt>
      <trkpt lat="48.67858" lon="6.11437">
        <ele>469.8</ele>
        <time>2020-10-03T13:17:24Z</time>
      </trkpt>
      <trkpt lat="48.67855" lon="6.11437">
        <ele>469.4</ele>
        <time>2020-10-03T13:17:25Z</time>
      </trkpt>
      <trkpt lat="48.67852" lon="6.11438">
        <ele>469</ele>
        <time>2020-10-03T13:17:26Z</time>
      </trkpt>
      <trkpt lat="48.67851" lon="6.11438">
        <ele>468.6</ele>
        <time>2020-10-03T13:17:27Z</time>
      </trkpt>
      <trkpt lat="48.67849" lon="6.11437">
        <ele>468</ele>
        <time>2020-10-03T13:17:28Z</time>
      </trkpt>
      <trkpt lat="48.67846" lon="6.11437">
        <ele>467.6</ele>
        <time>2020-10-03T13:17:29Z</time>
      </trkpt>
      <trkpt lat="48.67845" lon="6.11435">
        <ele>467.2</ele>
        <time>2020-10-03T13:17:30Z</time>
      </trkpt>
      <trkpt lat="48.67844" lon="6.11434">
        <ele>467</ele>
        <time>2020-10-03T13:17:31Z</time>
      </trkpt>
      <trkpt lat="48.67842" lon="6.11434">
        <ele>466.6</ele>
        <time>2020-10-03T13:17:32Z</time>
      </trkpt>
      <trkpt lat="48.6784" lon="6.11434">
        <ele>466.2</ele>
        <time>2020-10-03T13:17:33Z</time>
      </trkpt>
      <trkpt lat="48.67837" lon="6.11434">
        <ele>465.8</ele>
        <time>2020-10-03T13:17:34Z</time>
      </trkpt>
      <trkpt lat="48.67836" lon="6.11433">
        <ele>465.2</ele>
        <time>2020-10-03T13:17:35Z</time>
      </trkpt>
      <trkpt lat="48.67834" lon="6.11432">
        <ele>464.8</ele>
        <time>2020-10-03T13:17:36Z</time>
      </trkpt>
      <trkpt lat="48.67832" lon="6.11432">
        <ele>464.2</ele>
        <time>2020-10-03T13:17:37Z</time>
      </trkpt>
      <trkpt lat="48.6783" lon="6.11432">
        <ele>463.4</ele>
        <time>2020-10-03T13:17:38Z</time>
      </trkpt>
      <trkpt lat="48.67827" lon="6.11433">
        <ele>462.8</ele>
        <time>2020-10-03T13:17:39Z</time>
      </trkpt>
      <trkpt lat="48.67824" lon="6.11433">
        <ele>462</ele>
        <time>2020-10-03T13:17:40Z</time>
      </trkpt>
      <trkpt lat="48.67822" lon="6.11432">
        <ele>461.4</ele>
        <time>2020-10-03T13:17:41Z</time>
      </trkpt>
      <trkpt lat="48.67817" lon="6.11433">
        <ele>461</ele>
        <time>2020-10-03T13:17:42Z</time>
      </trkpt>
      <trkpt lat="48.67813" lon="6.11437">
        <ele>460.6</ele>
        <time>2020-10-03T13:17:43Z</time>
      </trkpt>
      <trkpt lat="48.6781" lon="6.11439">
        <ele>460.2</ele>
        <time>2020-10-03T13:17:44Z</time>
      </trkpt>
      <trkpt lat="48.67808" lon="6.1144">
        <ele>459.8</ele>
        <time>2020-10-03T13:17:45Z</time>
      </trkpt>
      <trkpt lat="48.67806" lon="6.1144">
        <ele>459.6</ele>
        <time>2020-10-03T13:17:46Z</time>
      </trkpt>
      <trkpt lat="48.67804" lon="6.11441">
        <ele>459.6</ele>
        <time>2020-10-03T13:17:47Z</time>
      </trkpt>
      <trkpt lat="48.67799" lon="6.11441">
        <ele>459.6</ele>
        <time>2020-10-03T13:17:48Z</time>
      </trkpt>
      <trkpt lat="48.67796" lon="6.11441">
        <ele>459.6</ele>
        <time>2020-10-03T13:17:49Z</time>
      </trkpt>
      <trkpt lat="48.67792" lon="6.11442">
        <ele>459.8</ele>
        <time>2020-10-03T13:17:50Z</time>
      </trkpt>
      <trkpt lat="48.67786" lon="6.11445">
        <ele>460.2</ele>
        <time>2020-10-03T13:17:51Z</time>
      </trkpt>
      <trkpt lat="48.67783" lon="6.11446">
        <ele>460.4</ele>
        <time>2020-10-03T13:17:52Z</time>
      </trkpt>
      <trkpt lat="48.67781" lon="6.11446">
        <ele>460.8</ele>
        <time>2020-10-03T13:17:53Z</time>
      </trkpt>
      <trkpt lat="48.67779" lon="6.11447">
        <ele>460.8</ele>
        <time>2020-10-03T13:17:54Z</time>
      </trkpt>
      <trkpt lat="48.67776" lon="6.11444">
        <ele>461</ele>
        <time>2020-10-03T13:17:55Z</time>
      </trkpt>
      <trkpt lat="48.67773" lon="6.11444">
        <ele>461</ele>
        <time>2020-10-03T13:17:56Z</time>
      </trkpt>
      <trkpt lat="48.67769" lon="6.11444">
        <ele>461</ele>
        <time>2020-10-03T13:17:57Z</time>
      </trkpt>
      <trkpt lat="48.67767" lon="6.11445">
        <ele>461.2</ele>
        <time>2020-10-03T13:17:58Z</time>
      </trkpt>
      <trkpt lat="48.67743" lon="6.11465">
        <ele>463.2</ele>
        <time>2020-10-03T13:18:12Z</time>
      </trkpt>
      <trkpt lat="48.67741" lon="6.11468">
        <ele>463.4</ele>
        <time>2020-10-03T13:18:13Z</time>
      </trkpt>
      <trkpt lat="48.67741" lon="6.11471">
        <ele>463.8</ele>
        <time>2020-10-03T13:18:14Z</time>
      </trkpt>
      <trkpt lat="48.67739" lon="6.11474">
        <ele>464</ele>
        <time>2020-10-03T13:18:15Z</time>
      </trkpt>
      <trkpt lat="48.67739" lon="6.11476">
        <ele>464.2</ele>
        <time>2020-10-03T13:18:16Z</time>
      </trkpt>
      <trkpt lat="48.67738" lon="6.11478">
        <ele>464.4</ele>
        <time>2020-10-03T13:18:17Z</time>
      </trkpt>
      <trkpt lat="48.67738" lon="6.11481">
        <ele>464.6</ele>
        <time>2020-10-03T13:18:18Z</time>
      </trkpt>
      <trkpt lat="48.67737" lon="6.11483">
        <ele>464.6</ele>
        <time>2020-10-03T13:18:19Z</time>
      </trkpt>
      <trkpt lat="48.67736" lon="6.11487">
        <ele>464.6</ele>
        <time>2020-10-03T13:18:20Z</time>
      </trkpt>
      <trkpt lat="48.67734" lon="6.11492">
        <ele>465</ele>
        <time>2020-10-03T13:18:21Z</time>
      </trkpt>
      <trkpt lat="48.67732" lon="6.11497">
        <ele>465.2</ele>
        <time>2020-10-03T13:18:22Z</time>
      </trkpt>
      <trkpt lat="48.67731" lon="6.11503">
        <ele>465.4</ele>
        <time>2020-10-03T13:18:23Z</time>
      </trkpt>
      <trkpt lat="48.67731" lon="6.11506">
        <ele>465.8</ele>
        <time>2020-10-03T13:18:24Z</time>
      </trkpt>
      <trkpt lat="48.67729" lon="6.11511">
        <ele>466.2</ele>
        <time>2020-10-03T13:18:25Z</time>
      </trkpt>
      <trkpt lat="48.67727" lon="6.11515">
        <ele>466.6</ele>
        <time>2020-10-03T13:18:26Z</time>
      </trkpt>
      <trkpt lat="48.67727" lon="6.11519">
        <ele>467</ele>
        <time>2020-10-03T13:18:27Z</time>
      </trkpt>
      <trkpt lat="48.67726" lon="6.11522">
        <ele>467.4</ele>
        <time>2020-10-03T13:18:28Z</time>
      </trkpt>
      <trkpt lat="48.67726" lon="6.11525">
        <ele>467.8</ele>
        <time>2020-10-03T13:18:29Z</time>
      </trkpt>
      <trkpt lat="48.67726" lon="6.11529">
        <ele>468.2</ele>
        <time>2020-10-03T13:18:30Z</time>
      </trkpt>
      <trkpt lat="48.67725" lon="6.11532">
        <ele>468.4</ele>
        <time>2020-10-03T13:18:31Z</time>
      </trkpt>
      <trkpt lat="48.67724" lon="6.11536">
        <ele>468.6</ele>
        <time>2020-10-03T13:18:32Z</time>
      </trkpt>
      <trkpt lat="48.67722" lon="6.11539">
        <ele>468.8</ele>
        <time>2020-10-03T13:18:33Z</time>
      </trkpt>
      <trkpt lat="48.67721" lon="6.11542">
        <ele>469.2</ele>
        <time>2020-10-03T13:18:34Z</time>
      </trkpt>
      <trkpt lat="48.6772" lon="6.11546">
        <ele>469.4</ele>
        <time>2020-10-03T13:18:35Z</time>
      </trkpt>
      <trkpt lat="48.67721" lon="6.1155">
        <ele>469.8</ele>
        <time>2020-10-03T13:18:36Z</time>
      </trkpt>
      <trkpt lat="48.67719" lon="6.11553">
        <ele>470</ele>
        <time>2020-10-03T13:18:37Z</time>
      </trkpt>
      <trkpt lat="48.67719" lon="6.11557">
        <ele>470.2</ele>
        <time>2020-10-03T13:18:38Z</time>
      </trkpt>
      <trkpt lat="48.67718" lon="6.11561">
        <ele>470.4</ele>
        <time>2020-10-03T13:18:39Z</time>
      </trkpt>
      <trkpt lat="48.67717" lon="6.11565">
        <ele>470.8</ele>
        <time>2020-10-03T13:18:40Z</time>
      </trkpt>
      <trkpt lat="48.67718" lon="6.11568">
        <ele>471</ele>
        <time>2020-10-03T13:18:41Z</time>
      </trkpt>
      <trkpt lat="48.67718" lon="6.11572">
        <ele>471.2</ele>
        <time>2020-10-03T13:18:42Z</time>
      </trkpt>
      <trkpt lat="48.67719" lon="6.11574">
        <ele>471.6</ele>
        <time>2020-10-03T13:18:43Z</time>
      </trkpt>
      <trkpt lat="48.67718" lon="6.11578">
        <ele>471.8</ele>
        <time>2020-10-03T13:18:44Z</time>
      </trkpt>
      <trkpt lat="48.67717" lon="6.11582">
        <ele>472</ele>
        <time>2020-10-03T13:18:45Z</time>
      </trkpt>
      <trkpt lat="48.67716" lon="6.11587">
        <ele>472.2</ele>
        <time>2020-10-03T13:18:46Z</time>
      </trkpt>
      <trkpt lat="48.67713" lon="6.11593">
        <ele>472.4</ele>
        <time>2020-10-03T13:18:47Z</time>
      </trkpt>
      <trkpt lat="48.67713" lon="6.11598">
        <ele>473</ele>
        <time>2020-10-03T13:18:48Z</time>
      </trkpt>
      <trkpt lat="48.67715" lon="6.11602">
        <ele>473.4</ele>
        <time>2020-10-03T13:18:49Z</time>
      </trkpt>
      <trkpt lat="48.67716" lon="6.11606">
        <ele>473.6</ele>
        <time>2020-10-03T13:18:50Z</time>
      </trkpt>
      <trkpt lat="48.67714" lon="6.1161">
        <ele>473.6</ele>
        <time>2020-10-03T13:18:51Z</time>
      </trkpt>
      <trkpt lat="48.67713" lon="6.11615">
        <ele>473.8</ele>
        <time>2020-10-03T13:18:52Z</time>
      </trkpt>
      <trkpt lat="48.67712" lon="6.1162">
        <ele>474</ele>
        <time>2020-10-03T13:18:53Z</time>
      </trkpt>
      <trkpt lat="48.67712" lon="6.11624">
        <ele>474.2</ele>
        <time>2020-10-03T13:18:54Z</time>
      </trkpt>
      <trkpt lat="48.67712" lon="6.11628">
        <ele>474.2</ele>
        <time>2020-10-03T13:18:55Z</time>
      </trkpt>
      <trkpt lat="48.67713" lon="6.11631">
        <ele>474.4</ele>
        <time>2020-10-03T13:18:56Z</time>
      </trkpt>
      <trkpt lat="48.67712" lon="6.11636">
        <ele>474.4</ele>
        <time>2020-10-03T13:18:57Z</time>
      </trkpt>
      <trkpt lat="48.67711" lon="6.1164">
        <ele>474.4</ele>
        <time>2020-10-03T13:18:58Z</time>
      </trkpt>
      <trkpt lat="48.67711" lon="6.11643">
        <ele>474.4</ele>
        <time>2020-10-03T13:18:59Z</time>
      </trkpt>
      <trkpt lat="48.67712" lon="6.11646">
        <ele>474.6</ele>
        <time>2020-10-03T13:19:00Z</time>
      </trkpt>
      <trkpt lat="48.67713" lon="6.11649">
        <ele>474.4</ele>
        <time>2020-10-03T13:19:01Z</time>
      </trkpt>
      <trkpt lat="48.67714" lon="6.11653">
        <ele>474.6</ele>
        <time>2020-10-03T13:19:02Z</time>
      </trkpt>
      <trkpt lat="48.67714" lon="6.11657">
        <ele>474.8</ele>
        <time>2020-10-03T13:19:03Z</time>
      </trkpt>
      <trkpt lat="48.67713" lon="6.11661">
        <ele>474.8</ele>
        <time>2020-10-03T13:19:04Z</time>
      </trkpt>
      <trkpt lat="48.67714" lon="6.11667">
        <ele>475.2</ele>
        <time>2020-10-03T13:19:05Z</time>
      </trkpt>
      <trkpt lat="48.67713" lon="6.11671">
        <ele>475.6</ele>
        <time>2020-10-03T13:19:06Z</time>
      </trkpt>
      <trkpt lat="48.67714" lon="6.11675">
        <ele>475.8</ele>
        <time>2020-10-03T13:19:07Z</time>
      </trkpt>
      <trkpt lat="48.67714" lon="6.11681">
        <ele>476</ele>
        <time>2020-10-03T13:19:08Z</time>
      </trkpt>
      <trkpt lat="48.67717" lon="6.11684">
        <ele>476.2</ele>
        <time>2020-10-03T13:19:09Z</time>
      </trkpt>
      <trkpt lat="48.67718" lon="6.11687">
        <ele>476.6</ele>
        <time>2020-10-03T13:19:10Z</time>
      </trkpt>
      <trkpt lat="48.67719" lon="6.1169">
        <ele>477</ele>
        <time>2020-10-03T13:19:11Z</time>
      </trkpt>
      <trkpt lat="48.67719" lon="6.11695">
        <ele>477.2</ele>
        <time>2020-10-03T13:19:12Z</time>
      </trkpt>
      <trkpt lat="48.6772" lon="6.11698">
        <ele>477.6</ele>
        <time>2020-10-03T13:19:13Z</time>
      </trkpt>
      <trkpt lat="48.6772" lon="6.11702">
        <ele>477.8</ele>
        <time>2020-10-03T13:19:14Z</time>
      </trkpt>
      <trkpt lat="48.67721" lon="6.11705">
        <ele>478</ele>
        <time>2020-10-03T13:19:15Z</time>
      </trkpt>
      <trkpt lat="48.6772" lon="6.11709">
        <ele>478.2</ele>
        <time>2020-10-03T13:19:16Z</time>
      </trkpt>
      <trkpt lat="48.6772" lon="6.11713">
        <ele>478.6</ele>
        <time>2020-10-03T13:19:17Z</time>
      </trkpt>
      <trkpt lat="48.6772" lon="6.11717">
        <ele>478.8</ele>
        <time>2020-10-03T13:19:18Z</time>
      </trkpt>
      <trkpt lat="48.67719" lon="6.11722">
        <ele>478.8</ele>
        <time>2020-10-03T13:19:19Z</time>
      </trkpt>
      <trkpt lat="48.67718" lon="6.11725">
        <ele>479</ele>
        <time>2020-10-03T13:19:20Z</time>
      </trkpt>
      <trkpt lat="48.67718" lon="6.11728">
        <ele>479.4</ele>
        <time>2020-10-03T13:19:21Z</time>
      </trkpt>
      <trkpt lat="48.67719" lon="6.1173">
        <ele>479.6</ele>
        <time>2020-10-03T13:19:22Z</time>
      </trkpt>
      <trkpt lat="48.67719" lon="6.11734">
        <ele>479.8</ele>
        <time>2020-10-03T13:19:23Z</time>
      </trkpt>
      <trkpt lat="48.67719" lon="6.11739">
        <ele>480.2</ele>
        <time>2020-10-03T13:19:24Z</time>
      </trkpt>
      <trkpt lat="48.67718" lon="6.11743">
        <ele>480.4</ele>
        <time>2020-10-03T13:19:25Z</time>
      </trkpt>
      <trkpt lat="48.67719" lon="6.11748">
        <ele>481</ele>
        <time>2020-10-03T13:19:26Z</time>
      </trkpt>
      <trkpt lat="48.67719" lon="6.11752">
        <ele>481.6</ele>
        <time>2020-10-03T13:19:27Z</time>
      </trkpt>
      <trkpt lat="48.67719" lon="6.11756">
        <ele>481.8</ele>
        <time>2020-10-03T13:19:28Z</time>
      </trkpt>
      <trkpt lat="48.67719" lon="6.11761">
        <ele>482</ele>
        <time>2020-10-03T13:19:29Z</time>
      </trkpt>
      <trkpt lat="48.67719" lon="6.11763">
        <ele>482.2</ele>
        <time>2020-10-03T13:19:30Z</time>
      </trkpt>
      <trkpt lat="48.67718" lon="6.11767">
        <ele>482.6</ele>
        <time>2020-10-03T13:19:31Z</time>
      </trkpt>
      <trkpt lat="48.67717" lon="6.11773">
        <ele>483</ele>
        <time>2020-10-03T13:19:32Z</time>
      </trkpt>
      <trkpt lat="48.67716" lon="6.11777">
        <ele>483</ele>
        <time>2020-10-03T13:19:33Z</time>
      </trkpt>
      <trkpt lat="48.67715" lon="6.11781">
        <ele>483.2</ele>
        <time>2020-10-03T13:19:34Z</time>
      </trkpt>
      <trkpt lat="48.67716" lon="6.11786">
        <ele>483.4</ele>
        <time>2020-10-03T13:19:35Z</time>
      </trkpt>
      <trkpt lat="48.67717" lon="6.1179">
        <ele>483.6</ele>
        <time>2020-10-03T13:19:36Z</time>
      </trkpt>
      <trkpt lat="48.67717" lon="6.11794">
        <ele>483.8</ele>
        <time>2020-10-03T13:19:37Z</time>
      </trkpt>
      <trkpt lat="48.67717" lon="6.11798">
        <ele>484.2</ele>
        <time>2020-10-03T13:19:38Z</time>
      </trkpt>
      <trkpt lat="48.67717" lon="6.11801">
        <ele>484.6</ele>
        <time>2020-10-03T13:19:39Z</time>
      </trkpt>
      <trkpt lat="48.67717" lon="6.11806">
        <ele>484.8</ele>
        <time>2020-10-03T13:19:40Z</time>
      </trkpt>
      <trkpt lat="48.67717" lon="6.11809">
        <ele>485</ele>
        <time>2020-10-03T13:19:41Z</time>
      </trkpt>
      <trkpt lat="48.67717" lon="6.11813">
        <ele>485.2</ele>
        <time>2020-10-03T13:19:42Z</time>
      </trkpt>
      <trkpt lat="48.67717" lon="6.11818">
        <ele>485.6</ele>
        <time>2020-10-03T13:19:43Z</time>
      </trkpt>
      <trkpt lat="48.67718" lon="6.11821">
        <ele>486</ele>
        <time>2020-10-03T13:19:44Z</time>
      </trkpt>
      <trkpt lat="48.67716" lon="6.11825">
        <ele>486.6</ele>
        <time>2020-10-03T13:19:45Z</time>
      </trkpt>
      <trkpt lat="48.67714" lon="6.1183">
        <ele>486.8</ele>
        <time>2020-10-03T13:19:46Z</time>
      </trkpt>
      <trkpt lat="48.67714" lon="6.11835">
        <ele>486.8</ele>
        <time>2020-10-03T13:19:47Z</time>
      </trkpt>
      <trkpt lat="48.67715" lon="6.1184">
        <ele>487</ele>
        <time>2020-10-03T13:19:48Z</time>
      </trkpt>
      <trkpt lat="48.67715" lon="6.11845">
        <ele>487.2</ele>
        <time>2020-10-03T13:19:49Z</time>
      </trkpt>
      <trkpt lat="48.67716" lon="6.1185">
        <ele>487.4</ele>
        <time>2020-10-03T13:19:50Z</time>
      </trkpt>
      <trkpt lat="48.67716" lon="6.11854">
        <ele>487.6</ele>
        <time>2020-10-03T13:19:51Z</time>
      </trkpt>
      <trkpt lat="48.67718" lon="6.11859">
        <ele>487.8</ele>
        <time>2020-10-03T13:19:52Z</time>
      </trkpt>
      <trkpt lat="48.67719" lon="6.11863">
        <ele>488.2</ele>
        <time>2020-10-03T13:19:53Z</time>
      </trkpt>
      <trkpt lat="48.67719" lon="6.11867">
        <ele>488.4</ele>
        <time>2020-10-03T13:19:54Z</time>
      </trkpt>
      <trkpt lat="48.67719" lon="6.11872">
        <ele>488.4</ele>
        <time>2020-10-03T13:19:55Z</time>
      </trkpt>
      <trkpt lat="48.6772" lon="6.11876">
        <ele>488.4</ele>
        <time>2020-10-03T13:19:56Z</time>
      </trkpt>
      <trkpt lat="48.67721" lon="6.11879">
        <ele>488.6</ele>
        <time>2020-10-03T13:19:57Z</time>
      </trkpt>
      <trkpt lat="48.6772" lon="6.11881">
        <ele>488.8</ele>
        <time>2020-10-03T13:19:58Z</time>
      </trkpt>
      <trkpt lat="48.67721" lon="6.11882">
        <ele>488.8</ele>
        <time>2020-10-03T13:19:59Z</time>
      </trkpt>
      <trkpt lat="48.67721" lon="6.11883">
        <ele>488.6</ele>
        <time>2020-10-03T13:20:00Z</time>
      </trkpt>
      <trkpt lat="48.67721" lon="6.11885">
        <ele>488.4</ele>
        <time>2020-10-03T13:20:01Z</time>
      </trkpt>
      <trkpt lat="48.67722" lon="6.11886">
        <ele>488.6</ele>
        <time>2020-10-03T13:20:02Z</time>
      </trkpt>
      <trkpt lat="48.67722" lon="6.11887">
        <ele>488.6</ele>
        <time>2020-10-03T13:20:03Z</time>
      </trkpt>
      <trkpt lat="48.67719" lon="6.11966">
        <ele>489.8</ele>
        <time>2020-10-03T13:22:40Z</time>
      </trkpt>
      <trkpt lat="48.67717" lon="6.11966">
        <ele>490.2</ele>
        <time>2020-10-03T13:22:41Z</time>
      </trkpt>
      <trkpt lat="48.67716" lon="6.11967">
        <ele>490.6</ele>
        <time>2020-10-03T13:22:42Z</time>
      </trkpt>
      <trkpt lat="48.67715" lon="6.11966">
        <ele>491.2</ele>
        <time>2020-10-03T13:22:43Z</time>
      </trkpt>
      <trkpt lat="48.67713" lon="6.11965">
        <ele>491.4</ele>
        <time>2020-10-03T13:22:44Z</time>
      </trkpt>
      <trkpt lat="48.67711" lon="6.11965">
        <ele>491.6</ele>
        <time>2020-10-03T13:22:45Z</time>
      </trkpt>
      <trkpt lat="48.67709" lon="6.11965">
        <ele>492</ele>
        <time>2020-10-03T13:22:46Z</time>
      </trkpt>
      <trkpt lat="48.67708" lon="6.11964">
        <ele>492.2</ele>
        <time>2020-10-03T13:22:47Z</time>
      </trkpt>
      <trkpt lat="48.67706" lon="6.11964">
        <ele>492.2</ele>
        <time>2020-10-03T13:22:48Z</time>
      </trkpt>
      <trkpt lat="48.67704" lon="6.11964">
        <ele>492.2</ele>
        <time>2020-10-03T13:22:49Z</time>
      </trkpt>
      <trkpt lat="48.67702" lon="6.11964">
        <ele>492.4</ele>
        <time>2020-10-03T13:22:50Z</time>
      </trkpt>
      <trkpt lat="48.677" lon="6.11964">
        <ele>492.4</ele>
        <time>2020-10-03T13:22:51Z</time>
      </trkpt>
      <trkpt lat="48.67698" lon="6.11963">
        <ele>492.4</ele>
        <time>2020-10-03T13:22:52Z</time>
      </trkpt>
      <trkpt lat="48.67697" lon="6.11962">
        <ele>492.4</ele>
        <time>2020-10-03T13:22:53Z</time>
      </trkpt>
      <trkpt lat="48.67695" lon="6.11961">
        <ele>492.2</ele>
        <time>2020-10-03T13:22:54Z</time>
      </trkpt>
      <trkpt lat="48.67694" lon="6.11961">
        <ele>492.2</ele>
        <time>2020-10-03T13:22:55Z</time>
      </trkpt>
      <trkpt lat="48.67692" lon="6.11961">
        <ele>492.2</ele>
        <time>2020-10-03T13:22:56Z</time>
      </trkpt>
      <trkpt lat="48.67691" lon="6.11961">
        <ele>492.2</ele>
        <time>2020-10-03T13:22:57Z</time>
      </trkpt>
      <trkpt lat="48.67689" lon="6.1196">
        <ele>492.4</ele>
        <time>2020-10-03T13:22:58Z</time>
      </trkpt>
      <trkpt lat="48.67687" lon="6.11961">
        <ele>492.6</ele>
        <time>2020-10-03T13:22:59Z</time>
      </trkpt>
      <trkpt lat="48.67684" lon="6.11962">
        <ele>492.6</ele>
        <time>2020-10-03T13:23:00Z</time>
      </trkpt>
      <trkpt lat="48.67682" lon="6.11963">
        <ele>492.4</ele>
        <time>2020-10-03T13:23:01Z</time>
      </trkpt>
      <trkpt lat="48.6768" lon="6.11965">
        <ele>492.4</ele>
        <time>2020-10-03T13:23:02Z</time>
      </trkpt>
      <trkpt lat="48.67679" lon="6.11966">
        <ele>492.6</ele>
        <time>2020-10-03T13:23:03Z</time>
      </trkpt>
      <trkpt lat="48.67678" lon="6.11967">
        <ele>493</ele>
        <time>2020-10-03T13:23:04Z</time>
      </trkpt>
      <trkpt lat="48.67678" lon="6.11968">
        <ele>493</ele>
        <time>2020-10-03T13:23:05Z</time>
      </trkpt>
      <trkpt lat="48.67676" lon="6.1197">
        <ele>493</ele>
        <time>2020-10-03T13:23:06Z</time>
      </trkpt>
      <trkpt lat="48.67674" lon="6.11971">
        <ele>493</ele>
        <time>2020-10-03T13:23:07Z</time>
      </trkpt>
      <trkpt lat="48.67673" lon="6.11972">
        <ele>493.2</ele>
        <time>2020-10-03T13:23:08Z</time>
      </trkpt>
      <trkpt lat="48.6767" lon="6.11974">
        <ele>493.4</ele>
        <time>2020-10-03T13:23:09Z</time>
      </trkpt>
      <trkpt lat="48.67668" lon="6.11975">
        <ele>493.4</ele>
        <time>2020-10-03T13:23:10Z</time>
      </trkpt>
      <trkpt lat="48.67666" lon="6.11977">
        <ele>493.6</ele>
        <time>2020-10-03T13:23:11Z</time>
      </trkpt>
      <trkpt lat="48.67664" lon="6.11978">
        <ele>493.4</ele>
        <time>2020-10-03T13:23:12Z</time>
      </trkpt>
      <trkpt lat="48.67663" lon="6.11978">
        <ele>493.6</ele>
        <time>2020-10-03T13:23:13Z</time>
      </trkpt>
      <trkpt lat="48.6766" lon="6.11978">
        <ele>493.8</ele>
        <time>2020-10-03T13:23:14Z</time>
      </trkpt>
      <trkpt lat="48.67657" lon="6.11977">
        <ele>494</ele>
        <time>2020-10-03T13:23:15Z</time>
      </trkpt>
      <trkpt lat="48.67655" lon="6.11977">
        <ele>494</ele>
        <time>2020-10-03T13:23:16Z</time>
      </trkpt>
      <trkpt lat="48.67654" lon="6.11976">
        <ele>494.4</ele>
        <time>2020-10-03T13:23:17Z</time>
      </trkpt>
      <trkpt lat="48.67652" lon="6.11976">
        <ele>494.4</ele>
        <time>2020-10-03T13:23:18Z</time>
      </trkpt>
      <trkpt lat="48.6765" lon="6.11975">
        <ele>494.4</ele>
        <time>2020-10-03T13:23:19Z</time>
      </trkpt>
      <trkpt lat="48.67646" lon="6.11976">
        <ele>494.4</ele>
        <time>2020-10-03T13:23:20Z</time>
      </trkpt>
      <trkpt lat="48.67644" lon="6.11977">
        <ele>494.4</ele>
        <time>2020-10-03T13:23:21Z</time>
      </trkpt>
      <trkpt lat="48.67645" lon="6.11978">
        <ele>494.6</ele>
        <time>2020-10-03T13:23:22Z</time>
      </trkpt>
      <trkpt lat="48.67643" lon="6.11977">
        <ele>494.6</ele>
        <time>2020-10-03T13:23:23Z</time>
      </trkpt>
      <trkpt lat="48.67641" lon="6.11975">
        <ele>494.8</ele>
        <time>2020-10-03T13:23:24Z</time>
      </trkpt>
      <trkpt lat="48.67637" lon="6.11973">
        <ele>494.8</ele>
        <time>2020-10-03T13:23:25Z</time>
      </trkpt>
      <trkpt lat="48.67636" lon="6.11971">
        <ele>494.6</ele>
        <time>2020-10-03T13:23:26Z</time>
      </trkpt>
      <trkpt lat="48.67634" lon="6.11969">
        <ele>494.6</ele>
        <time>2020-10-03T13:23:27Z</time>
      </trkpt>
      <trkpt lat="48.67632" lon="6.11968">
        <ele>494.6</ele>
        <time>2020-10-03T13:23:28Z</time>
      </trkpt>
      <trkpt lat="48.6763" lon="6.11967">
        <ele>494.8</ele>
        <time>2020-10-03T13:23:29Z</time>
      </trkpt>
      <trkpt lat="48.67627" lon="6.11965">
        <ele>495</ele>
        <time>2020-10-03T13:23:30Z</time>
      </trkpt>
      <trkpt lat="48.67625" lon="6.11963">
        <ele>495</ele>
        <time>2020-10-03T13:23:31Z</time>
      </trkpt>
      <trkpt lat="48.67624" lon="6.11962">
        <ele>494.6</ele>
        <time>2020-10-03T13:23:32Z</time>
      </trkpt>
      <trkpt lat="48.67625" lon="6.11961">
        <ele>494.2</ele>
        <time>2020-10-03T13:23:33Z</time>
      </trkpt>
      <trkpt lat="48.67625" lon="6.1196">
        <ele>494.2</ele>
        <time>2020-10-03T13:23:34Z</time>
      </trkpt>
      <trkpt lat="48.67624" lon="6.11959">
        <ele>494.2</ele>
        <time>2020-10-03T13:23:35Z</time>
      </trkpt>
      <trkpt lat="48.67623" lon="6.11958">
        <ele>494</ele>
        <time>2020-10-03T13:23:36Z</time>
      </trkpt>
      <trkpt lat="48.67621" lon="6.11956">
        <ele>494</ele>
        <time>2020-10-03T13:23:37Z</time>
      </trkpt>
      <trkpt lat="48.67619" lon="6.11954">
        <ele>494</ele>
        <time>2020-10-03T13:23:38Z</time>
      </trkpt>
      <trkpt lat="48.67616" lon="6.11953">
        <ele>494.2</ele>
        <time>2020-10-03T13:23:39Z</time>
      </trkpt>
      <trkpt lat="48.67614" lon="6.11953">
        <ele>494.4</ele>
        <time>2020-10-03T13:23:40Z</time>
      </trkpt>
      <trkpt lat="48.67611" lon="6.11954">
        <ele>494.6</ele>
        <time>2020-10-03T13:23:41Z</time>
      </trkpt>
      <trkpt lat="48.67609" lon="6.11955">
        <ele>494.8</ele>
        <time>2020-10-03T13:23:42Z</time>
      </trkpt>
      <trkpt lat="48.67609" lon="6.11957">
        <ele>494.8</ele>
        <time>2020-10-03T13:23:43Z</time>
      </trkpt>
      <trkpt lat="48.67608" lon="6.11958">
        <ele>495</ele>
        <time>2020-10-03T13:23:44Z</time>
      </trkpt>
      <trkpt lat="48.67607" lon="6.11961">
        <ele>495.2</ele>
        <time>2020-10-03T13:23:45Z</time>
      </trkpt>
      <trkpt lat="48.67605" lon="6.11963">
        <ele>495.4</ele>
        <time>2020-10-03T13:23:46Z</time>
      </trkpt>
      <trkpt lat="48.67602" lon="6.11964">
        <ele>495.6</ele>
        <time>2020-10-03T13:23:47Z</time>
      </trkpt>
      <trkpt lat="48.676" lon="6.11965">
        <ele>495.6</ele>
        <time>2020-10-03T13:23:48Z</time>
      </trkpt>
      <trkpt lat="48.67597" lon="6.11967">
        <ele>495.6</ele>
        <time>2020-10-03T13:23:49Z</time>
      </trkpt>
      <trkpt lat="48.67593" lon="6.11968">
        <ele>495.8</ele>
        <time>2020-10-03T13:23:50Z</time>
      </trkpt>
      <trkpt lat="48.67589" lon="6.11967">
        <ele>496</ele>
        <time>2020-10-03T13:23:51Z</time>
      </trkpt>
      <trkpt lat="48.67588" lon="6.11966">
        <ele>496</ele>
        <time>2020-10-03T13:23:52Z</time>
      </trkpt>
      <trkpt lat="48.67585" lon="6.11964">
        <ele>496</ele>
        <time>2020-10-03T13:23:53Z</time>
      </trkpt>
      <trkpt lat="48.67584" lon="6.11962">
        <ele>496.2</ele>
        <time>2020-10-03T13:23:54Z</time>
      </trkpt>
      <trkpt lat="48.67583" lon="6.11959">
        <ele>496.2</ele>
        <time>2020-10-03T13:23:55Z</time>
      </trkpt>
      <trkpt lat="48.67582" lon="6.11956">
        <ele>496.2</ele>
        <time>2020-10-03T13:23:56Z</time>
      </trkpt>
      <trkpt lat="48.6758" lon="6.11952">
        <ele>496.2</ele>
        <time>2020-10-03T13:23:57Z</time>
      </trkpt>
      <trkpt lat="48.67577" lon="6.11948">
        <ele>496.2</ele>
        <time>2020-10-03T13:23:58Z</time>
      </trkpt>
      <trkpt lat="48.67574" lon="6.11944">
        <ele>496.2</ele>
        <time>2020-10-03T13:23:59Z</time>
      </trkpt>
      <trkpt lat="48.67571" lon="6.1194">
        <ele>496.2</ele>
        <time>2020-10-03T13:24:00Z</time>
      </trkpt>
      <trkpt lat="48.67568" lon="6.11937">
        <ele>496.2</ele>
        <time>2020-10-03T13:24:01Z</time>
      </trkpt>
      <trkpt lat="48.67565" lon="6.11932">
        <ele>496</ele>
        <time>2020-10-03T13:24:02Z</time>
      </trkpt>
      <trkpt lat="48.67563" lon="6.11928">
        <ele>496.2</ele>
        <time>2020-10-03T13:24:03Z</time>
      </trkpt>
      <trkpt lat="48.6756" lon="6.11925">
        <ele>496.4</ele>
        <time>2020-10-03T13:24:04Z</time>
      </trkpt>
      <trkpt lat="48.67557" lon="6.11921">
        <ele>496.6</ele>
        <time>2020-10-03T13:24:05Z</time>
      </trkpt>
      <trkpt lat="48.67553" lon="6.11917">
        <ele>496.4</ele>
        <time>2020-10-03T13:24:06Z</time>
      </trkpt>
      <trkpt lat="48.67551" lon="6.11912">
        <ele>496.4</ele>
        <time>2020-10-03T13:24:07Z</time>
      </trkpt>
      <trkpt lat="48.67548" lon="6.11909">
        <ele>496.6</ele>
        <time>2020-10-03T13:24:08Z</time>
      </trkpt>
      <trkpt lat="48.67546" lon="6.11904">
        <ele>496.4</ele>
        <time>2020-10-03T13:24:09Z</time>
      </trkpt>
      <trkpt lat="48.67545" lon="6.11901">
        <ele>496.2</ele>
        <time>2020-10-03T13:24:10Z</time>
      </trkpt>
      <trkpt lat="48.67542" lon="6.11898">
        <ele>496</ele>
        <time>2020-10-03T13:24:11Z</time>
      </trkpt>
      <trkpt lat="48.6754" lon="6.11895">
        <ele>496</ele>
        <time>2020-10-03T13:24:12Z</time>
      </trkpt>
      <trkpt lat="48.67537" lon="6.11892">
        <ele>495.8</ele>
        <time>2020-10-03T13:24:13Z</time>
      </trkpt>
      <trkpt lat="48.67536" lon="6.1189">
        <ele>495.8</ele>
        <time>2020-10-03T13:24:14Z</time>
      </trkpt>
      <trkpt lat="48.67535" lon="6.11887">
        <ele>495.8</ele>
        <time>2020-10-03T13:24:15Z</time>
      </trkpt>
      <trkpt lat="48.67534" lon="6.11884">
        <ele>495.8</ele>
        <time>2020-10-03T13:24:16Z</time>
      </trkpt>
      <trkpt lat="48.67532" lon="6.11881">
        <ele>495.8</ele>
        <time>2020-10-03T13:24:17Z</time>
      </trkpt>
      <trkpt lat="48.67529" lon="6.11877">
        <ele>495.8</ele>
        <time>2020-10-03T13:24:18Z</time>
      </trkpt>
      <trkpt lat="48.67527" lon="6.11874">
        <ele>495.8</ele>
        <time>2020-10-03T13:24:19Z</time>
      </trkpt>
      <trkpt lat="48.67524" lon="6.11869">
        <ele>495.8</ele>
        <time>2020-10-03T13:24:20Z</time>
      </trkpt>
      <trkpt lat="48.67522" lon="6.11865">
        <ele>495.8</ele>
        <time>2020-10-03T13:24:21Z</time>
      </trkpt>
      <trkpt lat="48.6752" lon="6.11862">
        <ele>495.8</ele>
        <time>2020-10-03T13:24:22Z</time>
      </trkpt>
      <trkpt lat="48.67518" lon="6.11859">
        <ele>495.8</ele>
        <time>2020-10-03T13:24:23Z</time>
      </trkpt>
      <trkpt lat="48.67516" lon="6.11858">
        <ele>495.8</ele>
        <time>2020-10-03T13:24:24Z</time>
      </trkpt>
      <trkpt lat="48.67515" lon="6.11856">
        <ele>496</ele>
        <time>2020-10-03T13:24:25Z</time>
      </trkpt>
      <trkpt lat="48.67513" lon="6.11857">
        <ele>496.2</ele>
        <time>2020-10-03T13:24:26Z</time>
      </trkpt>
      <trkpt lat="48.6751" lon="6.11857">
        <ele>496.4</ele>
        <time>2020-10-03T13:24:27Z</time>
      </trkpt>
      <trkpt lat="48.67508" lon="6.11856">
        <ele>496.4</ele>
        <time>2020-10-03T13:24:28Z</time>
      </trkpt>
      <trkpt lat="48.67505" lon="6.11855">
        <ele>496.2</ele>
        <time>2020-10-03T13:24:29Z</time>
      </trkpt>
      <trkpt lat="48.67502" lon="6.11852">
        <ele>496.2</ele>
        <time>2020-10-03T13:24:30Z</time>
      </trkpt>
      <trkpt lat="48.67499" lon="6.11849">
        <ele>496.2</ele>
        <time>2020-10-03T13:24:31Z</time>
      </trkpt>
      <trkpt lat="48.67496" lon="6.11849">
        <ele>496.2</ele>
        <time>2020-10-03T13:24:32Z</time>
      </trkpt>
      <trkpt lat="48.67493" lon="6.1185">
        <ele>496.4</ele>
        <time>2020-10-03T13:24:33Z</time>
      </trkpt>
      <trkpt lat="48.6749" lon="6.11852">
        <ele>496.4</ele>
        <time>2020-10-03T13:24:34Z</time>
      </trkpt>
      <trkpt lat="48.67488" lon="6.11854">
        <ele>496.4</ele>
        <time>2020-10-03T13:24:35Z</time>
      </trkpt>
      <trkpt lat="48.67487" lon="6.11856">
        <ele>496.6</ele>
        <time>2020-10-03T13:24:36Z</time>
      </trkpt>
      <trkpt lat="48.67487" lon="6.11858">
        <ele>496.8</ele>
        <time>2020-10-03T13:24:37Z</time>
      </trkpt>
      <trkpt lat="48.67484" lon="6.11859">
        <ele>496.8</ele>
        <time>2020-10-03T13:24:38Z</time>
      </trkpt>
      <trkpt lat="48.67481" lon="6.11859">
        <ele>496.8</ele>
        <time>2020-10-03T13:24:39Z</time>
      </trkpt>
      <trkpt lat="48.67478" lon="6.11859">
        <ele>496.8</ele>
        <time>2020-10-03T13:24:40Z</time>
      </trkpt>
      <trkpt lat="48.67475" lon="6.11861">
        <ele>497.2</ele>
        <time>2020-10-03T13:24:41Z</time>
      </trkpt>
      <trkpt lat="48.67473" lon="6.11862">
        <ele>497.4</ele>
        <time>2020-10-03T13:24:42Z</time>
      </trkpt>
      <trkpt lat="48.67471" lon="6.11863">
        <ele>497.2</ele>
        <time>2020-10-03T13:24:43Z</time>
      </trkpt>
      <trkpt lat="48.67469" lon="6.11864">
        <ele>497.2</ele>
        <time>2020-10-03T13:24:44Z</time>
      </trkpt>
      <trkpt lat="48.67466" lon="6.11865">
        <ele>497.2</ele>
        <time>2020-10-03T13:24:45Z</time>
      </trkpt>
      <trkpt lat="48.67463" lon="6.11867">
        <ele>497.2</ele>
        <time>2020-10-03T13:24:46Z</time>
      </trkpt>
      <trkpt lat="48.67462" lon="6.11867">
        <ele>497.4</ele>
        <time>2020-10-03T13:24:47Z</time>
      </trkpt>
      <trkpt lat="48.67461" lon="6.11868">
        <ele>497.6</ele>
        <time>2020-10-03T13:24:48Z</time>
      </trkpt>
      <trkpt lat="48.67458" lon="6.11869">
        <ele>497.6</ele>
        <time>2020-10-03T13:24:49Z</time>
      </trkpt>
      <trkpt lat="48.67455" lon="6.1187">
        <ele>497.6</ele>
        <time>2020-10-03T13:24:50Z</time>
      </trkpt>
      <trkpt lat="48.67453" lon="6.11871">
        <ele>497.8</ele>
        <time>2020-10-03T13:24:51Z</time>
      </trkpt>
      <trkpt lat="48.6745" lon="6.11871">
        <ele>498</ele>
        <time>2020-10-03T13:24:52Z</time>
      </trkpt>
      <trkpt lat="48.67448" lon="6.11873">
        <ele>498</ele>
        <time>2020-10-03T13:24:53Z</time>
      </trkpt>
      <trkpt lat="48.67447" lon="6.11874">
        <ele>497.8</ele>
        <time>2020-10-03T13:24:54Z</time>
      </trkpt>
      <trkpt lat="48.67445" lon="6.11875">
        <ele>497.8</ele>
        <time>2020-10-03T13:24:55Z</time>
      </trkpt>
      <trkpt lat="48.67442" lon="6.11877">
        <ele>498</ele>
        <time>2020-10-03T13:24:56Z</time>
      </trkpt>
      <trkpt lat="48.6744" lon="6.11879">
        <ele>498.2</ele>
        <time>2020-10-03T13:24:57Z</time>
      </trkpt>
      <trkpt lat="48.67438" lon="6.11881">
        <ele>498.4</ele>
        <time>2020-10-03T13:24:58Z</time>
      </trkpt>
      <trkpt lat="48.67436" lon="6.11882">
        <ele>498.4</ele>
        <time>2020-10-03T13:24:59Z</time>
      </trkpt>
      <trkpt lat="48.67436" lon="6.11883">
        <ele>498.4</ele>
        <time>2020-10-03T13:25:00Z</time>
      </trkpt>
      <trkpt lat="48.67435" lon="6.11885">
        <ele>498.2</ele>
        <time>2020-10-03T13:25:01Z</time>
      </trkpt>
      <trkpt lat="48.67434" lon="6.11888">
        <ele>498.6</ele>
        <time>2020-10-03T13:25:02Z</time>
      </trkpt>
      <trkpt lat="48.67433" lon="6.11889">
        <ele>498.8</ele>
        <time>2020-10-03T13:25:03Z</time>
      </trkpt>
      <trkpt lat="48.67432" lon="6.11891">
        <ele>499</ele>
        <time>2020-10-03T13:25:04Z</time>
      </trkpt>
      <trkpt lat="48.67431" lon="6.11893">
        <ele>498.8</ele>
        <time>2020-10-03T13:25:05Z</time>
      </trkpt>
      <trkpt lat="48.67431" lon="6.11895">
        <ele>498.8</ele>
        <time>2020-10-03T13:25:06Z</time>
      </trkpt>
      <trkpt lat="48.67431" lon="6.11897">
        <ele>498.6</ele>
        <time>2020-10-03T13:25:07Z</time>
      </trkpt>
      <trkpt lat="48.6743" lon="6.11899">
        <ele>498.8</ele>
        <time>2020-10-03T13:25:08Z</time>
      </trkpt>
      <trkpt lat="48.67429" lon="6.11901">
        <ele>499</ele>
        <time>2020-10-03T13:25:09Z</time>
      </trkpt>
      <trkpt lat="48.67428" lon="6.11904">
        <ele>499</ele>
        <time>2020-10-03T13:25:10Z</time>
      </trkpt>
      <trkpt lat="48.67426" lon="6.11907">
        <ele>498.8</ele>
        <time>2020-10-03T13:25:11Z</time>
      </trkpt>
      <trkpt lat="48.67426" lon="6.11907">
        <ele>498.8</ele>
        <time>2020-10-03T13:25:12Z</time>
      </trkpt>
      <trkpt lat="48.67426" lon="6.11908">
        <ele>499</ele>
        <time>2020-10-03T13:25:13Z</time>
      </trkpt>
      <trkpt lat="48.67425" lon="6.1191">
        <ele>499.2</ele>
        <time>2020-10-03T13:25:14Z</time>
      </trkpt>
      <trkpt lat="48.67425" lon="6.11912">
        <ele>499</ele>
        <time>2020-10-03T13:25:15Z</time>
      </trkpt>
      <trkpt lat="48.67424" lon="6.11914">
        <ele>499</ele>
        <time>2020-10-03T13:25:16Z</time>
      </trkpt>
      <trkpt lat="48.67423" lon="6.11917">
        <ele>499</ele>
        <time>2020-10-03T13:25:17Z</time>
      </trkpt>
      <trkpt lat="48.67422" lon="6.1192">
        <ele>499.2</ele>
        <time>2020-10-03T13:25:18Z</time>
      </trkpt>
      <trkpt lat="48.67422" lon="6.11921">
        <ele>499.4</ele>
        <time>2020-10-03T13:25:19Z</time>
      </trkpt>
      <trkpt lat="48.67422" lon="6.11923">
        <ele>499.4</ele>
        <time>2020-10-03T13:25:20Z</time>
      </trkpt>
      <trkpt lat="48.67422" lon="6.11926">
        <ele>499.4</ele>
        <time>2020-10-03T13:25:21Z</time>
      </trkpt>
      <trkpt lat="48.67421" lon="6.11928">
        <ele>499.4</ele>
        <time>2020-10-03T13:25:22Z</time>
      </trkpt>
      <trkpt lat="48.67421" lon="6.1193">
        <ele>499.6</ele>
        <time>2020-10-03T13:25:23Z</time>
      </trkpt>
      <trkpt lat="48.6742" lon="6.11933">
        <ele>499.8</ele>
        <time>2020-10-03T13:25:24Z</time>
      </trkpt>
      <trkpt lat="48.6742" lon="6.11936">
        <ele>499.8</ele>
        <time>2020-10-03T13:25:25Z</time>
      </trkpt>
      <trkpt lat="48.6742" lon="6.11938">
        <ele>499.8</ele>
        <time>2020-10-03T13:25:26Z</time>
      </trkpt>
      <trkpt lat="48.67421" lon="6.1194">
        <ele>500</ele>
        <time>2020-10-03T13:25:27Z</time>
      </trkpt>
      <trkpt lat="48.6742" lon="6.11943">
        <ele>500.2</ele>
        <time>2020-10-03T13:25:28Z</time>
      </trkpt>
      <trkpt lat="48.67419" lon="6.11946">
        <ele>500.4</ele>
        <time>2020-10-03T13:25:29Z</time>
      </trkpt>
      <trkpt lat="48.67418" lon="6.1195">
        <ele>500.4</ele>
        <time>2020-10-03T13:25:30Z</time>
      </trkpt>
      <trkpt lat="48.67418" lon="6.11954">
        <ele>500.6</ele>
        <time>2020-10-03T13:25:31Z</time>
      </trkpt>
      <trkpt lat="48.67417" lon="6.11957">
        <ele>500.8</ele>
        <time>2020-10-03T13:25:32Z</time>
      </trkpt>
      <trkpt lat="48.67417" lon="6.1196">
        <ele>501</ele>
        <time>2020-10-03T13:25:33Z</time>
      </trkpt>
      <trkpt lat="48.67417" lon="6.11964">
        <ele>501</ele>
        <time>2020-10-03T13:25:34Z</time>
      </trkpt>
      <trkpt lat="48.67415" lon="6.11968">
        <ele>501</ele>
        <time>2020-10-03T13:25:35Z</time>
      </trkpt>
      <trkpt lat="48.67414" lon="6.1197">
        <ele>501.2</ele>
        <time>2020-10-03T13:25:36Z</time>
      </trkpt>
      <trkpt lat="48.67413" lon="6.11972">
        <ele>501.2</ele>
        <time>2020-10-03T13:25:37Z</time>
      </trkpt>
      <trkpt lat="48.67412" lon="6.11975">
        <ele>501</ele>
        <time>2020-10-03T13:25:38Z</time>
      </trkpt>
      <trkpt lat="48.67411" lon="6.11978">
        <ele>501.2</ele>
        <time>2020-10-03T13:25:39Z</time>
      </trkpt>
      <trkpt lat="48.67411" lon="6.11981">
        <ele>501.4</ele>
        <time>2020-10-03T13:25:40Z</time>
      </trkpt>
      <trkpt lat="48.67411" lon="6.11984">
        <ele>501.4</ele>
        <time>2020-10-03T13:25:41Z</time>
      </trkpt>
      <trkpt lat="48.6741" lon="6.11985">
        <ele>501.4</ele>
        <time>2020-10-03T13:25:42Z</time>
      </trkpt>
      <trkpt lat="48.6741" lon="6.11988">
        <ele>501.4</ele>
        <time>2020-10-03T13:25:43Z</time>
      </trkpt>
      <trkpt lat="48.67408" lon="6.1199">
        <ele>501.4</ele>
        <time>2020-10-03T13:25:44Z</time>
      </trkpt>
      <trkpt lat="48.67407" lon="6.11993">
        <ele>501.4</ele>
        <time>2020-10-03T13:25:45Z</time>
      </trkpt>
      <trkpt lat="48.67406" lon="6.11995">
        <ele>501.6</ele>
        <time>2020-10-03T13:25:46Z</time>
      </trkpt>
      <trkpt lat="48.67405" lon="6.11997">
        <ele>501.6</ele>
        <time>2020-10-03T13:25:47Z</time>
      </trkpt>
      <trkpt lat="48.67405" lon="6.12001">
        <ele>501.6</ele>
        <time>2020-10-03T13:25:48Z</time>
      </trkpt>
      <trkpt lat="48.67406" lon="6.12004">
        <ele>501.8</ele>
        <time>2020-10-03T13:25:49Z</time>
      </trkpt>
      <trkpt lat="48.67407" lon="6.12007">
        <ele>502</ele>
        <time>2020-10-03T13:25:50Z</time>
      </trkpt>
      <trkpt lat="48.67407" lon="6.12009">
        <ele>502.2</ele>
        <time>2020-10-03T13:25:51Z</time>
      </trkpt>
      <trkpt lat="48.67408" lon="6.12013">
        <ele>502.2</ele>
        <time>2020-10-03T13:25:52Z</time>
      </trkpt>
      <trkpt lat="48.67406" lon="6.12018">
        <ele>502.4</ele>
        <time>2020-10-03T13:25:53Z</time>
      </trkpt>
      <trkpt lat="48.67406" lon="6.12023">
        <ele>502.6</ele>
        <time>2020-10-03T13:25:54Z</time>
      </trkpt>
      <trkpt lat="48.67406" lon="6.12029">
        <ele>502.8</ele>
        <time>2020-10-03T13:25:55Z</time>
      </trkpt>
      <trkpt lat="48.67407" lon="6.12034">
        <ele>502.8</ele>
        <time>2020-10-03T13:25:56Z</time>
      </trkpt>
      <trkpt lat="48.67408" lon="6.12039">
        <ele>502.8</ele>
        <time>2020-10-03T13:25:57Z</time>
      </trkpt>
      <trkpt lat="48.67407" lon="6.12044">
        <ele>503</ele>
        <time>2020-10-03T13:25:58Z</time>
      </trkpt>
      <trkpt lat="48.67407" lon="6.12049">
        <ele>503.2</ele>
        <time>2020-10-03T13:25:59Z</time>
      </trkpt>
      <trkpt lat="48.67406" lon="6.12054">
        <ele>503.8</ele>
        <time>2020-10-03T13:26:00Z</time>
      </trkpt>
      <trkpt lat="48.67407" lon="6.12057">
        <ele>504.2</ele>
        <time>2020-10-03T13:26:01Z</time>
      </trkpt>
      <trkpt lat="48.67406" lon="6.12059">
        <ele>504.2</ele>
        <time>2020-10-03T13:26:02Z</time>
      </trkpt>
      <trkpt lat="48.67406" lon="6.12061">
        <ele>504.4</ele>
        <time>2020-10-03T13:26:03Z</time>
      </trkpt>
      <trkpt lat="48.67405" lon="6.12063">
        <ele>504.4</ele>
        <time>2020-10-03T13:26:04Z</time>
      </trkpt>
      <trkpt lat="48.67405" lon="6.12066">
        <ele>504.6</ele>
        <time>2020-10-03T13:26:05Z</time>
      </trkpt>
      <trkpt lat="48.67405" lon="6.12067">
        <ele>504.6</ele>
        <time>2020-10-03T13:26:06Z</time>
      </trkpt>
      <trkpt lat="48.67397" lon="6.12101">
        <ele>505.6</ele>
        <time>2020-10-03T13:26:28Z</time>
      </trkpt>
      <trkpt lat="48.67397" lon="6.12104">
        <ele>505.8</ele>
        <time>2020-10-03T13:26:29Z</time>
      </trkpt>
      <trkpt lat="48.67397" lon="6.12107">
        <ele>506</ele>
        <time>2020-10-03T13:26:30Z</time>
      </trkpt>
      <trkpt lat="48.67397" lon="6.1211">
        <ele>506</ele>
        <time>2020-10-03T13:26:31Z</time>
      </trkpt>
      <trkpt lat="48.67397" lon="6.12114">
        <ele>506</ele>
        <time>2020-10-03T13:26:32Z</time>
      </trkpt>
      <trkpt lat="48.67397" lon="6.12118">
        <ele>506</ele>
        <time>2020-10-03T13:26:33Z</time>
      </trkpt>
      <trkpt lat="48.67397" lon="6.12122">
        <ele>506</ele>
        <time>2020-10-03T13:26:34Z</time>
      </trkpt>
      <trkpt lat="48.67398" lon="6.12125">
        <ele>506.2</ele>
        <time>2020-10-03T13:26:35Z</time>
      </trkpt>
      <trkpt lat="48.67398" lon="6.12129">
        <ele>506</ele>
        <time>2020-10-03T13:26:36Z</time>
      </trkpt>
      <trkpt lat="48.67399" lon="6.12133">
        <ele>506</ele>
        <time>2020-10-03T13:26:37Z</time>
      </trkpt>
      <trkpt lat="48.67399" lon="6.12137">
        <ele>505.8</ele>
        <time>2020-10-03T13:26:38Z</time>
      </trkpt>
      <trkpt lat="48.67399" lon="6.12141">
        <ele>505.6</ele>
        <time>2020-10-03T13:26:39Z</time>
      </trkpt>
      <trkpt lat="48.674" lon="6.12144">
        <ele>505.4</ele>
        <time>2020-10-03T13:26:40Z</time>
      </trkpt>
      <trkpt lat="48.674" lon="6.12148">
        <ele>505.2</ele>
        <time>2020-10-03T13:26:41Z</time>
      </trkpt>
      <trkpt lat="48.67401" lon="6.12153">
        <ele>505</ele>
        <time>2020-10-03T13:26:42Z</time>
      </trkpt>
      <trkpt lat="48.67402" lon="6.12157">
        <ele>504.8</ele>
        <time>2020-10-03T13:26:43Z</time>
      </trkpt>
      <trkpt lat="48.67403" lon="6.12161">
        <ele>504.6</ele>
        <time>2020-10-03T13:26:44Z</time>
      </trkpt>
      <trkpt lat="48.67404" lon="6.12165">
        <ele>504.4</ele>
        <time>2020-10-03T13:26:45Z</time>
      </trkpt>
      <trkpt lat="48.67405" lon="6.12168">
        <ele>504.2</ele>
        <time>2020-10-03T13:26:46Z</time>
      </trkpt>
      <trkpt lat="48.67406" lon="6.12171">
        <ele>504</ele>
        <time>2020-10-03T13:26:47Z</time>
      </trkpt>
      <trkpt lat="48.67406" lon="6.12174">
        <ele>504</ele>
        <time>2020-10-03T13:26:48Z</time>
      </trkpt>
      <trkpt lat="48.67405" lon="6.12176">
        <ele>504</ele>
        <time>2020-10-03T13:26:49Z</time>
      </trkpt>
      <trkpt lat="48.67402" lon="6.12178">
        <ele>504.2</ele>
        <time>2020-10-03T13:26:50Z</time>
      </trkpt>
      <trkpt lat="48.674" lon="6.12178">
        <ele>504.2</ele>
        <time>2020-10-03T13:26:51Z</time>
      </trkpt>
      <trkpt lat="48.67397" lon="6.12179">
        <ele>504.4</ele>
        <time>2020-10-03T13:26:52Z</time>
      </trkpt>
      <trkpt lat="48.67395" lon="6.12179">
        <ele>504.4</ele>
        <time>2020-10-03T13:26:53Z</time>
      </trkpt>
      <trkpt lat="48.67392" lon="6.1218">
        <ele>504.4</ele>
        <time>2020-10-03T13:26:54Z</time>
      </trkpt>
      <trkpt lat="48.6739" lon="6.12181">
        <ele>504.4</ele>
        <time>2020-10-03T13:26:55Z</time>
      </trkpt>
      <trkpt lat="48.67388" lon="6.12182">
        <ele>504.6</ele>
        <time>2020-10-03T13:26:56Z</time>
      </trkpt>
      <trkpt lat="48.67386" lon="6.12182">
        <ele>504.4</ele>
        <time>2020-10-03T13:26:57Z</time>
      </trkpt>
      <trkpt lat="48.67383" lon="6.12183">
        <ele>504.2</ele>
        <time>2020-10-03T13:26:58Z</time>
      </trkpt>
      <trkpt lat="48.67381" lon="6.12184">
        <ele>504.2</ele>
        <time>2020-10-03T13:26:59Z</time>
      </trkpt>
      <trkpt lat="48.67379" lon="6.12185">
        <ele>504.4</ele>
        <time>2020-10-03T13:27:00Z</time>
      </trkpt>
      <trkpt lat="48.67378" lon="6.12187">
        <ele>504.8</ele>
        <time>2020-10-03T13:27:01Z</time>
      </trkpt>
      <trkpt lat="48.67377" lon="6.1219">
        <ele>504.8</ele>
        <time>2020-10-03T13:27:02Z</time>
      </trkpt>
      <trkpt lat="48.67377" lon="6.12193">
        <ele>504.6</ele>
        <time>2020-10-03T13:27:03Z</time>
      </trkpt>
      <trkpt lat="48.67376" lon="6.12198">
        <ele>504.6</ele>
        <time>2020-10-03T13:27:04Z</time>
      </trkpt>
      <trkpt lat="48.67376" lon="6.12202">
        <ele>504.6</ele>
        <time>2020-10-03T13:27:05Z</time>
      </trkpt>
      <trkpt lat="48.67376" lon="6.12206">
        <ele>504.6</ele>
        <time>2020-10-03T13:27:06Z</time>
      </trkpt>
      <trkpt lat="48.67376" lon="6.1221">
        <ele>504.6</ele>
        <time>2020-10-03T13:27:07Z</time>
      </trkpt>
      <trkpt lat="48.67376" lon="6.12213">
        <ele>504.6</ele>
        <time>2020-10-03T13:27:08Z</time>
      </trkpt>
      <trkpt lat="48.67376" lon="6.12216">
        <ele>504.8</ele>
        <time>2020-10-03T13:27:09Z</time>
      </trkpt>
      <trkpt lat="48.67376" lon="6.12219">
        <ele>505</ele>
        <time>2020-10-03T13:27:10Z</time>
      </trkpt>
      <trkpt lat="48.67377" lon="6.12223">
        <ele>505.2</ele>
        <time>2020-10-03T13:27:11Z</time>
      </trkpt>
      <trkpt lat="48.67377" lon="6.12227">
        <ele>505.2</ele>
        <time>2020-10-03T13:27:12Z</time>
      </trkpt>
      <trkpt lat="48.67378" lon="6.1223">
        <ele>505.4</ele>
        <time>2020-10-03T13:27:13Z</time>
      </trkpt>
      <trkpt lat="48.67378" lon="6.12234">
        <ele>505.4</ele>
        <time>2020-10-03T13:27:14Z</time>
      </trkpt>
      <trkpt lat="48.67379" lon="6.12237">
        <ele>505.2</ele>
        <time>2020-10-03T13:27:15Z</time>
      </trkpt>
      <trkpt lat="48.67379" lon="6.12241">
        <ele>505.2</ele>
        <time>2020-10-03T13:27:16Z</time>
      </trkpt>
      <trkpt lat="48.6738" lon="6.12244">
        <ele>505.2</ele>
        <time>2020-10-03T13:27:17Z</time>
      </trkpt>
      <trkpt lat="48.6738" lon="6.12248">
        <ele>505.4</ele>
        <time>2020-10-03T13:27:18Z</time>
      </trkpt>
      <trkpt lat="48.6738" lon="6.12251">
        <ele>505.6</ele>
        <time>2020-10-03T13:27:19Z</time>
      </trkpt>
      <trkpt lat="48.67379" lon="6.12254">
        <ele>505.8</ele>
        <time>2020-10-03T13:27:20Z</time>
      </trkpt>
      <trkpt lat="48.67379" lon="6.12257">
        <ele>505.8</ele>
        <time>2020-10-03T13:27:21Z</time>
      </trkpt>
      <trkpt lat="48.67377" lon="6.1226">
        <ele>505.8</ele>
        <time>2020-10-03T13:27:22Z</time>
      </trkpt>
      <trkpt lat="48.67378" lon="6.12263">
        <ele>505.8</ele>
        <time>2020-10-03T13:27:23Z</time>
      </trkpt>
      <trkpt lat="48.67378" lon="6.12266">
        <ele>505.8</ele>
        <time>2020-10-03T13:27:24Z</time>
      </trkpt>
      <trkpt lat="48.67378" lon="6.12268">
        <ele>505.8</ele>
        <time>2020-10-03T13:27:25Z</time>
      </trkpt>
      <trkpt lat="48.67378" lon="6.12271">
        <ele>505.8</ele>
        <time>2020-10-03T13:27:26Z</time>
      </trkpt>
      <trkpt lat="48.67378" lon="6.12275">
        <ele>505.8</ele>
        <time>2020-10-03T13:27:27Z</time>
      </trkpt>
      <trkpt lat="48.67379" lon="6.12279">
        <ele>505.8</ele>
        <time>2020-10-03T13:27:28Z</time>
      </trkpt>
      <trkpt lat="48.67379" lon="6.12282">
        <ele>505.8</ele>
        <time>2020-10-03T13:27:29Z</time>
      </trkpt>
      <trkpt lat="48.67379" lon="6.12286">
        <ele>505.8</ele>
        <time>2020-10-03T13:27:30Z</time>
      </trkpt>
      <trkpt lat="48.6738" lon="6.1229">
        <ele>505.8</ele>
        <time>2020-10-03T13:27:31Z</time>
      </trkpt>
      <trkpt lat="48.6738" lon="6.12296">
        <ele>506.2</ele>
        <time>2020-10-03T13:27:32Z</time>
      </trkpt>
      <trkpt lat="48.6738" lon="6.123">
        <ele>506.2</ele>
        <time>2020-10-03T13:27:33Z</time>
      </trkpt>
      <trkpt lat="48.67379" lon="6.12304">
        <ele>506</ele>
        <time>2020-10-03T13:27:34Z</time>
      </trkpt>
      <trkpt lat="48.67379" lon="6.12307">
        <ele>506</ele>
        <time>2020-10-03T13:27:35Z</time>
      </trkpt>
      <trkpt lat="48.67378" lon="6.1231">
        <ele>506</ele>
        <time>2020-10-03T13:27:36Z</time>
      </trkpt>
      <trkpt lat="48.67378" lon="6.12313">
        <ele>506</ele>
        <time>2020-10-03T13:27:37Z</time>
      </trkpt>
      <trkpt lat="48.67378" lon="6.12315">
        <ele>506</ele>
        <time>2020-10-03T13:27:38Z</time>
      </trkpt>
      <trkpt lat="48.67378" lon="6.12318">
        <ele>505.8</ele>
        <time>2020-10-03T13:27:39Z</time>
      </trkpt>
      <trkpt lat="48.67378" lon="6.12321">
        <ele>505.8</ele>
        <time>2020-10-03T13:27:40Z</time>
      </trkpt>
      <trkpt lat="48.67378" lon="6.12325">
        <ele>506</ele>
        <time>2020-10-03T13:27:41Z</time>
      </trkpt>
      <trkpt lat="48.67378" lon="6.12329">
        <ele>506</ele>
        <time>2020-10-03T13:27:42Z</time>
      </trkpt>
      <trkpt lat="48.67377" lon="6.12332">
        <ele>506.2</ele>
        <time>2020-10-03T13:27:43Z</time>
      </trkpt>
      <trkpt lat="48.67376" lon="6.12335">
        <ele>506.2</ele>
        <time>2020-10-03T13:27:44Z</time>
      </trkpt>
      <trkpt lat="48.67377" lon="6.1234">
        <ele>506.2</ele>
        <time>2020-10-03T13:27:45Z</time>
      </trkpt>
      <trkpt lat="48.67376" lon="6.12343">
        <ele>506.2</ele>
        <time>2020-10-03T13:27:46Z</time>
      </trkpt>
      <trkpt lat="48.67376" lon="6.12347">
        <ele>506.2</ele>
        <time>2020-10-03T13:27:47Z</time>
      </trkpt>
      <trkpt lat="48.67376" lon="6.12352">
        <ele>506.2</ele>
        <time>2020-10-03T13:27:48Z</time>
      </trkpt>
      <trkpt lat="48.67377" lon="6.12357">
        <ele>506.2</ele>
        <time>2020-10-03T13:27:49Z</time>
      </trkpt>
      <trkpt lat="48.67378" lon="6.12361">
        <ele>506.2</ele>
        <time>2020-10-03T13:27:50Z</time>
      </trkpt>
      <trkpt lat="48.67378" lon="6.12366">
        <ele>506</ele>
        <time>2020-10-03T13:27:51Z</time>
      </trkpt>
      <trkpt lat="48.67379" lon="6.1237">
        <ele>505.8</ele>
        <time>2020-10-03T13:27:52Z</time>
      </trkpt>
      <trkpt lat="48.67379" lon="6.12374">
        <ele>505.8</ele>
        <time>2020-10-03T13:27:53Z</time>
      </trkpt>
      <trkpt lat="48.67378" lon="6.12379">
        <ele>505.6</ele>
        <time>2020-10-03T13:27:54Z</time>
      </trkpt>
      <trkpt lat="48.67379" lon="6.12383">
        <ele>505.6</ele>
        <time>2020-10-03T13:27:55Z</time>
      </trkpt>
      <trkpt lat="48.67379" lon="6.12387">
        <ele>505.6</ele>
        <time>2020-10-03T13:27:56Z</time>
      </trkpt>
      <trkpt lat="48.67378" lon="6.12392">
        <ele>505.6</ele>
        <time>2020-10-03T13:27:57Z</time>
      </trkpt>
      <trkpt lat="48.67379" lon="6.12394">
        <ele>505.6</ele>
        <time>2020-10-03T13:27:58Z</time>
      </trkpt>
      <trkpt lat="48.67379" lon="6.12399">
        <ele>505.6</ele>
        <time>2020-10-03T13:27:59Z</time>
      </trkpt>
      <trkpt lat="48.6738" lon="6.12402">
        <ele>505.8</ele>
        <time>2020-10-03T13:28:00Z</time>
      </trkpt>
      <trkpt lat="48.6738" lon="6.12407">
        <ele>506</ele>
        <time>2020-10-03T13:28:01Z</time>
      </trkpt>
      <trkpt lat="48.67379" lon="6.12414">
        <ele>506</ele>
        <time>2020-10-03T13:28:02Z</time>
      </trkpt>
      <trkpt lat="48.67377" lon="6.12418">
        <ele>505.8</ele>
        <time>2020-10-03T13:28:03Z</time>
      </trkpt>
      <trkpt lat="48.67377" lon="6.12422">
        <ele>506</ele>
        <time>2020-10-03T13:28:04Z</time>
      </trkpt>
      <trkpt lat="48.67377" lon="6.12426">
        <ele>506</ele>
        <time>2020-10-03T13:28:05Z</time>
      </trkpt>
      <trkpt lat="48.67378" lon="6.1243">
        <ele>506.2</ele>
        <time>2020-10-03T13:28:06Z</time>
      </trkpt>
      <trkpt lat="48.67379" lon="6.12434">
        <ele>506.2</ele>
        <time>2020-10-03T13:28:07Z</time>
      </trkpt>
      <trkpt lat="48.6738" lon="6.12437">
        <ele>506.2</ele>
        <time>2020-10-03T13:28:08Z</time>
      </trkpt>
      <trkpt lat="48.67379" lon="6.1244">
        <ele>506</ele>
        <time>2020-10-03T13:28:09Z</time>
      </trkpt>
      <trkpt lat="48.6738" lon="6.12442">
        <ele>506</ele>
        <time>2020-10-03T13:28:10Z</time>
      </trkpt>
      <trkpt lat="48.67383" lon="6.12445">
        <ele>506</ele>
        <time>2020-10-03T13:28:11Z</time>
      </trkpt>
      <trkpt lat="48.67384" lon="6.1245">
        <ele>506</ele>
        <time>2020-10-03T13:28:12Z</time>
      </trkpt>
      <trkpt lat="48.67386" lon="6.12454">
        <ele>506</ele>
        <time>2020-10-03T13:28:13Z</time>
      </trkpt>
      <trkpt lat="48.67388" lon="6.1246">
        <ele>506</ele>
        <time>2020-10-03T13:28:14Z</time>
      </trkpt>
      <trkpt lat="48.67387" lon="6.12465">
        <ele>506</ele>
        <time>2020-10-03T13:28:15Z</time>
      </trkpt>
      <trkpt lat="48.67388" lon="6.12469">
        <ele>506</ele>
        <time>2020-10-03T13:28:16Z</time>
      </trkpt>
      <trkpt lat="48.67388" lon="6.12475">
        <ele>506</ele>
        <time>2020-10-03T13:28:17Z</time>
      </trkpt>
      <trkpt lat="48.67387" lon="6.12479">
        <ele>506</ele>
        <time>2020-10-03T13:28:18Z</time>
      </trkpt>
      <trkpt lat="48.67388" lon="6.12482">
        <ele>506</ele>
        <time>2020-10-03T13:28:19Z</time>
      </trkpt>
      <trkpt lat="48.67387" lon="6.12487">
        <ele>505.6</ele>
        <time>2020-10-03T13:28:20Z</time>
      </trkpt>
      <trkpt lat="48.67387" lon="6.1249">
        <ele>505.6</ele>
        <time>2020-10-03T13:28:21Z</time>
      </trkpt>
      <trkpt lat="48.67387" lon="6.12495">
        <ele>505.8</ele>
        <time>2020-10-03T13:28:22Z</time>
      </trkpt>
      <trkpt lat="48.67387" lon="6.12499">
        <ele>505.8</ele>
        <time>2020-10-03T13:28:23Z</time>
      </trkpt>
      <trkpt lat="48.6739" lon="6.12502">
        <ele>505.8</ele>
        <time>2020-10-03T13:28:24Z</time>
      </trkpt>
      <trkpt lat="48.6739" lon="6.12505">
        <ele>505.8</ele>
        <time>2020-10-03T13:28:25Z</time>
      </trkpt>
      <trkpt lat="48.67389" lon="6.12509">
        <ele>506</ele>
        <time>2020-10-03T13:28:26Z</time>
      </trkpt>
      <trkpt lat="48.67389" lon="6.12515">
        <ele>506</ele>
        <time>2020-10-03T13:28:27Z</time>
      </trkpt>
      <trkpt lat="48.67389" lon="6.1252">
        <ele>506</ele>
        <time>2020-10-03T13:28:28Z</time>
      </trkpt>
      <trkpt lat="48.67389" lon="6.12523">
        <ele>506</ele>
        <time>2020-10-03T13:28:29Z</time>
      </trkpt>
      <trkpt lat="48.67389" lon="6.12527">
        <ele>506.2</ele>
        <time>2020-10-03T13:28:30Z</time>
      </trkpt>
      <trkpt lat="48.67388" lon="6.12531">
        <ele>506.2</ele>
        <time>2020-10-03T13:28:31Z</time>
      </trkpt>
      <trkpt lat="48.67387" lon="6.12535">
        <ele>506.4</ele>
        <time>2020-10-03T13:28:32Z</time>
      </trkpt>
      <trkpt lat="48.67387" lon="6.12539">
        <ele>506.2</ele>
        <time>2020-10-03T13:28:33Z</time>
      </trkpt>
      <trkpt lat="48.67387" lon="6.12544">
        <ele>506.2</ele>
        <time>2020-10-03T13:28:34Z</time>
      </trkpt>
      <trkpt lat="48.67386" lon="6.12549">
        <ele>506.2</ele>
        <time>2020-10-03T13:28:35Z</time>
      </trkpt>
      <trkpt lat="48.67384" lon="6.12553">
        <ele>506.4</ele>
        <time>2020-10-03T13:28:36Z</time>
      </trkpt>
      <trkpt lat="48.67384" lon="6.12557">
        <ele>506.2</ele>
        <time>2020-10-03T13:28:37Z</time>
      </trkpt>
      <trkpt lat="48.67384" lon="6.12561">
        <ele>506.2</ele>
        <time>2020-10-03T13:28:38Z</time>
      </trkpt>
      <trkpt lat="48.67387" lon="6.12566">
        <ele>506.2</ele>
        <time>2020-10-03T13:28:39Z</time>
      </trkpt>
      <trkpt lat="48.67388" lon="6.12569">
        <ele>506</ele>
        <time>2020-10-03T13:28:40Z</time>
      </trkpt>
      <trkpt lat="48.67388" lon="6.12572">
        <ele>506</ele>
        <time>2020-10-03T13:28:41Z</time>
      </trkpt>
      <trkpt lat="48.67388" lon="6.12575">
        <ele>505.8</ele>
        <time>2020-10-03T13:28:42Z</time>
      </trkpt>
      <trkpt lat="48.67388" lon="6.12578">
        <ele>505.8</ele>
        <time>2020-10-03T13:28:43Z</time>
      </trkpt>
      <trkpt lat="48.67387" lon="6.1258">
        <ele>505.8</ele>
        <time>2020-10-03T13:28:44Z</time>
      </trkpt>
      <trkpt lat="48.67384" lon="6.12583">
        <ele>505.8</ele>
        <time>2020-10-03T13:28:45Z</time>
      </trkpt>
      <trkpt lat="48.67381" lon="6.12585">
        <ele>505.8</ele>
        <time>2020-10-03T13:28:46Z</time>
      </trkpt>
      <trkpt lat="48.67377" lon="6.12587">
        <ele>505.8</ele>
        <time>2020-10-03T13:28:47Z</time>
      </trkpt>
      <trkpt lat="48.67373" lon="6.1259">
        <ele>506</ele>
        <time>2020-10-03T13:28:48Z</time>
      </trkpt>
      <trkpt lat="48.6737" lon="6.1259">
        <ele>506.2</ele>
        <time>2020-10-03T13:28:49Z</time>
      </trkpt>
      <trkpt lat="48.67368" lon="6.12591">
        <ele>506.4</ele>
        <time>2020-10-03T13:28:50Z</time>
      </trkpt>
      <trkpt lat="48.67366" lon="6.12592">
        <ele>506.4</ele>
        <time>2020-10-03T13:28:51Z</time>
      </trkpt>
      <trkpt lat="48.67362" lon="6.12592">
        <ele>506.6</ele>
        <time>2020-10-03T13:28:52Z</time>
      </trkpt>
      <trkpt lat="48.67359" lon="6.12593">
        <ele>506.6</ele>
        <time>2020-10-03T13:28:53Z</time>
      </trkpt>
      <trkpt lat="48.67358" lon="6.12594">
        <ele>506.6</ele>
        <time>2020-10-03T13:28:54Z</time>
      </trkpt>
      <trkpt lat="48.67355" lon="6.12595">
        <ele>506.6</ele>
        <time>2020-10-03T13:28:55Z</time>
      </trkpt>
      <trkpt lat="48.67351" lon="6.12595">
        <ele>506.8</ele>
        <time>2020-10-03T13:28:56Z</time>
      </trkpt>
      <trkpt lat="48.67347" lon="6.12595">
        <ele>506.6</ele>
        <time>2020-10-03T13:28:57Z</time>
      </trkpt>
      <trkpt lat="48.67343" lon="6.12595">
        <ele>506.8</ele>
        <time>2020-10-03T13:28:58Z</time>
      </trkpt>
      <trkpt lat="48.67341" lon="6.12594">
        <ele>506.8</ele>
        <time>2020-10-03T13:28:59Z</time>
      </trkpt>
      <trkpt lat="48.67337" lon="6.12595">
        <ele>506.8</ele>
        <time>2020-10-03T13:29:00Z</time>
      </trkpt>
      <trkpt lat="48.67334" lon="6.12594">
        <ele>506.6</ele>
        <time>2020-10-03T13:29:01Z</time>
      </trkpt>
      <trkpt lat="48.67331" lon="6.12594">
        <ele>506.6</ele>
        <time>2020-10-03T13:29:02Z</time>
      </trkpt>
      <trkpt lat="48.67327" lon="6.12594">
        <ele>506.8</ele>
        <time>2020-10-03T13:29:03Z</time>
      </trkpt>
      <trkpt lat="48.67322" lon="6.12594">
        <ele>507</ele>
        <time>2020-10-03T13:29:04Z</time>
      </trkpt>
      <trkpt lat="48.67317" lon="6.12594">
        <ele>507</ele>
        <time>2020-10-03T13:29:05Z</time>
      </trkpt>
      <trkpt lat="48.67314" lon="6.12594">
        <ele>507</ele>
        <time>2020-10-03T13:29:06Z</time>
      </trkpt>
      <trkpt lat="48.67311" lon="6.12593">
        <ele>507.2</ele>
        <time>2020-10-03T13:29:07Z</time>
      </trkpt>
      <trkpt lat="48.67306" lon="6.12595">
        <ele>507.4</ele>
        <time>2020-10-03T13:29:08Z</time>
      </trkpt>
      <trkpt lat="48.67302" lon="6.12596">
        <ele>507.4</ele>
        <time>2020-10-03T13:29:09Z</time>
      </trkpt>
      <trkpt lat="48.67296" lon="6.12596">
        <ele>507.2</ele>
        <time>2020-10-03T13:29:10Z</time>
      </trkpt>
      <trkpt lat="48.67292" lon="6.12597">
        <ele>507.2</ele>
        <time>2020-10-03T13:29:11Z</time>
      </trkpt>
      <trkpt lat="48.67287" lon="6.12598">
        <ele>507.2</ele>
        <time>2020-10-03T13:29:12Z</time>
      </trkpt>
      <trkpt lat="48.67283" lon="6.12598">
        <ele>507.2</ele>
        <time>2020-10-03T13:29:13Z</time>
      </trkpt>
      <trkpt lat="48.67279" lon="6.12597">
        <ele>507.4</ele>
        <time>2020-10-03T13:29:14Z</time>
      </trkpt>
      <trkpt lat="48.67277" lon="6.12597">
        <ele>507.4</ele>
        <time>2020-10-03T13:29:15Z</time>
      </trkpt>
      <trkpt lat="48.67272" lon="6.12596">
        <ele>507.4</ele>
        <time>2020-10-03T13:29:16Z</time>
      </trkpt>
      <trkpt lat="48.67268" lon="6.12596">
        <ele>507.4</ele>
        <time>2020-10-03T13:29:17Z</time>
      </trkpt>
      <trkpt lat="48.67262" lon="6.12595">
        <ele>507.4</ele>
        <time>2020-10-03T13:29:18Z</time>
      </trkpt>
      <trkpt lat="48.67257" lon="6.12595">
        <ele>507.4</ele>
        <time>2020-10-03T13:29:19Z</time>
      </trkpt>
      <trkpt lat="48.67253" lon="6.12594">
        <ele>507.4</ele>
        <time>2020-10-03T13:29:20Z</time>
      </trkpt>
      <trkpt lat="48.67248" lon="6.12594">
        <ele>507.4</ele>
        <time>2020-10-03T13:29:21Z</time>
      </trkpt>
      <trkpt lat="48.67244" lon="6.12594">
        <ele>507.6</ele>
        <time>2020-10-03T13:29:22Z</time>
      </trkpt>
      <trkpt lat="48.67239" lon="6.12593">
        <ele>507.8</ele>
        <time>2020-10-03T13:29:23Z</time>
      </trkpt>
      <trkpt lat="48.67236" lon="6.12592">
        <ele>507.8</ele>
        <time>2020-10-03T13:29:24Z</time>
      </trkpt>
      <trkpt lat="48.6723" lon="6.12593">
        <ele>507.8</ele>
        <time>2020-10-03T13:29:25Z</time>
      </trkpt>
      <trkpt lat="48.67225" lon="6.12595">
        <ele>507.8</ele>
        <time>2020-10-03T13:29:26Z</time>
      </trkpt>
      <trkpt lat="48.6722" lon="6.12595">
        <ele>507.8</ele>
        <time>2020-10-03T13:29:27Z</time>
      </trkpt>
      <trkpt lat="48.67215" lon="6.12596">
        <ele>507.8</ele>
        <time>2020-10-03T13:29:28Z</time>
      </trkpt>
      <trkpt lat="48.67211" lon="6.12597">
        <ele>508</ele>
        <time>2020-10-03T13:29:29Z</time>
      </trkpt>
      <trkpt lat="48.67208" lon="6.12598">
        <ele>508.2</ele>
        <time>2020-10-03T13:29:30Z</time>
      </trkpt>
      <trkpt lat="48.67204" lon="6.12599">
        <ele>508.4</ele>
        <time>2020-10-03T13:29:31Z</time>
      </trkpt>
      <trkpt lat="48.67201" lon="6.12601">
        <ele>508.4</ele>
        <time>2020-10-03T13:29:32Z</time>
      </trkpt>
      <trkpt lat="48.67196" lon="6.12603">
        <ele>508.4</ele>
        <time>2020-10-03T13:29:33Z</time>
      </trkpt>
      <trkpt lat="48.67193" lon="6.12605">
        <ele>508.4</ele>
        <time>2020-10-03T13:29:34Z</time>
      </trkpt>
      <trkpt lat="48.6719" lon="6.12608">
        <ele>508.4</ele>
        <time>2020-10-03T13:29:35Z</time>
      </trkpt>
      <trkpt lat="48.67188" lon="6.1261">
        <ele>508.6</ele>
        <time>2020-10-03T13:29:36Z</time>
      </trkpt>
      <trkpt lat="48.67186" lon="6.12611">
        <ele>508.8</ele>
        <time>2020-10-03T13:29:37Z</time>
      </trkpt>
      <trkpt lat="48.67183" lon="6.12612">
        <ele>508.8</ele>
        <time>2020-10-03T13:29:38Z</time>
      </trkpt>
      <trkpt lat="48.67179" lon="6.12614">
        <ele>508.8</ele>
        <time>2020-10-03T13:29:39Z</time>
      </trkpt>
      <trkpt lat="48.67176" lon="6.12616">
        <ele>508.8</ele>
        <time>2020-10-03T13:29:40Z</time>
      </trkpt>
      <trkpt lat="48.6717" lon="6.12619">
        <ele>509.2</ele>
        <time>2020-10-03T13:29:41Z</time>
      </trkpt>
      <trkpt lat="48.67167" lon="6.12621">
        <ele>509.6</ele>
        <time>2020-10-03T13:29:42Z</time>
      </trkpt>
      <trkpt lat="48.67165" lon="6.12622">
        <ele>509.8</ele>
        <time>2020-10-03T13:29:43Z</time>
      </trkpt>
      <trkpt lat="48.67161" lon="6.12624">
        <ele>509.6</ele>
        <time>2020-10-03T13:29:44Z</time>
      </trkpt>
      <trkpt lat="48.67158" lon="6.12625">
        <ele>509.6</ele>
        <time>2020-10-03T13:29:45Z</time>
      </trkpt>
      <trkpt lat="48.67156" lon="6.12626">
        <ele>509.6</ele>
        <time>2020-10-03T13:29:46Z</time>
      </trkpt>
      <trkpt lat="48.67152" lon="6.1263">
        <ele>509.4</ele>
        <time>2020-10-03T13:29:47Z</time>
      </trkpt>
      <trkpt lat="48.67146" lon="6.12633">
        <ele>509.6</ele>
        <time>2020-10-03T13:29:48Z</time>
      </trkpt>
      <trkpt lat="48.6714" lon="6.12637">
        <ele>510</ele>
        <time>2020-10-03T13:29:49Z</time>
      </trkpt>
      <trkpt lat="48.67135" lon="6.12641">
        <ele>510</ele>
        <time>2020-10-03T13:29:50Z</time>
      </trkpt>
      <trkpt lat="48.67132" lon="6.12643">
        <ele>510</ele>
        <time>2020-10-03T13:29:51Z</time>
      </trkpt>
      <trkpt lat="48.67129" lon="6.12644">
        <ele>510</ele>
        <time>2020-10-03T13:29:52Z</time>
      </trkpt>
      <trkpt lat="48.67126" lon="6.12646">
        <ele>510.2</ele>
        <time>2020-10-03T13:29:53Z</time>
      </trkpt>
      <trkpt lat="48.67121" lon="6.12648">
        <ele>510.4</ele>
        <time>2020-10-03T13:29:54Z</time>
      </trkpt>
      <trkpt lat="48.67121" lon="6.12648">
        <ele>510.8</ele>
        <time>2020-10-03T13:29:55Z</time>
      </trkpt>
      <trkpt lat="48.67115" lon="6.12654">
        <ele>511</ele>
        <time>2020-10-03T13:29:56Z</time>
      </trkpt>
      <trkpt lat="48.67115" lon="6.12654">
        <ele>511</ele>
        <time>2020-10-03T13:29:57Z</time>
      </trkpt>
      <trkpt lat="48.6711" lon="6.12656">
        <ele>511</ele>
        <time>2020-10-03T13:29:58Z</time>
      </trkpt>
      <trkpt lat="48.6711" lon="6.12656">
        <ele>511.2</ele>
        <time>2020-10-03T13:29:59Z</time>
      </trkpt>
      <trkpt lat="48.67101" lon="6.12661">
        <ele>511.4</ele>
        <time>2020-10-03T13:30:00Z</time>
      </trkpt>
      <trkpt lat="48.67101" lon="6.12661">
        <ele>511.4</ele>
        <time>2020-10-03T13:30:01Z</time>
      </trkpt>
      <trkpt lat="48.67094" lon="6.12666">
        <ele>511.4</ele>
        <time>2020-10-03T13:30:02Z</time>
      </trkpt>
      <trkpt lat="48.67087" lon="6.12674">
        <ele>511.6</ele>
        <time>2020-10-03T13:30:03Z</time>
      </trkpt>
      <trkpt lat="48.67084" lon="6.12677">
        <ele>511.6</ele>
        <time>2020-10-03T13:30:04Z</time>
      </trkpt>
      <trkpt lat="48.67081" lon="6.12682">
        <ele>511.6</ele>
        <time>2020-10-03T13:30:05Z</time>
      </trkpt>
      <trkpt lat="48.67074" lon="6.12687">
        <ele>511.4</ele>
        <time>2020-10-03T13:30:06Z</time>
      </trkpt>
      <trkpt lat="48.67072" lon="6.12691">
        <ele>511.2</ele>
        <time>2020-10-03T13:30:07Z</time>
      </trkpt>
      <trkpt lat="48.67067" lon="6.12694">
        <ele>511.2</ele>
        <time>2020-10-03T13:30:08Z</time>
      </trkpt>
      <trkpt lat="48.67064" lon="6.12696">
        <ele>511.4</ele>
        <time>2020-10-03T13:30:09Z</time>
      </trkpt>
      <trkpt lat="48.67061" lon="6.12699">
        <ele>511.4</ele>
        <time>2020-10-03T13:30:10Z</time>
      </trkpt>
      <trkpt lat="48.67058" lon="6.12701">
        <ele>511.4</ele>
        <time>2020-10-03T13:30:11Z</time>
      </trkpt>
      <trkpt lat="48.67056" lon="6.12702">
        <ele>511.4</ele>
        <time>2020-10-03T13:30:12Z</time>
      </trkpt>
      <trkpt lat="48.67053" lon="6.12705">
        <ele>511.6</ele>
        <time>2020-10-03T13:30:13Z</time>
      </trkpt>
      <trkpt lat="48.6705" lon="6.12709">
        <ele>511.6</ele>
        <time>2020-10-03T13:30:14Z</time>
      </trkpt>
      <trkpt lat="48.67046" lon="6.12712">
        <ele>511.4</ele>
        <time>2020-10-03T13:30:15Z</time>
      </trkpt>
      <trkpt lat="48.67044" lon="6.12715">
        <ele>511.4</ele>
        <time>2020-10-03T13:30:16Z</time>
      </trkpt>
      <trkpt lat="48.67043" lon="6.12716">
        <ele>511.4</ele>
        <time>2020-10-03T13:30:17Z</time>
      </trkpt>
      <trkpt lat="48.67041" lon="6.12718">
        <ele>511.4</ele>
        <time>2020-10-03T13:30:18Z</time>
      </trkpt>
      <trkpt lat="48.67039" lon="6.12719">
        <ele>511.4</ele>
        <time>2020-10-03T13:30:19Z</time>
      </trkpt>
      <trkpt lat="48.67036" lon="6.12721">
        <ele>511.2</ele>
        <time>2020-10-03T13:30:20Z</time>
      </trkpt>
      <trkpt lat="48.67033" lon="6.12723">
        <ele>511.2</ele>
        <time>2020-10-03T13:30:21Z</time>
      </trkpt>
      <trkpt lat="48.6703" lon="6.12725">
        <ele>511.2</ele>
        <time>2020-10-03T13:30:22Z</time>
      </trkpt>
      <trkpt lat="48.67028" lon="6.12727">
        <ele>511.4</ele>
        <time>2020-10-03T13:30:23Z</time>
      </trkpt>
      <trkpt lat="48.67026" lon="6.12728">
        <ele>511.6</ele>
        <time>2020-10-03T13:30:24Z</time>
      </trkpt>
      <trkpt lat="48.67022" lon="6.12731">
        <ele>511.6</ele>
        <time>2020-10-03T13:30:25Z</time>
      </trkpt>
      <trkpt lat="48.6702" lon="6.12733">
        <ele>511.6</ele>
        <time>2020-10-03T13:30:26Z</time>
      </trkpt>
      <trkpt lat="48.67017" lon="6.12735">
        <ele>511.6</ele>
        <time>2020-10-03T13:30:27Z</time>
      </trkpt>
      <trkpt lat="48.67015" lon="6.12736">
        <ele>511.6</ele>
        <time>2020-10-03T13:30:28Z</time>
      </trkpt>
      <trkpt lat="48.67012" lon="6.12738">
        <ele>511.6</ele>
        <time>2020-10-03T13:30:29Z</time>
      </trkpt>
      <trkpt lat="48.67009" lon="6.12739">
        <ele>511.6</ele>
        <time>2020-10-03T13:30:30Z</time>
      </trkpt>
      <trkpt lat="48.67006" lon="6.12741">
        <ele>511.6</ele>
        <time>2020-10-03T13:30:31Z</time>
      </trkpt>
      <trkpt lat="48.67004" lon="6.12742">
        <ele>511.8</ele>
        <time>2020-10-03T13:30:32Z</time>
      </trkpt>
      <trkpt lat="48.67002" lon="6.12743">
        <ele>511.6</ele>
        <time>2020-10-03T13:30:33Z</time>
      </trkpt>
      <trkpt lat="48.67" lon="6.12745">
        <ele>511.6</ele>
        <time>2020-10-03T13:30:34Z</time>
      </trkpt>
      <trkpt lat="48.66998" lon="6.12747">
        <ele>511.6</ele>
        <time>2020-10-03T13:30:35Z</time>
      </trkpt>
      <trkpt lat="48.66996" lon="6.12748">
        <ele>511.6</ele>
        <time>2020-10-03T13:30:36Z</time>
      </trkpt>
      <trkpt lat="48.66994" lon="6.12749">
        <ele>511.6</ele>
        <time>2020-10-03T13:30:37Z</time>
      </trkpt>
      <trkpt lat="48.66993" lon="6.1275">
        <ele>511.6</ele>
        <time>2020-10-03T13:30:38Z</time>
      </trkpt>
      <trkpt lat="48.66991" lon="6.12751">
        <ele>511.8</ele>
        <time>2020-10-03T13:30:39Z</time>
      </trkpt>
      <trkpt lat="48.6696" lon="6.12769">
        <ele>512.2</ele>
        <time>2020-10-03T13:30:57Z</time>
      </trkpt>
      <trkpt lat="48.66957" lon="6.1277">
        <ele>512.4</ele>
        <time>2020-10-03T13:30:58Z</time>
      </trkpt>
      <trkpt lat="48.66955" lon="6.12772">
        <ele>512.4</ele>
        <time>2020-10-03T13:30:59Z</time>
      </trkpt>
      <trkpt lat="48.66953" lon="6.12773">
        <ele>512.4</ele>
        <time>2020-10-03T13:31:00Z</time>
      </trkpt>
      <trkpt lat="48.66952" lon="6.12775">
        <ele>512.2</ele>
        <time>2020-10-03T13:31:01Z</time>
      </trkpt>
      <trkpt lat="48.6695" lon="6.12777">
        <ele>512.4</ele>
        <time>2020-10-03T13:31:02Z</time>
      </trkpt>
      <trkpt lat="48.6695" lon="6.12778">
        <ele>512.6</ele>
        <time>2020-10-03T13:31:03Z</time>
      </trkpt>
      <trkpt lat="48.66949" lon="6.12779">
        <ele>512.6</ele>
        <time>2020-10-03T13:31:04Z</time>
      </trkpt>
      <trkpt lat="48.66947" lon="6.1278">
        <ele>512.6</ele>
        <time>2020-10-03T13:31:05Z</time>
      </trkpt>
      <trkpt lat="48.66946" lon="6.12781">
        <ele>512.6</ele>
        <time>2020-10-03T13:31:06Z</time>
      </trkpt>
      <trkpt lat="48.66944" lon="6.12784">
        <ele>512.6</ele>
        <time>2020-10-03T13:31:07Z</time>
      </trkpt>
      <trkpt lat="48.66944" lon="6.12786">
        <ele>512.8</ele>
        <time>2020-10-03T13:31:08Z</time>
      </trkpt>
      <trkpt lat="48.66944" lon="6.12789">
        <ele>512.8</ele>
        <time>2020-10-03T13:31:09Z</time>
      </trkpt>
      <trkpt lat="48.66943" lon="6.12792">
        <ele>512.8</ele>
        <time>2020-10-03T13:31:10Z</time>
      </trkpt>
      <trkpt lat="48.66942" lon="6.12795">
        <ele>512.8</ele>
        <time>2020-10-03T13:31:11Z</time>
      </trkpt>
      <trkpt lat="48.6694" lon="6.12798">
        <ele>512.8</ele>
        <time>2020-10-03T13:31:12Z</time>
      </trkpt>
      <trkpt lat="48.66938" lon="6.12802">
        <ele>512.8</ele>
        <time>2020-10-03T13:31:13Z</time>
      </trkpt>
      <trkpt lat="48.66934" lon="6.12806">
        <ele>512.8</ele>
        <time>2020-10-03T13:31:14Z</time>
      </trkpt>
      <trkpt lat="48.66933" lon="6.12809">
        <ele>513</ele>
        <time>2020-10-03T13:31:15Z</time>
      </trkpt>
      <trkpt lat="48.66933" lon="6.12811">
        <ele>513</ele>
        <time>2020-10-03T13:31:16Z</time>
      </trkpt>
      <trkpt lat="48.66933" lon="6.12814">
        <ele>512.8</ele>
        <time>2020-10-03T13:31:17Z</time>
      </trkpt>
      <trkpt lat="48.6693" lon="6.12816">
        <ele>512.8</ele>
        <time>2020-10-03T13:31:18Z</time>
      </trkpt>
      <trkpt lat="48.66926" lon="6.12819">
        <ele>512.8</ele>
        <time>2020-10-03T13:31:19Z</time>
      </trkpt>
      <trkpt lat="48.66925" lon="6.1282">
        <ele>512.8</ele>
        <time>2020-10-03T13:31:20Z</time>
      </trkpt>
      <trkpt lat="48.66922" lon="6.12824">
        <ele>513</ele>
        <time>2020-10-03T13:31:21Z</time>
      </trkpt>
      <trkpt lat="48.6692" lon="6.12828">
        <ele>513</ele>
        <time>2020-10-03T13:31:22Z</time>
      </trkpt>
      <trkpt lat="48.66916" lon="6.12832">
        <ele>513.2</ele>
        <time>2020-10-03T13:31:23Z</time>
      </trkpt>
      <trkpt lat="48.66913" lon="6.12834">
        <ele>513.2</ele>
        <time>2020-10-03T13:31:24Z</time>
      </trkpt>
      <trkpt lat="48.66911" lon="6.12835">
        <ele>513.4</ele>
        <time>2020-10-03T13:31:25Z</time>
      </trkpt>
      <trkpt lat="48.66906" lon="6.12838">
        <ele>513.4</ele>
        <time>2020-10-03T13:31:26Z</time>
      </trkpt>
      <trkpt lat="48.66903" lon="6.1284">
        <ele>513.2</ele>
        <time>2020-10-03T13:31:27Z</time>
      </trkpt>
      <trkpt lat="48.66901" lon="6.12841">
        <ele>513.4</ele>
        <time>2020-10-03T13:31:28Z</time>
      </trkpt>
      <trkpt lat="48.66895" lon="6.12843">
        <ele>513.6</ele>
        <time>2020-10-03T13:31:29Z</time>
      </trkpt>
      <trkpt lat="48.66892" lon="6.12844">
        <ele>513.4</ele>
        <time>2020-10-03T13:31:30Z</time>
      </trkpt>
      <trkpt lat="48.66889" lon="6.12845">
        <ele>513.4</ele>
        <time>2020-10-03T13:31:31Z</time>
      </trkpt>
      <trkpt lat="48.66884" lon="6.12846">
        <ele>513.4</ele>
        <time>2020-10-03T13:31:32Z</time>
      </trkpt>
      <trkpt lat="48.66881" lon="6.12849">
        <ele>513.6</ele>
        <time>2020-10-03T13:31:33Z</time>
      </trkpt>
      <trkpt lat="48.66877" lon="6.12851">
        <ele>513.6</ele>
        <time>2020-10-03T13:31:34Z</time>
      </trkpt>
      <trkpt lat="48.66869" lon="6.12854">
        <ele>513.8</ele>
        <time>2020-10-03T13:31:35Z</time>
      </trkpt>
      <trkpt lat="48.66865" lon="6.12858">
        <ele>513.8</ele>
        <time>2020-10-03T13:31:36Z</time>
      </trkpt>
      <trkpt lat="48.6686" lon="6.12863">
        <ele>514</ele>
        <time>2020-10-03T13:31:37Z</time>
      </trkpt>
      <trkpt lat="48.66856" lon="6.12867">
        <ele>514</ele>
        <time>2020-10-03T13:31:38Z</time>
      </trkpt>
      <trkpt lat="48.66854" lon="6.12871">
        <ele>514</ele>
        <time>2020-10-03T13:31:39Z</time>
      </trkpt>
      <trkpt lat="48.66851" lon="6.12876">
        <ele>514.2</ele>
        <time>2020-10-03T13:31:40Z</time>
      </trkpt>
      <trkpt lat="48.6685" lon="6.1288">
        <ele>514</ele>
        <time>2020-10-03T13:31:41Z</time>
      </trkpt>
      <trkpt lat="48.66849" lon="6.12885">
        <ele>514</ele>
        <time>2020-10-03T13:31:42Z</time>
      </trkpt>
      <trkpt lat="48.66848" lon="6.12889">
        <ele>514</ele>
        <time>2020-10-03T13:31:43Z</time>
      </trkpt>
      <trkpt lat="48.66846" lon="6.12894">
        <ele>513.8</ele>
        <time>2020-10-03T13:31:44Z</time>
      </trkpt>
      <trkpt lat="48.66845" lon="6.12898">
        <ele>513.8</ele>
        <time>2020-10-03T13:31:45Z</time>
      </trkpt>
      <trkpt lat="48.66844" lon="6.12901">
        <ele>513.6</ele>
        <time>2020-10-03T13:31:46Z</time>
      </trkpt>
      <trkpt lat="48.66842" lon="6.12905">
        <ele>513.4</ele>
        <time>2020-10-03T13:31:47Z</time>
      </trkpt>
      <trkpt lat="48.6684" lon="6.12908">
        <ele>513.2</ele>
        <time>2020-10-03T13:31:48Z</time>
      </trkpt>
      <trkpt lat="48.66837" lon="6.12912">
        <ele>513</ele>
        <time>2020-10-03T13:31:49Z</time>
      </trkpt>
      <trkpt lat="48.66833" lon="6.12915">
        <ele>513</ele>
        <time>2020-10-03T13:31:50Z</time>
      </trkpt>
      <trkpt lat="48.66829" lon="6.12917">
        <ele>513.2</ele>
        <time>2020-10-03T13:31:51Z</time>
      </trkpt>
      <trkpt lat="48.66823" lon="6.12921">
        <ele>513.2</ele>
        <time>2020-10-03T13:31:52Z</time>
      </trkpt>
      <trkpt lat="48.66819" lon="6.12925">
        <ele>513</ele>
        <time>2020-10-03T13:31:53Z</time>
      </trkpt>
      <trkpt lat="48.66814" lon="6.12929">
        <ele>512.8</ele>
        <time>2020-10-03T13:31:54Z</time>
      </trkpt>
      <trkpt lat="48.6681" lon="6.12933">
        <ele>512.6</ele>
        <time>2020-10-03T13:31:55Z</time>
      </trkpt>
      <trkpt lat="48.66804" lon="6.12937">
        <ele>512.4</ele>
        <time>2020-10-03T13:31:56Z</time>
      </trkpt>
      <trkpt lat="48.66799" lon="6.12944">
        <ele>512.2</ele>
        <time>2020-10-03T13:31:57Z</time>
      </trkpt>
      <trkpt lat="48.66794" lon="6.12948">
        <ele>512.2</ele>
        <time>2020-10-03T13:31:58Z</time>
      </trkpt>
      <trkpt lat="48.6679" lon="6.12951">
        <ele>512</ele>
        <time>2020-10-03T13:31:59Z</time>
      </trkpt>
      <trkpt lat="48.66785" lon="6.12954">
        <ele>511.8</ele>
        <time>2020-10-03T13:32:00Z</time>
      </trkpt>
      <trkpt lat="48.66781" lon="6.12959">
        <ele>511.6</ele>
        <time>2020-10-03T13:32:01Z</time>
      </trkpt>
      <trkpt lat="48.66779" lon="6.12964">
        <ele>511.4</ele>
        <time>2020-10-03T13:32:02Z</time>
      </trkpt>
      <trkpt lat="48.66779" lon="6.12968">
        <ele>511.4</ele>
        <time>2020-10-03T13:32:03Z</time>
      </trkpt>
      <trkpt lat="48.66779" lon="6.12974">
        <ele>511.4</ele>
        <time>2020-10-03T13:32:04Z</time>
      </trkpt>
      <trkpt lat="48.66779" lon="6.12979">
        <ele>511.4</ele>
        <time>2020-10-03T13:32:05Z</time>
      </trkpt>
      <trkpt lat="48.66779" lon="6.12984">
        <ele>511.2</ele>
        <time>2020-10-03T13:32:06Z</time>
      </trkpt>
      <trkpt lat="48.66779" lon="6.1299">
        <ele>511</ele>
        <time>2020-10-03T13:32:07Z</time>
      </trkpt>
      <trkpt lat="48.66779" lon="6.12995">
        <ele>510.6</ele>
        <time>2020-10-03T13:32:08Z</time>
      </trkpt>
      <trkpt lat="48.66778" lon="6.13">
        <ele>510.4</ele>
        <time>2020-10-03T13:32:09Z</time>
      </trkpt>
      <trkpt lat="48.66777" lon="6.13007">
        <ele>510.2</ele>
        <time>2020-10-03T13:32:10Z</time>
      </trkpt>
      <trkpt lat="48.66777" lon="6.13013">
        <ele>510</ele>
        <time>2020-10-03T13:32:11Z</time>
      </trkpt>
      <trkpt lat="48.66776" lon="6.13019">
        <ele>509.8</ele>
        <time>2020-10-03T13:32:12Z</time>
      </trkpt>
      <trkpt lat="48.66774" lon="6.13027">
        <ele>509.4</ele>
        <time>2020-10-03T13:32:13Z</time>
      </trkpt>
      <trkpt lat="48.66773" lon="6.13035">
        <ele>509.2</ele>
        <time>2020-10-03T13:32:14Z</time>
      </trkpt>
      <trkpt lat="48.66772" lon="6.13039">
        <ele>509</ele>
        <time>2020-10-03T13:32:15Z</time>
      </trkpt>
      <trkpt lat="48.66772" lon="6.13042">
        <ele>508.6</ele>
        <time>2020-10-03T13:32:16Z</time>
      </trkpt>
      <trkpt lat="48.66771" lon="6.13045">
        <ele>508.2</ele>
        <time>2020-10-03T13:32:17Z</time>
      </trkpt>
      <trkpt lat="48.66771" lon="6.13048">
        <ele>507.8</ele>
        <time>2020-10-03T13:32:18Z</time>
      </trkpt>
      <trkpt lat="48.66771" lon="6.13051">
        <ele>507.6</ele>
        <time>2020-10-03T13:32:19Z</time>
      </trkpt>
      <trkpt lat="48.66769" lon="6.13056">
        <ele>507.6</ele>
        <time>2020-10-03T13:32:20Z</time>
      </trkpt>
      <trkpt lat="48.66769" lon="6.13061">
        <ele>507.6</ele>
        <time>2020-10-03T13:32:21Z</time>
      </trkpt>
      <trkpt lat="48.66769" lon="6.13063">
        <ele>507.4</ele>
        <time>2020-10-03T13:32:22Z</time>
      </trkpt>
      <trkpt lat="48.6677" lon="6.13063">
        <ele>507.2</ele>
        <time>2020-10-03T13:32:23Z</time>
      </trkpt>
      <trkpt lat="48.66771" lon="6.13064">
        <ele>507.2</ele>
        <time>2020-10-03T13:32:24Z</time>
      </trkpt>
      <trkpt lat="48.66772" lon="6.13065">
        <ele>507.2</ele>
        <time>2020-10-03T13:32:25Z</time>
      </trkpt>
      <trkpt lat="48.66775" lon="6.13065">
        <ele>507.4</ele>
        <time>2020-10-03T13:32:26Z</time>
      </trkpt>
      <trkpt lat="48.66777" lon="6.13066">
        <ele>507.4</ele>
        <time>2020-10-03T13:32:27Z</time>
      </trkpt>
      <trkpt lat="48.6678" lon="6.13067">
        <ele>507.4</ele>
        <time>2020-10-03T13:32:28Z</time>
      </trkpt>
      <trkpt lat="48.66781" lon="6.13068">
        <ele>507.4</ele>
        <time>2020-10-03T13:32:29Z</time>
      </trkpt>
      <trkpt lat="48.66783" lon="6.13069">
        <ele>507.4</ele>
        <time>2020-10-03T13:32:30Z</time>
      </trkpt>
      <trkpt lat="48.66784" lon="6.1307">
        <ele>507.4</ele>
        <time>2020-10-03T13:32:31Z</time>
      </trkpt>
      <trkpt lat="48.66784" lon="6.13071">
        <ele>507.4</ele>
        <time>2020-10-03T13:32:32Z</time>
      </trkpt>
      <trkpt lat="48.66786" lon="6.1307">
        <ele>507.4</ele>
        <time>2020-10-03T13:32:33Z</time>
      </trkpt>
      <trkpt lat="48.66789" lon="6.1307">
        <ele>507.6</ele>
        <time>2020-10-03T13:32:34Z</time>
      </trkpt>
      <trkpt lat="48.66793" lon="6.1307">
        <ele>507.8</ele>
        <time>2020-10-03T13:32:35Z</time>
      </trkpt>
      <trkpt lat="48.66797" lon="6.13071">
        <ele>508.2</ele>
        <time>2020-10-03T13:32:36Z</time>
      </trkpt>
      <trkpt lat="48.66801" lon="6.13072">
        <ele>508.4</ele>
        <time>2020-10-03T13:32:37Z</time>
      </trkpt>
      <trkpt lat="48.66805" lon="6.13072">
        <ele>508.4</ele>
        <time>2020-10-03T13:32:38Z</time>
      </trkpt>
      <trkpt lat="48.66808" lon="6.13073">
        <ele>508.6</ele>
        <time>2020-10-03T13:32:39Z</time>
      </trkpt>
      <trkpt lat="48.66812" lon="6.13073">
        <ele>508.8</ele>
        <time>2020-10-03T13:32:40Z</time>
      </trkpt>
      <trkpt lat="48.66814" lon="6.13073">
        <ele>508.8</ele>
        <time>2020-10-03T13:32:41Z</time>
      </trkpt>
      <trkpt lat="48.66817" lon="6.13073">
        <ele>508.8</ele>
        <time>2020-10-03T13:32:42Z</time>
      </trkpt>
      <trkpt lat="48.66819" lon="6.13072">
        <ele>509</ele>
        <time>2020-10-03T13:32:43Z</time>
      </trkpt>
      <trkpt lat="48.66822" lon="6.13072">
        <ele>509.2</ele>
        <time>2020-10-03T13:32:44Z</time>
      </trkpt>
      <trkpt lat="48.66824" lon="6.13072">
        <ele>509.2</ele>
        <time>2020-10-03T13:32:45Z</time>
      </trkpt>
      <trkpt lat="48.66829" lon="6.13072">
        <ele>509.4</ele>
        <time>2020-10-03T13:32:46Z</time>
      </trkpt>
      <trkpt lat="48.66833" lon="6.13075">
        <ele>509.4</ele>
        <time>2020-10-03T13:32:47Z</time>
      </trkpt>
      <trkpt lat="48.66837" lon="6.13077">
        <ele>509.6</ele>
        <time>2020-10-03T13:32:48Z</time>
      </trkpt>
      <trkpt lat="48.66842" lon="6.13078">
        <ele>509.8</ele>
        <time>2020-10-03T13:32:49Z</time>
      </trkpt>
      <trkpt lat="48.66846" lon="6.13078">
        <ele>509.6</ele>
        <time>2020-10-03T13:32:50Z</time>
      </trkpt>
      <trkpt lat="48.66849" lon="6.13078">
        <ele>509.4</ele>
        <time>2020-10-03T13:32:51Z</time>
      </trkpt>
      <trkpt lat="48.66852" lon="6.1308">
        <ele>509.4</ele>
        <time>2020-10-03T13:32:52Z</time>
      </trkpt>
      <trkpt lat="48.66856" lon="6.13081">
        <ele>509.6</ele>
        <time>2020-10-03T13:32:53Z</time>
      </trkpt>
      <trkpt lat="48.66859" lon="6.1308">
        <ele>509.4</ele>
        <time>2020-10-03T13:32:54Z</time>
      </trkpt>
      <trkpt lat="48.66863" lon="6.13081">
        <ele>509.4</ele>
        <time>2020-10-03T13:32:55Z</time>
      </trkpt>
      <trkpt lat="48.66867" lon="6.13081">
        <ele>509.4</ele>
        <time>2020-10-03T13:32:56Z</time>
      </trkpt>
      <trkpt lat="48.66869" lon="6.1308">
        <ele>509.4</ele>
        <time>2020-10-03T13:32:57Z</time>
      </trkpt>
      <trkpt lat="48.66872" lon="6.1308">
        <ele>509.2</ele>
        <time>2020-10-03T13:32:58Z</time>
      </trkpt>
      <trkpt lat="48.66877" lon="6.13081">
        <ele>509</ele>
        <time>2020-10-03T13:32:59Z</time>
      </trkpt>
      <trkpt lat="48.66881" lon="6.13081">
        <ele>508.8</ele>
        <time>2020-10-03T13:33:00Z</time>
      </trkpt>
      <trkpt lat="48.66885" lon="6.13082">
        <ele>508.6</ele>
        <time>2020-10-03T13:33:01Z</time>
      </trkpt>
      <trkpt lat="48.6689" lon="6.13082">
        <ele>508.6</ele>
        <time>2020-10-03T13:33:02Z</time>
      </trkpt>
      <trkpt lat="48.66894" lon="6.13082">
        <ele>508.6</ele>
        <time>2020-10-03T13:33:03Z</time>
      </trkpt>
      <trkpt lat="48.66899" lon="6.13084">
        <ele>508.4</ele>
        <time>2020-10-03T13:33:04Z</time>
      </trkpt>
      <trkpt lat="48.66904" lon="6.13085">
        <ele>508.4</ele>
        <time>2020-10-03T13:33:05Z</time>
      </trkpt>
      <trkpt lat="48.66908" lon="6.13085">
        <ele>508.4</ele>
        <time>2020-10-03T13:33:06Z</time>
      </trkpt>
      <trkpt lat="48.66913" lon="6.13087">
        <ele>508.4</ele>
        <time>2020-10-03T13:33:07Z</time>
      </trkpt>
      <trkpt lat="48.66917" lon="6.13089">
        <ele>508.2</ele>
        <time>2020-10-03T13:33:08Z</time>
      </trkpt>
      <trkpt lat="48.66921" lon="6.13089">
        <ele>508.2</ele>
        <time>2020-10-03T13:33:09Z</time>
      </trkpt>
      <trkpt lat="48.66925" lon="6.13088">
        <ele>508</ele>
        <time>2020-10-03T13:33:10Z</time>
      </trkpt>
      <trkpt lat="48.6693" lon="6.13089">
        <ele>508.2</ele>
        <time>2020-10-03T13:33:11Z</time>
      </trkpt>
      <trkpt lat="48.66934" lon="6.13089">
        <ele>508</ele>
        <time>2020-10-03T13:33:12Z</time>
      </trkpt>
      <trkpt lat="48.66939" lon="6.13089">
        <ele>508</ele>
        <time>2020-10-03T13:33:13Z</time>
      </trkpt>
      <trkpt lat="48.66945" lon="6.13089">
        <ele>508.2</ele>
        <time>2020-10-03T13:33:14Z</time>
      </trkpt>
      <trkpt lat="48.6695" lon="6.1309">
        <ele>508.4</ele>
        <time>2020-10-03T13:33:15Z</time>
      </trkpt>
      <trkpt lat="48.66956" lon="6.1309">
        <ele>508.2</ele>
        <time>2020-10-03T13:33:16Z</time>
      </trkpt>
      <trkpt lat="48.6696" lon="6.13091">
        <ele>508</ele>
        <time>2020-10-03T13:33:17Z</time>
      </trkpt>
      <trkpt lat="48.66967" lon="6.13091">
        <ele>507.8</ele>
        <time>2020-10-03T13:33:18Z</time>
      </trkpt>
      <trkpt lat="48.66972" lon="6.13091">
        <ele>507.8</ele>
        <time>2020-10-03T13:33:19Z</time>
      </trkpt>
      <trkpt lat="48.66978" lon="6.13091">
        <ele>507.8</ele>
        <time>2020-10-03T13:33:20Z</time>
      </trkpt>
      <trkpt lat="48.66984" lon="6.13089">
        <ele>507.8</ele>
        <time>2020-10-03T13:33:21Z</time>
      </trkpt>
      <trkpt lat="48.66989" lon="6.13089">
        <ele>507.6</ele>
        <time>2020-10-03T13:33:22Z</time>
      </trkpt>
      <trkpt lat="48.66995" lon="6.13089">
        <ele>507.6</ele>
        <time>2020-10-03T13:33:23Z</time>
      </trkpt>
      <trkpt lat="48.67001" lon="6.1309">
        <ele>507.4</ele>
        <time>2020-10-03T13:33:24Z</time>
      </trkpt>
      <trkpt lat="48.67008" lon="6.1309">
        <ele>507.2</ele>
        <time>2020-10-03T13:33:25Z</time>
      </trkpt>
      <trkpt lat="48.67014" lon="6.13089">
        <ele>507.2</ele>
        <time>2020-10-03T13:33:26Z</time>
      </trkpt>
      <trkpt lat="48.6702" lon="6.13088">
        <ele>507.2</ele>
        <time>2020-10-03T13:33:27Z</time>
      </trkpt>
      <trkpt lat="48.67026" lon="6.13088">
        <ele>507.2</ele>
        <time>2020-10-03T13:33:28Z</time>
      </trkpt>
      <trkpt lat="48.67032" lon="6.13088">
        <ele>507</ele>
        <time>2020-10-03T13:33:29Z</time>
      </trkpt>
      <trkpt lat="48.67037" lon="6.13088">
        <ele>506.8</ele>
        <time>2020-10-03T13:33:30Z</time>
      </trkpt>
      <trkpt lat="48.67041" lon="6.13088">
        <ele>506.6</ele>
        <time>2020-10-03T13:33:31Z</time>
      </trkpt>
      <trkpt lat="48.67045" lon="6.13089">
        <ele>506.6</ele>
        <time>2020-10-03T13:33:32Z</time>
      </trkpt>
      <trkpt lat="48.67049" lon="6.13089">
        <ele>506.4</ele>
        <time>2020-10-03T13:33:33Z</time>
      </trkpt>
      <trkpt lat="48.67053" lon="6.13091">
        <ele>506.2</ele>
        <time>2020-10-03T13:33:34Z</time>
      </trkpt>
      <trkpt lat="48.67057" lon="6.13093">
        <ele>506</ele>
        <time>2020-10-03T13:33:35Z</time>
      </trkpt>
      <trkpt lat="48.67062" lon="6.13094">
        <ele>506</ele>
        <time>2020-10-03T13:33:36Z</time>
      </trkpt>
      <trkpt lat="48.67066" lon="6.13095">
        <ele>506</ele>
        <time>2020-10-03T13:33:37Z</time>
      </trkpt>
      <trkpt lat="48.6707" lon="6.13096">
        <ele>506</ele>
        <time>2020-10-03T13:33:38Z</time>
      </trkpt>
      <trkpt lat="48.67075" lon="6.13097">
        <ele>505.6</ele>
        <time>2020-10-03T13:33:39Z</time>
      </trkpt>
      <trkpt lat="48.6708" lon="6.13096">
        <ele>505.4</ele>
        <time>2020-10-03T13:33:40Z</time>
      </trkpt>
      <trkpt lat="48.67086" lon="6.13095">
        <ele>505.2</ele>
        <time>2020-10-03T13:33:41Z</time>
      </trkpt>
      <trkpt lat="48.6709" lon="6.13095">
        <ele>505.2</ele>
        <time>2020-10-03T13:33:42Z</time>
      </trkpt>
      <trkpt lat="48.67095" lon="6.13095">
        <ele>505</ele>
        <time>2020-10-03T13:33:43Z</time>
      </trkpt>
      <trkpt lat="48.67101" lon="6.13096">
        <ele>505</ele>
        <time>2020-10-03T13:33:44Z</time>
      </trkpt>
      <trkpt lat="48.67106" lon="6.13097">
        <ele>505.2</ele>
        <time>2020-10-03T13:33:45Z</time>
      </trkpt>
      <trkpt lat="48.67111" lon="6.13098">
        <ele>505.2</ele>
        <time>2020-10-03T13:33:46Z</time>
      </trkpt>
      <trkpt lat="48.67117" lon="6.13097">
        <ele>505</ele>
        <time>2020-10-03T13:33:47Z</time>
      </trkpt>
      <trkpt lat="48.6712" lon="6.13097">
        <ele>504.6</ele>
        <time>2020-10-03T13:33:48Z</time>
      </trkpt>
      <trkpt lat="48.67125" lon="6.13096">
        <ele>504.2</ele>
        <time>2020-10-03T13:33:49Z</time>
      </trkpt>
      <trkpt lat="48.67128" lon="6.13093">
        <ele>503.8</ele>
        <time>2020-10-03T13:33:50Z</time>
      </trkpt>
      <trkpt lat="48.6713" lon="6.1309">
        <ele>503.6</ele>
        <time>2020-10-03T13:33:51Z</time>
      </trkpt>
      <trkpt lat="48.67131" lon="6.13086">
        <ele>503.6</ele>
        <time>2020-10-03T13:33:52Z</time>
      </trkpt>
      <trkpt lat="48.67131" lon="6.13082">
        <ele>503.4</ele>
        <time>2020-10-03T13:33:53Z</time>
      </trkpt>
      <trkpt lat="48.67132" lon="6.13078">
        <ele>503.6</ele>
        <time>2020-10-03T13:33:54Z</time>
      </trkpt>
      <trkpt lat="48.67133" lon="6.13076">
        <ele>503.6</ele>
        <time>2020-10-03T13:33:55Z</time>
      </trkpt>
      <trkpt lat="48.67136" lon="6.13076">
        <ele>503.6</ele>
        <time>2020-10-03T13:33:56Z</time>
      </trkpt>
      <trkpt lat="48.67138" lon="6.13075">
        <ele>503.6</ele>
        <time>2020-10-03T13:33:57Z</time>
      </trkpt>
      <trkpt lat="48.67142" lon="6.13076">
        <ele>503.8</ele>
        <time>2020-10-03T13:33:58Z</time>
      </trkpt>
      <trkpt lat="48.67145" lon="6.13077">
        <ele>503.8</ele>
        <time>2020-10-03T13:33:59Z</time>
      </trkpt>
      <trkpt lat="48.67148" lon="6.13079">
        <ele>503.8</ele>
        <time>2020-10-03T13:34:00Z</time>
      </trkpt>
      <trkpt lat="48.6715" lon="6.13081">
        <ele>503.6</ele>
        <time>2020-10-03T13:34:01Z</time>
      </trkpt>
      <trkpt lat="48.67153" lon="6.13081">
        <ele>503.4</ele>
        <time>2020-10-03T13:34:02Z</time>
      </trkpt>
      <trkpt lat="48.67156" lon="6.13081">
        <ele>503.4</ele>
        <time>2020-10-03T13:34:03Z</time>
      </trkpt>
      <trkpt lat="48.6716" lon="6.13082">
        <ele>503.2</ele>
        <time>2020-10-03T13:34:04Z</time>
      </trkpt>
      <trkpt lat="48.67164" lon="6.13082">
        <ele>503</ele>
        <time>2020-10-03T13:34:05Z</time>
      </trkpt>
      <trkpt lat="48.67167" lon="6.13082">
        <ele>502.8</ele>
        <time>2020-10-03T13:34:06Z</time>
      </trkpt>
      <trkpt lat="48.67171" lon="6.13083">
        <ele>502.6</ele>
        <time>2020-10-03T13:34:07Z</time>
      </trkpt>
      <trkpt lat="48.67175" lon="6.13084">
        <ele>502.4</ele>
        <time>2020-10-03T13:34:08Z</time>
      </trkpt>
      <trkpt lat="48.67179" lon="6.13085">
        <ele>502.4</ele>
        <time>2020-10-03T13:34:09Z</time>
      </trkpt>
      <trkpt lat="48.67182" lon="6.13089">
        <ele>502.2</ele>
        <time>2020-10-03T13:34:10Z</time>
      </trkpt>
      <trkpt lat="48.67186" lon="6.13092">
        <ele>501.8</ele>
        <time>2020-10-03T13:34:11Z</time>
      </trkpt>
      <trkpt lat="48.67191" lon="6.13096">
        <ele>501.6</ele>
        <time>2020-10-03T13:34:12Z</time>
      </trkpt>
      <trkpt lat="48.67196" lon="6.13099">
        <ele>501.4</ele>
        <time>2020-10-03T13:34:13Z</time>
      </trkpt>
      <trkpt lat="48.67199" lon="6.13103">
        <ele>501</ele>
        <time>2020-10-03T13:34:14Z</time>
      </trkpt>
      <trkpt lat="48.67204" lon="6.13106">
        <ele>500.8</ele>
        <time>2020-10-03T13:34:15Z</time>
      </trkpt>
      <trkpt lat="48.67209" lon="6.13109">
        <ele>500.4</ele>
        <time>2020-10-03T13:34:16Z</time>
      </trkpt>
      <trkpt lat="48.67214" lon="6.13114">
        <ele>500.2</ele>
        <time>2020-10-03T13:34:17Z</time>
      </trkpt>
      <trkpt lat="48.67218" lon="6.13118">
        <ele>500</ele>
        <time>2020-10-03T13:34:18Z</time>
      </trkpt>
      <trkpt lat="48.6722" lon="6.13121">
        <ele>499.6</ele>
        <time>2020-10-03T13:34:19Z</time>
      </trkpt>
      <trkpt lat="48.67221" lon="6.13126">
        <ele>499.2</ele>
        <time>2020-10-03T13:34:20Z</time>
      </trkpt>
      <trkpt lat="48.67222" lon="6.1313">
        <ele>498.8</ele>
        <time>2020-10-03T13:34:21Z</time>
      </trkpt>
      <trkpt lat="48.67223" lon="6.13135">
        <ele>498.6</ele>
        <time>2020-10-03T13:34:22Z</time>
      </trkpt>
      <trkpt lat="48.67226" lon="6.13141">
        <ele>498.6</ele>
        <time>2020-10-03T13:34:23Z</time>
      </trkpt>
      <trkpt lat="48.67228" lon="6.13145">
        <ele>498.6</ele>
        <time>2020-10-03T13:34:24Z</time>
      </trkpt>
      <trkpt lat="48.67229" lon="6.13149">
        <ele>498.6</ele>
        <time>2020-10-03T13:34:25Z</time>
      </trkpt>
      <trkpt lat="48.6723" lon="6.13156">
        <ele>498.4</ele>
        <time>2020-10-03T13:34:26Z</time>
      </trkpt>
      <trkpt lat="48.6723" lon="6.13163">
        <ele>498.2</ele>
        <time>2020-10-03T13:34:27Z</time>
      </trkpt>
      <trkpt lat="48.67231" lon="6.13168">
        <ele>498</ele>
        <time>2020-10-03T13:34:28Z</time>
      </trkpt>
      <trkpt lat="48.67232" lon="6.13174">
        <ele>497.8</ele>
        <time>2020-10-03T13:34:29Z</time>
      </trkpt>
      <trkpt lat="48.67233" lon="6.13181">
        <ele>497.4</ele>
        <time>2020-10-03T13:34:30Z</time>
      </trkpt>
      <trkpt lat="48.67236" lon="6.13186">
        <ele>497.2</ele>
        <time>2020-10-03T13:34:31Z</time>
      </trkpt>
      <trkpt lat="48.67236" lon="6.1319">
        <ele>497</ele>
        <time>2020-10-03T13:34:32Z</time>
      </trkpt>
      <trkpt lat="48.67236" lon="6.13196">
        <ele>496.8</ele>
        <time>2020-10-03T13:34:33Z</time>
      </trkpt>
      <trkpt lat="48.67237" lon="6.13201">
        <ele>496.4</ele>
        <time>2020-10-03T13:34:34Z</time>
      </trkpt>
      <trkpt lat="48.67236" lon="6.13205">
        <ele>496</ele>
        <time>2020-10-03T13:34:35Z</time>
      </trkpt>
      <trkpt lat="48.67239" lon="6.13209">
        <ele>495.6</ele>
        <time>2020-10-03T13:34:36Z</time>
      </trkpt>
      <trkpt lat="48.67241" lon="6.13212">
        <ele>495.4</ele>
        <time>2020-10-03T13:34:37Z</time>
      </trkpt>
      <trkpt lat="48.67244" lon="6.13214">
        <ele>495.2</ele>
        <time>2020-10-03T13:34:38Z</time>
      </trkpt>
      <trkpt lat="48.67246" lon="6.13215">
        <ele>495</ele>
        <time>2020-10-03T13:34:39Z</time>
      </trkpt>
      <trkpt lat="48.67249" lon="6.13216">
        <ele>495</ele>
        <time>2020-10-03T13:34:40Z</time>
      </trkpt>
      <trkpt lat="48.67251" lon="6.13218">
        <ele>495</ele>
        <time>2020-10-03T13:34:41Z</time>
      </trkpt>
      <trkpt lat="48.67254" lon="6.13219">
        <ele>494.8</ele>
        <time>2020-10-03T13:34:42Z</time>
      </trkpt>
      <trkpt lat="48.67258" lon="6.13222">
        <ele>494.6</ele>
        <time>2020-10-03T13:34:43Z</time>
      </trkpt>
      <trkpt lat="48.67263" lon="6.13224">
        <ele>494.6</ele>
        <time>2020-10-03T13:34:44Z</time>
      </trkpt>
      <trkpt lat="48.67266" lon="6.13227">
        <ele>494.4</ele>
        <time>2020-10-03T13:34:45Z</time>
      </trkpt>
      <trkpt lat="48.67269" lon="6.13228">
        <ele>494.2</ele>
        <time>2020-10-03T13:34:46Z</time>
      </trkpt>
      <trkpt lat="48.67273" lon="6.13229">
        <ele>493.8</ele>
        <time>2020-10-03T13:34:47Z</time>
      </trkpt>
      <trkpt lat="48.67278" lon="6.13231">
        <ele>493.8</ele>
        <time>2020-10-03T13:34:48Z</time>
      </trkpt>
      <trkpt lat="48.67282" lon="6.13232">
        <ele>493.4</ele>
        <time>2020-10-03T13:34:49Z</time>
      </trkpt>
      <trkpt lat="48.67286" lon="6.13233">
        <ele>493.2</ele>
        <time>2020-10-03T13:34:50Z</time>
      </trkpt>
      <trkpt lat="48.67289" lon="6.13236">
        <ele>492.8</ele>
        <time>2020-10-03T13:34:51Z</time>
      </trkpt>
      <trkpt lat="48.67292" lon="6.13239">
        <ele>492.6</ele>
        <time>2020-10-03T13:34:52Z</time>
      </trkpt>
      <trkpt lat="48.67296" lon="6.1324">
        <ele>492.4</ele>
        <time>2020-10-03T13:34:53Z</time>
      </trkpt>
      <trkpt lat="48.67299" lon="6.13242">
        <ele>492.2</ele>
        <time>2020-10-03T13:34:54Z</time>
      </trkpt>
      <trkpt lat="48.67301" lon="6.13242">
        <ele>491.8</ele>
        <time>2020-10-03T13:34:55Z</time>
      </trkpt>
      <trkpt lat="48.67305" lon="6.13241">
        <ele>491.2</ele>
        <time>2020-10-03T13:34:56Z</time>
      </trkpt>
      <trkpt lat="48.67309" lon="6.13242">
        <ele>490.8</ele>
        <time>2020-10-03T13:34:57Z</time>
      </trkpt>
      <trkpt lat="48.67313" lon="6.13245">
        <ele>490.4</ele>
        <time>2020-10-03T13:34:58Z</time>
      </trkpt>
      <trkpt lat="48.67316" lon="6.13249">
        <ele>490.2</ele>
        <time>2020-10-03T13:34:59Z</time>
      </trkpt>
      <trkpt lat="48.6732" lon="6.13252">
        <ele>490</ele>
        <time>2020-10-03T13:35:00Z</time>
      </trkpt>
      <trkpt lat="48.67324" lon="6.13256">
        <ele>490</ele>
        <time>2020-10-03T13:35:01Z</time>
      </trkpt>
      <trkpt lat="48.67328" lon="6.13259">
        <ele>489.8</ele>
        <time>2020-10-03T13:35:02Z</time>
      </trkpt>
      <trkpt lat="48.67333" lon="6.13261">
        <ele>489.6</ele>
        <time>2020-10-03T13:35:03Z</time>
      </trkpt>
      <trkpt lat="48.67338" lon="6.13263">
        <ele>489.2</ele>
        <time>2020-10-03T13:35:04Z</time>
      </trkpt>
      <trkpt lat="48.67343" lon="6.13266">
        <ele>488.8</ele>
        <time>2020-10-03T13:35:05Z</time>
      </trkpt>
      <trkpt lat="48.67347" lon="6.13269">
        <ele>488.4</ele>
        <time>2020-10-03T13:35:06Z</time>
      </trkpt>
      <trkpt lat="48.67351" lon="6.13272">
        <ele>488</ele>
        <time>2020-10-03T13:35:07Z</time>
      </trkpt>
      <trkpt lat="48.67356" lon="6.13275">
        <ele>487.6</ele>
        <time>2020-10-03T13:35:08Z</time>
      </trkpt>
      <trkpt lat="48.67361" lon="6.13276">
        <ele>487.4</ele>
        <time>2020-10-03T13:35:09Z</time>
      </trkpt>
      <trkpt lat="48.67366" lon="6.13277">
        <ele>487.2</ele>
        <time>2020-10-03T13:35:10Z</time>
      </trkpt>
      <trkpt lat="48.6737" lon="6.13278">
        <ele>487</ele>
        <time>2020-10-03T13:35:11Z</time>
      </trkpt>
      <trkpt lat="48.67374" lon="6.13281">
        <ele>486.8</ele>
        <time>2020-10-03T13:35:12Z</time>
      </trkpt>
      <trkpt lat="48.67379" lon="6.13283">
        <ele>486.4</ele>
        <time>2020-10-03T13:35:13Z</time>
      </trkpt>
      <trkpt lat="48.67383" lon="6.13287">
        <ele>485.8</ele>
        <time>2020-10-03T13:35:14Z</time>
      </trkpt>
      <trkpt lat="48.67386" lon="6.13288">
        <ele>485.6</ele>
        <time>2020-10-03T13:35:15Z</time>
      </trkpt>
      <trkpt lat="48.67389" lon="6.13289">
        <ele>485.4</ele>
        <time>2020-10-03T13:35:16Z</time>
      </trkpt>
      <trkpt lat="48.67391" lon="6.13289">
        <ele>485.2</ele>
        <time>2020-10-03T13:35:17Z</time>
      </trkpt>
      <trkpt lat="48.67395" lon="6.13289">
        <ele>484.8</ele>
        <time>2020-10-03T13:35:18Z</time>
      </trkpt>
      <trkpt lat="48.67397" lon="6.13289">
        <ele>484.6</ele>
        <time>2020-10-03T13:35:19Z</time>
      </trkpt>
      <trkpt lat="48.67402" lon="6.13288">
        <ele>484.6</ele>
        <time>2020-10-03T13:35:20Z</time>
      </trkpt>
      <trkpt lat="48.67405" lon="6.13287">
        <ele>484.6</ele>
        <time>2020-10-03T13:35:21Z</time>
      </trkpt>
      <trkpt lat="48.67408" lon="6.13285">
        <ele>484.6</ele>
        <time>2020-10-03T13:35:22Z</time>
      </trkpt>
      <trkpt lat="48.67412" lon="6.13283">
        <ele>484.6</ele>
        <time>2020-10-03T13:35:23Z</time>
      </trkpt>
      <trkpt lat="48.67415" lon="6.13282">
        <ele>484.8</ele>
        <time>2020-10-03T13:35:24Z</time>
      </trkpt>
      <trkpt lat="48.67418" lon="6.1328">
        <ele>484.8</ele>
        <time>2020-10-03T13:35:25Z</time>
      </trkpt>
      <trkpt lat="48.67421" lon="6.13279">
        <ele>484.6</ele>
        <time>2020-10-03T13:35:26Z</time>
      </trkpt>
      <trkpt lat="48.67424" lon="6.13277">
        <ele>484.6</ele>
        <time>2020-10-03T13:35:27Z</time>
      </trkpt>
      <trkpt lat="48.67427" lon="6.13275">
        <ele>484.6</ele>
        <time>2020-10-03T13:35:28Z</time>
      </trkpt>
      <trkpt lat="48.67429" lon="6.13274">
        <ele>484.8</ele>
        <time>2020-10-03T13:35:29Z</time>
      </trkpt>
      <trkpt lat="48.67431" lon="6.13272">
        <ele>484.8</ele>
        <time>2020-10-03T13:35:30Z</time>
      </trkpt>
      <trkpt lat="48.67434" lon="6.13271">
        <ele>484.6</ele>
        <time>2020-10-03T13:35:31Z</time>
      </trkpt>
      <trkpt lat="48.67436" lon="6.1327">
        <ele>484.4</ele>
        <time>2020-10-03T13:35:32Z</time>
      </trkpt>
      <trkpt lat="48.67439" lon="6.13269">
        <ele>484.4</ele>
        <time>2020-10-03T13:35:33Z</time>
      </trkpt>
      <trkpt lat="48.67443" lon="6.13268">
        <ele>484.4</ele>
        <time>2020-10-03T13:35:34Z</time>
      </trkpt>
      <trkpt lat="48.67446" lon="6.13267">
        <ele>484.6</ele>
        <time>2020-10-03T13:35:35Z</time>
      </trkpt>
      <trkpt lat="48.67447" lon="6.13267">
        <ele>484.6</ele>
        <time>2020-10-03T13:35:36Z</time>
      </trkpt>
      <trkpt lat="48.67449" lon="6.13267">
        <ele>484.6</ele>
        <time>2020-10-03T13:35:37Z</time>
      </trkpt>
      <trkpt lat="48.67454" lon="6.13267">
        <ele>484.8</ele>
        <time>2020-10-03T13:35:38Z</time>
      </trkpt>
      <trkpt lat="48.67456" lon="6.13267">
        <ele>484.8</ele>
        <time>2020-10-03T13:35:39Z</time>
      </trkpt>
      <trkpt lat="48.67458" lon="6.13265">
        <ele>484.8</ele>
        <time>2020-10-03T13:35:40Z</time>
      </trkpt>
      <trkpt lat="48.67464" lon="6.13265">
        <ele>484.8</ele>
        <time>2020-10-03T13:35:41Z</time>
      </trkpt>
      <trkpt lat="48.67466" lon="6.13265">
        <ele>484.6</ele>
        <time>2020-10-03T13:35:42Z</time>
      </trkpt>
      <trkpt lat="48.67468" lon="6.13265">
        <ele>484.4</ele>
        <time>2020-10-03T13:35:43Z</time>
      </trkpt>
      <trkpt lat="48.67471" lon="6.13265">
        <ele>484</ele>
        <time>2020-10-03T13:35:44Z</time>
      </trkpt>
      <trkpt lat="48.67474" lon="6.13264">
        <ele>484</ele>
        <time>2020-10-03T13:35:45Z</time>
      </trkpt>
      <trkpt lat="48.67478" lon="6.13263">
        <ele>484.2</ele>
        <time>2020-10-03T13:35:46Z</time>
      </trkpt>
      <trkpt lat="48.67481" lon="6.13262">
        <ele>484.2</ele>
        <time>2020-10-03T13:35:47Z</time>
      </trkpt>
      <trkpt lat="48.67485" lon="6.13259">
        <ele>484.2</ele>
        <time>2020-10-03T13:35:48Z</time>
      </trkpt>
      <trkpt lat="48.67488" lon="6.13257">
        <ele>484.2</ele>
        <time>2020-10-03T13:35:49Z</time>
      </trkpt>
      <trkpt lat="48.6749" lon="6.13254">
        <ele>484.2</ele>
        <time>2020-10-03T13:35:50Z</time>
      </trkpt>
      <trkpt lat="48.67491" lon="6.13251">
        <ele>484.2</ele>
        <time>2020-10-03T13:35:51Z</time>
      </trkpt>
      <trkpt lat="48.67491" lon="6.13247">
        <ele>484.4</ele>
        <time>2020-10-03T13:35:52Z</time>
      </trkpt>
      <trkpt lat="48.67492" lon="6.13244">
        <ele>484.4</ele>
        <time>2020-10-03T13:35:53Z</time>
      </trkpt>
      <trkpt lat="48.67494" lon="6.13242">
        <ele>484.4</ele>
        <time>2020-10-03T13:35:54Z</time>
      </trkpt>
      <trkpt lat="48.67496" lon="6.1324">
        <ele>484.2</ele>
        <time>2020-10-03T13:35:55Z</time>
      </trkpt>
      <trkpt lat="48.67499" lon="6.13238">
        <ele>484.2</ele>
        <time>2020-10-03T13:35:56Z</time>
      </trkpt>
      <trkpt lat="48.675" lon="6.13237">
        <ele>484.6</ele>
        <time>2020-10-03T13:35:57Z</time>
      </trkpt>
      <trkpt lat="48.675" lon="6.13233">
        <ele>484.6</ele>
        <time>2020-10-03T13:35:58Z</time>
      </trkpt>
      <trkpt lat="48.67501" lon="6.13231">
        <ele>484.6</ele>
        <time>2020-10-03T13:35:59Z</time>
      </trkpt>
      <trkpt lat="48.67501" lon="6.13228">
        <ele>484.8</ele>
        <time>2020-10-03T13:36:00Z</time>
      </trkpt>
      <trkpt lat="48.67503" lon="6.13226">
        <ele>485</ele>
        <time>2020-10-03T13:36:01Z</time>
      </trkpt>
      <trkpt lat="48.67503" lon="6.13221">
        <ele>485</ele>
        <time>2020-10-03T13:36:02Z</time>
      </trkpt>
      <trkpt lat="48.67503" lon="6.13218">
        <ele>485</ele>
        <time>2020-10-03T13:36:03Z</time>
      </trkpt>
      <trkpt lat="48.67503" lon="6.13215">
        <ele>485.2</ele>
        <time>2020-10-03T13:36:04Z</time>
      </trkpt>
      <trkpt lat="48.67503" lon="6.13211">
        <ele>485.6</ele>
        <time>2020-10-03T13:36:05Z</time>
      </trkpt>
      <trkpt lat="48.67504" lon="6.13207">
        <ele>485.6</ele>
        <time>2020-10-03T13:36:06Z</time>
      </trkpt>
      <trkpt lat="48.67505" lon="6.13203">
        <ele>485.8</ele>
        <time>2020-10-03T13:36:07Z</time>
      </trkpt>
      <trkpt lat="48.67505" lon="6.132">
        <ele>485.8</ele>
        <time>2020-10-03T13:36:08Z</time>
      </trkpt>
      <trkpt lat="48.67507" lon="6.13197">
        <ele>486</ele>
        <time>2020-10-03T13:36:09Z</time>
      </trkpt>
      <trkpt lat="48.67508" lon="6.13195">
        <ele>486.2</ele>
        <time>2020-10-03T13:36:10Z</time>
      </trkpt>
      <trkpt lat="48.67509" lon="6.13192">
        <ele>486.2</ele>
        <time>2020-10-03T13:36:11Z</time>
      </trkpt>
      <trkpt lat="48.6751" lon="6.13189">
        <ele>486.4</ele>
        <time>2020-10-03T13:36:12Z</time>
      </trkpt>
      <trkpt lat="48.67511" lon="6.13185">
        <ele>486.6</ele>
        <time>2020-10-03T13:36:13Z</time>
      </trkpt>
      <trkpt lat="48.67513" lon="6.13181">
        <ele>486.8</ele>
        <time>2020-10-03T13:36:14Z</time>
      </trkpt>
      <trkpt lat="48.67512" lon="6.13177">
        <ele>486.8</ele>
        <time>2020-10-03T13:36:15Z</time>
      </trkpt>
      <trkpt lat="48.67511" lon="6.13173">
        <ele>487</ele>
        <time>2020-10-03T13:36:16Z</time>
      </trkpt>
      <trkpt lat="48.67511" lon="6.13169">
        <ele>487.2</ele>
        <time>2020-10-03T13:36:17Z</time>
      </trkpt>
      <trkpt lat="48.67509" lon="6.13165">
        <ele>487.4</ele>
        <time>2020-10-03T13:36:18Z</time>
      </trkpt>
      <trkpt lat="48.67508" lon="6.13161">
        <ele>487.6</ele>
        <time>2020-10-03T13:36:19Z</time>
      </trkpt>
      <trkpt lat="48.67509" lon="6.13157">
        <ele>487.8</ele>
        <time>2020-10-03T13:36:20Z</time>
      </trkpt>
      <trkpt lat="48.6751" lon="6.13152">
        <ele>488</ele>
        <time>2020-10-03T13:36:21Z</time>
      </trkpt>
      <trkpt lat="48.67509" lon="6.13148">
        <ele>488.2</ele>
        <time>2020-10-03T13:36:22Z</time>
      </trkpt>
      <trkpt lat="48.6751" lon="6.13144">
        <ele>488.2</ele>
        <time>2020-10-03T13:36:23Z</time>
      </trkpt>
      <trkpt lat="48.6751" lon="6.1314">
        <ele>488.6</ele>
        <time>2020-10-03T13:36:24Z</time>
      </trkpt>
      <trkpt lat="48.6751" lon="6.13137">
        <ele>488.8</ele>
        <time>2020-10-03T13:36:25Z</time>
      </trkpt>
      <trkpt lat="48.67511" lon="6.13133">
        <ele>488.8</ele>
        <time>2020-10-03T13:36:26Z</time>
      </trkpt>
      <trkpt lat="48.67511" lon="6.1313">
        <ele>489.2</ele>
        <time>2020-10-03T13:36:27Z</time>
      </trkpt>
      <trkpt lat="48.67511" lon="6.13125">
        <ele>489.6</ele>
        <time>2020-10-03T13:36:28Z</time>
      </trkpt>
      <trkpt lat="48.67512" lon="6.13122">
        <ele>489.8</ele>
        <time>2020-10-03T13:36:29Z</time>
      </trkpt>
      <trkpt lat="48.67512" lon="6.13118">
        <ele>489.8</ele>
        <time>2020-10-03T13:36:30Z</time>
      </trkpt>
      <trkpt lat="48.6751" lon="6.13114">
        <ele>489.8</ele>
        <time>2020-10-03T13:36:31Z</time>
      </trkpt>
      <trkpt lat="48.6751" lon="6.1311">
        <ele>489.6</ele>
        <time>2020-10-03T13:36:32Z</time>
      </trkpt>
      <trkpt lat="48.67511" lon="6.13108">
        <ele>490</ele>
        <time>2020-10-03T13:36:33Z</time>
      </trkpt>
      <trkpt lat="48.67512" lon="6.13104">
        <ele>490.2</ele>
        <time>2020-10-03T13:36:34Z</time>
      </trkpt>
      <trkpt lat="48.67512" lon="6.13101">
        <ele>490.4</ele>
        <time>2020-10-03T13:36:35Z</time>
      </trkpt>
      <trkpt lat="48.67514" lon="6.13099">
        <ele>490.6</ele>
        <time>2020-10-03T13:36:36Z</time>
      </trkpt>
      <trkpt lat="48.67514" lon="6.13095">
        <ele>490.6</ele>
        <time>2020-10-03T13:36:37Z</time>
      </trkpt>
      <trkpt lat="48.67514" lon="6.13092">
        <ele>490.6</ele>
        <time>2020-10-03T13:36:38Z</time>
      </trkpt>
      <trkpt lat="48.67514" lon="6.13088">
        <ele>490.8</ele>
        <time>2020-10-03T13:36:39Z</time>
      </trkpt>
      <trkpt lat="48.67514" lon="6.13085">
        <ele>491</ele>
        <time>2020-10-03T13:36:40Z</time>
      </trkpt>
      <trkpt lat="48.67513" lon="6.13082">
        <ele>491.2</ele>
        <time>2020-10-03T13:36:41Z</time>
      </trkpt>
      <trkpt lat="48.67513" lon="6.13078">
        <ele>491.4</ele>
        <time>2020-10-03T13:36:42Z</time>
      </trkpt>
      <trkpt lat="48.67512" lon="6.13074">
        <ele>491.6</ele>
        <time>2020-10-03T13:36:43Z</time>
      </trkpt>
      <trkpt lat="48.67513" lon="6.1307">
        <ele>491.8</ele>
        <time>2020-10-03T13:36:44Z</time>
      </trkpt>
      <trkpt lat="48.67514" lon="6.13065">
        <ele>492.2</ele>
        <time>2020-10-03T13:36:45Z</time>
      </trkpt>
      <trkpt lat="48.67512" lon="6.1306">
        <ele>492.2</ele>
        <time>2020-10-03T13:36:46Z</time>
      </trkpt>
      <trkpt lat="48.67512" lon="6.13057">
        <ele>492.4</ele>
        <time>2020-10-03T13:36:47Z</time>
      </trkpt>
      <trkpt lat="48.67514" lon="6.13053">
        <ele>492.6</ele>
        <time>2020-10-03T13:36:48Z</time>
      </trkpt>
      <trkpt lat="48.67515" lon="6.13049">
        <ele>492.8</ele>
        <time>2020-10-03T13:36:49Z</time>
      </trkpt>
      <trkpt lat="48.67514" lon="6.13045">
        <ele>493</ele>
        <time>2020-10-03T13:36:50Z</time>
      </trkpt>
      <trkpt lat="48.67514" lon="6.13042">
        <ele>493.2</ele>
        <time>2020-10-03T13:36:51Z</time>
      </trkpt>
      <trkpt lat="48.67515" lon="6.13039">
        <ele>493.4</ele>
        <time>2020-10-03T13:36:52Z</time>
      </trkpt>
      <trkpt lat="48.67515" lon="6.13036">
        <ele>493.6</ele>
        <time>2020-10-03T13:36:53Z</time>
      </trkpt>
      <trkpt lat="48.67516" lon="6.13032">
        <ele>493.8</ele>
        <time>2020-10-03T13:36:54Z</time>
      </trkpt>
      <trkpt lat="48.67517" lon="6.1303">
        <ele>494</ele>
        <time>2020-10-03T13:36:55Z</time>
      </trkpt>
      <trkpt lat="48.67518" lon="6.13027">
        <ele>494.2</ele>
        <time>2020-10-03T13:36:56Z</time>
      </trkpt>
      <trkpt lat="48.67518" lon="6.13023">
        <ele>494.4</ele>
        <time>2020-10-03T13:36:57Z</time>
      </trkpt>
      <trkpt lat="48.67517" lon="6.1302">
        <ele>494.6</ele>
        <time>2020-10-03T13:36:58Z</time>
      </trkpt>
      <trkpt lat="48.67518" lon="6.13016">
        <ele>495</ele>
        <time>2020-10-03T13:36:59Z</time>
      </trkpt>
      <trkpt lat="48.6752" lon="6.13013">
        <ele>495.4</ele>
        <time>2020-10-03T13:37:00Z</time>
      </trkpt>
      <trkpt lat="48.67521" lon="6.13009">
        <ele>495.6</ele>
        <time>2020-10-03T13:37:01Z</time>
      </trkpt>
      <trkpt lat="48.6752" lon="6.13003">
        <ele>495.8</ele>
        <time>2020-10-03T13:37:02Z</time>
      </trkpt>
      <trkpt lat="48.67519" lon="6.12998">
        <ele>496.2</ele>
        <time>2020-10-03T13:37:03Z</time>
      </trkpt>
      <trkpt lat="48.67519" lon="6.12994">
        <ele>496.4</ele>
        <time>2020-10-03T13:37:04Z</time>
      </trkpt>
      <trkpt lat="48.67519" lon="6.12989">
        <ele>496.4</ele>
        <time>2020-10-03T13:37:05Z</time>
      </trkpt>
      <trkpt lat="48.67519" lon="6.12984">
        <ele>496.6</ele>
        <time>2020-10-03T13:37:06Z</time>
      </trkpt>
      <trkpt lat="48.6752" lon="6.1298">
        <ele>497</ele>
        <time>2020-10-03T13:37:07Z</time>
      </trkpt>
      <trkpt lat="48.67519" lon="6.12976">
        <ele>497</ele>
        <time>2020-10-03T13:37:08Z</time>
      </trkpt>
      <trkpt lat="48.6752" lon="6.12971">
        <ele>497</ele>
        <time>2020-10-03T13:37:09Z</time>
      </trkpt>
      <trkpt lat="48.6752" lon="6.12966">
        <ele>497.2</ele>
        <time>2020-10-03T13:37:10Z</time>
      </trkpt>
      <trkpt lat="48.6752" lon="6.12961">
        <ele>497.4</ele>
        <time>2020-10-03T13:37:11Z</time>
      </trkpt>
      <trkpt lat="48.6752" lon="6.12957">
        <ele>497.6</ele>
        <time>2020-10-03T13:37:12Z</time>
      </trkpt>
      <trkpt lat="48.6752" lon="6.12954">
        <ele>497.8</ele>
        <time>2020-10-03T13:37:13Z</time>
      </trkpt>
      <trkpt lat="48.6752" lon="6.12949">
        <ele>498</ele>
        <time>2020-10-03T13:37:14Z</time>
      </trkpt>
      <trkpt lat="48.6752" lon="6.12945">
        <ele>498.2</ele>
        <time>2020-10-03T13:37:15Z</time>
      </trkpt>
      <trkpt lat="48.6752" lon="6.12939">
        <ele>498.2</ele>
        <time>2020-10-03T13:37:16Z</time>
      </trkpt>
      <trkpt lat="48.6752" lon="6.12934">
        <ele>498.4</ele>
        <time>2020-10-03T13:37:17Z</time>
      </trkpt>
      <trkpt lat="48.6752" lon="6.12929">
        <ele>498.8</ele>
        <time>2020-10-03T13:37:18Z</time>
      </trkpt>
      <trkpt lat="48.67521" lon="6.12926">
        <ele>499.2</ele>
        <time>2020-10-03T13:37:19Z</time>
      </trkpt>
      <trkpt lat="48.67523" lon="6.12922">
        <ele>499.4</ele>
        <time>2020-10-03T13:37:20Z</time>
      </trkpt>
      <trkpt lat="48.67523" lon="6.12918">
        <ele>499.6</ele>
        <time>2020-10-03T13:37:21Z</time>
      </trkpt>
      <trkpt lat="48.67523" lon="6.12914">
        <ele>499.8</ele>
        <time>2020-10-03T13:37:22Z</time>
      </trkpt>
      <trkpt lat="48.67523" lon="6.12909">
        <ele>500</ele>
        <time>2020-10-03T13:37:23Z</time>
      </trkpt>
      <trkpt lat="48.67524" lon="6.12906">
        <ele>500</ele>
        <time>2020-10-03T13:37:24Z</time>
      </trkpt>
      <trkpt lat="48.67525" lon="6.12903">
        <ele>500.2</ele>
        <time>2020-10-03T13:37:25Z</time>
      </trkpt>
      <trkpt lat="48.67523" lon="6.12898">
        <ele>500.4</ele>
        <time>2020-10-03T13:37:26Z</time>
      </trkpt>
      <trkpt lat="48.67522" lon="6.12895">
        <ele>500.6</ele>
        <time>2020-10-03T13:37:27Z</time>
      </trkpt>
      <trkpt lat="48.67522" lon="6.12891">
        <ele>500.6</ele>
        <time>2020-10-03T13:37:28Z</time>
      </trkpt>
      <trkpt lat="48.67522" lon="6.1289">
        <ele>500.8</ele>
        <time>2020-10-03T13:37:29Z</time>
      </trkpt>
      <trkpt lat="48.67522" lon="6.12889">
        <ele>500.8</ele>
        <time>2020-10-03T13:37:30Z</time>
      </trkpt>
      <trkpt lat="48.67523" lon="6.12888">
        <ele>501</ele>
        <time>2020-10-03T13:37:31Z</time>
      </trkpt>
      <trkpt lat="48.67522" lon="6.12886">
        <ele>500.8</ele>
        <time>2020-10-03T13:37:32Z</time>
      </trkpt>
      <trkpt lat="48.67522" lon="6.12883">
        <ele>501</ele>
        <time>2020-10-03T13:37:33Z</time>
      </trkpt>
      <trkpt lat="48.67522" lon="6.12881">
        <ele>501.2</ele>
        <time>2020-10-03T13:37:34Z</time>
      </trkpt>
      <trkpt lat="48.67508" lon="6.12812">
        <ele>501.4</ele>
        <time>2020-10-03T13:38:18Z</time>
      </trkpt>
      <trkpt lat="48.6751" lon="6.12812">
        <ele>501.4</ele>
        <time>2020-10-03T13:38:19Z</time>
      </trkpt>
      <trkpt lat="48.67511" lon="6.12813">
        <ele>501.2</ele>
        <time>2020-10-03T13:38:20Z</time>
      </trkpt>
      <trkpt lat="48.67514" lon="6.12812">
        <ele>501.2</ele>
        <time>2020-10-03T13:38:21Z</time>
      </trkpt>
      <trkpt lat="48.67516" lon="6.1281">
        <ele>501.2</ele>
        <time>2020-10-03T13:38:22Z</time>
      </trkpt>
      <trkpt lat="48.67518" lon="6.1281">
        <ele>501</ele>
        <time>2020-10-03T13:38:23Z</time>
      </trkpt>
      <trkpt lat="48.6752" lon="6.12809">
        <ele>501</ele>
        <time>2020-10-03T13:38:24Z</time>
      </trkpt>
      <trkpt lat="48.67524" lon="6.12808">
        <ele>500.8</ele>
        <time>2020-10-03T13:38:25Z</time>
      </trkpt>
      <trkpt lat="48.67525" lon="6.12806">
        <ele>500.8</ele>
        <time>2020-10-03T13:38:26Z</time>
      </trkpt>
      <trkpt lat="48.67527" lon="6.12806">
        <ele>500.8</ele>
        <time>2020-10-03T13:38:27Z</time>
      </trkpt>
      <trkpt lat="48.67529" lon="6.12805">
        <ele>501</ele>
        <time>2020-10-03T13:38:28Z</time>
      </trkpt>
      <trkpt lat="48.67531" lon="6.12804">
        <ele>500.8</ele>
        <time>2020-10-03T13:38:29Z</time>
      </trkpt>
      <trkpt lat="48.67532" lon="6.12804">
        <ele>500.8</ele>
        <time>2020-10-03T13:38:30Z</time>
      </trkpt>
      <trkpt lat="48.67533" lon="6.12803">
        <ele>500.6</ele>
        <time>2020-10-03T13:38:31Z</time>
      </trkpt>
      <trkpt lat="48.67534" lon="6.12802">
        <ele>500.6</ele>
        <time>2020-10-03T13:38:32Z</time>
      </trkpt>
      <trkpt lat="48.67535" lon="6.12802">
        <ele>500.8</ele>
        <time>2020-10-03T13:38:33Z</time>
      </trkpt>
      <trkpt lat="48.67538" lon="6.128">
        <ele>500.8</ele>
        <time>2020-10-03T13:38:34Z</time>
      </trkpt>
      <trkpt lat="48.6754" lon="6.128">
        <ele>500.8</ele>
        <time>2020-10-03T13:38:35Z</time>
      </trkpt>
      <trkpt lat="48.67542" lon="6.12799">
        <ele>500.8</ele>
        <time>2020-10-03T13:38:36Z</time>
      </trkpt>
      <trkpt lat="48.67544" lon="6.12798">
        <ele>500.8</ele>
        <time>2020-10-03T13:38:37Z</time>
      </trkpt>
      <trkpt lat="48.67546" lon="6.12798">
        <ele>500.6</ele>
        <time>2020-10-03T13:38:38Z</time>
      </trkpt>
      <trkpt lat="48.6755" lon="6.12798">
        <ele>500.6</ele>
        <time>2020-10-03T13:38:39Z</time>
      </trkpt>
      <trkpt lat="48.6755" lon="6.12798">
        <ele>500.8</ele>
        <time>2020-10-03T13:38:40Z</time>
      </trkpt>
      <trkpt lat="48.67552" lon="6.12798">
        <ele>501</ele>
        <time>2020-10-03T13:38:41Z</time>
      </trkpt>
      <trkpt lat="48.67554" lon="6.12798">
        <ele>501.2</ele>
        <time>2020-10-03T13:38:42Z</time>
      </trkpt>
      <trkpt lat="48.67556" lon="6.12797">
        <ele>501.2</ele>
        <time>2020-10-03T13:38:43Z</time>
      </trkpt>
      <trkpt lat="48.67558" lon="6.12797">
        <ele>501.2</ele>
        <time>2020-10-03T13:38:44Z</time>
      </trkpt>
      <trkpt lat="48.6756" lon="6.12796">
        <ele>501.2</ele>
        <time>2020-10-03T13:38:45Z</time>
      </trkpt>
      <trkpt lat="48.67564" lon="6.12795">
        <ele>501.2</ele>
        <time>2020-10-03T13:38:46Z</time>
      </trkpt>
      <trkpt lat="48.67566" lon="6.12794">
        <ele>501.4</ele>
        <time>2020-10-03T13:38:47Z</time>
      </trkpt>
      <trkpt lat="48.67569" lon="6.12793">
        <ele>501.2</ele>
        <time>2020-10-03T13:38:48Z</time>
      </trkpt>
      <trkpt lat="48.67571" lon="6.12792">
        <ele>501.2</ele>
        <time>2020-10-03T13:38:49Z</time>
      </trkpt>
      <trkpt lat="48.67574" lon="6.12791">
        <ele>501.4</ele>
        <time>2020-10-03T13:38:50Z</time>
      </trkpt>
      <trkpt lat="48.67578" lon="6.1279">
        <ele>501.4</ele>
        <time>2020-10-03T13:38:51Z</time>
      </trkpt>
      <trkpt lat="48.67581" lon="6.1279">
        <ele>501.6</ele>
        <time>2020-10-03T13:38:52Z</time>
      </trkpt>
      <trkpt lat="48.67584" lon="6.12789">
        <ele>501.6</ele>
        <time>2020-10-03T13:38:53Z</time>
      </trkpt>
      <trkpt lat="48.67586" lon="6.12789">
        <ele>501.8</ele>
        <time>2020-10-03T13:38:54Z</time>
      </trkpt>
      <trkpt lat="48.67589" lon="6.12788">
        <ele>501.8</ele>
        <time>2020-10-03T13:38:55Z</time>
      </trkpt>
      <trkpt lat="48.67592" lon="6.12787">
        <ele>501.6</ele>
        <time>2020-10-03T13:38:56Z</time>
      </trkpt>
      <trkpt lat="48.67596" lon="6.12786">
        <ele>501.8</ele>
        <time>2020-10-03T13:38:57Z</time>
      </trkpt>
      <trkpt lat="48.67599" lon="6.12785">
        <ele>501.8</ele>
        <time>2020-10-03T13:38:58Z</time>
      </trkpt>
      <trkpt lat="48.67602" lon="6.12784">
        <ele>501.8</ele>
        <time>2020-10-03T13:38:59Z</time>
      </trkpt>
      <trkpt lat="48.67605" lon="6.12783">
        <ele>501.8</ele>
        <time>2020-10-03T13:39:00Z</time>
      </trkpt>
      <trkpt lat="48.67608" lon="6.12782">
        <ele>501.8</ele>
        <time>2020-10-03T13:39:01Z</time>
      </trkpt>
      <trkpt lat="48.67612" lon="6.1278">
        <ele>501.8</ele>
        <time>2020-10-03T13:39:02Z</time>
      </trkpt>
      <trkpt lat="48.67615" lon="6.12779">
        <ele>501.8</ele>
        <time>2020-10-03T13:39:03Z</time>
      </trkpt>
      <trkpt lat="48.67619" lon="6.12777">
        <ele>502</ele>
        <time>2020-10-03T13:39:04Z</time>
      </trkpt>
      <trkpt lat="48.67624" lon="6.12776">
        <ele>502</ele>
        <time>2020-10-03T13:39:05Z</time>
      </trkpt>
      <trkpt lat="48.67627" lon="6.12774">
        <ele>501.8</ele>
        <time>2020-10-03T13:39:06Z</time>
      </trkpt>
      <trkpt lat="48.67631" lon="6.12772">
        <ele>502</ele>
        <time>2020-10-03T13:39:07Z</time>
      </trkpt>
      <trkpt lat="48.67633" lon="6.1277">
        <ele>502.2</ele>
        <time>2020-10-03T13:39:08Z</time>
      </trkpt>
      <trkpt lat="48.67636" lon="6.12769">
        <ele>502.6</ele>
        <time>2020-10-03T13:39:09Z</time>
      </trkpt>
      <trkpt lat="48.67641" lon="6.12767">
        <ele>502.6</ele>
        <time>2020-10-03T13:39:10Z</time>
      </trkpt>
      <trkpt lat="48.67645" lon="6.12765">
        <ele>502.8</ele>
        <time>2020-10-03T13:39:11Z</time>
      </trkpt>
      <trkpt lat="48.67647" lon="6.12765">
        <ele>503</ele>
        <time>2020-10-03T13:39:12Z</time>
      </trkpt>
      <trkpt lat="48.67652" lon="6.12765">
        <ele>503.2</ele>
        <time>2020-10-03T13:39:13Z</time>
      </trkpt>
      <trkpt lat="48.67657" lon="6.12764">
        <ele>503.2</ele>
        <time>2020-10-03T13:39:14Z</time>
      </trkpt>
      <trkpt lat="48.67661" lon="6.12764">
        <ele>503</ele>
        <time>2020-10-03T13:39:15Z</time>
      </trkpt>
      <trkpt lat="48.67664" lon="6.12763">
        <ele>503</ele>
        <time>2020-10-03T13:39:16Z</time>
      </trkpt>
      <trkpt lat="48.67667" lon="6.12762">
        <ele>502.8</ele>
        <time>2020-10-03T13:39:17Z</time>
      </trkpt>
      <trkpt lat="48.6767" lon="6.12761">
        <ele>502.8</ele>
        <time>2020-10-03T13:39:18Z</time>
      </trkpt>
      <trkpt lat="48.67673" lon="6.12761">
        <ele>502.8</ele>
        <time>2020-10-03T13:39:19Z</time>
      </trkpt>
      <trkpt lat="48.67676" lon="6.12761">
        <ele>502.8</ele>
        <time>2020-10-03T13:39:20Z</time>
      </trkpt>
      <trkpt lat="48.67679" lon="6.1276">
        <ele>503</ele>
        <time>2020-10-03T13:39:21Z</time>
      </trkpt>
      <trkpt lat="48.67682" lon="6.12758">
        <ele>503</ele>
        <time>2020-10-03T13:39:22Z</time>
      </trkpt>
      <trkpt lat="48.67684" lon="6.12757">
        <ele>503</ele>
        <time>2020-10-03T13:39:23Z</time>
      </trkpt>
      <trkpt lat="48.67687" lon="6.12755">
        <ele>503</ele>
        <time>2020-10-03T13:39:24Z</time>
      </trkpt>
      <trkpt lat="48.67692" lon="6.12754">
        <ele>503.2</ele>
        <time>2020-10-03T13:39:25Z</time>
      </trkpt>
      <trkpt lat="48.67697" lon="6.12752">
        <ele>503.2</ele>
        <time>2020-10-03T13:39:26Z</time>
      </trkpt>
      <trkpt lat="48.67701" lon="6.12751">
        <ele>503.2</ele>
        <time>2020-10-03T13:39:27Z</time>
      </trkpt>
      <trkpt lat="48.67703" lon="6.1275">
        <ele>503</ele>
        <time>2020-10-03T13:39:28Z</time>
      </trkpt>
      <trkpt lat="48.67707" lon="6.12748">
        <ele>503</ele>
        <time>2020-10-03T13:39:29Z</time>
      </trkpt>
      <trkpt lat="48.6771" lon="6.12747">
        <ele>503</ele>
        <time>2020-10-03T13:39:30Z</time>
      </trkpt>
      <trkpt lat="48.67714" lon="6.12745">
        <ele>503</ele>
        <time>2020-10-03T13:39:31Z</time>
      </trkpt>
      <trkpt lat="48.67719" lon="6.12744">
        <ele>503.2</ele>
        <time>2020-10-03T13:39:32Z</time>
      </trkpt>
      <trkpt lat="48.67722" lon="6.12744">
        <ele>503.2</ele>
        <time>2020-10-03T13:39:33Z</time>
      </trkpt>
      <trkpt lat="48.67726" lon="6.12742">
        <ele>503.2</ele>
        <time>2020-10-03T13:39:34Z</time>
      </trkpt>
      <trkpt lat="48.6773" lon="6.12741">
        <ele>503.2</ele>
        <time>2020-10-03T13:39:35Z</time>
      </trkpt>
      <trkpt lat="48.67731" lon="6.12741">
        <ele>503.4</ele>
        <time>2020-10-03T13:39:36Z</time>
      </trkpt>
      <trkpt lat="48.67735" lon="6.12739">
        <ele>503.6</ele>
        <time>2020-10-03T13:39:37Z</time>
      </trkpt>
      <trkpt lat="48.67738" lon="6.12738">
        <ele>503.8</ele>
        <time>2020-10-03T13:39:38Z</time>
      </trkpt>
      <trkpt lat="48.67742" lon="6.12737">
        <ele>504</ele>
        <time>2020-10-03T13:39:39Z</time>
      </trkpt>
      <trkpt lat="48.67746" lon="6.12736">
        <ele>504.2</ele>
        <time>2020-10-03T13:39:40Z</time>
      </trkpt>
      <trkpt lat="48.67753" lon="6.12734">
        <ele>504.4</ele>
        <time>2020-10-03T13:39:41Z</time>
      </trkpt>
      <trkpt lat="48.67758" lon="6.12732">
        <ele>504.8</ele>
        <time>2020-10-03T13:39:42Z</time>
      </trkpt>
      <trkpt lat="48.67762" lon="6.12732">
        <ele>504.8</ele>
        <time>2020-10-03T13:39:43Z</time>
      </trkpt>
      <trkpt lat="48.67766" lon="6.12731">
        <ele>504.8</ele>
        <time>2020-10-03T13:39:44Z</time>
      </trkpt>
      <trkpt lat="48.6777" lon="6.1273">
        <ele>505</ele>
        <time>2020-10-03T13:39:45Z</time>
      </trkpt>
      <trkpt lat="48.67773" lon="6.1273">
        <ele>505.2</ele>
        <time>2020-10-03T13:39:46Z</time>
      </trkpt>
      <trkpt lat="48.67776" lon="6.12731">
        <ele>505.2</ele>
        <time>2020-10-03T13:39:47Z</time>
      </trkpt>
      <trkpt lat="48.67781" lon="6.1273">
        <ele>505</ele>
        <time>2020-10-03T13:39:48Z</time>
      </trkpt>
      <trkpt lat="48.67784" lon="6.1273">
        <ele>504.6</ele>
        <time>2020-10-03T13:39:49Z</time>
      </trkpt>
      <trkpt lat="48.67786" lon="6.12731">
        <ele>504.6</ele>
        <time>2020-10-03T13:39:50Z</time>
      </trkpt>
      <trkpt lat="48.6779" lon="6.12731">
        <ele>504.6</ele>
        <time>2020-10-03T13:39:51Z</time>
      </trkpt>
      <trkpt lat="48.67795" lon="6.12729">
        <ele>504.4</ele>
        <time>2020-10-03T13:39:52Z</time>
      </trkpt>
      <trkpt lat="48.67798" lon="6.12727">
        <ele>504.4</ele>
        <time>2020-10-03T13:39:53Z</time>
      </trkpt>
      <trkpt lat="48.67802" lon="6.12726">
        <ele>504.2</ele>
        <time>2020-10-03T13:39:54Z</time>
      </trkpt>
      <trkpt lat="48.67805" lon="6.12726">
        <ele>504.4</ele>
        <time>2020-10-03T13:39:55Z</time>
      </trkpt>
      <trkpt lat="48.67809" lon="6.12725">
        <ele>504.4</ele>
        <time>2020-10-03T13:39:56Z</time>
      </trkpt>
      <trkpt lat="48.67813" lon="6.12723">
        <ele>504.4</ele>
        <time>2020-10-03T13:39:57Z</time>
      </trkpt>
      <trkpt lat="48.67817" lon="6.12722">
        <ele>504.4</ele>
        <time>2020-10-03T13:39:58Z</time>
      </trkpt>
      <trkpt lat="48.6782" lon="6.12721">
        <ele>504.4</ele>
        <time>2020-10-03T13:39:59Z</time>
      </trkpt>
      <trkpt lat="48.67824" lon="6.1272">
        <ele>504.6</ele>
        <time>2020-10-03T13:40:00Z</time>
      </trkpt>
      <trkpt lat="48.67828" lon="6.12719">
        <ele>504.8</ele>
        <time>2020-10-03T13:40:01Z</time>
      </trkpt>
      <trkpt lat="48.67832" lon="6.12717">
        <ele>505</ele>
        <time>2020-10-03T13:40:02Z</time>
      </trkpt>
      <trkpt lat="48.67835" lon="6.12716">
        <ele>504.8</ele>
        <time>2020-10-03T13:40:03Z</time>
      </trkpt>
      <trkpt lat="48.67839" lon="6.12716">
        <ele>504.4</ele>
        <time>2020-10-03T13:40:04Z</time>
      </trkpt>
      <trkpt lat="48.67844" lon="6.12714">
        <ele>504.4</ele>
        <time>2020-10-03T13:40:05Z</time>
      </trkpt>
      <trkpt lat="48.67848" lon="6.12712">
        <ele>504.6</ele>
        <time>2020-10-03T13:40:06Z</time>
      </trkpt>
      <trkpt lat="48.67851" lon="6.12711">
        <ele>504.8</ele>
        <time>2020-10-03T13:40:07Z</time>
      </trkpt>
      <trkpt lat="48.67855" lon="6.12709">
        <ele>505</ele>
        <time>2020-10-03T13:40:08Z</time>
      </trkpt>
      <trkpt lat="48.67858" lon="6.12711">
        <ele>505</ele>
        <time>2020-10-03T13:40:09Z</time>
      </trkpt>
      <trkpt lat="48.67862" lon="6.1271">
        <ele>505</ele>
        <time>2020-10-03T13:40:10Z</time>
      </trkpt>
      <trkpt lat="48.67865" lon="6.12707">
        <ele>505</ele>
        <time>2020-10-03T13:40:11Z</time>
      </trkpt>
      <trkpt lat="48.67869" lon="6.12705">
        <ele>505</ele>
        <time>2020-10-03T13:40:12Z</time>
      </trkpt>
      <trkpt lat="48.67875" lon="6.12704">
        <ele>505</ele>
        <time>2020-10-03T13:40:13Z</time>
      </trkpt>
      <trkpt lat="48.67879" lon="6.12703">
        <ele>505</ele>
        <time>2020-10-03T13:40:14Z</time>
      </trkpt>
      <trkpt lat="48.67883" lon="6.12702">
        <ele>505</ele>
        <time>2020-10-03T13:40:15Z</time>
      </trkpt>
      <trkpt lat="48.67887" lon="6.12701">
        <ele>505</ele>
        <time>2020-10-03T13:40:16Z</time>
      </trkpt>
      <trkpt lat="48.6789" lon="6.12701">
        <ele>505.2</ele>
        <time>2020-10-03T13:40:17Z</time>
      </trkpt>
      <trkpt lat="48.67895" lon="6.12698">
        <ele>505.2</ele>
        <time>2020-10-03T13:40:18Z</time>
      </trkpt>
      <trkpt lat="48.67899" lon="6.12696">
        <ele>505</ele>
        <time>2020-10-03T13:40:19Z</time>
      </trkpt>
      <trkpt lat="48.67904" lon="6.12695">
        <ele>505</ele>
        <time>2020-10-03T13:40:20Z</time>
      </trkpt>
      <trkpt lat="48.67909" lon="6.12692">
        <ele>505</ele>
        <time>2020-10-03T13:40:21Z</time>
      </trkpt>
      <trkpt lat="48.67914" lon="6.1269">
        <ele>505.2</ele>
        <time>2020-10-03T13:40:22Z</time>
      </trkpt>
      <trkpt lat="48.67919" lon="6.1269">
        <ele>505.4</ele>
        <time>2020-10-03T13:40:23Z</time>
      </trkpt>
      <trkpt lat="48.67924" lon="6.12688">
        <ele>505.4</ele>
        <time>2020-10-03T13:40:24Z</time>
      </trkpt>
      <trkpt lat="48.67929" lon="6.12687">
        <ele>505.2</ele>
        <time>2020-10-03T13:40:25Z</time>
      </trkpt>
      <trkpt lat="48.67932" lon="6.12685">
        <ele>505</ele>
        <time>2020-10-03T13:40:26Z</time>
      </trkpt>
      <trkpt lat="48.67936" lon="6.12683">
        <ele>505</ele>
        <time>2020-10-03T13:40:27Z</time>
      </trkpt>
      <trkpt lat="48.6794" lon="6.12682">
        <ele>505.2</ele>
        <time>2020-10-03T13:40:28Z</time>
      </trkpt>
      <trkpt lat="48.67944" lon="6.12682">
        <ele>505.2</ele>
        <time>2020-10-03T13:40:29Z</time>
      </trkpt>
      <trkpt lat="48.67948" lon="6.12679">
        <ele>505</ele>
        <time>2020-10-03T13:40:30Z</time>
      </trkpt>
      <trkpt lat="48.67952" lon="6.12678">
        <ele>505</ele>
        <time>2020-10-03T13:40:31Z</time>
      </trkpt>
      <trkpt lat="48.67956" lon="6.12679">
        <ele>505</ele>
        <time>2020-10-03T13:40:32Z</time>
      </trkpt>
      <trkpt lat="48.67962" lon="6.12677">
        <ele>504.8</ele>
        <time>2020-10-03T13:40:33Z</time>
      </trkpt>
      <trkpt lat="48.67968" lon="6.12674">
        <ele>504.8</ele>
        <time>2020-10-03T13:40:34Z</time>
      </trkpt>
      <trkpt lat="48.67973" lon="6.12672">
        <ele>504.8</ele>
        <time>2020-10-03T13:40:35Z</time>
      </trkpt>
      <trkpt lat="48.67979" lon="6.1267">
        <ele>505</ele>
        <time>2020-10-03T13:40:36Z</time>
      </trkpt>
      <trkpt lat="48.67984" lon="6.12668">
        <ele>504.8</ele>
        <time>2020-10-03T13:40:37Z</time>
      </trkpt>
      <trkpt lat="48.67988" lon="6.12666">
        <ele>504.8</ele>
        <time>2020-10-03T13:40:38Z</time>
      </trkpt>
      <trkpt lat="48.67992" lon="6.12665">
        <ele>504.8</ele>
        <time>2020-10-03T13:40:39Z</time>
      </trkpt>
      <trkpt lat="48.67998" lon="6.12663">
        <ele>504.8</ele>
        <time>2020-10-03T13:40:40Z</time>
      </trkpt>
      <trkpt lat="48.68003" lon="6.12661">
        <ele>504.8</ele>
        <time>2020-10-03T13:40:41Z</time>
      </trkpt>
      <trkpt lat="48.68008" lon="6.12658">
        <ele>504.6</ele>
        <time>2020-10-03T13:40:42Z</time>
      </trkpt>
      <trkpt lat="48.68014" lon="6.12657">
        <ele>504.8</ele>
        <time>2020-10-03T13:40:43Z</time>
      </trkpt>
      <trkpt lat="48.68018" lon="6.12655">
        <ele>504.8</ele>
        <time>2020-10-03T13:40:44Z</time>
      </trkpt>
      <trkpt lat="48.68024" lon="6.12653">
        <ele>504.8</ele>
        <time>2020-10-03T13:40:45Z</time>
      </trkpt>
      <trkpt lat="48.68029" lon="6.1265">
        <ele>504.8</ele>
        <time>2020-10-03T13:40:46Z</time>
      </trkpt>
      <trkpt lat="48.68032" lon="6.12649">
        <ele>504.6</ele>
        <time>2020-10-03T13:40:47Z</time>
      </trkpt>
      <trkpt lat="48.68038" lon="6.12647">
        <ele>504.4</ele>
        <time>2020-10-03T13:40:48Z</time>
      </trkpt>
      <trkpt lat="48.68042" lon="6.12646">
        <ele>504.4</ele>
        <time>2020-10-03T13:40:49Z</time>
      </trkpt>
      <trkpt lat="48.68047" lon="6.12645">
        <ele>504.4</ele>
        <time>2020-10-03T13:40:50Z</time>
      </trkpt>
      <trkpt lat="48.68053" lon="6.12645">
        <ele>504.6</ele>
        <time>2020-10-03T13:40:51Z</time>
      </trkpt>
      <trkpt lat="48.68058" lon="6.12644">
        <ele>504.8</ele>
        <time>2020-10-03T13:40:52Z</time>
      </trkpt>
      <trkpt lat="48.68062" lon="6.12643">
        <ele>504.8</ele>
        <time>2020-10-03T13:40:53Z</time>
      </trkpt>
      <trkpt lat="48.68067" lon="6.12641">
        <ele>504.6</ele>
        <time>2020-10-03T13:40:54Z</time>
      </trkpt>
      <trkpt lat="48.68071" lon="6.12639">
        <ele>504.4</ele>
        <time>2020-10-03T13:40:55Z</time>
      </trkpt>
      <trkpt lat="48.68075" lon="6.12638">
        <ele>504.4</ele>
        <time>2020-10-03T13:40:56Z</time>
      </trkpt>
      <trkpt lat="48.68078" lon="6.12635">
        <ele>504.4</ele>
        <time>2020-10-03T13:40:57Z</time>
      </trkpt>
      <trkpt lat="48.68083" lon="6.12634">
        <ele>504.4</ele>
        <time>2020-10-03T13:40:58Z</time>
      </trkpt>
      <trkpt lat="48.68087" lon="6.12632">
        <ele>504.2</ele>
        <time>2020-10-03T13:40:59Z</time>
      </trkpt>
      <trkpt lat="48.68092" lon="6.1263">
        <ele>504.2</ele>
        <time>2020-10-03T13:41:00Z</time>
      </trkpt>
      <trkpt lat="48.68095" lon="6.1263">
        <ele>504.2</ele>
        <time>2020-10-03T13:41:01Z</time>
      </trkpt>
      <trkpt lat="48.68099" lon="6.12629">
        <ele>504.2</ele>
        <time>2020-10-03T13:41:02Z</time>
      </trkpt>
      <trkpt lat="48.68104" lon="6.12629">
        <ele>504.2</ele>
        <time>2020-10-03T13:41:03Z</time>
      </trkpt>
      <trkpt lat="48.68108" lon="6.12629">
        <ele>504.2</ele>
        <time>2020-10-03T13:41:04Z</time>
      </trkpt>
      <trkpt lat="48.68115" lon="6.12627">
        <ele>504.2</ele>
        <time>2020-10-03T13:41:05Z</time>
      </trkpt>
      <trkpt lat="48.68119" lon="6.12626">
        <ele>504.2</ele>
        <time>2020-10-03T13:41:06Z</time>
      </trkpt>
      <trkpt lat="48.68123" lon="6.12626">
        <ele>504.2</ele>
        <time>2020-10-03T13:41:07Z</time>
      </trkpt>
      <trkpt lat="48.68126" lon="6.12627">
        <ele>504.4</ele>
        <time>2020-10-03T13:41:08Z</time>
      </trkpt>
      <trkpt lat="48.68129" lon="6.12629">
        <ele>504.2</ele>
        <time>2020-10-03T13:41:09Z</time>
      </trkpt>
      <trkpt lat="48.68136" lon="6.12632">
        <ele>504.4</ele>
        <time>2020-10-03T13:41:10Z</time>
      </trkpt>
      <trkpt lat="48.68141" lon="6.12636">
        <ele>504.4</ele>
        <time>2020-10-03T13:41:11Z</time>
      </trkpt>
      <trkpt lat="48.68147" lon="6.12639">
        <ele>504.2</ele>
        <time>2020-10-03T13:41:12Z</time>
      </trkpt>
      <trkpt lat="48.68151" lon="6.12642">
        <ele>504</ele>
        <time>2020-10-03T13:41:13Z</time>
      </trkpt>
      <trkpt lat="48.68155" lon="6.12645">
        <ele>504</ele>
        <time>2020-10-03T13:41:14Z</time>
      </trkpt>
      <trkpt lat="48.6816" lon="6.12648">
        <ele>504</ele>
        <time>2020-10-03T13:41:15Z</time>
      </trkpt>
      <trkpt lat="48.68164" lon="6.12652">
        <ele>503.8</ele>
        <time>2020-10-03T13:41:16Z</time>
      </trkpt>
      <trkpt lat="48.68168" lon="6.12655">
        <ele>504</ele>
        <time>2020-10-03T13:41:17Z</time>
      </trkpt>
      <trkpt lat="48.68174" lon="6.12659">
        <ele>504</ele>
        <time>2020-10-03T13:41:18Z</time>
      </trkpt>
      <trkpt lat="48.68178" lon="6.12662">
        <ele>504</ele>
        <time>2020-10-03T13:41:19Z</time>
      </trkpt>
      <trkpt lat="48.68183" lon="6.12665">
        <ele>504.2</ele>
        <time>2020-10-03T13:41:20Z</time>
      </trkpt>
      <trkpt lat="48.68188" lon="6.12668">
        <ele>504.2</ele>
        <time>2020-10-03T13:41:21Z</time>
      </trkpt>
      <trkpt lat="48.68194" lon="6.1267">
        <ele>504</ele>
        <time>2020-10-03T13:41:22Z</time>
      </trkpt>
      <trkpt lat="48.68199" lon="6.12673">
        <ele>503.8</ele>
        <time>2020-10-03T13:41:23Z</time>
      </trkpt>
      <trkpt lat="48.68204" lon="6.12677">
        <ele>503.8</ele>
        <time>2020-10-03T13:41:24Z</time>
      </trkpt>
      <trkpt lat="48.68208" lon="6.12681">
        <ele>503.8</ele>
        <time>2020-10-03T13:41:25Z</time>
      </trkpt>
      <trkpt lat="48.68213" lon="6.12684">
        <ele>503.8</ele>
        <time>2020-10-03T13:41:26Z</time>
      </trkpt>
      <trkpt lat="48.68218" lon="6.12688">
        <ele>504</ele>
        <time>2020-10-03T13:41:27Z</time>
      </trkpt>
      <trkpt lat="48.68222" lon="6.12693">
        <ele>504</ele>
        <time>2020-10-03T13:41:28Z</time>
      </trkpt>
      <trkpt lat="48.68228" lon="6.12696">
        <ele>503.8</ele>
        <time>2020-10-03T13:41:29Z</time>
      </trkpt>
      <trkpt lat="48.68233" lon="6.12699">
        <ele>503.8</ele>
        <time>2020-10-03T13:41:30Z</time>
      </trkpt>
      <trkpt lat="48.68238" lon="6.12703">
        <ele>503.6</ele>
        <time>2020-10-03T13:41:31Z</time>
      </trkpt>
      <trkpt lat="48.68243" lon="6.12707">
        <ele>503.6</ele>
        <time>2020-10-03T13:41:32Z</time>
      </trkpt>
      <trkpt lat="48.68248" lon="6.12712">
        <ele>503.8</ele>
        <time>2020-10-03T13:41:33Z</time>
      </trkpt>
      <trkpt lat="48.68254" lon="6.12716">
        <ele>503.6</ele>
        <time>2020-10-03T13:41:34Z</time>
      </trkpt>
      <trkpt lat="48.68259" lon="6.1272">
        <ele>503.4</ele>
        <time>2020-10-03T13:41:35Z</time>
      </trkpt>
      <trkpt lat="48.68263" lon="6.12725">
        <ele>503.2</ele>
        <time>2020-10-03T13:41:36Z</time>
      </trkpt>
      <trkpt lat="48.68268" lon="6.12729">
        <ele>503.2</ele>
        <time>2020-10-03T13:41:37Z</time>
      </trkpt>
      <trkpt lat="48.68273" lon="6.12734">
        <ele>502.8</ele>
        <time>2020-10-03T13:41:38Z</time>
      </trkpt>
      <trkpt lat="48.68278" lon="6.12739">
        <ele>502.8</ele>
        <time>2020-10-03T13:41:39Z</time>
      </trkpt>
      <trkpt lat="48.68283" lon="6.12744">
        <ele>503</ele>
        <time>2020-10-03T13:41:40Z</time>
      </trkpt>
      <trkpt lat="48.68288" lon="6.12749">
        <ele>503</ele>
        <time>2020-10-03T13:41:41Z</time>
      </trkpt>
      <trkpt lat="48.68294" lon="6.12753">
        <ele>502.8</ele>
        <time>2020-10-03T13:41:42Z</time>
      </trkpt>
      <trkpt lat="48.68298" lon="6.12758">
        <ele>502.6</ele>
        <time>2020-10-03T13:41:43Z</time>
      </trkpt>
      <trkpt lat="48.68304" lon="6.12763">
        <ele>502.6</ele>
        <time>2020-10-03T13:41:44Z</time>
      </trkpt>
      <trkpt lat="48.68308" lon="6.12768">
        <ele>502.4</ele>
        <time>2020-10-03T13:41:45Z</time>
      </trkpt>
      <trkpt lat="48.68313" lon="6.12773">
        <ele>502.2</ele>
        <time>2020-10-03T13:41:46Z</time>
      </trkpt>
      <trkpt lat="48.68317" lon="6.12779">
        <ele>502</ele>
        <time>2020-10-03T13:41:47Z</time>
      </trkpt>
      <trkpt lat="48.68322" lon="6.12784">
        <ele>501.8</ele>
        <time>2020-10-03T13:41:48Z</time>
      </trkpt>
      <trkpt lat="48.68327" lon="6.12789">
        <ele>501.4</ele>
        <time>2020-10-03T13:41:49Z</time>
      </trkpt>
      <trkpt lat="48.68333" lon="6.12793">
        <ele>501.2</ele>
        <time>2020-10-03T13:41:50Z</time>
      </trkpt>
      <trkpt lat="48.68337" lon="6.12798">
        <ele>501</ele>
        <time>2020-10-03T13:41:51Z</time>
      </trkpt>
      <trkpt lat="48.68342" lon="6.12803">
        <ele>500.8</ele>
        <time>2020-10-03T13:41:52Z</time>
      </trkpt>
      <trkpt lat="48.68348" lon="6.12808">
        <ele>500.6</ele>
        <time>2020-10-03T13:41:53Z</time>
      </trkpt>
      <trkpt lat="48.68354" lon="6.12812">
        <ele>500.4</ele>
        <time>2020-10-03T13:41:54Z</time>
      </trkpt>
      <trkpt lat="48.68359" lon="6.12817">
        <ele>500.2</ele>
        <time>2020-10-03T13:41:55Z</time>
      </trkpt>
      <trkpt lat="48.68364" lon="6.12822">
        <ele>500</ele>
        <time>2020-10-03T13:41:56Z</time>
      </trkpt>
      <trkpt lat="48.68368" lon="6.12828">
        <ele>499.8</ele>
        <time>2020-10-03T13:41:57Z</time>
      </trkpt>
      <trkpt lat="48.68372" lon="6.12833">
        <ele>499.6</ele>
        <time>2020-10-03T13:41:58Z</time>
      </trkpt>
      <trkpt lat="48.68376" lon="6.12838">
        <ele>499.2</ele>
        <time>2020-10-03T13:41:59Z</time>
      </trkpt>
      <trkpt lat="48.6838" lon="6.12842">
        <ele>499.2</ele>
        <time>2020-10-03T13:42:00Z</time>
      </trkpt>
      <trkpt lat="48.68385" lon="6.12846">
        <ele>498.8</ele>
        <time>2020-10-03T13:42:01Z</time>
      </trkpt>
      <trkpt lat="48.68389" lon="6.12851">
        <ele>498.6</ele>
        <time>2020-10-03T13:42:02Z</time>
      </trkpt>
      <trkpt lat="48.68393" lon="6.12856">
        <ele>498.4</ele>
        <time>2020-10-03T13:42:03Z</time>
      </trkpt>
      <trkpt lat="48.68397" lon="6.1286">
        <ele>498.4</ele>
        <time>2020-10-03T13:42:04Z</time>
      </trkpt>
      <trkpt lat="48.68401" lon="6.12863">
        <ele>498.4</ele>
        <time>2020-10-03T13:42:05Z</time>
      </trkpt>
      <trkpt lat="48.68406" lon="6.12867">
        <ele>498.2</ele>
        <time>2020-10-03T13:42:06Z</time>
      </trkpt>
      <trkpt lat="48.68411" lon="6.12871">
        <ele>498</ele>
        <time>2020-10-03T13:42:07Z</time>
      </trkpt>
      <trkpt lat="48.68415" lon="6.12875">
        <ele>497.8</ele>
        <time>2020-10-03T13:42:08Z</time>
      </trkpt>
      <trkpt lat="48.68418" lon="6.12879">
        <ele>497.8</ele>
        <time>2020-10-03T13:42:09Z</time>
      </trkpt>
      <trkpt lat="48.68422" lon="6.12882">
        <ele>497.6</ele>
        <time>2020-10-03T13:42:10Z</time>
      </trkpt>
      <trkpt lat="48.68425" lon="6.12885">
        <ele>497.4</ele>
        <time>2020-10-03T13:42:11Z</time>
      </trkpt>
      <trkpt lat="48.68428" lon="6.12887">
        <ele>497</ele>
        <time>2020-10-03T13:42:12Z</time>
      </trkpt>
      <trkpt lat="48.68431" lon="6.12889">
        <ele>496.4</ele>
        <time>2020-10-03T13:42:13Z</time>
      </trkpt>
      <trkpt lat="48.68433" lon="6.12891">
        <ele>496</ele>
        <time>2020-10-03T13:42:14Z</time>
      </trkpt>
      <trkpt lat="48.68434" lon="6.12892">
        <ele>495.8</ele>
        <time>2020-10-03T13:42:15Z</time>
      </trkpt>
      <trkpt lat="48.68435" lon="6.12893">
        <ele>495.6</ele>
        <time>2020-10-03T13:42:16Z</time>
      </trkpt>
      <trkpt lat="48.68436" lon="6.12894">
        <ele>495.6</ele>
        <time>2020-10-03T13:42:17Z</time>
      </trkpt>
      <trkpt lat="48.68437" lon="6.12894">
        <ele>495.6</ele>
        <time>2020-10-03T13:42:18Z</time>
      </trkpt>
      <trkpt lat="48.68437" lon="6.12894">
        <ele>495.6</ele>
        <time>2020-10-03T13:42:19Z</time>
      </trkpt>
      <trkpt lat="48.68438" lon="6.12894">
        <ele>495.6</ele>
        <time>2020-10-03T13:42:20Z</time>
      </trkpt>
      <trkpt lat="48.68439" lon="6.12894">
        <ele>495.4</ele>
        <time>2020-10-03T13:42:21Z</time>
      </trkpt>
      <trkpt lat="48.68439" lon="6.12894">
        <ele>495.4</ele>
        <time>2020-10-03T13:42:22Z</time>
      </trkpt>
      <trkpt lat="48.68467" lon="6.12913">
        <ele>495</ele>
        <time>2020-10-03T13:43:19Z</time>
      </trkpt>
      <trkpt lat="48.68469" lon="6.12918">
        <ele>494.8</ele>
        <time>2020-10-03T13:43:20Z</time>
      </trkpt>
      <trkpt lat="48.6847" lon="6.12923">
        <ele>494.8</ele>
        <time>2020-10-03T13:43:21Z</time>
      </trkpt>
      <trkpt lat="48.6847" lon="6.12929">
        <ele>494.6</ele>
        <time>2020-10-03T13:43:22Z</time>
      </trkpt>
      <trkpt lat="48.68473" lon="6.12935">
        <ele>494.6</ele>
        <time>2020-10-03T13:43:23Z</time>
      </trkpt>
      <trkpt lat="48.68475" lon="6.12942">
        <ele>494.2</ele>
        <time>2020-10-03T13:43:24Z</time>
      </trkpt>
      <trkpt lat="48.68478" lon="6.12949">
        <ele>493.8</ele>
        <time>2020-10-03T13:43:25Z</time>
      </trkpt>
      <trkpt lat="48.6848" lon="6.12957">
        <ele>493.6</ele>
        <time>2020-10-03T13:43:26Z</time>
      </trkpt>
      <trkpt lat="48.68484" lon="6.12965">
        <ele>493.2</ele>
        <time>2020-10-03T13:43:27Z</time>
      </trkpt>
      <trkpt lat="48.68487" lon="6.12974">
        <ele>493</ele>
        <time>2020-10-03T13:43:28Z</time>
      </trkpt>
      <trkpt lat="48.68491" lon="6.12984">
        <ele>492.4</ele>
        <time>2020-10-03T13:43:29Z</time>
      </trkpt>
      <trkpt lat="48.68495" lon="6.12994">
        <ele>491.6</ele>
        <time>2020-10-03T13:43:30Z</time>
      </trkpt>
      <trkpt lat="48.68498" lon="6.13005">
        <ele>491.2</ele>
        <time>2020-10-03T13:43:31Z</time>
      </trkpt>
      <trkpt lat="48.68502" lon="6.13015">
        <ele>490.8</ele>
        <time>2020-10-03T13:43:32Z</time>
      </trkpt>
      <trkpt lat="48.68505" lon="6.13026">
        <ele>490.4</ele>
        <time>2020-10-03T13:43:33Z</time>
      </trkpt>
      <trkpt lat="48.68509" lon="6.13037">
        <ele>490</ele>
        <time>2020-10-03T13:43:34Z</time>
      </trkpt>
      <trkpt lat="48.68513" lon="6.13047">
        <ele>489.8</ele>
        <time>2020-10-03T13:43:35Z</time>
      </trkpt>
      <trkpt lat="48.68517" lon="6.13057">
        <ele>489.6</ele>
        <time>2020-10-03T13:43:36Z</time>
      </trkpt>
      <trkpt lat="48.68521" lon="6.13067">
        <ele>489.2</ele>
        <time>2020-10-03T13:43:37Z</time>
      </trkpt>
      <trkpt lat="48.68525" lon="6.13076">
        <ele>489</ele>
        <time>2020-10-03T13:43:38Z</time>
      </trkpt>
      <trkpt lat="48.68529" lon="6.13083">
        <ele>489.2</ele>
        <time>2020-10-03T13:43:39Z</time>
      </trkpt>
      <trkpt lat="48.68535" lon="6.1309">
        <ele>489.4</ele>
        <time>2020-10-03T13:43:40Z</time>
      </trkpt>
      <trkpt lat="48.68541" lon="6.13095">
        <ele>489.4</ele>
        <time>2020-10-03T13:43:41Z</time>
      </trkpt>
      <trkpt lat="48.68547" lon="6.13099">
        <ele>489</ele>
        <time>2020-10-03T13:43:42Z</time>
      </trkpt>
      <trkpt lat="48.68554" lon="6.13101">
        <ele>488.6</ele>
        <time>2020-10-03T13:43:43Z</time>
      </trkpt>
      <trkpt lat="48.6856" lon="6.13103">
        <ele>488.2</ele>
        <time>2020-10-03T13:43:44Z</time>
      </trkpt>
      <trkpt lat="48.68567" lon="6.13105">
        <ele>488.2</ele>
        <time>2020-10-03T13:43:45Z</time>
      </trkpt>
      <trkpt lat="48.68573" lon="6.13105">
        <ele>488.2</ele>
        <time>2020-10-03T13:43:46Z</time>
      </trkpt>
      <trkpt lat="48.68578" lon="6.13106">
        <ele>488</ele>
        <time>2020-10-03T13:43:47Z</time>
      </trkpt>
      <trkpt lat="48.68583" lon="6.13106">
        <ele>488</ele>
        <time>2020-10-03T13:43:48Z</time>
      </trkpt>
      <trkpt lat="48.68588" lon="6.13107">
        <ele>488</ele>
        <time>2020-10-03T13:43:49Z</time>
      </trkpt>
      <trkpt lat="48.68594" lon="6.13106">
        <ele>487.8</ele>
        <time>2020-10-03T13:43:50Z</time>
      </trkpt>
      <trkpt lat="48.68599" lon="6.13105">
        <ele>487.6</ele>
        <time>2020-10-03T13:43:51Z</time>
      </trkpt>
      <trkpt lat="48.68605" lon="6.13104">
        <ele>487.6</ele>
        <time>2020-10-03T13:43:52Z</time>
      </trkpt>
      <trkpt lat="48.6861" lon="6.13102">
        <ele>487.6</ele>
        <time>2020-10-03T13:43:53Z</time>
      </trkpt>
      <trkpt lat="48.68614" lon="6.13101">
        <ele>487.4</ele>
        <time>2020-10-03T13:43:54Z</time>
      </trkpt>
      <trkpt lat="48.68619" lon="6.13099">
        <ele>487.2</ele>
        <time>2020-10-03T13:43:55Z</time>
      </trkpt>
      <trkpt lat="48.68624" lon="6.13098">
        <ele>486.8</ele>
        <time>2020-10-03T13:43:56Z</time>
      </trkpt>
      <trkpt lat="48.68628" lon="6.13097">
        <ele>486.6</ele>
        <time>2020-10-03T13:43:57Z</time>
      </trkpt>
      <trkpt lat="48.68633" lon="6.13098">
        <ele>486.6</ele>
        <time>2020-10-03T13:43:58Z</time>
      </trkpt>
      <trkpt lat="48.68637" lon="6.13102">
        <ele>486.6</ele>
        <time>2020-10-03T13:43:59Z</time>
      </trkpt>
      <trkpt lat="48.68639" lon="6.13108">
        <ele>486.4</ele>
        <time>2020-10-03T13:44:00Z</time>
      </trkpt>
      <trkpt lat="48.6864" lon="6.13114">
        <ele>486.2</ele>
        <time>2020-10-03T13:44:01Z</time>
      </trkpt>
      <trkpt lat="48.68641" lon="6.13121">
        <ele>486</ele>
        <time>2020-10-03T13:44:02Z</time>
      </trkpt>
      <trkpt lat="48.68641" lon="6.13128">
        <ele>485.6</ele>
        <time>2020-10-03T13:44:03Z</time>
      </trkpt>
      <trkpt lat="48.68642" lon="6.13136">
        <ele>485</ele>
        <time>2020-10-03T13:44:04Z</time>
      </trkpt>
      <trkpt lat="48.68642" lon="6.13144">
        <ele>484.4</ele>
        <time>2020-10-03T13:44:05Z</time>
      </trkpt>
      <trkpt lat="48.68643" lon="6.13152">
        <ele>483.8</ele>
        <time>2020-10-03T13:44:06Z</time>
      </trkpt>
      <trkpt lat="48.68643" lon="6.1316">
        <ele>483.2</ele>
        <time>2020-10-03T13:44:07Z</time>
      </trkpt>
      <trkpt lat="48.68644" lon="6.13168">
        <ele>483</ele>
        <time>2020-10-03T13:44:08Z</time>
      </trkpt>
      <trkpt lat="48.68644" lon="6.13174">
        <ele>482.4</ele>
        <time>2020-10-03T13:44:09Z</time>
      </trkpt>
      <trkpt lat="48.68645" lon="6.13179">
        <ele>481.6</ele>
        <time>2020-10-03T13:44:10Z</time>
      </trkpt>
      <trkpt lat="48.68646" lon="6.13183">
        <ele>480.8</ele>
        <time>2020-10-03T13:44:11Z</time>
      </trkpt>
      <trkpt lat="48.68647" lon="6.13186">
        <ele>480</ele>
        <time>2020-10-03T13:44:12Z</time>
      </trkpt>
      <trkpt lat="48.68648" lon="6.13187">
        <ele>479.6</ele>
        <time>2020-10-03T13:44:13Z</time>
      </trkpt>
      <trkpt lat="48.68649" lon="6.13188">
        <ele>479.4</ele>
        <time>2020-10-03T13:44:14Z</time>
      </trkpt>
      <trkpt lat="48.6865" lon="6.13189">
        <ele>479.4</ele>
        <time>2020-10-03T13:44:15Z</time>
      </trkpt>
      <trkpt lat="48.6865" lon="6.13189">
        <ele>479.2</ele>
        <time>2020-10-03T13:44:16Z</time>
      </trkpt>
      <trkpt lat="48.6865" lon="6.13189">
        <ele>479.2</ele>
        <time>2020-10-03T13:44:17Z</time>
      </trkpt>
      <trkpt lat="48.6865" lon="6.13189">
        <ele>479.2</ele>
        <time>2020-10-03T13:44:18Z</time>
      </trkpt>
      <trkpt lat="48.6865" lon="6.1319">
        <ele>479</ele>
        <time>2020-10-03T13:44:19Z</time>
      </trkpt>
      <trkpt lat="48.6866" lon="6.13188">
        <ele>479.2</ele>
        <time>2020-10-03T13:44:25Z</time>
      </trkpt>
      <trkpt lat="48.68663" lon="6.13187">
        <ele>479.2</ele>
        <time>2020-10-03T13:44:26Z</time>
      </trkpt>
      <trkpt lat="48.68666" lon="6.13187">
        <ele>479.2</ele>
        <time>2020-10-03T13:44:27Z</time>
      </trkpt>
      <trkpt lat="48.6867" lon="6.13187">
        <ele>479.6</ele>
        <time>2020-10-03T13:44:28Z</time>
      </trkpt>
      <trkpt lat="48.68674" lon="6.13187">
        <ele>480.2</ele>
        <time>2020-10-03T13:44:29Z</time>
      </trkpt>
      <trkpt lat="48.68677" lon="6.13188">
        <ele>480.6</ele>
        <time>2020-10-03T13:44:30Z</time>
      </trkpt>
      <trkpt lat="48.68681" lon="6.13189">
        <ele>481.2</ele>
        <time>2020-10-03T13:44:31Z</time>
      </trkpt>
      <trkpt lat="48.68684" lon="6.13189">
        <ele>481.8</ele>
        <time>2020-10-03T13:44:32Z</time>
      </trkpt>
      <trkpt lat="48.68688" lon="6.1319">
        <ele>482.6</ele>
        <time>2020-10-03T13:44:33Z</time>
      </trkpt>
      <trkpt lat="48.68692" lon="6.1319">
        <ele>483.2</ele>
        <time>2020-10-03T13:44:34Z</time>
      </trkpt>
      <trkpt lat="48.68695" lon="6.1319">
        <ele>483.6</ele>
        <time>2020-10-03T13:44:35Z</time>
      </trkpt>
      <trkpt lat="48.68698" lon="6.1319">
        <ele>483.8</ele>
        <time>2020-10-03T13:44:36Z</time>
      </trkpt>
      <trkpt lat="48.68702" lon="6.1319">
        <ele>483.8</ele>
        <time>2020-10-03T13:44:37Z</time>
      </trkpt>
      <trkpt lat="48.68704" lon="6.1319">
        <ele>483.6</ele>
        <time>2020-10-03T13:44:38Z</time>
      </trkpt>
      <trkpt lat="48.68706" lon="6.1319">
        <ele>483.6</ele>
        <time>2020-10-03T13:44:39Z</time>
      </trkpt>
      <trkpt lat="48.68707" lon="6.13191">
        <ele>483.6</ele>
        <time>2020-10-03T13:44:40Z</time>
      </trkpt>
      <trkpt lat="48.68709" lon="6.1319">
        <ele>483.6</ele>
        <time>2020-10-03T13:44:41Z</time>
      </trkpt>
      <trkpt lat="48.68711" lon="6.1319">
        <ele>483.6</ele>
        <time>2020-10-03T13:44:42Z</time>
      </trkpt>
      <trkpt lat="48.68713" lon="6.13191">
        <ele>483.6</ele>
        <time>2020-10-03T13:44:43Z</time>
      </trkpt>
      <trkpt lat="48.68715" lon="6.13192">
        <ele>483.2</ele>
        <time>2020-10-03T13:44:44Z</time>
      </trkpt>
      <trkpt lat="48.68715" lon="6.13193">
        <ele>483</ele>
        <time>2020-10-03T13:44:45Z</time>
      </trkpt>
      <trkpt lat="48.68717" lon="6.13193">
        <ele>483.2</ele>
        <time>2020-10-03T13:44:46Z</time>
      </trkpt>
      <trkpt lat="48.68719" lon="6.13194">
        <ele>483.4</ele>
        <time>2020-10-03T13:44:47Z</time>
      </trkpt>
      <trkpt lat="48.68721" lon="6.13195">
        <ele>483.6</ele>
        <time>2020-10-03T13:44:48Z</time>
      </trkpt>
      <trkpt lat="48.68725" lon="6.13195">
        <ele>483.6</ele>
        <time>2020-10-03T13:44:49Z</time>
      </trkpt>
      <trkpt lat="48.68728" lon="6.13196">
        <ele>483.8</ele>
        <time>2020-10-03T13:44:50Z</time>
      </trkpt>
      <trkpt lat="48.68731" lon="6.13197">
        <ele>484</ele>
        <time>2020-10-03T13:44:51Z</time>
      </trkpt>
      <trkpt lat="48.68734" lon="6.13198">
        <ele>484.2</ele>
        <time>2020-10-03T13:44:52Z</time>
      </trkpt>
      <trkpt lat="48.68736" lon="6.132">
        <ele>484.2</ele>
        <time>2020-10-03T13:44:53Z</time>
      </trkpt>
      <trkpt lat="48.68738" lon="6.13201">
        <ele>484.2</ele>
        <time>2020-10-03T13:44:54Z</time>
      </trkpt>
      <trkpt lat="48.68741" lon="6.13203">
        <ele>484.2</ele>
        <time>2020-10-03T13:44:55Z</time>
      </trkpt>
      <trkpt lat="48.68744" lon="6.13204">
        <ele>484.4</ele>
        <time>2020-10-03T13:44:56Z</time>
      </trkpt>
      <trkpt lat="48.68747" lon="6.13206">
        <ele>484.4</ele>
        <time>2020-10-03T13:44:57Z</time>
      </trkpt>
      <trkpt lat="48.6875" lon="6.13209">
        <ele>484.6</ele>
        <time>2020-10-03T13:44:58Z</time>
      </trkpt>
      <trkpt lat="48.68754" lon="6.13212">
        <ele>484.8</ele>
        <time>2020-10-03T13:44:59Z</time>
      </trkpt>
      <trkpt lat="48.68757" lon="6.13215">
        <ele>485</ele>
        <time>2020-10-03T13:45:00Z</time>
      </trkpt>
      <trkpt lat="48.6876" lon="6.13218">
        <ele>485</ele>
        <time>2020-10-03T13:45:01Z</time>
      </trkpt>
      <trkpt lat="48.68763" lon="6.13222">
        <ele>485</ele>
        <time>2020-10-03T13:45:02Z</time>
      </trkpt>
      <trkpt lat="48.68766" lon="6.13225">
        <ele>485.2</ele>
        <time>2020-10-03T13:45:03Z</time>
      </trkpt>
      <trkpt lat="48.68769" lon="6.13229">
        <ele>485.4</ele>
        <time>2020-10-03T13:45:04Z</time>
      </trkpt>
      <trkpt lat="48.68773" lon="6.13232">
        <ele>485.6</ele>
        <time>2020-10-03T13:45:05Z</time>
      </trkpt>
      <trkpt lat="48.68777" lon="6.13236">
        <ele>485.6</ele>
        <time>2020-10-03T13:45:06Z</time>
      </trkpt>
      <trkpt lat="48.6878" lon="6.13241">
        <ele>485.8</ele>
        <time>2020-10-03T13:45:07Z</time>
      </trkpt>
      <trkpt lat="48.68784" lon="6.13245">
        <ele>485.8</ele>
        <time>2020-10-03T13:45:08Z</time>
      </trkpt>
      <trkpt lat="48.68786" lon="6.13249">
        <ele>485.8</ele>
        <time>2020-10-03T13:45:09Z</time>
      </trkpt>
      <trkpt lat="48.6879" lon="6.13254">
        <ele>486</ele>
        <time>2020-10-03T13:45:10Z</time>
      </trkpt>
      <trkpt lat="48.68793" lon="6.13257">
        <ele>485.8</ele>
        <time>2020-10-03T13:45:11Z</time>
      </trkpt>
      <trkpt lat="48.68798" lon="6.13262">
        <ele>485.8</ele>
        <time>2020-10-03T13:45:12Z</time>
      </trkpt>
      <trkpt lat="48.68802" lon="6.13267">
        <ele>485.8</ele>
        <time>2020-10-03T13:45:13Z</time>
      </trkpt>
      <trkpt lat="48.68806" lon="6.13271">
        <ele>485.8</ele>
        <time>2020-10-03T13:45:14Z</time>
      </trkpt>
      <trkpt lat="48.6881" lon="6.13275">
        <ele>485.8</ele>
        <time>2020-10-03T13:45:15Z</time>
      </trkpt>
      <trkpt lat="48.68814" lon="6.1328">
        <ele>485.8</ele>
        <time>2020-10-03T13:45:16Z</time>
      </trkpt>
      <trkpt lat="48.68816" lon="6.13285">
        <ele>485.8</ele>
        <time>2020-10-03T13:45:17Z</time>
      </trkpt>
      <trkpt lat="48.68819" lon="6.1329">
        <ele>485.8</ele>
        <time>2020-10-03T13:45:18Z</time>
      </trkpt>
      <trkpt lat="48.68821" lon="6.13294">
        <ele>485.4</ele>
        <time>2020-10-03T13:45:19Z</time>
      </trkpt>
      <trkpt lat="48.68823" lon="6.13299">
        <ele>485.2</ele>
        <time>2020-10-03T13:45:20Z</time>
      </trkpt>
      <trkpt lat="48.68825" lon="6.13305">
        <ele>485</ele>
        <time>2020-10-03T13:45:21Z</time>
      </trkpt>
      <trkpt lat="48.68828" lon="6.1331">
        <ele>484.8</ele>
        <time>2020-10-03T13:45:22Z</time>
      </trkpt>
      <trkpt lat="48.68831" lon="6.13316">
        <ele>484.8</ele>
        <time>2020-10-03T13:45:23Z</time>
      </trkpt>
      <trkpt lat="48.68834" lon="6.13321">
        <ele>484.6</ele>
        <time>2020-10-03T13:45:24Z</time>
      </trkpt>
      <trkpt lat="48.68836" lon="6.13326">
        <ele>484.6</ele>
        <time>2020-10-03T13:45:25Z</time>
      </trkpt>
      <trkpt lat="48.68838" lon="6.13331">
        <ele>484.2</ele>
        <time>2020-10-03T13:45:26Z</time>
      </trkpt>
      <trkpt lat="48.68841" lon="6.13337">
        <ele>484</ele>
        <time>2020-10-03T13:45:27Z</time>
      </trkpt>
      <trkpt lat="48.68842" lon="6.13342">
        <ele>483.8</ele>
        <time>2020-10-03T13:45:28Z</time>
      </trkpt>
      <trkpt lat="48.68843" lon="6.13346">
        <ele>483.8</ele>
        <time>2020-10-03T13:45:29Z</time>
      </trkpt>
      <trkpt lat="48.68845" lon="6.1335">
        <ele>483.8</ele>
        <time>2020-10-03T13:45:30Z</time>
      </trkpt>
      <trkpt lat="48.68846" lon="6.13354">
        <ele>483.8</ele>
        <time>2020-10-03T13:45:31Z</time>
      </trkpt>
      <trkpt lat="48.68847" lon="6.13357">
        <ele>483.6</ele>
        <time>2020-10-03T13:45:32Z</time>
      </trkpt>
      <trkpt lat="48.68847" lon="6.13361">
        <ele>483.4</ele>
        <time>2020-10-03T13:45:33Z</time>
      </trkpt>
      <trkpt lat="48.68848" lon="6.13365">
        <ele>483.4</ele>
        <time>2020-10-03T13:45:34Z</time>
      </trkpt>
      <trkpt lat="48.68848" lon="6.13368">
        <ele>483.4</ele>
        <time>2020-10-03T13:45:35Z</time>
      </trkpt>
      <trkpt lat="48.68848" lon="6.13373">
        <ele>483.6</ele>
        <time>2020-10-03T13:45:36Z</time>
      </trkpt>
      <trkpt lat="48.68849" lon="6.13378">
        <ele>483.8</ele>
        <time>2020-10-03T13:45:37Z</time>
      </trkpt>
      <trkpt lat="48.68849" lon="6.13382">
        <ele>483.8</ele>
        <time>2020-10-03T13:45:38Z</time>
      </trkpt>
      <trkpt lat="48.6885" lon="6.13387">
        <ele>483.8</ele>
        <time>2020-10-03T13:45:39Z</time>
      </trkpt>
      <trkpt lat="48.6885" lon="6.13392">
        <ele>483.8</ele>
        <time>2020-10-03T13:45:40Z</time>
      </trkpt>
      <trkpt lat="48.68851" lon="6.13398">
        <ele>483.8</ele>
        <time>2020-10-03T13:45:41Z</time>
      </trkpt>
      <trkpt lat="48.68852" lon="6.13403">
        <ele>483.8</ele>
        <time>2020-10-03T13:45:42Z</time>
      </trkpt>
      <trkpt lat="48.68852" lon="6.13409">
        <ele>483.6</ele>
        <time>2020-10-03T13:45:43Z</time>
      </trkpt>
      <trkpt lat="48.68853" lon="6.13416">
        <ele>483.6</ele>
        <time>2020-10-03T13:45:44Z</time>
      </trkpt>
      <trkpt lat="48.68854" lon="6.13422">
        <ele>483.8</ele>
        <time>2020-10-03T13:45:45Z</time>
      </trkpt>
      <trkpt lat="48.68855" lon="6.1343">
        <ele>483.4</ele>
        <time>2020-10-03T13:45:46Z</time>
      </trkpt>
      <trkpt lat="48.68856" lon="6.13437">
        <ele>483.2</ele>
        <time>2020-10-03T13:45:47Z</time>
      </trkpt>
      <trkpt lat="48.68857" lon="6.13444">
        <ele>482.8</ele>
        <time>2020-10-03T13:45:48Z</time>
      </trkpt>
      <trkpt lat="48.68858" lon="6.13451">
        <ele>482.4</ele>
        <time>2020-10-03T13:45:49Z</time>
      </trkpt>
      <trkpt lat="48.68858" lon="6.13457">
        <ele>482.2</ele>
        <time>2020-10-03T13:45:50Z</time>
      </trkpt>
      <trkpt lat="48.68859" lon="6.13463">
        <ele>481.8</ele>
        <time>2020-10-03T13:45:51Z</time>
      </trkpt>
      <trkpt lat="48.68859" lon="6.13469">
        <ele>481.2</ele>
        <time>2020-10-03T13:45:52Z</time>
      </trkpt>
      <trkpt lat="48.6886" lon="6.13475">
        <ele>481</ele>
        <time>2020-10-03T13:45:53Z</time>
      </trkpt>
      <trkpt lat="48.68861" lon="6.13482">
        <ele>480.6</ele>
        <time>2020-10-03T13:45:54Z</time>
      </trkpt>
      <trkpt lat="48.68862" lon="6.13489">
        <ele>480.4</ele>
        <time>2020-10-03T13:45:55Z</time>
      </trkpt>
      <trkpt lat="48.68862" lon="6.13494">
        <ele>480</ele>
        <time>2020-10-03T13:45:56Z</time>
      </trkpt>
      <trkpt lat="48.68863" lon="6.135">
        <ele>479.4</ele>
        <time>2020-10-03T13:45:57Z</time>
      </trkpt>
      <trkpt lat="48.68863" lon="6.13505">
        <ele>478.8</ele>
        <time>2020-10-03T13:45:58Z</time>
      </trkpt>
      <trkpt lat="48.68865" lon="6.13511">
        <ele>478.2</ele>
        <time>2020-10-03T13:45:59Z</time>
      </trkpt>
      <trkpt lat="48.68866" lon="6.13516">
        <ele>477.6</ele>
        <time>2020-10-03T13:46:00Z</time>
      </trkpt>
      <trkpt lat="48.68866" lon="6.1352">
        <ele>477.2</ele>
        <time>2020-10-03T13:46:01Z</time>
      </trkpt>
      <trkpt lat="48.68867" lon="6.13524">
        <ele>476.8</ele>
        <time>2020-10-03T13:46:02Z</time>
      </trkpt>
      <trkpt lat="48.68868" lon="6.13528">
        <ele>476.2</ele>
        <time>2020-10-03T13:46:03Z</time>
      </trkpt>
      <trkpt lat="48.68869" lon="6.13533">
        <ele>475.8</ele>
        <time>2020-10-03T13:46:04Z</time>
      </trkpt>
      <trkpt lat="48.68871" lon="6.13539">
        <ele>475.6</ele>
        <time>2020-10-03T13:46:05Z</time>
      </trkpt>
      <trkpt lat="48.68872" lon="6.13548">
        <ele>475.4</ele>
        <time>2020-10-03T13:46:06Z</time>
      </trkpt>
      <trkpt lat="48.68873" lon="6.13558">
        <ele>475.2</ele>
        <time>2020-10-03T13:46:07Z</time>
      </trkpt>
      <trkpt lat="48.68873" lon="6.13569">
        <ele>475</ele>
        <time>2020-10-03T13:46:08Z</time>
      </trkpt>
      <trkpt lat="48.68874" lon="6.13581">
        <ele>474.6</ele>
        <time>2020-10-03T13:46:09Z</time>
      </trkpt>
      <trkpt lat="48.68875" lon="6.13593">
        <ele>474</ele>
        <time>2020-10-03T13:46:10Z</time>
      </trkpt>
      <trkpt lat="48.68876" lon="6.13605">
        <ele>473.4</ele>
        <time>2020-10-03T13:46:11Z</time>
      </trkpt>
      <trkpt lat="48.68876" lon="6.13619">
        <ele>472.8</ele>
        <time>2020-10-03T13:46:12Z</time>
      </trkpt>
      <trkpt lat="48.68877" lon="6.13632">
        <ele>472.2</ele>
        <time>2020-10-03T13:46:13Z</time>
      </trkpt>
      <trkpt lat="48.68877" lon="6.13646">
        <ele>471.6</ele>
        <time>2020-10-03T13:46:14Z</time>
      </trkpt>
      <trkpt lat="48.68877" lon="6.13661">
        <ele>470.8</ele>
        <time>2020-10-03T13:46:15Z</time>
      </trkpt>
      <trkpt lat="48.68877" lon="6.13675">
        <ele>470</ele>
        <time>2020-10-03T13:46:16Z</time>
      </trkpt>
      <trkpt lat="48.68876" lon="6.1369">
        <ele>469.2</ele>
        <time>2020-10-03T13:46:17Z</time>
      </trkpt>
      <trkpt lat="48.68875" lon="6.13705">
        <ele>468.4</ele>
        <time>2020-10-03T13:46:18Z</time>
      </trkpt>
      <trkpt lat="48.68873" lon="6.13721">
        <ele>467.6</ele>
        <time>2020-10-03T13:46:19Z</time>
      </trkpt>
      <trkpt lat="48.68871" lon="6.13735">
        <ele>466.8</ele>
        <time>2020-10-03T13:46:20Z</time>
      </trkpt>
      <trkpt lat="48.68869" lon="6.13751">
        <ele>466</ele>
        <time>2020-10-03T13:46:21Z</time>
      </trkpt>
      <trkpt lat="48.68867" lon="6.13766">
        <ele>465.2</ele>
        <time>2020-10-03T13:46:22Z</time>
      </trkpt>
      <trkpt lat="48.68864" lon="6.1378">
        <ele>464.4</ele>
        <time>2020-10-03T13:46:23Z</time>
      </trkpt>
      <trkpt lat="48.68862" lon="6.13795">
        <ele>463.8</ele>
        <time>2020-10-03T13:46:24Z</time>
      </trkpt>
      <trkpt lat="48.68859" lon="6.13809">
        <ele>463</ele>
        <time>2020-10-03T13:46:25Z</time>
      </trkpt>
      <trkpt lat="48.68857" lon="6.13824">
        <ele>462.2</ele>
        <time>2020-10-03T13:46:26Z</time>
      </trkpt>
      <trkpt lat="48.68854" lon="6.13838">
        <ele>461.4</ele>
        <time>2020-10-03T13:46:27Z</time>
      </trkpt>
      <trkpt lat="48.68851" lon="6.13854">
        <ele>460</ele>
        <time>2020-10-03T13:46:28Z</time>
      </trkpt>
      <trkpt lat="48.6885" lon="6.13868">
        <ele>458.6</ele>
        <time>2020-10-03T13:46:29Z</time>
      </trkpt>
      <trkpt lat="48.68848" lon="6.13884">
        <ele>457.2</ele>
        <time>2020-10-03T13:46:30Z</time>
      </trkpt>
      <trkpt lat="48.68846" lon="6.13899">
        <ele>456</ele>
        <time>2020-10-03T13:46:31Z</time>
      </trkpt>
      <trkpt lat="48.68843" lon="6.13915">
        <ele>455.4</ele>
        <time>2020-10-03T13:46:32Z</time>
      </trkpt>
      <trkpt lat="48.68841" lon="6.13931">
        <ele>454.8</ele>
        <time>2020-10-03T13:46:33Z</time>
      </trkpt>
      <trkpt lat="48.68839" lon="6.13946">
        <ele>454.2</ele>
        <time>2020-10-03T13:46:34Z</time>
      </trkpt>
      <trkpt lat="48.68837" lon="6.13961">
        <ele>453.8</ele>
        <time>2020-10-03T13:46:35Z</time>
      </trkpt>
      <trkpt lat="48.68835" lon="6.13976">
        <ele>453.2</ele>
        <time>2020-10-03T13:46:36Z</time>
      </trkpt>
      <trkpt lat="48.68833" lon="6.13992">
        <ele>452.6</ele>
        <time>2020-10-03T13:46:37Z</time>
      </trkpt>
      <trkpt lat="48.68831" lon="6.14007">
        <ele>452.2</ele>
        <time>2020-10-03T13:46:38Z</time>
      </trkpt>
      <trkpt lat="48.68829" lon="6.14021">
        <ele>451.8</ele>
        <time>2020-10-03T13:46:39Z</time>
      </trkpt>
      <trkpt lat="48.68827" lon="6.14036">
        <ele>451.4</ele>
        <time>2020-10-03T13:46:40Z</time>
      </trkpt>
      <trkpt lat="48.68825" lon="6.1405">
        <ele>451.2</ele>
        <time>2020-10-03T13:46:41Z</time>
      </trkpt>
      <trkpt lat="48.68823" lon="6.14065">
        <ele>450.6</ele>
        <time>2020-10-03T13:46:42Z</time>
      </trkpt>
      <trkpt lat="48.68819" lon="6.14081">
        <ele>449.8</ele>
        <time>2020-10-03T13:46:43Z</time>
      </trkpt>
      <trkpt lat="48.68816" lon="6.14096">
        <ele>449.2</ele>
        <time>2020-10-03T13:46:44Z</time>
      </trkpt>
      <trkpt lat="48.68813" lon="6.1411">
        <ele>448.8</ele>
        <time>2020-10-03T13:46:45Z</time>
      </trkpt>
      <trkpt lat="48.68811" lon="6.14123">
        <ele>448.4</ele>
        <time>2020-10-03T13:46:46Z</time>
      </trkpt>
      <trkpt lat="48.68808" lon="6.14136">
        <ele>447.8</ele>
        <time>2020-10-03T13:46:47Z</time>
      </trkpt>
      <trkpt lat="48.68805" lon="6.14149">
        <ele>447.2</ele>
        <time>2020-10-03T13:46:48Z</time>
      </trkpt>
      <trkpt lat="48.68802" lon="6.14161">
        <ele>446.4</ele>
        <time>2020-10-03T13:46:49Z</time>
      </trkpt>
      <trkpt lat="48.68799" lon="6.14173">
        <ele>445.8</ele>
        <time>2020-10-03T13:46:50Z</time>
      </trkpt>
      <trkpt lat="48.68796" lon="6.14184">
        <ele>445.2</ele>
        <time>2020-10-03T13:46:51Z</time>
      </trkpt>
      <trkpt lat="48.68793" lon="6.14196">
        <ele>444.6</ele>
        <time>2020-10-03T13:46:52Z</time>
      </trkpt>
      <trkpt lat="48.68789" lon="6.14207">
        <ele>444</ele>
        <time>2020-10-03T13:46:53Z</time>
      </trkpt>
      <trkpt lat="48.68786" lon="6.14219">
        <ele>443.6</ele>
        <time>2020-10-03T13:46:54Z</time>
      </trkpt>
      <trkpt lat="48.68783" lon="6.14231">
        <ele>443</ele>
        <time>2020-10-03T13:46:55Z</time>
      </trkpt>
      <trkpt lat="48.6878" lon="6.14242">
        <ele>442.2</ele>
        <time>2020-10-03T13:46:56Z</time>
      </trkpt>
      <trkpt lat="48.68777" lon="6.14253">
        <ele>441.4</ele>
        <time>2020-10-03T13:46:57Z</time>
      </trkpt>
      <trkpt lat="48.68775" lon="6.14263">
        <ele>440.8</ele>
        <time>2020-10-03T13:46:58Z</time>
      </trkpt>
      <trkpt lat="48.68772" lon="6.14273">
        <ele>440.4</ele>
        <time>2020-10-03T13:46:59Z</time>
      </trkpt>
      <trkpt lat="48.68771" lon="6.1428">
        <ele>440</ele>
        <time>2020-10-03T13:47:00Z</time>
      </trkpt>
      <trkpt lat="48.68769" lon="6.14286">
        <ele>439.8</ele>
        <time>2020-10-03T13:47:01Z</time>
      </trkpt>
      <trkpt lat="48.68768" lon="6.14293">
        <ele>439.6</ele>
        <time>2020-10-03T13:47:02Z</time>
      </trkpt>
      <trkpt lat="48.68767" lon="6.14299">
        <ele>439.6</ele>
        <time>2020-10-03T13:47:03Z</time>
      </trkpt>
      <trkpt lat="48.68766" lon="6.14305">
        <ele>439.8</ele>
        <time>2020-10-03T13:47:04Z</time>
      </trkpt>
      <trkpt lat="48.68765" lon="6.14312">
        <ele>440</ele>
        <time>2020-10-03T13:47:05Z</time>
      </trkpt>
      <trkpt lat="48.68763" lon="6.14319">
        <ele>440.4</ele>
        <time>2020-10-03T13:47:06Z</time>
      </trkpt>
      <trkpt lat="48.68762" lon="6.14326">
        <ele>440.4</ele>
        <time>2020-10-03T13:47:07Z</time>
      </trkpt>
      <trkpt lat="48.6876" lon="6.14334">
        <ele>440.4</ele>
        <time>2020-10-03T13:47:08Z</time>
      </trkpt>
      <trkpt lat="48.68759" lon="6.14342">
        <ele>440</ele>
        <time>2020-10-03T13:47:09Z</time>
      </trkpt>
      <trkpt lat="48.68757" lon="6.1435">
        <ele>439.8</ele>
        <time>2020-10-03T13:47:10Z</time>
      </trkpt>
      <trkpt lat="48.68756" lon="6.14357">
        <ele>439.6</ele>
        <time>2020-10-03T13:47:11Z</time>
      </trkpt>
      <trkpt lat="48.68755" lon="6.14365">
        <ele>439.6</ele>
        <time>2020-10-03T13:47:12Z</time>
      </trkpt>
      <trkpt lat="48.68754" lon="6.14372">
        <ele>439.6</ele>
        <time>2020-10-03T13:47:13Z</time>
      </trkpt>
      <trkpt lat="48.68753" lon="6.14379">
        <ele>439.6</ele>
        <time>2020-10-03T13:47:14Z</time>
      </trkpt>
      <trkpt lat="48.68752" lon="6.14387">
        <ele>439.4</ele>
        <time>2020-10-03T13:47:15Z</time>
      </trkpt>
      <trkpt lat="48.68751" lon="6.14395">
        <ele>439.4</ele>
        <time>2020-10-03T13:47:16Z</time>
      </trkpt>
      <trkpt lat="48.6875" lon="6.14403">
        <ele>439.4</ele>
        <time>2020-10-03T13:47:17Z</time>
      </trkpt>
      <trkpt lat="48.68749" lon="6.14413">
        <ele>439.4</ele>
        <time>2020-10-03T13:47:18Z</time>
      </trkpt>
      <trkpt lat="48.68748" lon="6.14422">
        <ele>439.4</ele>
        <time>2020-10-03T13:47:19Z</time>
      </trkpt>
      <trkpt lat="48.68748" lon="6.14431">
        <ele>439.4</ele>
        <time>2020-10-03T13:47:20Z</time>
      </trkpt>
      <trkpt lat="48.68748" lon="6.14439">
        <ele>439.2</ele>
        <time>2020-10-03T13:47:21Z</time>
      </trkpt>
      <trkpt lat="48.68748" lon="6.14448">
        <ele>439</ele>
        <time>2020-10-03T13:47:22Z</time>
      </trkpt>
      <trkpt lat="48.68748" lon="6.14456">
        <ele>438.8</ele>
        <time>2020-10-03T13:47:23Z</time>
      </trkpt>
      <trkpt lat="48.68748" lon="6.14465">
        <ele>438.8</ele>
        <time>2020-10-03T13:47:24Z</time>
      </trkpt>
      <trkpt lat="48.68747" lon="6.14474">
        <ele>438.8</ele>
        <time>2020-10-03T13:47:25Z</time>
      </trkpt>
      <trkpt lat="48.68748" lon="6.14483">
        <ele>439</ele>
        <time>2020-10-03T13:47:26Z</time>
      </trkpt>
      <trkpt lat="48.68748" lon="6.14492">
        <ele>439</ele>
        <time>2020-10-03T13:47:27Z</time>
      </trkpt>
      <trkpt lat="48.68748" lon="6.14501">
        <ele>439</ele>
        <time>2020-10-03T13:47:28Z</time>
      </trkpt>
      <trkpt lat="48.68749" lon="6.14509">
        <ele>438.8</ele>
        <time>2020-10-03T13:47:29Z</time>
      </trkpt>
      <trkpt lat="48.68749" lon="6.14517">
        <ele>438.6</ele>
        <time>2020-10-03T13:47:30Z</time>
      </trkpt>
      <trkpt lat="48.6875" lon="6.14526">
        <ele>438.4</ele>
        <time>2020-10-03T13:47:31Z</time>
      </trkpt>
      <trkpt lat="48.68751" lon="6.14534">
        <ele>438.2</ele>
        <time>2020-10-03T13:47:32Z</time>
      </trkpt>
      <trkpt lat="48.68752" lon="6.14542">
        <ele>438.2</ele>
        <time>2020-10-03T13:47:33Z</time>
      </trkpt>
      <trkpt lat="48.68753" lon="6.1455">
        <ele>438.2</ele>
        <time>2020-10-03T13:47:34Z</time>
      </trkpt>
      <trkpt lat="48.68753" lon="6.14557">
        <ele>438.2</ele>
        <time>2020-10-03T13:47:35Z</time>
      </trkpt>
      <trkpt lat="48.68754" lon="6.14565">
        <ele>438.2</ele>
        <time>2020-10-03T13:47:36Z</time>
      </trkpt>
      <trkpt lat="48.68755" lon="6.14573">
        <ele>438.2</ele>
        <time>2020-10-03T13:47:37Z</time>
      </trkpt>
      <trkpt lat="48.68755" lon="6.1458">
        <ele>438.2</ele>
        <time>2020-10-03T13:47:38Z</time>
      </trkpt>
      <trkpt lat="48.68756" lon="6.14587">
        <ele>438.2</ele>
        <time>2020-10-03T13:47:39Z</time>
      </trkpt>
      <trkpt lat="48.68757" lon="6.14595">
        <ele>438.4</ele>
        <time>2020-10-03T13:47:40Z</time>
      </trkpt>
      <trkpt lat="48.68758" lon="6.14602">
        <ele>438.6</ele>
        <time>2020-10-03T13:47:41Z</time>
      </trkpt>
      <trkpt lat="48.68759" lon="6.1461">
        <ele>438.6</ele>
        <time>2020-10-03T13:47:42Z</time>
      </trkpt>
      <trkpt lat="48.6876" lon="6.14618">
        <ele>438.6</ele>
        <time>2020-10-03T13:47:43Z</time>
      </trkpt>
      <trkpt lat="48.68761" lon="6.14625">
        <ele>438.6</ele>
        <time>2020-10-03T13:47:44Z</time>
      </trkpt>
      <trkpt lat="48.68762" lon="6.14633">
        <ele>438.4</ele>
        <time>2020-10-03T13:47:45Z</time>
      </trkpt>
      <trkpt lat="48.68763" lon="6.14641">
        <ele>438.4</ele>
        <time>2020-10-03T13:47:46Z</time>
      </trkpt>
      <trkpt lat="48.68764" lon="6.14649">
        <ele>438.4</ele>
        <time>2020-10-03T13:47:47Z</time>
      </trkpt>
      <trkpt lat="48.68765" lon="6.14658">
        <ele>438.2</ele>
        <time>2020-10-03T13:47:48Z</time>
      </trkpt>
      <trkpt lat="48.68767" lon="6.14666">
        <ele>438.2</ele>
        <time>2020-10-03T13:47:49Z</time>
      </trkpt>
      <trkpt lat="48.68768" lon="6.14675">
        <ele>438.2</ele>
        <time>2020-10-03T13:47:50Z</time>
      </trkpt>
      <trkpt lat="48.6877" lon="6.14684">
        <ele>437.8</ele>
        <time>2020-10-03T13:47:51Z</time>
      </trkpt>
      <trkpt lat="48.68771" lon="6.14693">
        <ele>437.6</ele>
        <time>2020-10-03T13:47:52Z</time>
      </trkpt>
      <trkpt lat="48.68772" lon="6.14703">
        <ele>437.4</ele>
        <time>2020-10-03T13:47:53Z</time>
      </trkpt>
      <trkpt lat="48.68774" lon="6.14712">
        <ele>437.4</ele>
        <time>2020-10-03T13:47:54Z</time>
      </trkpt>
      <trkpt lat="48.68775" lon="6.14721">
        <ele>437.2</ele>
        <time>2020-10-03T13:47:55Z</time>
      </trkpt>
      <trkpt lat="48.68777" lon="6.14731">
        <ele>437.2</ele>
        <time>2020-10-03T13:47:56Z</time>
      </trkpt>
      <trkpt lat="48.68778" lon="6.14741">
        <ele>437</ele>
        <time>2020-10-03T13:47:57Z</time>
      </trkpt>
      <trkpt lat="48.6878" lon="6.14751">
        <ele>437</ele>
        <time>2020-10-03T13:47:58Z</time>
      </trkpt>
      <trkpt lat="48.68781" lon="6.1476">
        <ele>436.6</ele>
        <time>2020-10-03T13:47:59Z</time>
      </trkpt>
      <trkpt lat="48.68783" lon="6.14769">
        <ele>436.4</ele>
        <time>2020-10-03T13:48:00Z</time>
      </trkpt>
      <trkpt lat="48.68785" lon="6.14778">
        <ele>436.4</ele>
        <time>2020-10-03T13:48:01Z</time>
      </trkpt>
      <trkpt lat="48.68788" lon="6.14785">
        <ele>436.4</ele>
        <time>2020-10-03T13:48:02Z</time>
      </trkpt>
      <trkpt lat="48.68789" lon="6.14796">
        <ele>436.4</ele>
        <time>2020-10-03T13:48:03Z</time>
      </trkpt>
      <trkpt lat="48.68791" lon="6.14804">
        <ele>436.4</ele>
        <time>2020-10-03T13:48:04Z</time>
      </trkpt>
      <trkpt lat="48.68792" lon="6.14813">
        <ele>436.4</ele>
        <time>2020-10-03T13:48:05Z</time>
      </trkpt>
      <trkpt lat="48.68793" lon="6.14823">
        <ele>436.6</ele>
        <time>2020-10-03T13:48:06Z</time>
      </trkpt>
      <trkpt lat="48.68794" lon="6.14832">
        <ele>436.4</ele>
        <time>2020-10-03T13:48:07Z</time>
      </trkpt>
      <trkpt lat="48.68796" lon="6.14839">
        <ele>436.2</ele>
        <time>2020-10-03T13:48:08Z</time>
      </trkpt>
      <trkpt lat="48.68798" lon="6.14848">
        <ele>436</ele>
        <time>2020-10-03T13:48:09Z</time>
      </trkpt>
      <trkpt lat="48.688" lon="6.14857">
        <ele>435.8</ele>
        <time>2020-10-03T13:48:10Z</time>
      </trkpt>
      <trkpt lat="48.68802" lon="6.14865">
        <ele>435.8</ele>
        <time>2020-10-03T13:48:11Z</time>
      </trkpt>
      <trkpt lat="48.68804" lon="6.14872">
        <ele>436</ele>
        <time>2020-10-03T13:48:12Z</time>
      </trkpt>
      <trkpt lat="48.68807" lon="6.14878">
        <ele>436.2</ele>
        <time>2020-10-03T13:48:13Z</time>
      </trkpt>
      <trkpt lat="48.68808" lon="6.14886">
        <ele>436.2</ele>
        <time>2020-10-03T13:48:14Z</time>
      </trkpt>
      <trkpt lat="48.68808" lon="6.14894">
        <ele>436.2</ele>
        <time>2020-10-03T13:48:15Z</time>
      </trkpt>
      <trkpt lat="48.6881" lon="6.14902">
        <ele>436.4</ele>
        <time>2020-10-03T13:48:16Z</time>
      </trkpt>
      <trkpt lat="48.68812" lon="6.1491">
        <ele>436.4</ele>
        <time>2020-10-03T13:48:17Z</time>
      </trkpt>
      <trkpt lat="48.68814" lon="6.14917">
        <ele>436.2</ele>
        <time>2020-10-03T13:48:18Z</time>
      </trkpt>
      <trkpt lat="48.68814" lon="6.14926">
        <ele>436.2</ele>
        <time>2020-10-03T13:48:19Z</time>
      </trkpt>
      <trkpt lat="48.68816" lon="6.14935">
        <ele>436</ele>
        <time>2020-10-03T13:48:20Z</time>
      </trkpt>
      <trkpt lat="48.68817" lon="6.14943">
        <ele>436</ele>
        <time>2020-10-03T13:48:21Z</time>
      </trkpt>
      <trkpt lat="48.6882" lon="6.14952">
        <ele>435.8</ele>
        <time>2020-10-03T13:48:22Z</time>
      </trkpt>
      <trkpt lat="48.68822" lon="6.14961">
        <ele>435.6</ele>
        <time>2020-10-03T13:48:23Z</time>
      </trkpt>
      <trkpt lat="48.68824" lon="6.14969">
        <ele>435.6</ele>
        <time>2020-10-03T13:48:24Z</time>
      </trkpt>
      <trkpt lat="48.68826" lon="6.14978">
        <ele>435.4</ele>
        <time>2020-10-03T13:48:25Z</time>
      </trkpt>
      <trkpt lat="48.68829" lon="6.14987">
        <ele>435.4</ele>
        <time>2020-10-03T13:48:26Z</time>
      </trkpt>
      <trkpt lat="48.68831" lon="6.14996">
        <ele>435.6</ele>
        <time>2020-10-03T13:48:27Z</time>
      </trkpt>
      <trkpt lat="48.68833" lon="6.15005">
        <ele>435.8</ele>
        <time>2020-10-03T13:48:28Z</time>
      </trkpt>
      <trkpt lat="48.68835" lon="6.15014">
        <ele>435.6</ele>
        <time>2020-10-03T13:48:29Z</time>
      </trkpt>
      <trkpt lat="48.68837" lon="6.15022">
        <ele>435.4</ele>
        <time>2020-10-03T13:48:30Z</time>
      </trkpt>
      <trkpt lat="48.68839" lon="6.15029">
        <ele>435</ele>
        <time>2020-10-03T13:48:31Z</time>
      </trkpt>
      <trkpt lat="48.68841" lon="6.15037">
        <ele>434.8</ele>
        <time>2020-10-03T13:48:32Z</time>
      </trkpt>
      <trkpt lat="48.68843" lon="6.15044">
        <ele>434.8</ele>
        <time>2020-10-03T13:48:33Z</time>
      </trkpt>
      <trkpt lat="48.68845" lon="6.15052">
        <ele>434.6</ele>
        <time>2020-10-03T13:48:34Z</time>
      </trkpt>
      <trkpt lat="48.68847" lon="6.15061">
        <ele>434.4</ele>
        <time>2020-10-03T13:48:35Z</time>
      </trkpt>
      <trkpt lat="48.6885" lon="6.15069">
        <ele>434</ele>
        <time>2020-10-03T13:48:36Z</time>
      </trkpt>
      <trkpt lat="48.68851" lon="6.15078">
        <ele>433.6</ele>
        <time>2020-10-03T13:48:37Z</time>
      </trkpt>
      <trkpt lat="48.68854" lon="6.15086">
        <ele>433.2</ele>
        <time>2020-10-03T13:48:38Z</time>
      </trkpt>
      <trkpt lat="48.68856" lon="6.15095">
        <ele>432.8</ele>
        <time>2020-10-03T13:48:39Z</time>
      </trkpt>
      <trkpt lat="48.68861" lon="6.15103">
        <ele>432.6</ele>
        <time>2020-10-03T13:48:40Z</time>
      </trkpt>
      <trkpt lat="48.68864" lon="6.15111">
        <ele>432.2</ele>
        <time>2020-10-03T13:48:41Z</time>
      </trkpt>
      <trkpt lat="48.68867" lon="6.15118">
        <ele>431.8</ele>
        <time>2020-10-03T13:48:42Z</time>
      </trkpt>
      <trkpt lat="48.6887" lon="6.15124">
        <ele>431.2</ele>
        <time>2020-10-03T13:48:43Z</time>
      </trkpt>
      <trkpt lat="48.68872" lon="6.15128">
        <ele>430.8</ele>
        <time>2020-10-03T13:48:44Z</time>
      </trkpt>
      <trkpt lat="48.68873" lon="6.15132">
        <ele>430.2</ele>
        <time>2020-10-03T13:48:45Z</time>
      </trkpt>
      <trkpt lat="48.68875" lon="6.15135">
        <ele>429.6</ele>
        <time>2020-10-03T13:48:46Z</time>
      </trkpt>
      <trkpt lat="48.68876" lon="6.15137">
        <ele>429.2</ele>
        <time>2020-10-03T13:48:47Z</time>
      </trkpt>
      <trkpt lat="48.68876" lon="6.15138">
        <ele>428.8</ele>
        <time>2020-10-03T13:48:48Z</time>
      </trkpt>
      <trkpt lat="48.68876" lon="6.15141">
        <ele>428.4</ele>
        <time>2020-10-03T13:48:49Z</time>
      </trkpt>
      <trkpt lat="48.68874" lon="6.15143">
        <ele>428.4</ele>
        <time>2020-10-03T13:48:50Z</time>
      </trkpt>
      <trkpt lat="48.68874" lon="6.15143">
        <ele>428.4</ele>
        <time>2020-10-03T13:48:51Z</time>
      </trkpt>
      <trkpt lat="48.68874" lon="6.15144">
        <ele>428.4</ele>
        <time>2020-10-03T13:48:52Z</time>
      </trkpt>
      <trkpt lat="48.68874" lon="6.15144">
        <ele>428.2</ele>
        <time>2020-10-03T13:48:53Z</time>
      </trkpt>
      <trkpt lat="48.68874" lon="6.15144">
        <ele>428.2</ele>
        <time>2020-10-03T13:48:54Z</time>
      </trkpt>
      <trkpt lat="48.68874" lon="6.15144">
        <ele>428.2</ele>
        <time>2020-10-03T13:48:55Z</time>
      </trkpt>
    </trkseg>
  </trk>
</gpx>